<?xml version="1.0" encoding="utf-8"?>
<gpx xmlns:xsi="http://www.w3.org/2001/XMLSchema-instance" xmlns:xsd="http://www.w3.org/2001/XMLSchema" version="1.1" creator="Shapelink.com" xmlns="http://www.topografix.com/GPX/1/1" xmlns:gpxtpx="http://www.garmin.com/xmlschemas/TrackPointExtension/v1">
  <metadata>
    <name>Sykling 33.00 km, 2017-10-21</name>
    <desc></desc>
    <author><name>Jörgen Larsson</name></author> 
    <time>2017-10-21T09:40:20Z</time>
  </metadata>
  <trk>
    <name>Sykling 33.00 km, 2017-10-21</name>
    <trkseg>
      <trkpt lat="59.204600729273" lon="17.753989134799">
        <ele>49</ele>
        <time>2017-10-21T09:40:20Z</time>
      </trkpt>
      <trkpt lat="59.204639621289" lon="17.753981674908">
        <ele>49</ele>
        <time>2017-10-21T09:40:21Z</time>
      </trkpt>
      <trkpt lat="59.204685135006" lon="17.753969437334">
        <ele>48.8</ele>
        <time>2017-10-21T09:40:22Z</time>
      </trkpt>
      <trkpt lat="59.204732828017" lon="17.753966000755">
        <ele>48.8</ele>
        <time>2017-10-21T09:40:23Z</time>
      </trkpt>
      <trkpt lat="59.204782113589" lon="17.753991733188">
        <ele>48.8</ele>
        <time>2017-10-21T09:40:24Z</time>
      </trkpt>
      <trkpt lat="59.204857550689" lon="17.75415165984">
        <ele>48.6</ele>
        <time>2017-10-21T09:40:26Z</time>
      </trkpt>
      <trkpt lat="59.204868530978" lon="17.75436288372">
        <ele>48.4</ele>
        <time>2017-10-21T09:40:28Z</time>
      </trkpt>
      <trkpt lat="59.204861154906" lon="17.754603779526">
        <ele>47.6</ele>
        <time>2017-10-21T09:40:30Z</time>
      </trkpt>
      <trkpt lat="59.204863669476" lon="17.754874263439">
        <ele>45.8</ele>
        <time>2017-10-21T09:40:32Z</time>
      </trkpt>
      <trkpt lat="59.204878840715" lon="17.755148519207">
        <ele>44.8</ele>
        <time>2017-10-21T09:40:34Z</time>
      </trkpt>
      <trkpt lat="59.204901807121" lon="17.755393103049">
        <ele>44</ele>
        <time>2017-10-21T09:40:36Z</time>
      </trkpt>
      <trkpt lat="59.204917648912" lon="17.755493350573">
        <ele>43.6</ele>
        <time>2017-10-21T09:40:37Z</time>
      </trkpt>
      <trkpt lat="59.204942878431" lon="17.755575828469">
        <ele>43.2</ele>
        <time>2017-10-21T09:40:38Z</time>
      </trkpt>
      <trkpt lat="59.205031894209" lon="17.75566710736">
        <ele>42.2</ele>
        <time>2017-10-21T09:40:40Z</time>
      </trkpt>
      <trkpt lat="59.20516005346" lon="17.7556637546">
        <ele>41.8</ele>
        <time>2017-10-21T09:40:42Z</time>
      </trkpt>
      <trkpt lat="59.205296929887" lon="17.755583036903">
        <ele>41.4</ele>
        <time>2017-10-21T09:40:44Z</time>
      </trkpt>
      <trkpt lat="59.205443277861" lon="17.755486645053">
        <ele>41.2</ele>
        <time>2017-10-21T09:40:46Z</time>
      </trkpt>
      <trkpt lat="59.205604042703" lon="17.755391678126">
        <ele>41</ele>
        <time>2017-10-21T09:40:48Z</time>
      </trkpt>
      <trkpt lat="59.205773273264" lon="17.755290173317">
        <ele>40.4</ele>
        <time>2017-10-21T09:40:50Z</time>
      </trkpt>
      <trkpt lat="59.205860612662" lon="17.755234685139">
        <ele>40</ele>
        <time>2017-10-21T09:40:51Z</time>
      </trkpt>
      <trkpt lat="59.205948957888" lon="17.755175676563">
        <ele>39.4</ele>
        <time>2017-10-21T09:40:52Z</time>
      </trkpt>
      <trkpt lat="59.206128917281" lon="17.755049612787">
        <ele>39</ele>
        <time>2017-10-21T09:40:54Z</time>
      </trkpt>
      <trkpt lat="59.206221118181" lon="17.754983060501">
        <ele>38.6</ele>
        <time>2017-10-21T09:40:55Z</time>
      </trkpt>
      <trkpt lat="59.206317845307" lon="17.754917178767">
        <ele>38.2</ele>
        <time>2017-10-21T09:40:56Z</time>
      </trkpt>
      <trkpt lat="59.206521609296" lon="17.754790025344">
        <ele>37.6</ele>
        <time>2017-10-21T09:40:58Z</time>
      </trkpt>
      <trkpt lat="59.206740544524" lon="17.754661363179">
        <ele>36.4</ele>
        <time>2017-10-21T09:41:00Z</time>
      </trkpt>
      <trkpt lat="59.206853616355" lon="17.754601432594">
        <ele>35</ele>
        <time>2017-10-21T09:41:01Z</time>
      </trkpt>
      <trkpt lat="59.206967777833" lon="17.754539825629">
        <ele>34.2</ele>
        <time>2017-10-21T09:41:02Z</time>
      </trkpt>
      <trkpt lat="59.207082274587" lon="17.754474949723">
        <ele>33.2</ele>
        <time>2017-10-21T09:41:03Z</time>
      </trkpt>
      <trkpt lat="59.207194675866" lon="17.75440730779">
        <ele>32.4</ele>
        <time>2017-10-21T09:41:04Z</time>
      </trkpt>
      <trkpt lat="59.207307244783" lon="17.754339079124">
        <ele>31.4</ele>
        <time>2017-10-21T09:41:05Z</time>
      </trkpt>
      <trkpt lat="59.207422160632" lon="17.754272610657">
        <ele>30.6</ele>
        <time>2017-10-21T09:41:06Z</time>
      </trkpt>
      <trkpt lat="59.207538249947" lon="17.754206309828">
        <ele>30</ele>
        <time>2017-10-21T09:41:07Z</time>
      </trkpt>
      <trkpt lat="59.207655596547" lon="17.75413992518">
        <ele>29</ele>
        <time>2017-10-21T09:41:08Z</time>
      </trkpt>
      <trkpt lat="59.20777269169" lon="17.754072115609">
        <ele>28</ele>
        <time>2017-10-21T09:41:09Z</time>
      </trkpt>
      <trkpt lat="59.207891127937" lon="17.754005228047">
        <ele>27</ele>
        <time>2017-10-21T09:41:10Z</time>
      </trkpt>
      <trkpt lat="59.208010905288" lon="17.75394043596">
        <ele>25.4</ele>
        <time>2017-10-21T09:41:11Z</time>
      </trkpt>
      <trkpt lat="59.208130682639" lon="17.75387589533">
        <ele>24.6</ele>
        <time>2017-10-21T09:41:12Z</time>
      </trkpt>
      <trkpt lat="59.208250040895" lon="17.753815210374">
        <ele>23.8</ele>
        <time>2017-10-21T09:41:13Z</time>
      </trkpt>
      <trkpt lat="59.208366884581" lon="17.753758464911">
        <ele>23.4</ele>
        <time>2017-10-21T09:41:14Z</time>
      </trkpt>
      <trkpt lat="59.208484650276" lon="17.753710017529">
        <ele>22.6</ele>
        <time>2017-10-21T09:41:15Z</time>
      </trkpt>
      <trkpt lat="59.208601745419" lon="17.753667940391">
        <ele>21.8</ele>
        <time>2017-10-21T09:41:16Z</time>
      </trkpt>
      <trkpt lat="59.208717918553" lon="17.75363449661">
        <ele>21</ele>
        <time>2017-10-21T09:41:17Z</time>
      </trkpt>
      <trkpt lat="59.208833672592" lon="17.753607255435">
        <ele>20.4</ele>
        <time>2017-10-21T09:41:18Z</time>
      </trkpt>
      <trkpt lat="59.20894615769" lon="17.753584289029">
        <ele>20</ele>
        <time>2017-10-21T09:41:19Z</time>
      </trkpt>
      <trkpt lat="59.209054787114" lon="17.753566016487">
        <ele>19.4</ele>
        <time>2017-10-21T09:41:20Z</time>
      </trkpt>
      <trkpt lat="59.209259724569" lon="17.753523436435">
        <ele>19.2</ele>
        <time>2017-10-21T09:41:22Z</time>
      </trkpt>
      <trkpt lat="59.209449658423" lon="17.75344506567">
        <ele>19</ele>
        <time>2017-10-21T09:41:24Z</time>
      </trkpt>
      <trkpt lat="59.209617464061" lon="17.753285725751">
        <ele>19</ele>
        <time>2017-10-21T09:41:26Z</time>
      </trkpt>
      <trkpt lat="59.209751490642" lon="17.753104173797">
        <ele>19</ele>
        <time>2017-10-21T09:41:28Z</time>
      </trkpt>
      <trkpt lat="59.209850397062" lon="17.75294047529">
        <ele>19.6</ele>
        <time>2017-10-21T09:41:30Z</time>
      </trkpt>
      <trkpt lat="59.209877135323" lon="17.752767305236">
        <ele>20.2</ele>
        <time>2017-10-21T09:41:32Z</time>
      </trkpt>
      <trkpt lat="59.209823407344" lon="17.752661860934">
        <ele>20.6</ele>
        <time>2017-10-21T09:41:34Z</time>
      </trkpt>
      <trkpt lat="59.209799099834" lon="17.752620873443">
        <ele>20.8</ele>
        <time>2017-10-21T09:41:35Z</time>
      </trkpt>
      <trkpt lat="59.209778815636" lon="17.752576030278">
        <ele>21.2</ele>
        <time>2017-10-21T09:41:36Z</time>
      </trkpt>
      <trkpt lat="59.209735900308" lon="17.75248366174">
        <ele>22.2</ele>
        <time>2017-10-21T09:41:38Z</time>
      </trkpt>
      <trkpt lat="59.209680244492" lon="17.752359358163">
        <ele>23</ele>
        <time>2017-10-21T09:41:40Z</time>
      </trkpt>
      <trkpt lat="59.209612434921" lon="17.752206388488">
        <ele>23.2</ele>
        <time>2017-10-21T09:41:42Z</time>
      </trkpt>
      <trkpt lat="59.209539763848" lon="17.752049311682">
        <ele>23.2</ele>
        <time>2017-10-21T09:41:44Z</time>
      </trkpt>
      <trkpt lat="59.209538590382" lon="17.751838506897">
        <ele>23.2</ele>
        <time>2017-10-21T09:41:46Z</time>
      </trkpt>
      <trkpt lat="59.209567675575" lon="17.75162284061">
        <ele>23.2</ele>
        <time>2017-10-21T09:41:48Z</time>
      </trkpt>
      <trkpt lat="59.209614278939" lon="17.751401139355">
        <ele>23.2</ele>
        <time>2017-10-21T09:41:50Z</time>
      </trkpt>
      <trkpt lat="59.209660211751" lon="17.751166194698">
        <ele>23</ele>
        <time>2017-10-21T09:41:52Z</time>
      </trkpt>
      <trkpt lat="59.209709329685" lon="17.750928651652">
        <ele>23</ele>
        <time>2017-10-21T09:41:54Z</time>
      </trkpt>
      <trkpt lat="59.20975333466" lon="17.750692282072">
        <ele>23</ele>
        <time>2017-10-21T09:41:56Z</time>
      </trkpt>
      <trkpt lat="59.209796417626" lon="17.75045524194">
        <ele>23</ele>
        <time>2017-10-21T09:41:58Z</time>
      </trkpt>
      <trkpt lat="59.209836902203" lon="17.750219626731">
        <ele>23</ele>
        <time>2017-10-21T09:42:00Z</time>
      </trkpt>
      <trkpt lat="59.209879985169" lon="17.749990717042">
        <ele>23</ele>
        <time>2017-10-21T09:42:02Z</time>
      </trkpt>
      <trkpt lat="59.209914770054" lon="17.749753844548">
        <ele>23.2</ele>
        <time>2017-10-21T09:42:04Z</time>
      </trkpt>
      <trkpt lat="59.209930611845" lon="17.749628954238">
        <ele>23.4</ele>
        <time>2017-10-21T09:42:05Z</time>
      </trkpt>
      <trkpt lat="59.209945866903" lon="17.749502471367">
        <ele>23.4</ele>
        <time>2017-10-21T09:42:06Z</time>
      </trkpt>
      <trkpt lat="59.209976544657" lon="17.749242464829">
        <ele>23.8</ele>
        <time>2017-10-21T09:42:08Z</time>
      </trkpt>
      <trkpt lat="59.210000265434" lon="17.748972232373">
        <ele>24</ele>
        <time>2017-10-21T09:42:10Z</time>
      </trkpt>
      <trkpt lat="59.210023064202" lon="17.748686996316">
        <ele>24</ele>
        <time>2017-10-21T09:42:12Z</time>
      </trkpt>
      <trkpt lat="59.210037229613" lon="17.748383655355">
        <ele>24</ele>
        <time>2017-10-21T09:42:14Z</time>
      </trkpt>
      <trkpt lat="59.210038654536" lon="17.748075452892">
        <ele>24</ele>
        <time>2017-10-21T09:42:16Z</time>
      </trkpt>
      <trkpt lat="59.210037229613" lon="17.747759119986">
        <ele>23.8</ele>
        <time>2017-10-21T09:42:18Z</time>
      </trkpt>
      <trkpt lat="59.210030356455" lon="17.747438763768">
        <ele>23.4</ele>
        <time>2017-10-21T09:42:20Z</time>
      </trkpt>
      <trkpt lat="59.210024237668" lon="17.747119832473">
        <ele>22.6</ele>
        <time>2017-10-21T09:42:22Z</time>
      </trkpt>
      <trkpt lat="59.210018621795" lon="17.746800146807">
        <ele>22</ele>
        <time>2017-10-21T09:42:24Z</time>
      </trkpt>
      <trkpt lat="59.210013089741" lon="17.746487501937">
        <ele>21.4</ele>
        <time>2017-10-21T09:42:26Z</time>
      </trkpt>
      <trkpt lat="59.210006551859" lon="17.746176030533">
        <ele>21</ele>
        <time>2017-10-21T09:42:28Z</time>
      </trkpt>
      <trkpt lat="59.210000097796" lon="17.745868247165">
        <ele>20.8</ele>
        <time>2017-10-21T09:42:30Z</time>
      </trkpt>
      <trkpt lat="59.209991464439" lon="17.745572030819">
        <ele>20.6</ele>
        <time>2017-10-21T09:42:32Z</time>
      </trkpt>
      <trkpt lat="59.209980735607" lon="17.745291907721">
        <ele>20.6</ele>
        <time>2017-10-21T09:42:34Z</time>
      </trkpt>
      <trkpt lat="59.209966486377" lon="17.745032320278">
        <ele>20.8</ele>
        <time>2017-10-21T09:42:36Z</time>
      </trkpt>
      <trkpt lat="59.209960535228" lon="17.744775498862">
        <ele>21</ele>
        <time>2017-10-21T09:42:38Z</time>
      </trkpt>
      <trkpt lat="59.209988614593" lon="17.744507613338">
        <ele>21</ele>
        <time>2017-10-21T09:42:40Z</time>
      </trkpt>
      <trkpt lat="59.210034295948" lon="17.744245678963">
        <ele>21.4</ele>
        <time>2017-10-21T09:42:42Z</time>
      </trkpt>
      <trkpt lat="59.210090203221" lon="17.743992629402">
        <ele>21.6</ele>
        <time>2017-10-21T09:42:44Z</time>
      </trkpt>
      <trkpt lat="59.210121886803" lon="17.743868493463">
        <ele>21.8</ele>
        <time>2017-10-21T09:42:45Z</time>
      </trkpt>
      <trkpt lat="59.2101523131" lon="17.743744860438">
        <ele>22</ele>
        <time>2017-10-21T09:42:46Z</time>
      </trkpt>
      <trkpt lat="59.210210399667" lon="17.743499606044">
        <ele>22.2</ele>
        <time>2017-10-21T09:42:48Z</time>
      </trkpt>
      <trkpt lat="59.210231857331" lon="17.743373961363">
        <ele>22.2</ele>
        <time>2017-10-21T09:42:49Z</time>
      </trkpt>
      <trkpt lat="59.210242502344" lon="17.743245885931">
        <ele>22.2</ele>
        <time>2017-10-21T09:42:50Z</time>
      </trkpt>
      <trkpt lat="59.21023277934" lon="17.742982610452">
        <ele>22.2</ele>
        <time>2017-10-21T09:42:52Z</time>
      </trkpt>
      <trkpt lat="59.210195731342" lon="17.74272042462">
        <ele>22.2</ele>
        <time>2017-10-21T09:42:54Z</time>
      </trkpt>
      <trkpt lat="59.210150385263" lon="17.742464357575">
        <ele>22.2</ele>
        <time>2017-10-21T09:42:56Z</time>
      </trkpt>
      <trkpt lat="59.210103362804" lon="17.742212397661">
        <ele>22.2</ele>
        <time>2017-10-21T09:42:58Z</time>
      </trkpt>
      <trkpt lat="59.210059357829" lon="17.741956917349">
        <ele>22.2</ele>
        <time>2017-10-21T09:43:00Z</time>
      </trkpt>
      <trkpt lat="59.210020381994" lon="17.741695653526">
        <ele>22.4</ele>
        <time>2017-10-21T09:43:02Z</time>
      </trkpt>
      <trkpt lat="59.210000181615" lon="17.741427768002">
        <ele>22.4</ele>
        <time>2017-10-21T09:43:04Z</time>
      </trkpt>
      <trkpt lat="59.21001987908" lon="17.741151835854">
        <ele>22.4</ele>
        <time>2017-10-21T09:43:06Z</time>
      </trkpt>
      <trkpt lat="59.210088778298" lon="17.7409032287">
        <ele>22.4</ele>
        <time>2017-10-21T09:43:08Z</time>
      </trkpt>
      <trkpt lat="59.210194054962" lon="17.740705751136">
        <ele>22.4</ele>
        <time>2017-10-21T09:43:10Z</time>
      </trkpt>
      <trkpt lat="59.210251387158" lon="17.74061992048">
        <ele>22.4</ele>
        <time>2017-10-21T09:43:11Z</time>
      </trkpt>
      <trkpt lat="59.210309809001" lon="17.740537023489">
        <ele>22.4</ele>
        <time>2017-10-21T09:43:12Z</time>
      </trkpt>
      <trkpt lat="59.210423802841" lon="17.740366284186">
        <ele>22.2</ele>
        <time>2017-10-21T09:43:14Z</time>
      </trkpt>
      <trkpt lat="59.210522960718" lon="17.740173668124">
        <ele>22.2</ele>
        <time>2017-10-21T09:43:16Z</time>
      </trkpt>
      <trkpt lat="59.21059571561" lon="17.739949787575">
        <ele>22.2</ele>
        <time>2017-10-21T09:43:18Z</time>
      </trkpt>
      <trkpt lat="59.210645504096" lon="17.739708891769">
        <ele>22.2</ele>
        <time>2017-10-21T09:43:20Z</time>
      </trkpt>
      <trkpt lat="59.210662603172" lon="17.739586599848">
        <ele>22.2</ele>
        <time>2017-10-21T09:43:21Z</time>
      </trkpt>
      <trkpt lat="59.210676517126" lon="17.739466906316">
        <ele>22.2</ele>
        <time>2017-10-21T09:43:22Z</time>
      </trkpt>
      <trkpt lat="59.210697807152" lon="17.739224669406">
        <ele>22.2</ele>
        <time>2017-10-21T09:43:24Z</time>
      </trkpt>
      <trkpt lat="59.210713313667" lon="17.738975056424">
        <ele>22.2</ele>
        <time>2017-10-21T09:43:26Z</time>
      </trkpt>
      <trkpt lat="59.210727395259" lon="17.738716558628">
        <ele>22.6</ele>
        <time>2017-10-21T09:43:28Z</time>
      </trkpt>
      <trkpt lat="59.210731334752" lon="17.738448421647">
        <ele>22.6</ele>
        <time>2017-10-21T09:43:30Z</time>
      </trkpt>
      <trkpt lat="59.210713648943" lon="17.738192438421">
        <ele>22.8</ele>
        <time>2017-10-21T09:43:32Z</time>
      </trkpt>
      <trkpt lat="59.210692694193" lon="17.73807266107">
        <ele>22.8</ele>
        <time>2017-10-21T09:43:33Z</time>
      </trkpt>
      <trkpt lat="59.210664614828" lon="17.737958248135">
        <ele>22.8</ele>
        <time>2017-10-21T09:43:34Z</time>
      </trkpt>
      <trkpt lat="59.210589345366" lon="17.737755741431">
        <ele>23</ele>
        <time>2017-10-21T09:43:36Z</time>
      </trkpt>
      <trkpt lat="59.210545256572" lon="17.737662199427">
        <ele>23.2</ele>
        <time>2017-10-21T09:43:37Z</time>
      </trkpt>
      <trkpt lat="59.210498401751" lon="17.737569830889">
        <ele>23.2</ele>
        <time>2017-10-21T09:43:38Z</time>
      </trkpt>
      <trkpt lat="59.210397986589" lon="17.737383333614">
        <ele>23.2</ele>
        <time>2017-10-21T09:43:40Z</time>
      </trkpt>
      <trkpt lat="59.210285166215" lon="17.737211756121">
        <ele>23.2</ele>
        <time>2017-10-21T09:43:42Z</time>
      </trkpt>
      <trkpt lat="59.210170418004" lon="17.737048225252">
        <ele>23.2</ele>
        <time>2017-10-21T09:43:44Z</time>
      </trkpt>
      <trkpt lat="59.210059022553" lon="17.736887711867">
        <ele>23</ele>
        <time>2017-10-21T09:43:46Z</time>
      </trkpt>
      <trkpt lat="59.209953829708" lon="17.73672988069">
        <ele>22.6</ele>
        <time>2017-10-21T09:43:48Z</time>
      </trkpt>
      <trkpt lat="59.209855845297" lon="17.736564924898">
        <ele>22.8</ele>
        <time>2017-10-21T09:43:50Z</time>
      </trkpt>
      <trkpt lat="59.209757609429" lon="17.736391084292">
        <ele>22.6</ele>
        <time>2017-10-21T09:43:52Z</time>
      </trkpt>
      <trkpt lat="59.209654512059" lon="17.736222189007">
        <ele>22.4</ele>
        <time>2017-10-21T09:43:54Z</time>
      </trkpt>
      <trkpt lat="59.209543116608" lon="17.736063854916">
        <ele>22</ele>
        <time>2017-10-21T09:43:56Z</time>
      </trkpt>
      <trkpt lat="59.209427614026" lon="17.735924631557">
        <ele>21.8</ele>
        <time>2017-10-21T09:43:58Z</time>
      </trkpt>
      <trkpt lat="59.209302807535" lon="17.735817007961">
        <ele>21.8</ele>
        <time>2017-10-21T09:44:00Z</time>
      </trkpt>
      <trkpt lat="59.209176492302" lon="17.735734613884">
        <ele>21.8</ele>
        <time>2017-10-21T09:44:02Z</time>
      </trkpt>
      <trkpt lat="59.209113041319" lon="17.735706283062">
        <ele>21.8</ele>
        <time>2017-10-21T09:44:03Z</time>
      </trkpt>
      <trkpt lat="59.209048165413" lon="17.735696560058">
        <ele>21.8</ele>
        <time>2017-10-21T09:44:04Z</time>
      </trkpt>
      <trkpt lat="59.208916569583" lon="17.735709971098">
        <ele>21.8</ele>
        <time>2017-10-21T09:44:06Z</time>
      </trkpt>
      <trkpt lat="59.20878438702" lon="17.735726818717">
        <ele>21.8</ele>
        <time>2017-10-21T09:44:08Z</time>
      </trkpt>
      <trkpt lat="59.208652455914" lon="17.73575171296">
        <ele>21.8</ele>
        <time>2017-10-21T09:44:10Z</time>
      </trkpt>
      <trkpt lat="59.208589256388" lon="17.73574668382">
        <ele>21.8</ele>
        <time>2017-10-21T09:44:11Z</time>
      </trkpt>
      <trkpt lat="59.208533181477" lon="17.735710390193">
        <ele>21.8</ele>
        <time>2017-10-21T09:44:12Z</time>
      </trkpt>
      <trkpt lat="59.208465371906" lon="17.735562701115">
        <ele>22</ele>
        <time>2017-10-21T09:44:14Z</time>
      </trkpt>
      <trkpt lat="59.208454475436" lon="17.735440660651">
        <ele>22.2</ele>
        <time>2017-10-21T09:44:16Z</time>
      </trkpt>
      <trkpt lat="59.208454810712" lon="17.735397493866">
        <ele>22.2</ele>
        <time>2017-10-21T09:44:18Z</time>
      </trkpt>
      <trkpt lat="59.208458498748" lon="17.735396488038">
        <ele>22.4</ele>
        <time>2017-10-21T09:44:19Z</time>
      </trkpt>
      <trkpt lat="59.208445674441" lon="17.735256426489">
        <ele>26.4</ele>
        <time>2017-10-21T09:44:35Z</time>
      </trkpt>
      <trkpt lat="59.208450200667" lon="17.735201525044">
        <ele>26.4</ele>
        <time>2017-10-21T09:44:36Z</time>
      </trkpt>
      <trkpt lat="59.208458834024" lon="17.73505769164">
        <ele>26.4</ele>
        <time>2017-10-21T09:44:38Z</time>
      </trkpt>
      <trkpt lat="59.208469059942" lon="17.734887455251">
        <ele>26.4</ele>
        <time>2017-10-21T09:44:40Z</time>
      </trkpt>
      <trkpt lat="59.20849772604" lon="17.734701628528">
        <ele>26.2</ele>
        <time>2017-10-21T09:44:42Z</time>
      </trkpt>
      <trkpt lat="59.208542736843" lon="17.734522255868">
        <ele>26.2</ele>
        <time>2017-10-21T09:44:44Z</time>
      </trkpt>
      <trkpt lat="59.208601242505" lon="17.734352103298">
        <ele>26.2</ele>
        <time>2017-10-21T09:44:46Z</time>
      </trkpt>
      <trkpt lat="59.208652372095" lon="17.734169545516">
        <ele>26.2</ele>
        <time>2017-10-21T09:44:48Z</time>
      </trkpt>
      <trkpt lat="59.208683217487" lon="17.733980282214">
        <ele>26.2</ele>
        <time>2017-10-21T09:44:50Z</time>
      </trkpt>
      <trkpt lat="59.208712889413" lon="17.733778278424">
        <ele>26.4</ele>
        <time>2017-10-21T09:44:52Z</time>
      </trkpt>
      <trkpt lat="59.208723282969" lon="17.733676689796">
        <ele>26.6</ele>
        <time>2017-10-21T09:44:53Z</time>
      </trkpt>
      <trkpt lat="59.208728815023" lon="17.733584907991">
        <ele>27.4</ele>
        <time>2017-10-21T09:44:54Z</time>
      </trkpt>
      <trkpt lat="59.208737029285" lon="17.733493964376">
        <ele>27.8</ele>
        <time>2017-10-21T09:44:55Z</time>
      </trkpt>
      <trkpt lat="59.208746500832" lon="17.733405535331">
        <ele>28</ele>
        <time>2017-10-21T09:44:56Z</time>
      </trkpt>
      <trkpt lat="59.208750440325" lon="17.733249296715">
        <ele>28.4</ele>
        <time>2017-10-21T09:44:58Z</time>
      </trkpt>
      <trkpt lat="59.208749685954" lon="17.73317427871">
        <ele>28.8</ele>
        <time>2017-10-21T09:44:59Z</time>
      </trkpt>
      <trkpt lat="59.208752200524" lon="17.733089789158">
        <ele>29.4</ele>
        <time>2017-10-21T09:45:00Z</time>
      </trkpt>
      <trkpt lat="59.208753876904" lon="17.732999599914">
        <ele>30</ele>
        <time>2017-10-21T09:45:01Z</time>
      </trkpt>
      <trkpt lat="59.208754631275" lon="17.73290521972">
        <ele>30.6</ele>
        <time>2017-10-21T09:45:02Z</time>
      </trkpt>
      <trkpt lat="59.208754715094" lon="17.732798685771">
        <ele>31.2</ele>
        <time>2017-10-21T09:45:03Z</time>
      </trkpt>
      <trkpt lat="59.208754547456" lon="17.732679076058">
        <ele>31.8</ele>
        <time>2017-10-21T09:45:04Z</time>
      </trkpt>
      <trkpt lat="59.2087525358" lon="17.73255317992">
        <ele>32.4</ele>
        <time>2017-10-21T09:45:05Z</time>
      </trkpt>
      <trkpt lat="59.208745746461" lon="17.732430133628">
        <ele>33</ele>
        <time>2017-10-21T09:45:06Z</time>
      </trkpt>
      <trkpt lat="59.208737951294" lon="17.732306919698">
        <ele>33.4</ele>
        <time>2017-10-21T09:45:07Z</time>
      </trkpt>
      <trkpt lat="59.208728898842" lon="17.732185717424">
        <ele>33.8</ele>
        <time>2017-10-21T09:45:08Z</time>
      </trkpt>
      <trkpt lat="59.208717080363" lon="17.731947587645">
        <ele>34</ele>
        <time>2017-10-21T09:45:10Z</time>
      </trkpt>
      <trkpt lat="59.2087106263" lon="17.731728484779">
        <ele>34.2</ele>
        <time>2017-10-21T09:45:12Z</time>
      </trkpt>
      <trkpt lat="59.208697969631" lon="17.731556152915">
        <ele>34.2</ele>
        <time>2017-10-21T09:45:14Z</time>
      </trkpt>
      <trkpt lat="59.208688078989" lon="17.731473004467">
        <ele>34.4</ele>
        <time>2017-10-21T09:45:15Z</time>
      </trkpt>
      <trkpt lat="59.208675170863" lon="17.731394130788">
        <ele>34.4</ele>
        <time>2017-10-21T09:45:16Z</time>
      </trkpt>
      <trkpt lat="59.208662095099" lon="17.731313077815">
        <ele>34.6</ele>
        <time>2017-10-21T09:45:17Z</time>
      </trkpt>
      <trkpt lat="59.208650528077" lon="17.731220709277">
        <ele>34.8</ele>
        <time>2017-10-21T09:45:18Z</time>
      </trkpt>
      <trkpt lat="59.208632758449" lon="17.73112322778">
        <ele>34.8</ele>
        <time>2017-10-21T09:45:19Z</time>
      </trkpt>
      <trkpt lat="59.208612222794" lon="17.731023818446">
        <ele>35.4</ele>
        <time>2017-10-21T09:45:20Z</time>
      </trkpt>
      <trkpt lat="59.208571822036" lon="17.730820054457">
        <ele>36.8</ele>
        <time>2017-10-21T09:45:22Z</time>
      </trkpt>
      <trkpt lat="59.208549861458" lon="17.730719136381">
        <ele>37.8</ele>
        <time>2017-10-21T09:45:23Z</time>
      </trkpt>
      <trkpt lat="59.208526056862" lon="17.730614027355">
        <ele>38</ele>
        <time>2017-10-21T09:45:24Z</time>
      </trkpt>
      <trkpt lat="59.208480375507" lon="17.730405066588">
        <ele>38.2</ele>
        <time>2017-10-21T09:45:26Z</time>
      </trkpt>
      <trkpt lat="59.20844072912" lon="17.730212450526">
        <ele>38.4</ele>
        <time>2017-10-21T09:45:28Z</time>
      </trkpt>
      <trkpt lat="59.208402004742" lon="17.730018241903">
        <ele>38.6</ele>
        <time>2017-10-21T09:45:30Z</time>
      </trkpt>
      <trkpt lat="59.208359759966" lon="17.729830990257">
        <ele>38.6</ele>
        <time>2017-10-21T09:45:32Z</time>
      </trkpt>
      <trkpt lat="59.208309887661" lon="17.729635189073">
        <ele>38.6</ele>
        <time>2017-10-21T09:45:34Z</time>
      </trkpt>
      <trkpt lat="59.208289519644" lon="17.729530918237">
        <ele>38.6</ele>
        <time>2017-10-21T09:45:35Z</time>
      </trkpt>
      <trkpt lat="59.208275521871" lon="17.729423546098">
        <ele>38.6</ele>
        <time>2017-10-21T09:45:36Z</time>
      </trkpt>
      <trkpt lat="59.20827895845" lon="17.729205868155">
        <ele>38.6</ele>
        <time>2017-10-21T09:45:38Z</time>
      </trkpt>
      <trkpt lat="59.208319694484" lon="17.72900009251">
        <ele>38.6</ele>
        <time>2017-10-21T09:45:40Z</time>
      </trkpt>
      <trkpt lat="59.208397059421" lon="17.728804039869">
        <ele>38.8</ele>
        <time>2017-10-21T09:45:42Z</time>
      </trkpt>
      <trkpt lat="59.20848850595" lon="17.72861620149">
        <ele>38.8</ele>
        <time>2017-10-21T09:45:44Z</time>
      </trkpt>
      <trkpt lat="59.20858322142" lon="17.728413275691">
        <ele>38.6</ele>
        <time>2017-10-21T09:45:46Z</time>
      </trkpt>
      <trkpt lat="59.208651450086" lon="17.728173218075">
        <ele>38.4</ele>
        <time>2017-10-21T09:45:48Z</time>
      </trkpt>
      <trkpt lat="59.208691431749" lon="17.727931986993">
        <ele>38</ele>
        <time>2017-10-21T09:45:50Z</time>
      </trkpt>
      <trkpt lat="59.208707189721" lon="17.727695114499">
        <ele>38</ele>
        <time>2017-10-21T09:45:52Z</time>
      </trkpt>
      <trkpt lat="59.2087190082" lon="17.727459164014">
        <ele>38.2</ele>
        <time>2017-10-21T09:45:54Z</time>
      </trkpt>
      <trkpt lat="59.208743567167" lon="17.727226398651">
        <ele>38.2</ele>
        <time>2017-10-21T09:45:56Z</time>
      </trkpt>
      <trkpt lat="59.208780531346" lon="17.726993968564">
        <ele>38.2</ele>
        <time>2017-10-21T09:45:58Z</time>
      </trkpt>
      <trkpt lat="59.208825039235" lon="17.726766064703">
        <ele>38.2</ele>
        <time>2017-10-21T09:46:00Z</time>
      </trkpt>
      <trkpt lat="59.20887155878" lon="17.726542100335">
        <ele>38.2</ele>
        <time>2017-10-21T09:46:02Z</time>
      </trkpt>
      <trkpt lat="59.208914893203" lon="17.726326517867">
        <ele>38.4</ele>
        <time>2017-10-21T09:46:04Z</time>
      </trkpt>
      <trkpt lat="59.208957557074" lon="17.726126441914">
        <ele>38.4</ele>
        <time>2017-10-21T09:46:06Z</time>
      </trkpt>
      <trkpt lat="59.208977757453" lon="17.726033570462">
        <ele>38.6</ele>
        <time>2017-10-21T09:46:07Z</time>
      </trkpt>
      <trkpt lat="59.2089956109" lon="17.725944219408">
        <ele>38.6</ele>
        <time>2017-10-21T09:46:08Z</time>
      </trkpt>
      <trkpt lat="59.209027378301" lon="17.72577892834">
        <ele>38.8</ele>
        <time>2017-10-21T09:46:10Z</time>
      </trkpt>
      <trkpt lat="59.209059648616" lon="17.725626713036">
        <ele>39.2</ele>
        <time>2017-10-21T09:46:12Z</time>
      </trkpt>
      <trkpt lat="59.209076747692" lon="17.725546665891">
        <ele>39.6</ele>
        <time>2017-10-21T09:46:13Z</time>
      </trkpt>
      <trkpt lat="59.209092924759" lon="17.725463852719">
        <ele>40.2</ele>
        <time>2017-10-21T09:46:14Z</time>
      </trkpt>
      <trkpt lat="59.209125111255" lon="17.725288084276">
        <ele>41</ele>
        <time>2017-10-21T09:46:16Z</time>
      </trkpt>
      <trkpt lat="59.209165344375" lon="17.725118853715">
        <ele>42</ele>
        <time>2017-10-21T09:46:18Z</time>
      </trkpt>
      <trkpt lat="59.209211193368" lon="17.7249608549">
        <ele>43</ele>
        <time>2017-10-21T09:46:20Z</time>
      </trkpt>
      <trkpt lat="59.209239356552" lon="17.724881394488">
        <ele>43.6</ele>
        <time>2017-10-21T09:46:21Z</time>
      </trkpt>
      <trkpt lat="59.20926718446" lon="17.724800509153">
        <ele>44</ele>
        <time>2017-10-21T09:46:22Z</time>
      </trkpt>
      <trkpt lat="59.209320241887" lon="17.72463982813">
        <ele>44.4</ele>
        <time>2017-10-21T09:46:24Z</time>
      </trkpt>
      <trkpt lat="59.209346393415" lon="17.724566737962">
        <ele>44.6</ele>
        <time>2017-10-21T09:46:25Z</time>
      </trkpt>
      <trkpt lat="59.209374556599" lon="17.724489037749">
        <ele>45</ele>
        <time>2017-10-21T09:46:26Z</time>
      </trkpt>
      <trkpt lat="59.209439264867" lon="17.724323914319">
        <ele>45.2</ele>
        <time>2017-10-21T09:46:28Z</time>
      </trkpt>
      <trkpt lat="59.209499949823" lon="17.724130879162">
        <ele>45.4</ele>
        <time>2017-10-21T09:46:30Z</time>
      </trkpt>
      <trkpt lat="59.209525011704" lon="17.724027278878">
        <ele>45.6</ele>
        <time>2017-10-21T09:46:31Z</time>
      </trkpt>
      <trkpt lat="59.209551666146" lon="17.723925857888">
        <ele>45.6</ele>
        <time>2017-10-21T09:46:32Z</time>
      </trkpt>
      <trkpt lat="59.209606232315" lon="17.723735672577">
        <ele>45.8</ele>
        <time>2017-10-21T09:46:34Z</time>
      </trkpt>
      <trkpt lat="59.209658535371" lon="17.723554791175">
        <ele>46</ele>
        <time>2017-10-21T09:46:36Z</time>
      </trkpt>
      <trkpt lat="59.209715113196" lon="17.723386063528">
        <ele>46.2</ele>
        <time>2017-10-21T09:46:38Z</time>
      </trkpt>
      <trkpt lat="59.209790550296" lon="17.723233512948">
        <ele>46.2</ele>
        <time>2017-10-21T09:46:40Z</time>
      </trkpt>
      <trkpt lat="59.209886942146" lon="17.723102336213">
        <ele>46.4</ele>
        <time>2017-10-21T09:46:42Z</time>
      </trkpt>
      <trkpt lat="59.209945447808" lon="17.723039304325">
        <ele>46.4</ele>
        <time>2017-10-21T09:46:43Z</time>
      </trkpt>
      <trkpt lat="59.210006551859" lon="17.722968141994">
        <ele>46.4</ele>
        <time>2017-10-21T09:46:44Z</time>
      </trkpt>
      <trkpt lat="59.210129179056" lon="17.722784410746">
        <ele>46.2</ele>
        <time>2017-10-21T09:46:46Z</time>
      </trkpt>
      <trkpt lat="59.210228336933" lon="17.722544017854">
        <ele>46.2</ele>
        <time>2017-10-21T09:46:48Z</time>
      </trkpt>
      <trkpt lat="59.210287010233" lon="17.7222618831">
        <ele>46.2</ele>
        <time>2017-10-21T09:46:50Z</time>
      </trkpt>
      <trkpt lat="59.210299750721" lon="17.721971114989">
        <ele>44.8</ele>
        <time>2017-10-21T09:46:52Z</time>
      </trkpt>
      <trkpt lat="59.210295056857" lon="17.72183189163">
        <ele>43.8</ele>
        <time>2017-10-21T09:46:53Z</time>
      </trkpt>
      <trkpt lat="59.210283322197" lon="17.721689315511">
        <ele>43</ele>
        <time>2017-10-21T09:46:54Z</time>
      </trkpt>
      <trkpt lat="59.21025792504" lon="17.721547577582">
        <ele>42.2</ele>
        <time>2017-10-21T09:46:55Z</time>
      </trkpt>
      <trkpt lat="59.210222134327" lon="17.721411706983">
        <ele>41.2</ele>
        <time>2017-10-21T09:46:56Z</time>
      </trkpt>
      <trkpt lat="59.210175866239" lon="17.721282793361">
        <ele>40.6</ele>
        <time>2017-10-21T09:46:57Z</time>
      </trkpt>
      <trkpt lat="59.210119958966" lon="17.721174247756">
        <ele>40</ele>
        <time>2017-10-21T09:46:58Z</time>
      </trkpt>
      <trkpt lat="59.210058938734" lon="17.721073581137">
        <ele>39.4</ele>
        <time>2017-10-21T09:46:59Z</time>
      </trkpt>
      <trkpt lat="59.209995068656" lon="17.720974758536">
        <ele>39</ele>
        <time>2017-10-21T09:47:00Z</time>
      </trkpt>
      <trkpt lat="59.209860958256" lon="17.720801169387">
        <ele>37.4</ele>
        <time>2017-10-21T09:47:02Z</time>
      </trkpt>
      <trkpt lat="59.209791556124" lon="17.720715674007">
        <ele>36.4</ele>
        <time>2017-10-21T09:47:03Z</time>
      </trkpt>
      <trkpt lat="59.209724584743" lon="17.720622802555">
        <ele>35.6</ele>
        <time>2017-10-21T09:47:04Z</time>
      </trkpt>
      <trkpt lat="59.209661385217" lon="17.720519537547">
        <ele>35</ele>
        <time>2017-10-21T09:47:05Z</time>
      </trkpt>
      <trkpt lat="59.209606148496" lon="17.720406549535">
        <ele>34.4</ele>
        <time>2017-10-21T09:47:06Z</time>
      </trkpt>
      <trkpt lat="59.209560299503" lon="17.720287442736">
        <ele>33.8</ele>
        <time>2017-10-21T09:47:07Z</time>
      </trkpt>
      <trkpt lat="59.209523251505" lon="17.720163222978">
        <ele>33.4</ele>
        <time>2017-10-21T09:47:08Z</time>
      </trkpt>
      <trkpt lat="59.209492154656" lon="17.719883435156">
        <ele>32.8</ele>
        <time>2017-10-21T09:47:10Z</time>
      </trkpt>
      <trkpt lat="59.209521826582" lon="17.719588308457">
        <ele>32</ele>
        <time>2017-10-21T09:47:12Z</time>
      </trkpt>
      <trkpt lat="59.209556192372" lon="17.719446821985">
        <ele>31.4</ele>
        <time>2017-10-21T09:47:13Z</time>
      </trkpt>
      <trkpt lat="59.209598856243" lon="17.719317153992">
        <ele>30.8</ele>
        <time>2017-10-21T09:47:14Z</time>
      </trkpt>
      <trkpt lat="59.209646130159" lon="17.719192515139">
        <ele>30.6</ele>
        <time>2017-10-21T09:47:15Z</time>
      </trkpt>
      <trkpt lat="59.209695583369" lon="17.719071312865">
        <ele>30.4</ele>
        <time>2017-10-21T09:47:16Z</time>
      </trkpt>
      <trkpt lat="59.209741432362" lon="17.718950026772">
        <ele>30.2</ele>
        <time>2017-10-21T09:47:17Z</time>
      </trkpt>
      <trkpt lat="59.209783090405" lon="17.71883033324">
        <ele>29.8</ele>
        <time>2017-10-21T09:47:18Z</time>
      </trkpt>
      <trkpt lat="59.209862802274" lon="17.718603267569">
        <ele>28.4</ele>
        <time>2017-10-21T09:47:20Z</time>
      </trkpt>
      <trkpt lat="59.209928767827" lon="17.71844392765">
        <ele>28.2</ele>
        <time>2017-10-21T09:47:22Z</time>
      </trkpt>
      <trkpt lat="59.209975874105" lon="17.718353570768">
        <ele>28</ele>
        <time>2017-10-21T09:47:24Z</time>
      </trkpt>
      <trkpt lat="59.209988195498" lon="17.718326245774">
        <ele>28</ele>
        <time>2017-10-21T09:47:26Z</time>
      </trkpt>
      <trkpt lat="59.209988782231" lon="17.718332616018">
        <ele>28</ele>
        <time>2017-10-21T09:47:27Z</time>
      </trkpt>
      <trkpt lat="59.210031949016" lon="17.718188531157">
        <ele>29</ele>
        <time>2017-10-21T09:47:44Z</time>
      </trkpt>
      <trkpt lat="59.210083246244" lon="17.718060371906">
        <ele>28.8</ele>
        <time>2017-10-21T09:47:46Z</time>
      </trkpt>
      <trkpt lat="59.210141332811" lon="17.717980576218">
        <ele>28.8</ele>
        <time>2017-10-21T09:47:47Z</time>
      </trkpt>
      <trkpt lat="59.210197407722" lon="17.717882675626">
        <ele>28.8</ele>
        <time>2017-10-21T09:47:48Z</time>
      </trkpt>
      <trkpt lat="59.210263037999" lon="17.717786954328">
        <ele>28.6</ele>
        <time>2017-10-21T09:47:49Z</time>
      </trkpt>
      <trkpt lat="59.210333110683" lon="17.717676313248">
        <ele>28.6</ele>
        <time>2017-10-21T09:47:50Z</time>
      </trkpt>
      <trkpt lat="59.210467891635" lon="17.717450421043">
        <ele>28.2</ele>
        <time>2017-10-21T09:47:52Z</time>
      </trkpt>
      <trkpt lat="59.210600660931" lon="17.717224277381">
        <ele>27.2</ele>
        <time>2017-10-21T09:47:54Z</time>
      </trkpt>
      <trkpt lat="59.210654221272" lon="17.717087652411">
        <ele>26.4</ele>
        <time>2017-10-21T09:47:55Z</time>
      </trkpt>
      <trkpt lat="59.210692778012" lon="17.716942813179">
        <ele>25.8</ele>
        <time>2017-10-21T09:47:56Z</time>
      </trkpt>
      <trkpt lat="59.21072563506" lon="17.716792441893">
        <ele>25</ele>
        <time>2017-10-21T09:47:57Z</time>
      </trkpt>
      <trkpt lat="59.210747008905" lon="17.716636119458">
        <ele>24.2</ele>
        <time>2017-10-21T09:47:58Z</time>
      </trkpt>
      <trkpt lat="59.210749523475" lon="17.716481641041">
        <ele>23.4</ele>
        <time>2017-10-21T09:47:59Z</time>
      </trkpt>
      <trkpt lat="59.210725886517" lon="17.716325905339">
        <ele>22.8</ele>
        <time>2017-10-21T09:48:00Z</time>
      </trkpt>
      <trkpt lat="59.210694705849" lon="17.716175534053">
        <ele>22.2</ele>
        <time>2017-10-21T09:48:01Z</time>
      </trkpt>
      <trkpt lat="59.210661597344" lon="17.716032957934">
        <ele>21.8</ele>
        <time>2017-10-21T09:48:02Z</time>
      </trkpt>
      <trkpt lat="59.210594123049" lon="17.715765156229">
        <ele>21.2</ele>
        <time>2017-10-21T09:48:04Z</time>
      </trkpt>
      <trkpt lat="59.210531426437" lon="17.715496181058">
        <ele>20.6</ele>
        <time>2017-10-21T09:48:06Z</time>
      </trkpt>
      <trkpt lat="59.210513908266" lon="17.715363830857">
        <ele>19.8</ele>
        <time>2017-10-21T09:48:07Z</time>
      </trkpt>
      <trkpt lat="59.210511226058" lon="17.715224691317">
        <ele>19.6</ele>
        <time>2017-10-21T09:48:08Z</time>
      </trkpt>
      <trkpt lat="59.210567803883" lon="17.714959152725">
        <ele>19.2</ele>
        <time>2017-10-21T09:48:10Z</time>
      </trkpt>
      <trkpt lat="59.210682384456" lon="17.714724710982">
        <ele>19.2</ele>
        <time>2017-10-21T09:48:12Z</time>
      </trkpt>
      <trkpt lat="59.210798054676" lon="17.714480546235">
        <ele>19</ele>
        <time>2017-10-21T09:48:14Z</time>
      </trkpt>
      <trkpt lat="59.210912132335" lon="17.714259347894">
        <ele>19</ele>
        <time>2017-10-21T09:48:16Z</time>
      </trkpt>
      <trkpt lat="59.211052026246" lon="17.714135379593">
        <ele>18.2</ele>
        <time>2017-10-21T09:48:18Z</time>
      </trkpt>
      <trkpt lat="59.211205834111" lon="17.714089027686">
        <ele>17.6</ele>
        <time>2017-10-21T09:48:20Z</time>
      </trkpt>
      <trkpt lat="59.211282109401" lon="17.714072096248">
        <ele>17.4</ele>
        <time>2017-10-21T09:48:21Z</time>
      </trkpt>
      <trkpt lat="59.2113509248" lon="17.714059942493">
        <ele>17.4</ele>
        <time>2017-10-21T09:48:22Z</time>
      </trkpt>
      <trkpt lat="59.211494506747" lon="17.714044519797">
        <ele>17.2</ele>
        <time>2017-10-21T09:48:24Z</time>
      </trkpt>
      <trkpt lat="59.211625767301" lon="17.714000095727">
        <ele>17.2</ele>
        <time>2017-10-21T09:48:26Z</time>
      </trkpt>
      <trkpt lat="59.211758788054" lon="17.71394200916">
        <ele>17.2</ele>
        <time>2017-10-21T09:48:28Z</time>
      </trkpt>
      <trkpt lat="59.211882421079" lon="17.713852993382">
        <ele>17.6</ele>
        <time>2017-10-21T09:48:30Z</time>
      </trkpt>
      <trkpt lat="59.211978896748" lon="17.713688624323">
        <ele>18.2</ele>
        <time>2017-10-21T09:48:32Z</time>
      </trkpt>
      <trkpt lat="59.212037737686" lon="17.71344328611">
        <ele>19</ele>
        <time>2017-10-21T09:48:34Z</time>
      </trkpt>
      <trkpt lat="59.212110492578" lon="17.71318093264">
        <ele>19.2</ele>
        <time>2017-10-21T09:48:36Z</time>
      </trkpt>
      <trkpt lat="59.212209985731" lon="17.712959063747">
        <ele>19.6</ele>
        <time>2017-10-21T09:48:38Z</time>
      </trkpt>
      <trkpt lat="59.212304701201" lon="17.712766615323">
        <ele>20.2</ele>
        <time>2017-10-21T09:48:40Z</time>
      </trkpt>
      <trkpt lat="59.21234669452" lon="17.712684053608">
        <ele>20.4</ele>
        <time>2017-10-21T09:48:41Z</time>
      </trkpt>
      <trkpt lat="59.212384999803" lon="17.712607443042">
        <ele>20.4</ele>
        <time>2017-10-21T09:48:42Z</time>
      </trkpt>
      <trkpt lat="59.212452390279" lon="17.712472494452">
        <ele>20.8</ele>
        <time>2017-10-21T09:48:44Z</time>
      </trkpt>
      <trkpt lat="59.212518104375" lon="17.712345592486">
        <ele>21.2</ele>
        <time>2017-10-21T09:48:46Z</time>
      </trkpt>
      <trkpt lat="59.212549704138" lon="17.712285829539">
        <ele>21.8</ele>
        <time>2017-10-21T09:48:47Z</time>
      </trkpt>
      <trkpt lat="59.212583315557" lon="17.712227240058">
        <ele>22.2</ele>
        <time>2017-10-21T09:48:48Z</time>
      </trkpt>
      <trkpt lat="59.212619609184" lon="17.712168147663">
        <ele>22.8</ele>
        <time>2017-10-21T09:48:49Z</time>
      </trkpt>
      <trkpt lat="59.212661518684" lon="17.712110144915">
        <ele>23.6</ele>
        <time>2017-10-21T09:48:50Z</time>
      </trkpt>
      <trkpt lat="59.21270795441" lon="17.712053231814">
        <ele>24.6</ele>
        <time>2017-10-21T09:48:51Z</time>
      </trkpt>
      <trkpt lat="59.212753132851" lon="17.712001347853">
        <ele>25.2</ele>
        <time>2017-10-21T09:48:52Z</time>
      </trkpt>
      <trkpt lat="59.212796551093" lon="17.711956253231">
        <ele>25.8</ele>
        <time>2017-10-21T09:48:53Z</time>
      </trkpt>
      <trkpt lat="59.212837454765" lon="17.711914595188">
        <ele>26.4</ele>
        <time>2017-10-21T09:48:54Z</time>
      </trkpt>
      <trkpt lat="59.212874838039" lon="17.71187000348">
        <ele>26.8</ele>
        <time>2017-10-21T09:48:55Z</time>
      </trkpt>
      <trkpt lat="59.21290912001" lon="17.71182138846">
        <ele>27.2</ele>
        <time>2017-10-21T09:48:56Z</time>
      </trkpt>
      <trkpt lat="59.21294180942" lon="17.711767660481">
        <ele>27.6</ele>
        <time>2017-10-21T09:48:57Z</time>
      </trkpt>
      <trkpt lat="59.212973241545" lon="17.711702030204">
        <ele>27.8</ele>
        <time>2017-10-21T09:48:58Z</time>
      </trkpt>
      <trkpt lat="59.213002745833" lon="17.711626006371">
        <ele>28</ele>
        <time>2017-10-21T09:48:59Z</time>
      </trkpt>
      <trkpt lat="59.213029651732" lon="17.711542438828">
        <ele>28.2</ele>
        <time>2017-10-21T09:49:00Z</time>
      </trkpt>
      <trkpt lat="59.213081451874" lon="17.711360551598">
        <ele>29</ele>
        <time>2017-10-21T09:49:02Z</time>
      </trkpt>
      <trkpt lat="59.213138197337" lon="17.711174054323">
        <ele>29.8</ele>
        <time>2017-10-21T09:49:04Z</time>
      </trkpt>
      <trkpt lat="59.21320164832" lon="17.710969703601">
        <ele>30</ele>
        <time>2017-10-21T09:49:06Z</time>
      </trkpt>
      <trkpt lat="59.213266775683" lon="17.710751941839">
        <ele>30</ele>
        <time>2017-10-21T09:49:08Z</time>
      </trkpt>
      <trkpt lat="59.21334078786" lon="17.710529486213">
        <ele>30</ele>
        <time>2017-10-21T09:49:10Z</time>
      </trkpt>
      <trkpt lat="59.213425864145" lon="17.710293871004">
        <ele>30</ele>
        <time>2017-10-21T09:49:12Z</time>
      </trkpt>
      <trkpt lat="59.21353440975" lon="17.710065464229">
        <ele>29.8</ele>
        <time>2017-10-21T09:49:14Z</time>
      </trkpt>
      <trkpt lat="59.213680590086" lon="17.709880391877">
        <ele>29</ele>
        <time>2017-10-21T09:49:16Z</time>
      </trkpt>
      <trkpt lat="59.213849150095" lon="17.709760195431">
        <ele>28</ele>
        <time>2017-10-21T09:49:18Z</time>
      </trkpt>
      <trkpt lat="59.214018380656" lon="17.709709736393">
        <ele>26.8</ele>
        <time>2017-10-21T09:49:20Z</time>
      </trkpt>
      <trkpt lat="59.214101445285" lon="17.709694648973">
        <ele>26</ele>
        <time>2017-10-21T09:49:21Z</time>
      </trkpt>
      <trkpt lat="59.214186689208" lon="17.709676124974">
        <ele>25</ele>
        <time>2017-10-21T09:49:22Z</time>
      </trkpt>
      <trkpt lat="59.214274866796" lon="17.709656259871">
        <ele>24</ele>
        <time>2017-10-21T09:49:23Z</time>
      </trkpt>
      <trkpt lat="59.214363547298" lon="17.709627929049">
        <ele>22.8</ele>
        <time>2017-10-21T09:49:24Z</time>
      </trkpt>
      <trkpt lat="59.214535795343" lon="17.709544361506">
        <ele>21.4</ele>
        <time>2017-10-21T09:49:26Z</time>
      </trkpt>
      <trkpt lat="59.214692369235" lon="17.709430786761">
        <ele>20.8</ele>
        <time>2017-10-21T09:49:28Z</time>
      </trkpt>
      <trkpt lat="59.214833268974" lon="17.709313021066">
        <ele>20.4</ele>
        <time>2017-10-21T09:49:30Z</time>
      </trkpt>
      <trkpt lat="59.214900910907" lon="17.70924730697">
        <ele>20.2</ele>
        <time>2017-10-21T09:49:31Z</time>
      </trkpt>
      <trkpt lat="59.214965283899" lon="17.709172959517">
        <ele>20</ele>
        <time>2017-10-21T09:49:32Z</time>
      </trkpt>
      <trkpt lat="59.215089336019" lon="17.709027617371">
        <ele>20</ele>
        <time>2017-10-21T09:49:34Z</time>
      </trkpt>
      <trkpt lat="59.215219926021" lon="17.708882023768">
        <ele>20</ele>
        <time>2017-10-21T09:49:36Z</time>
      </trkpt>
      <trkpt lat="59.215353449688" lon="17.708737435993">
        <ele>20</ele>
        <time>2017-10-21T09:49:38Z</time>
      </trkpt>
      <trkpt lat="59.215480519292" lon="17.708592261485">
        <ele>19.8</ele>
        <time>2017-10-21T09:49:40Z</time>
      </trkpt>
      <trkpt lat="59.215593255847" lon="17.708438285982">
        <ele>19.8</ele>
        <time>2017-10-21T09:49:42Z</time>
      </trkpt>
      <trkpt lat="59.21564161941" lon="17.708359328484">
        <ele>20</ele>
        <time>2017-10-21T09:49:43Z</time>
      </trkpt>
      <trkpt lat="59.215684115643" lon="17.708273749285">
        <ele>20</ele>
        <time>2017-10-21T09:49:44Z</time>
      </trkpt>
      <trkpt lat="59.215752679585" lon="17.708087922562">
        <ele>20</ele>
        <time>2017-10-21T09:49:46Z</time>
      </trkpt>
      <trkpt lat="59.215784195529" lon="17.707991279255">
        <ele>20.2</ele>
        <time>2017-10-21T09:49:47Z</time>
      </trkpt>
      <trkpt lat="59.215814789464" lon="17.707892205197">
        <ele>20.6</ele>
        <time>2017-10-21T09:49:48Z</time>
      </trkpt>
      <trkpt lat="59.215844880485" lon="17.707792628225">
        <ele>21</ele>
        <time>2017-10-21T09:49:49Z</time>
      </trkpt>
      <trkpt lat="59.215875139144" lon="17.707692548339">
        <ele>21.6</ele>
        <time>2017-10-21T09:49:50Z</time>
      </trkpt>
      <trkpt lat="59.215908918201" lon="17.707594815385">
        <ele>22</ele>
        <time>2017-10-21T09:49:51Z</time>
      </trkpt>
      <trkpt lat="59.215945211828" lon="17.707497082431">
        <ele>22.6</ele>
        <time>2017-10-21T09:49:52Z</time>
      </trkpt>
      <trkpt lat="59.216016038883" lon="17.707294156632">
        <ele>23</ele>
        <time>2017-10-21T09:49:54Z</time>
      </trkpt>
      <trkpt lat="59.216052500148" lon="17.707194495841">
        <ele>23.2</ele>
        <time>2017-10-21T09:49:55Z</time>
      </trkpt>
      <trkpt lat="59.216090805431" lon="17.707094918869">
        <ele>23.4</ele>
        <time>2017-10-21T09:49:56Z</time>
      </trkpt>
      <trkpt lat="59.216164733789" lon="17.706887299206">
        <ele>23.6</ele>
        <time>2017-10-21T09:49:58Z</time>
      </trkpt>
      <trkpt lat="59.216240673803" lon="17.706655539671">
        <ele>23.6</ele>
        <time>2017-10-21T09:50:00Z</time>
      </trkpt>
      <trkpt lat="59.216329689581" lon="17.706413721856">
        <ele>23.6</ele>
        <time>2017-10-21T09:50:02Z</time>
      </trkpt>
      <trkpt lat="59.216428176906" lon="17.706169138014">
        <ele>23.6</ele>
        <time>2017-10-21T09:50:04Z</time>
      </trkpt>
      <trkpt lat="59.216532699199" lon="17.705951711528">
        <ele>23.6</ele>
        <time>2017-10-21T09:50:06Z</time>
      </trkpt>
      <trkpt lat="59.216665133219" lon="17.705802178432">
        <ele>23.4</ele>
        <time>2017-10-21T09:50:08Z</time>
      </trkpt>
      <trkpt lat="59.216814414858" lon="17.705737973078">
        <ele>22.6</ele>
        <time>2017-10-21T09:50:10Z</time>
      </trkpt>
      <trkpt lat="59.216889349044" lon="17.705714252301">
        <ele>22.4</ele>
        <time>2017-10-21T09:50:11Z</time>
      </trkpt>
      <trkpt lat="59.216958667357" lon="17.705670834059">
        <ele>22.2</ele>
        <time>2017-10-21T09:50:12Z</time>
      </trkpt>
      <trkpt lat="59.21708246802" lon="17.705532113614">
        <ele>22.2</ele>
        <time>2017-10-21T09:50:14Z</time>
      </trkpt>
      <trkpt lat="59.217175674748" lon="17.705337318258">
        <ele>22.2</ele>
        <time>2017-10-21T09:50:16Z</time>
      </trkpt>
      <trkpt lat="59.217248178183" lon="17.705118299211">
        <ele>22.2</ele>
        <time>2017-10-21T09:50:18Z</time>
      </trkpt>
      <trkpt lat="59.217319172876" lon="17.704888467513">
        <ele>22.6</ele>
        <time>2017-10-21T09:50:20Z</time>
      </trkpt>
      <trkpt lat="59.217387150085" lon="17.704654109589">
        <ele>23.2</ele>
        <time>2017-10-21T09:50:22Z</time>
      </trkpt>
      <trkpt lat="59.217456384579" lon="17.704409525747">
        <ele>23.8</ele>
        <time>2017-10-21T09:50:24Z</time>
      </trkpt>
      <trkpt lat="59.217526205806" lon="17.704158404023">
        <ele>24</ele>
        <time>2017-10-21T09:50:26Z</time>
      </trkpt>
      <trkpt lat="59.217558476121" lon="17.704029909496">
        <ele>24.2</ele>
        <time>2017-10-21T09:50:27Z</time>
      </trkpt>
      <trkpt lat="59.217591165531" lon="17.703903761901">
        <ele>24.2</ele>
        <time>2017-10-21T09:50:28Z</time>
      </trkpt>
      <trkpt lat="59.217627207701" lon="17.703783481636">
        <ele>24.4</ele>
        <time>2017-10-21T09:50:29Z</time>
      </trkpt>
      <trkpt lat="59.217669033382" lon="17.703671164176">
        <ele>24.4</ele>
        <time>2017-10-21T09:50:30Z</time>
      </trkpt>
      <trkpt lat="59.217753439115" lon="17.703447786541">
        <ele>24.4</ele>
        <time>2017-10-21T09:50:32Z</time>
      </trkpt>
      <trkpt lat="59.217788140181" lon="17.703326751905">
        <ele>24.4</ele>
        <time>2017-10-21T09:50:33Z</time>
      </trkpt>
      <trkpt lat="59.217815129899" lon="17.703198676473">
        <ele>24.4</ele>
        <time>2017-10-21T09:50:34Z</time>
      </trkpt>
      <trkpt lat="59.21784522092" lon="17.702927019094">
        <ele>24.6</ele>
        <time>2017-10-21T09:50:36Z</time>
      </trkpt>
      <trkpt lat="59.217847567852" lon="17.702637172992">
        <ele>24.8</ele>
        <time>2017-10-21T09:50:38Z</time>
      </trkpt>
      <trkpt lat="59.217846226748" lon="17.702344057949">
        <ele>25.2</ele>
        <time>2017-10-21T09:50:40Z</time>
      </trkpt>
      <trkpt lat="59.21784438273" lon="17.702038621513">
        <ele>25.4</ele>
        <time>2017-10-21T09:50:42Z</time>
      </trkpt>
      <trkpt lat="59.217842203436" lon="17.701726060462">
        <ele>25.4</ele>
        <time>2017-10-21T09:50:44Z</time>
      </trkpt>
      <trkpt lat="59.217841532884" lon="17.701406374796">
        <ele>25.4</ele>
        <time>2017-10-21T09:50:46Z</time>
      </trkpt>
      <trkpt lat="59.217840443237" lon="17.701074703013">
        <ele>25.4</ele>
        <time>2017-10-21T09:50:48Z</time>
      </trkpt>
      <trkpt lat="59.217839605047" lon="17.700742612135">
        <ele>25.2</ele>
        <time>2017-10-21T09:50:50Z</time>
      </trkpt>
      <trkpt lat="59.217842287255" lon="17.700406833221">
        <ele>25</ele>
        <time>2017-10-21T09:50:52Z</time>
      </trkpt>
      <trkpt lat="59.217852010259" lon="17.700070886669">
        <ele>25</ele>
        <time>2017-10-21T09:50:54Z</time>
      </trkpt>
      <trkpt lat="59.217874389932" lon="17.699732425547">
        <ele>24.6</ele>
        <time>2017-10-21T09:50:56Z</time>
      </trkpt>
      <trkpt lat="59.217906324971" lon="17.69938432524">
        <ele>24.2</ele>
        <time>2017-10-21T09:50:58Z</time>
      </trkpt>
      <trkpt lat="59.217921663848" lon="17.699206545141">
        <ele>23.8</ele>
        <time>2017-10-21T09:50:59Z</time>
      </trkpt>
      <trkpt lat="59.217937840915" lon="17.699028848861">
        <ele>23.8</ele>
        <time>2017-10-21T09:51:00Z</time>
      </trkpt>
      <trkpt lat="59.217976313836" lon="17.698671947559">
        <ele>23.4</ele>
        <time>2017-10-21T09:51:02Z</time>
      </trkpt>
      <trkpt lat="59.218009757617" lon="17.698306496719">
        <ele>23.2</ele>
        <time>2017-10-21T09:51:04Z</time>
      </trkpt>
      <trkpt lat="59.218033981308" lon="17.69793174197">
        <ele>22.8</ele>
        <time>2017-10-21T09:51:06Z</time>
      </trkpt>
      <trkpt lat="59.218067844184" lon="17.697561513447">
        <ele>22</ele>
        <time>2017-10-21T09:51:08Z</time>
      </trkpt>
      <trkpt lat="59.218088128382" lon="17.697380464407">
        <ele>21.4</ele>
        <time>2017-10-21T09:51:09Z</time>
      </trkpt>
      <trkpt lat="59.218104976001" lon="17.697200253557">
        <ele>20.8</ele>
        <time>2017-10-21T09:51:10Z</time>
      </trkpt>
      <trkpt lat="59.218116962118" lon="17.697020210345">
        <ele>20.4</ele>
        <time>2017-10-21T09:51:11Z</time>
      </trkpt>
      <trkpt lat="59.218129954063" lon="17.696842681703">
        <ele>20</ele>
        <time>2017-10-21T09:51:12Z</time>
      </trkpt>
      <trkpt lat="59.218162559654" lon="17.696489719894">
        <ele>19</ele>
        <time>2017-10-21T09:51:14Z</time>
      </trkpt>
      <trkpt lat="59.2181905552" lon="17.696135416981">
        <ele>18.8</ele>
        <time>2017-10-21T09:51:16Z</time>
      </trkpt>
      <trkpt lat="59.218217880194" lon="17.695784885923">
        <ele>18.8</ele>
        <time>2017-10-21T09:51:18Z</time>
      </trkpt>
      <trkpt lat="59.218249815233" lon="17.695437456168">
        <ele>18.6</ele>
        <time>2017-10-21T09:51:20Z</time>
      </trkpt>
      <trkpt lat="59.218288874887" lon="17.695092121888">
        <ele>18.6</ele>
        <time>2017-10-21T09:51:22Z</time>
      </trkpt>
      <trkpt lat="59.21833891483" lon="17.694756929707">
        <ele>18.6</ele>
        <time>2017-10-21T09:51:24Z</time>
      </trkpt>
      <trkpt lat="59.218406975858" lon="17.694438920421">
        <ele>18.6</ele>
        <time>2017-10-21T09:51:26Z</time>
      </trkpt>
      <trkpt lat="59.218493896161" lon="17.694155528382">
        <ele>18.6</ele>
        <time>2017-10-21T09:51:28Z</time>
      </trkpt>
      <trkpt lat="59.218603196137" lon="17.693915889861">
        <ele>18.6</ele>
        <time>2017-10-21T09:51:30Z</time>
      </trkpt>
      <trkpt lat="59.218717189977" lon="17.69373995378">
        <ele>18.6</ele>
        <time>2017-10-21T09:51:32Z</time>
      </trkpt>
      <trkpt lat="59.218773600164" lon="17.693665606327">
        <ele>19</ele>
        <time>2017-10-21T09:51:33Z</time>
      </trkpt>
      <trkpt lat="59.218831602912" lon="17.693595030729">
        <ele>18.8</ele>
        <time>2017-10-21T09:51:34Z</time>
      </trkpt>
      <trkpt lat="59.218947273132" lon="17.693483383821">
        <ele>19</ele>
        <time>2017-10-21T09:51:36Z</time>
      </trkpt>
      <trkpt lat="59.219063530085" lon="17.693409204006">
        <ele>19.2</ele>
        <time>2017-10-21T09:51:38Z</time>
      </trkpt>
      <trkpt lat="59.219179367943" lon="17.693358074416">
        <ele>20.2</ele>
        <time>2017-10-21T09:51:40Z</time>
      </trkpt>
      <trkpt lat="59.219281124209" lon="17.693317338382">
        <ele>21.4</ele>
        <time>2017-10-21T09:51:42Z</time>
      </trkpt>
      <trkpt lat="59.219328649582" lon="17.693301161315">
        <ele>22</ele>
        <time>2017-10-21T09:51:43Z</time>
      </trkpt>
      <trkpt lat="59.21938246138" lon="17.693282385859">
        <ele>23.2</ele>
        <time>2017-10-21T09:51:44Z</time>
      </trkpt>
      <trkpt lat="59.219494527383" lon="17.693288001732">
        <ele>24</ele>
        <time>2017-10-21T09:51:46Z</time>
      </trkpt>
      <trkpt lat="59.219553535959" lon="17.693292276501">
        <ele>24.4</ele>
        <time>2017-10-21T09:51:47Z</time>
      </trkpt>
      <trkpt lat="59.219613131268" lon="17.693296886546">
        <ele>24.8</ele>
        <time>2017-10-21T09:51:48Z</time>
      </trkpt>
      <trkpt lat="59.219730394049" lon="17.69330325679">
        <ele>25.4</ele>
        <time>2017-10-21T09:51:50Z</time>
      </trkpt>
      <trkpt lat="59.219788312978" lon="17.693311219595">
        <ele>25.6</ele>
        <time>2017-10-21T09:51:51Z</time>
      </trkpt>
      <trkpt lat="59.219846064269" lon="17.693316919287">
        <ele>26</ele>
        <time>2017-10-21T09:51:52Z</time>
      </trkpt>
      <trkpt lat="59.219959806652" lon="17.693325385006">
        <ele>26.6</ele>
        <time>2017-10-21T09:51:54Z</time>
      </trkpt>
      <trkpt lat="59.220017055029" lon="17.693329743594">
        <ele>26.8</ele>
        <time>2017-10-21T09:51:55Z</time>
      </trkpt>
      <trkpt lat="59.220075560691" lon="17.69333343163">
        <ele>26.8</ele>
        <time>2017-10-21T09:51:56Z</time>
      </trkpt>
      <trkpt lat="59.220192488196" lon="17.693338796046">
        <ele>27.2</ele>
        <time>2017-10-21T09:51:58Z</time>
      </trkpt>
      <trkpt lat="59.220310086253" lon="17.693328737766">
        <ele>27.4</ele>
        <time>2017-10-21T09:52:00Z</time>
      </trkpt>
      <trkpt lat="59.220369430105" lon="17.693326307015">
        <ele>27.6</ele>
        <time>2017-10-21T09:52:01Z</time>
      </trkpt>
      <trkpt lat="59.220430366518" lon="17.693326642291">
        <ele>27.8</ele>
        <time>2017-10-21T09:52:02Z</time>
      </trkpt>
      <trkpt lat="59.22055508919" lon="17.693333683087">
        <ele>28</ele>
        <time>2017-10-21T09:52:04Z</time>
      </trkpt>
      <trkpt lat="59.220679392767" lon="17.693335359467">
        <ele>28.2</ele>
        <time>2017-10-21T09:52:06Z</time>
      </trkpt>
      <trkpt lat="59.220807132923" lon="17.693311722509">
        <ele>28.6</ele>
        <time>2017-10-21T09:52:08Z</time>
      </trkpt>
      <trkpt lat="59.220869997173" lon="17.693287414999">
        <ele>28.6</ele>
        <time>2017-10-21T09:52:09Z</time>
      </trkpt>
      <trkpt lat="59.2209314365" lon="17.693250031725">
        <ele>28.6</ele>
        <time>2017-10-21T09:52:10Z</time>
      </trkpt>
      <trkpt lat="59.22105297405" lon="17.69314567707">
        <ele>28.8</ele>
        <time>2017-10-21T09:52:12Z</time>
      </trkpt>
      <trkpt lat="59.221171913211" lon="17.693022044045">
        <ele>29</ele>
        <time>2017-10-21T09:52:14Z</time>
      </trkpt>
      <trkpt lat="59.221288170164" lon="17.692886257265">
        <ele>29</ele>
        <time>2017-10-21T09:52:16Z</time>
      </trkpt>
      <trkpt lat="59.221406522592" lon="17.692754996711">
        <ele>29</ele>
        <time>2017-10-21T09:52:18Z</time>
      </trkpt>
      <trkpt lat="59.221524455925" lon="17.692614013153">
        <ele>29</ele>
        <time>2017-10-21T09:52:20Z</time>
      </trkpt>
      <trkpt lat="59.221644652371" lon="17.692468754826">
        <ele>29.2</ele>
        <time>2017-10-21T09:52:22Z</time>
      </trkpt>
      <trkpt lat="59.221764345903" lon="17.692312264753">
        <ele>29.2</ele>
        <time>2017-10-21T09:52:24Z</time>
      </trkpt>
      <trkpt lat="59.221885380539" lon="17.692154517395">
        <ele>29.2</ele>
        <time>2017-10-21T09:52:26Z</time>
      </trkpt>
      <trkpt lat="59.222010270849" lon="17.692013366199">
        <ele>29.2</ele>
        <time>2017-10-21T09:52:28Z</time>
      </trkpt>
      <trkpt lat="59.222142034317" lon="17.691897444522">
        <ele>29.2</ele>
        <time>2017-10-21T09:52:30Z</time>
      </trkpt>
      <trkpt lat="59.222278659287" lon="17.691797616093">
        <ele>29.2</ele>
        <time>2017-10-21T09:52:32Z</time>
      </trkpt>
      <trkpt lat="59.222418888474" lon="17.691700972786">
        <ele>29.2</ele>
        <time>2017-10-21T09:52:34Z</time>
      </trkpt>
      <trkpt lat="59.2225575251" lon="17.691605419126">
        <ele>29.2</ele>
        <time>2017-10-21T09:52:36Z</time>
      </trkpt>
      <trkpt lat="59.222696329364" lon="17.691512463855">
        <ele>29.4</ele>
        <time>2017-10-21T09:52:38Z</time>
      </trkpt>
      <trkpt lat="59.222838234931" lon="17.691439625144">
        <ele>29.4</ele>
        <time>2017-10-21T09:52:40Z</time>
      </trkpt>
      <trkpt lat="59.222981397783" lon="17.691364774777">
        <ele>29.4</ele>
        <time>2017-10-21T09:52:42Z</time>
      </trkpt>
      <trkpt lat="59.223125650282" lon="17.691288750944">
        <ele>29.6</ele>
        <time>2017-10-21T09:52:44Z</time>
      </trkpt>
      <trkpt lat="59.223269399867" lon="17.691212224197">
        <ele>29.6</ele>
        <time>2017-10-21T09:52:46Z</time>
      </trkpt>
      <trkpt lat="59.223409796692" lon="17.691126728817">
        <ele>29.4</ele>
        <time>2017-10-21T09:52:48Z</time>
      </trkpt>
      <trkpt lat="59.223546505481" lon="17.691047603681">
        <ele>29.6</ele>
        <time>2017-10-21T09:52:50Z</time>
      </trkpt>
      <trkpt lat="59.223674329456" lon="17.690960180464">
        <ele>29.6</ele>
        <time>2017-10-21T09:52:52Z</time>
      </trkpt>
      <trkpt lat="59.223799387404" lon="17.690900585155">
        <ele>29.6</ele>
        <time>2017-10-21T09:52:54Z</time>
      </trkpt>
      <trkpt lat="59.223917656013" lon="17.690838894371">
        <ele>30</ele>
        <time>2017-10-21T09:52:56Z</time>
      </trkpt>
      <trkpt lat="59.224034667337" lon="17.690801762554">
        <ele>30</ele>
        <time>2017-10-21T09:52:58Z</time>
      </trkpt>
      <trkpt lat="59.224151930118" lon="17.690788183876">
        <ele>30.6</ele>
        <time>2017-10-21T09:53:00Z</time>
      </trkpt>
      <trkpt lat="59.224211609246" lon="17.690789441161">
        <ele>30.6</ele>
        <time>2017-10-21T09:53:01Z</time>
      </trkpt>
      <trkpt lat="59.224270031089" lon="17.690793967387">
        <ele>30.8</ele>
        <time>2017-10-21T09:53:02Z</time>
      </trkpt>
      <trkpt lat="59.224384108748" lon="17.690810228273">
        <ele>31.4</ele>
        <time>2017-10-21T09:53:04Z</time>
      </trkpt>
      <trkpt lat="59.224496426208" lon="17.690833278498">
        <ele>32</ele>
        <time>2017-10-21T09:53:06Z</time>
      </trkpt>
      <trkpt lat="59.224607654021" lon="17.690866889917">
        <ele>32.8</ele>
        <time>2017-10-21T09:53:08Z</time>
      </trkpt>
      <trkpt lat="59.22466305838" lon="17.690887006477">
        <ele>33.2</ele>
        <time>2017-10-21T09:53:09Z</time>
      </trkpt>
      <trkpt lat="59.224719133291" lon="17.69090603339">
        <ele>33.4</ele>
        <time>2017-10-21T09:53:10Z</time>
      </trkpt>
      <trkpt lat="59.224830361104" lon="17.690932939289">
        <ele>34.4</ele>
        <time>2017-10-21T09:53:12Z</time>
      </trkpt>
      <trkpt lat="59.224941840374" lon="17.690965880156">
        <ele>35.2</ele>
        <time>2017-10-21T09:53:14Z</time>
      </trkpt>
      <trkpt lat="59.225057342956" lon="17.690999994489">
        <ele>35.8</ele>
        <time>2017-10-21T09:53:16Z</time>
      </trkpt>
      <trkpt lat="59.225177623221" lon="17.691028241492">
        <ele>36.4</ele>
        <time>2017-10-21T09:53:18Z</time>
      </trkpt>
      <trkpt lat="59.225298657857" lon="17.691054979753">
        <ele>36.6</ele>
        <time>2017-10-21T09:53:20Z</time>
      </trkpt>
      <trkpt lat="59.225419524855" lon="17.6910812151">
        <ele>36.8</ele>
        <time>2017-10-21T09:53:22Z</time>
      </trkpt>
      <trkpt lat="59.225545756269" lon="17.691110216474">
        <ele>37</ele>
        <time>2017-10-21T09:53:24Z</time>
      </trkpt>
      <trkpt lat="59.225674418434" lon="17.691134440165">
        <ele>37</ele>
        <time>2017-10-21T09:53:26Z</time>
      </trkpt>
      <trkpt lat="59.225803499694" lon="17.691167632489">
        <ele>37</ele>
        <time>2017-10-21T09:53:28Z</time>
      </trkpt>
      <trkpt lat="59.225934424972" lon="17.691197052958">
        <ele>37</ele>
        <time>2017-10-21T09:53:30Z</time>
      </trkpt>
      <trkpt lat="59.226065434069" lon="17.691206608324">
        <ele>37</ele>
        <time>2017-10-21T09:53:32Z</time>
      </trkpt>
      <trkpt lat="59.226197029899" lon="17.691200657175">
        <ele>37</ele>
        <time>2017-10-21T09:53:34Z</time>
      </trkpt>
      <trkpt lat="59.226326614073" lon="17.691158915313">
        <ele>37</ele>
        <time>2017-10-21T09:53:36Z</time>
      </trkpt>
      <trkpt lat="59.226455192419" lon="17.691091105742">
        <ele>37</ele>
        <time>2017-10-21T09:53:38Z</time>
      </trkpt>
      <trkpt lat="59.226578909263" lon="17.690994713892">
        <ele>37</ele>
        <time>2017-10-21T09:53:40Z</time>
      </trkpt>
      <trkpt lat="59.226696088225" lon="17.690870158858">
        <ele>37.2</ele>
        <time>2017-10-21T09:53:42Z</time>
      </trkpt>
      <trkpt lat="59.226805639658" lon="17.690727163644">
        <ele>37.2</ele>
        <time>2017-10-21T09:53:44Z</time>
      </trkpt>
      <trkpt lat="59.226904881354" lon="17.690575115978">
        <ele>37.4</ele>
        <time>2017-10-21T09:53:46Z</time>
      </trkpt>
      <trkpt lat="59.227001105566" lon="17.690419464095">
        <ele>37.4</ele>
        <time>2017-10-21T09:53:48Z</time>
      </trkpt>
      <trkpt lat="59.227098335606" lon="17.690274457225">
        <ele>37.4</ele>
        <time>2017-10-21T09:53:50Z</time>
      </trkpt>
      <trkpt lat="59.227198750768" lon="17.690143448128">
        <ele>37.8</ele>
        <time>2017-10-21T09:53:52Z</time>
      </trkpt>
      <trkpt lat="59.227295645532" lon="17.690009756823">
        <ele>38.2</ele>
        <time>2017-10-21T09:53:54Z</time>
      </trkpt>
      <trkpt lat="59.227386924423" lon="17.689871455473">
        <ele>38.8</ele>
        <time>2017-10-21T09:53:56Z</time>
      </trkpt>
      <trkpt lat="59.227431683769" lon="17.689803310626">
        <ele>39.2</ele>
        <time>2017-10-21T09:53:57Z</time>
      </trkpt>
      <trkpt lat="59.227479879694" lon="17.689734746684">
        <ele>39.6</ele>
        <time>2017-10-21T09:53:58Z</time>
      </trkpt>
      <trkpt lat="59.227575433354" lon="17.689589823633">
        <ele>40.2</ele>
        <time>2017-10-21T09:54:00Z</time>
      </trkpt>
      <trkpt lat="59.227621701442" lon="17.689516984922">
        <ele>40.2</ele>
        <time>2017-10-21T09:54:01Z</time>
      </trkpt>
      <trkpt lat="59.227667382797" lon="17.689446912238">
        <ele>40.6</ele>
        <time>2017-10-21T09:54:02Z</time>
      </trkpt>
      <trkpt lat="59.227762433543" lon="17.68930341411">
        <ele>40.8</ele>
        <time>2017-10-21T09:54:04Z</time>
      </trkpt>
      <trkpt lat="59.227861004687" lon="17.689155473575">
        <ele>41.2</ele>
        <time>2017-10-21T09:54:06Z</time>
      </trkpt>
      <trkpt lat="59.227954379053" lon="17.689015328207">
        <ele>41.4</ele>
        <time>2017-10-21T09:54:08Z</time>
      </trkpt>
      <trkpt lat="59.228047250505" lon="17.688885744033">
        <ele>41.6</ele>
        <time>2017-10-21T09:54:10Z</time>
      </trkpt>
      <trkpt lat="59.228140876328" lon="17.688753812927">
        <ele>42.2</ele>
        <time>2017-10-21T09:54:12Z</time>
      </trkpt>
      <trkpt lat="59.228227712812" lon="17.68861106917">
        <ele>42.6</ele>
        <time>2017-10-21T09:54:14Z</time>
      </trkpt>
      <trkpt lat="59.228312705278" lon="17.688479305702">
        <ele>43.4</ele>
        <time>2017-10-21T09:54:16Z</time>
      </trkpt>
      <trkpt lat="59.228391578957" lon="17.688371430649">
        <ele>44</ele>
        <time>2017-10-21T09:54:18Z</time>
      </trkpt>
      <trkpt lat="59.228450503714" lon="17.688308901675">
        <ele>44.4</ele>
        <time>2017-10-21T09:54:20Z</time>
      </trkpt>
      <trkpt lat="59.228465255858" lon="17.688289790943">
        <ele>44.6</ele>
        <time>2017-10-21T09:54:22Z</time>
      </trkpt>
      <trkpt lat="59.228467183695" lon="17.68828920421">
        <ele>44.8</ele>
        <time>2017-10-21T09:54:23Z</time>
      </trkpt>
      <trkpt lat="59.228523090968" lon="17.688216700775">
        <ele>47</ele>
        <time>2017-10-21T09:54:53Z</time>
      </trkpt>
      <trkpt lat="59.228533987438" lon="17.688180826243">
        <ele>47</ele>
        <time>2017-10-21T09:54:54Z</time>
      </trkpt>
      <trkpt lat="59.228578998241" lon="17.68808720042">
        <ele>47</ele>
        <time>2017-10-21T09:54:56Z</time>
      </trkpt>
      <trkpt lat="59.228608251072" lon="17.6880218216">
        <ele>47</ele>
        <time>2017-10-21T09:54:57Z</time>
      </trkpt>
      <trkpt lat="59.228630295469" lon="17.687942947921">
        <ele>47</ele>
        <time>2017-10-21T09:54:58Z</time>
      </trkpt>
      <trkpt lat="59.22863691717" lon="17.687766928021">
        <ele>47</ele>
        <time>2017-10-21T09:55:00Z</time>
      </trkpt>
      <trkpt lat="59.228592576919" lon="17.687585459886">
        <ele>46.8</ele>
        <time>2017-10-21T09:55:02Z</time>
      </trkpt>
      <trkpt lat="59.228559133138" lon="17.68749292371">
        <ele>46.8</ele>
        <time>2017-10-21T09:55:03Z</time>
      </trkpt>
      <trkpt lat="59.228522001321" lon="17.687395442213">
        <ele>46.8</ele>
        <time>2017-10-21T09:55:04Z</time>
      </trkpt>
      <trkpt lat="59.228439271968" lon="17.687188576921">
        <ele>46.6</ele>
        <time>2017-10-21T09:55:06Z</time>
      </trkpt>
      <trkpt lat="59.228345310869" lon="17.686970815159">
        <ele>46.4</ele>
        <time>2017-10-21T09:55:08Z</time>
      </trkpt>
      <trkpt lat="59.228244979526" lon="17.686737630701">
        <ele>45.8</ele>
        <time>2017-10-21T09:55:10Z</time>
      </trkpt>
      <trkpt lat="59.228191922099" lon="17.686616344608">
        <ele>45.6</ele>
        <time>2017-10-21T09:55:11Z</time>
      </trkpt>
      <trkpt lat="59.22813735593" lon="17.686493214497">
        <ele>45.2</ele>
        <time>2017-10-21T09:55:12Z</time>
      </trkpt>
      <trkpt lat="59.228026882488" lon="17.686236560719">
        <ele>44.4</ele>
        <time>2017-10-21T09:55:14Z</time>
      </trkpt>
      <trkpt lat="59.227915654675" lon="17.685977392371">
        <ele>43.8</ele>
        <time>2017-10-21T09:55:16Z</time>
      </trkpt>
      <trkpt lat="59.227860166497" lon="17.6858509095">
        <ele>43.4</ele>
        <time>2017-10-21T09:55:17Z</time>
      </trkpt>
      <trkpt lat="59.227804762138" lon="17.685726103009">
        <ele>43</ele>
        <time>2017-10-21T09:55:18Z</time>
      </trkpt>
      <trkpt lat="59.227696970904" lon="17.685477160579">
        <ele>42.2</ele>
        <time>2017-10-21T09:55:20Z</time>
      </trkpt>
      <trkpt lat="59.227587922385" lon="17.685225787398">
        <ele>41</ele>
        <time>2017-10-21T09:55:22Z</time>
      </trkpt>
      <trkpt lat="59.227473928545" lon="17.684968127792">
        <ele>40</ele>
        <time>2017-10-21T09:55:24Z</time>
      </trkpt>
      <trkpt lat="59.22741735072" lon="17.684841812559">
        <ele>39.8</ele>
        <time>2017-10-21T09:55:25Z</time>
      </trkpt>
      <trkpt lat="59.227364293293" lon="17.684724465959">
        <ele>39.8</ele>
        <time>2017-10-21T09:55:26Z</time>
      </trkpt>
      <trkpt lat="59.227272176212" lon="17.684526401662">
        <ele>39.6</ele>
        <time>2017-10-21T09:55:28Z</time>
      </trkpt>
      <trkpt lat="59.22721283236" lon="17.684368821942">
        <ele>39.4</ele>
        <time>2017-10-21T09:55:30Z</time>
      </trkpt>
      <trkpt lat="59.227227333047" lon="17.684230855868">
        <ele>38.8</ele>
        <time>2017-10-21T09:55:32Z</time>
      </trkpt>
      <trkpt lat="59.227297741007" lon="17.684176122061">
        <ele>37.6</ele>
        <time>2017-10-21T09:55:34Z</time>
      </trkpt>
      <trkpt lat="59.2273938814" lon="17.684193053499">
        <ele>37.2</ele>
        <time>2017-10-21T09:55:36Z</time>
      </trkpt>
      <trkpt lat="59.227513491113" lon="17.684179726278">
        <ele>37</ele>
        <time>2017-10-21T09:55:38Z</time>
      </trkpt>
      <trkpt lat="59.227644416391" lon="17.684111246155">
        <ele>37</ele>
        <time>2017-10-21T09:55:40Z</time>
      </trkpt>
      <trkpt lat="59.227777688601" lon="17.683995659754">
        <ele>36.8</ele>
        <time>2017-10-21T09:55:42Z</time>
      </trkpt>
      <trkpt lat="59.227842061593" lon="17.683927431088">
        <ele>36.8</ele>
        <time>2017-10-21T09:55:43Z</time>
      </trkpt>
      <trkpt lat="59.227904003834" lon="17.683860459707">
        <ele>36.6</ele>
        <time>2017-10-21T09:55:44Z</time>
      </trkpt>
      <trkpt lat="59.228022859176" lon="17.683738586881">
        <ele>36.6</ele>
        <time>2017-10-21T09:55:46Z</time>
      </trkpt>
      <trkpt lat="59.228130482772" lon="17.683636160063">
        <ele>36.6</ele>
        <time>2017-10-21T09:55:48Z</time>
      </trkpt>
      <trkpt lat="59.228238693101" lon="17.683551586692">
        <ele>36.8</ele>
        <time>2017-10-21T09:55:50Z</time>
      </trkpt>
      <trkpt lat="59.228335839322" lon="17.6834788318">
        <ele>37</ele>
        <time>2017-10-21T09:55:52Z</time>
      </trkpt>
      <trkpt lat="59.228383951428" lon="17.683450500978">
        <ele>37</ele>
        <time>2017-10-21T09:55:53Z</time>
      </trkpt>
      <trkpt lat="59.228431309163" lon="17.683428037486">
        <ele>37</ele>
        <time>2017-10-21T09:55:54Z</time>
      </trkpt>
      <trkpt lat="59.228481181468" lon="17.683407753288">
        <ele>37.6</ele>
        <time>2017-10-21T09:55:55Z</time>
      </trkpt>
      <trkpt lat="59.22853549618" lon="17.683383781054">
        <ele>38.4</ele>
        <time>2017-10-21T09:55:56Z</time>
      </trkpt>
      <trkpt lat="59.228591822548" lon="17.683360479372">
        <ele>39.2</ele>
        <time>2017-10-21T09:55:57Z</time>
      </trkpt>
      <trkpt lat="59.228653848608" lon="17.683339189346">
        <ele>39.6</ele>
        <time>2017-10-21T09:55:58Z</time>
      </trkpt>
      <trkpt lat="59.22879952603" lon="17.683294849095">
        <ele>40</ele>
        <time>2017-10-21T09:56:00Z</time>
      </trkpt>
      <trkpt lat="59.22887999227" lon="17.683282527702">
        <ele>40.2</ele>
        <time>2017-10-21T09:56:01Z</time>
      </trkpt>
      <trkpt lat="59.22896464946" lon="17.683274816354">
        <ele>40.2</ele>
        <time>2017-10-21T09:56:02Z</time>
      </trkpt>
      <trkpt lat="59.229147710156" lon="17.683277163286">
        <ele>40.2</ele>
        <time>2017-10-21T09:56:04Z</time>
      </trkpt>
      <trkpt lat="59.22933261487" lon="17.683313289275">
        <ele>40.2</ele>
        <time>2017-10-21T09:56:06Z</time>
      </trkpt>
      <trkpt lat="59.22952204581" lon="17.683367939263">
        <ele>39.2</ele>
        <time>2017-10-21T09:56:08Z</time>
      </trkpt>
      <trkpt lat="59.229615839271" lon="17.683399706664">
        <ele>38.4</ele>
        <time>2017-10-21T09:56:09Z</time>
      </trkpt>
      <trkpt lat="59.229711309112" lon="17.683431474065">
        <ele>37.4</ele>
        <time>2017-10-21T09:56:10Z</time>
      </trkpt>
      <trkpt lat="59.229900740052" lon="17.683479418533">
        <ele>35.6</ele>
        <time>2017-10-21T09:56:12Z</time>
      </trkpt>
      <trkpt lat="59.230089835716" lon="17.683515209246">
        <ele>34.6</ele>
        <time>2017-10-21T09:56:14Z</time>
      </trkpt>
      <trkpt lat="59.230284966348" lon="17.683525267526">
        <ele>34</ele>
        <time>2017-10-21T09:56:16Z</time>
      </trkpt>
      <trkpt lat="59.23048847888" lon="17.683513532866">
        <ele>33.8</ele>
        <time>2017-10-21T09:56:18Z</time>
      </trkpt>
      <trkpt lat="59.230591911526" lon="17.683502720215">
        <ele>33.4</ele>
        <time>2017-10-21T09:56:19Z</time>
      </trkpt>
      <trkpt lat="59.230694757439" lon="17.683494589772">
        <ele>33.2</ele>
        <time>2017-10-21T09:56:20Z</time>
      </trkpt>
      <trkpt lat="59.230901790369" lon="17.683475814316">
        <ele>32.8</ele>
        <time>2017-10-21T09:56:22Z</time>
      </trkpt>
      <trkpt lat="59.231114522991" lon="17.683437089938">
        <ele>32</ele>
        <time>2017-10-21T09:56:24Z</time>
      </trkpt>
      <trkpt lat="59.231329602545" lon="17.683356120784">
        <ele>30.6</ele>
        <time>2017-10-21T09:56:26Z</time>
      </trkpt>
      <trkpt lat="59.23154208371" lon="17.683221591289">
        <ele>29.4</ele>
        <time>2017-10-21T09:56:28Z</time>
      </trkpt>
      <trkpt lat="59.231754564875" lon="17.683060658809">
        <ele>28</ele>
        <time>2017-10-21T09:56:30Z</time>
      </trkpt>
      <trkpt lat="59.231971069352" lon="17.682901151252">
        <ele>26.4</ele>
        <time>2017-10-21T09:56:32Z</time>
      </trkpt>
      <trkpt lat="59.232193189702" lon="17.682728819388">
        <ele>25.2</ele>
        <time>2017-10-21T09:56:34Z</time>
      </trkpt>
      <trkpt lat="59.232303830782" lon="17.682620776697">
        <ele>24.6</ele>
        <time>2017-10-21T09:56:35Z</time>
      </trkpt>
      <trkpt lat="59.232407598704" lon="17.682486750116">
        <ele>22.8</ele>
        <time>2017-10-21T09:56:36Z</time>
      </trkpt>
      <trkpt lat="59.232576493989" lon="17.682162538224">
        <ele>21.2</ele>
        <time>2017-10-21T09:56:38Z</time>
      </trkpt>
      <trkpt lat="59.232699205005" lon="17.68180664275">
        <ele>20.2</ele>
        <time>2017-10-21T09:56:40Z</time>
      </trkpt>
      <trkpt lat="59.232750586052" lon="17.681628695013">
        <ele>19.2</ele>
        <time>2017-10-21T09:56:41Z</time>
      </trkpt>
      <trkpt lat="59.232798027606" lon="17.681453094208">
        <ele>18.6</ele>
        <time>2017-10-21T09:56:42Z</time>
      </trkpt>
      <trkpt lat="59.232896514931" lon="17.681127625031">
        <ele>18.2</ele>
        <time>2017-10-21T09:56:44Z</time>
      </trkpt>
      <trkpt lat="59.23299969612" lon="17.680855464738">
        <ele>18</ele>
        <time>2017-10-21T09:56:46Z</time>
      </trkpt>
      <trkpt lat="59.233130369941" lon="17.680663770685">
        <ele>17.8</ele>
        <time>2017-10-21T09:56:48Z</time>
      </trkpt>
      <trkpt lat="59.23329054805" lon="17.680535695253">
        <ele>17.8</ele>
        <time>2017-10-21T09:56:50Z</time>
      </trkpt>
      <trkpt lat="59.23338107257" lon="17.680485236215">
        <ele>17.8</ele>
        <time>2017-10-21T09:56:51Z</time>
      </trkpt>
      <trkpt lat="59.233478973162" lon="17.680435866824">
        <ele>17.8</ele>
        <time>2017-10-21T09:56:52Z</time>
      </trkpt>
      <trkpt lat="59.233676786002" lon="17.680335954576">
        <ele>17.8</ele>
        <time>2017-10-21T09:56:54Z</time>
      </trkpt>
      <trkpt lat="59.233868144779" lon="17.680208130601">
        <ele>17.8</ele>
        <time>2017-10-21T09:56:56Z</time>
      </trkpt>
      <trkpt lat="59.234047349801" lon="17.680050131786">
        <ele>17.8</ele>
        <time>2017-10-21T09:56:58Z</time>
      </trkpt>
      <trkpt lat="59.234219933122" lon="17.679882242329">
        <ele>17.8</ele>
        <time>2017-10-21T09:57:00Z</time>
      </trkpt>
      <trkpt lat="59.234389331321" lon="17.679711419207">
        <ele>17.2</ele>
        <time>2017-10-21T09:57:02Z</time>
      </trkpt>
      <trkpt lat="59.234469462285" lon="17.679614189167">
        <ele>16.8</ele>
        <time>2017-10-21T09:57:03Z</time>
      </trkpt>
      <trkpt lat="59.234545737575" lon="17.679509331598">
        <ele>16.6</ele>
        <time>2017-10-21T09:57:04Z</time>
      </trkpt>
      <trkpt lat="59.234615642621" lon="17.679393829016">
        <ele>16.4</ele>
        <time>2017-10-21T09:57:05Z</time>
      </trkpt>
      <trkpt lat="59.234679596518" lon="17.679264999213">
        <ele>16.4</ele>
        <time>2017-10-21T09:57:06Z</time>
      </trkpt>
      <trkpt lat="59.234774731083" lon="17.678959478958">
        <ele>16.2</ele>
        <time>2017-10-21T09:57:08Z</time>
      </trkpt>
      <trkpt lat="59.234814461289" lon="17.678631495211">
        <ele>16.2</ele>
        <time>2017-10-21T09:57:10Z</time>
      </trkpt>
      <trkpt lat="59.234806330846" lon="17.678324633852">
        <ele>16.2</ele>
        <time>2017-10-21T09:57:12Z</time>
      </trkpt>
      <trkpt lat="59.234787723028" lon="17.678044091659">
        <ele>16.4</ele>
        <time>2017-10-21T09:57:14Z</time>
      </trkpt>
      <trkpt lat="59.234782358612" lon="17.677771428452">
        <ele>16.6</ele>
        <time>2017-10-21T09:57:16Z</time>
      </trkpt>
      <trkpt lat="59.234792165435" lon="17.677507985335">
        <ele>17.4</ele>
        <time>2017-10-21T09:57:18Z</time>
      </trkpt>
      <trkpt lat="59.23480767195" lon="17.67738351412">
        <ele>18</ele>
        <time>2017-10-21T09:57:19Z</time>
      </trkpt>
      <trkpt lat="59.234823513741" lon="17.677260048733">
        <ele>18.8</ele>
        <time>2017-10-21T09:57:20Z</time>
      </trkpt>
      <trkpt lat="59.234839439351" lon="17.677137421536">
        <ele>19.8</ele>
        <time>2017-10-21T09:57:21Z</time>
      </trkpt>
      <trkpt lat="59.234855197323" lon="17.677016051624">
        <ele>20.4</ele>
        <time>2017-10-21T09:57:22Z</time>
      </trkpt>
      <trkpt lat="59.234866931983" lon="17.676896274273">
        <ele>21</ele>
        <time>2017-10-21T09:57:23Z</time>
      </trkpt>
      <trkpt lat="59.234874391874" lon="17.676780771691">
        <ele>21.4</ele>
        <time>2017-10-21T09:57:24Z</time>
      </trkpt>
      <trkpt lat="59.234875313883" lon="17.676676752312">
        <ele>21.6</ele>
        <time>2017-10-21T09:57:25Z</time>
      </trkpt>
      <trkpt lat="59.23487221258" lon="17.676579270815">
        <ele>22</ele>
        <time>2017-10-21T09:57:26Z</time>
      </trkpt>
      <trkpt lat="59.23486466887" lon="17.676390845703">
        <ele>22.6</ele>
        <time>2017-10-21T09:57:28Z</time>
      </trkpt>
      <trkpt lat="59.23486383068" lon="17.676292106921">
        <ele>23</ele>
        <time>2017-10-21T09:57:29Z</time>
      </trkpt>
      <trkpt lat="59.234867853992" lon="17.676189680103">
        <ele>23.4</ele>
        <time>2017-10-21T09:57:30Z</time>
      </trkpt>
      <trkpt lat="59.234899621393" lon="17.675980216422">
        <ele>24.2</ele>
        <time>2017-10-21T09:57:32Z</time>
      </trkpt>
      <trkpt lat="59.234933903364" lon="17.675880220355">
        <ele>24.4</ele>
        <time>2017-10-21T09:57:33Z</time>
      </trkpt>
      <trkpt lat="59.234976483416" lon="17.675790785482">
        <ele>24.8</ele>
        <time>2017-10-21T09:57:34Z</time>
      </trkpt>
      <trkpt lat="59.235023589694" lon="17.675718449685">
        <ele>25.4</ele>
        <time>2017-10-21T09:57:35Z</time>
      </trkpt>
      <trkpt lat="59.235079161691" lon="17.675671511045">
        <ele>25.6</ele>
        <time>2017-10-21T09:57:36Z</time>
      </trkpt>
      <trkpt lat="59.235214445557" lon="17.675657932367">
        <ele>25.6</ele>
        <time>2017-10-21T09:57:38Z</time>
      </trkpt>
      <trkpt lat="59.235356267305" lon="17.675758096072">
        <ele>25.6</ele>
        <time>2017-10-21T09:57:40Z</time>
      </trkpt>
      <trkpt lat="59.235429357473" lon="17.675824396901">
        <ele>25.6</ele>
        <time>2017-10-21T09:57:41Z</time>
      </trkpt>
      <trkpt lat="59.235502615279" lon="17.675892290291">
        <ele>25.6</ele>
        <time>2017-10-21T09:57:42Z</time>
      </trkpt>
      <trkpt lat="59.235652483651" lon="17.67602145537">
        <ele>25.4</ele>
        <time>2017-10-21T09:57:44Z</time>
      </trkpt>
      <trkpt lat="59.235730351502" lon="17.67607258496">
        <ele>24.8</ele>
        <time>2017-10-21T09:57:45Z</time>
      </trkpt>
      <trkpt lat="59.235809979552" lon="17.676108040397">
        <ele>24.4</ele>
        <time>2017-10-21T09:57:46Z</time>
      </trkpt>
      <trkpt lat="59.235967559272" lon="17.676119942695">
        <ele>23.6</ele>
        <time>2017-10-21T09:57:48Z</time>
      </trkpt>
      <trkpt lat="59.236040984716" lon="17.676101753972">
        <ele>23.2</ele>
        <time>2017-10-21T09:57:49Z</time>
      </trkpt>
      <trkpt lat="59.236114745436" lon="17.676074009883">
        <ele>22.8</ele>
        <time>2017-10-21T09:57:50Z</time>
      </trkpt>
      <trkpt lat="59.236190098717" lon="17.676034950229">
        <ele>22.6</ele>
        <time>2017-10-21T09:57:51Z</time>
      </trkpt>
      <trkpt lat="59.236265703455" lon="17.675976528386">
        <ele>22.6</ele>
        <time>2017-10-21T09:57:52Z</time>
      </trkpt>
      <trkpt lat="59.236420098053" lon="17.675790282568">
        <ele>22.2</ele>
        <time>2017-10-21T09:57:54Z</time>
      </trkpt>
      <trkpt lat="59.236553789358" lon="17.675485097589">
        <ele>22</ele>
        <time>2017-10-21T09:57:56Z</time>
      </trkpt>
      <trkpt lat="59.236641883127" lon="17.675127358097">
        <ele>22</ele>
        <time>2017-10-21T09:57:58Z</time>
      </trkpt>
      <trkpt lat="59.236737520606" lon="17.674817395435">
        <ele>21.8</ele>
        <time>2017-10-21T09:58:00Z</time>
      </trkpt>
      <trkpt lat="59.23685117917" lon="17.674589994488">
        <ele>20.2</ele>
        <time>2017-10-21T09:58:02Z</time>
      </trkpt>
      <trkpt lat="59.236958216033" lon="17.674394947675">
        <ele>18.8</ele>
        <time>2017-10-21T09:58:04Z</time>
      </trkpt>
      <trkpt lat="59.237057709186" lon="17.674214066273">
        <ele>18.6</ele>
        <time>2017-10-21T09:58:06Z</time>
      </trkpt>
      <trkpt lat="59.2371085035" lon="17.674141898114">
        <ele>18.6</ele>
        <time>2017-10-21T09:58:07Z</time>
      </trkpt>
      <trkpt lat="59.237161980022" lon="17.674097054949">
        <ele>18.6</ele>
        <time>2017-10-21T09:58:08Z</time>
      </trkpt>
      <trkpt lat="59.237265328849" lon="17.674121111002">
        <ele>18.4</ele>
        <time>2017-10-21T09:58:10Z</time>
      </trkpt>
      <trkpt lat="59.237363899993" lon="17.674236865041">
        <ele>18.6</ele>
        <time>2017-10-21T09:58:12Z</time>
      </trkpt>
      <trkpt lat="59.237412850289" lon="17.674310206666">
        <ele>19</ele>
        <time>2017-10-21T09:58:13Z</time>
      </trkpt>
      <trkpt lat="59.237461800585" lon="17.674387152508">
        <ele>19.6</ele>
        <time>2017-10-21T09:58:14Z</time>
      </trkpt>
      <trkpt lat="59.237510164148" lon="17.674466948196">
        <ele>20.4</ele>
        <time>2017-10-21T09:58:15Z</time>
      </trkpt>
      <trkpt lat="59.237559198263" lon="17.674548504083">
        <ele>20.8</ele>
        <time>2017-10-21T09:58:16Z</time>
      </trkpt>
      <trkpt lat="59.237660619253" lon="17.674723434336">
        <ele>21.4</ele>
        <time>2017-10-21T09:58:18Z</time>
      </trkpt>
      <trkpt lat="59.237767823754" lon="17.674910769801">
        <ele>21.6</ele>
        <time>2017-10-21T09:58:20Z</time>
      </trkpt>
      <trkpt lat="59.237883996888" lon="17.675098021447">
        <ele>21.6</ele>
        <time>2017-10-21T09:58:22Z</time>
      </trkpt>
      <trkpt lat="59.238008216646" lon="17.67527965722">
        <ele>21.6</ele>
        <time>2017-10-21T09:58:24Z</time>
      </trkpt>
      <trkpt lat="59.238134950974" lon="17.675453497826">
        <ele>21.4</ele>
        <time>2017-10-21T09:58:26Z</time>
      </trkpt>
      <trkpt lat="59.238264199872" lon="17.675602611827">
        <ele>20.8</ele>
        <time>2017-10-21T09:58:28Z</time>
      </trkpt>
      <trkpt lat="59.238402417403" lon="17.675723814101">
        <ele>19.8</ele>
        <time>2017-10-21T09:58:30Z</time>
      </trkpt>
      <trkpt lat="59.238552034318" lon="17.675797323364">
        <ele>19.2</ele>
        <time>2017-10-21T09:58:32Z</time>
      </trkpt>
      <trkpt lat="59.238703327613" lon="17.675844932556">
        <ele>19</ele>
        <time>2017-10-21T09:58:34Z</time>
      </trkpt>
      <trkpt lat="59.238857554573" lon="17.675878208699">
        <ele>18.8</ele>
        <time>2017-10-21T09:58:36Z</time>
      </trkpt>
      <trkpt lat="59.239010859524" lon="17.675921962217">
        <ele>18.8</ele>
        <time>2017-10-21T09:58:38Z</time>
      </trkpt>
      <trkpt lat="59.239161733724" lon="17.675983653001">
        <ele>18.8</ele>
        <time>2017-10-21T09:58:40Z</time>
      </trkpt>
      <trkpt lat="59.239310093354" lon="17.676063616327">
        <ele>18.6</ele>
        <time>2017-10-21T09:58:42Z</time>
      </trkpt>
      <trkpt lat="59.239456106052" lon="17.676147686784">
        <ele>18.4</ele>
        <time>2017-10-21T09:58:44Z</time>
      </trkpt>
      <trkpt lat="59.239596083782" lon="17.676231757241">
        <ele>18.4</ele>
        <time>2017-10-21T09:58:46Z</time>
      </trkpt>
      <trkpt lat="59.239730780915" lon="17.676302668115">
        <ele>18.2</ele>
        <time>2017-10-21T09:58:48Z</time>
      </trkpt>
      <trkpt lat="59.239861706193" lon="17.676371064419">
        <ele>18.2</ele>
        <time>2017-10-21T09:58:50Z</time>
      </trkpt>
      <trkpt lat="59.239922977882" lon="17.676420936724">
        <ele>18.2</ele>
        <time>2017-10-21T09:58:51Z</time>
      </trkpt>
      <trkpt lat="59.23998098063" lon="17.676489500666">
        <ele>18.2</ele>
        <time>2017-10-21T09:58:52Z</time>
      </trkpt>
      <trkpt lat="59.240075360824" lon="17.6767062566">
        <ele>18.2</ele>
        <time>2017-10-21T09:58:54Z</time>
      </trkpt>
      <trkpt lat="59.24012934026" lon="17.676989732458">
        <ele>18.2</ele>
        <time>2017-10-21T09:58:56Z</time>
      </trkpt>
      <trkpt lat="59.240150630286" lon="17.67713960083">
        <ele>18.2</ele>
        <time>2017-10-21T09:58:57Z</time>
      </trkpt>
      <trkpt lat="59.240176446538" lon="17.677290223573">
        <ele>18.2</ele>
        <time>2017-10-21T09:58:58Z</time>
      </trkpt>
      <trkpt lat="59.24026093609" lon="17.677562719142">
        <ele>18</ele>
        <time>2017-10-21T09:59:00Z</time>
      </trkpt>
      <trkpt lat="59.240370152247" lon="17.677801268016">
        <ele>17.8</ele>
        <time>2017-10-21T09:59:02Z</time>
      </trkpt>
      <trkpt lat="59.24042857409" lon="17.677920290996">
        <ele>16.8</ele>
        <time>2017-10-21T09:59:03Z</time>
      </trkpt>
      <trkpt lat="59.24048808558" lon="17.678041074175">
        <ele>16.4</ele>
        <time>2017-10-21T09:59:04Z</time>
      </trkpt>
      <trkpt lat="59.240619932867" lon="17.678264367991">
        <ele>15.6</ele>
        <time>2017-10-21T09:59:06Z</time>
      </trkpt>
      <trkpt lat="59.240783463736" lon="17.678391102319">
        <ele>15</ele>
        <time>2017-10-21T09:59:08Z</time>
      </trkpt>
      <trkpt lat="59.240956466152" lon="17.678406525015">
        <ele>14.4</ele>
        <time>2017-10-21T09:59:10Z</time>
      </trkpt>
      <trkpt lat="59.241117733908" lon="17.678305271663">
        <ele>13.2</ele>
        <time>2017-10-21T09:59:12Z</time>
      </trkpt>
      <trkpt lat="59.241233655585" lon="17.678076361974">
        <ele>12.2</ele>
        <time>2017-10-21T09:59:14Z</time>
      </trkpt>
      <trkpt lat="59.241301381337" lon="17.677784336578">
        <ele>12.2</ele>
        <time>2017-10-21T09:59:16Z</time>
      </trkpt>
      <trkpt lat="59.241362066293" lon="17.677489209879">
        <ele>12</ele>
        <time>2017-10-21T09:59:18Z</time>
      </trkpt>
      <trkpt lat="59.241397186454" lon="17.677343197181">
        <ele>12</ele>
        <time>2017-10-21T09:59:19Z</time>
      </trkpt>
      <trkpt lat="59.241434737366" lon="17.677197771216">
        <ele>11.8</ele>
        <time>2017-10-21T09:59:20Z</time>
      </trkpt>
      <trkpt lat="59.241515790339" lon="17.676909517675">
        <ele>11.8</ele>
        <time>2017-10-21T09:59:22Z</time>
      </trkpt>
      <trkpt lat="59.241602375366" lon="17.676625035989">
        <ele>12</ele>
        <time>2017-10-21T09:59:24Z</time>
      </trkpt>
      <trkpt lat="59.241689128031" lon="17.676337453">
        <ele>12.2</ele>
        <time>2017-10-21T09:59:26Z</time>
      </trkpt>
      <trkpt lat="59.241776718886" lon="17.676051546391">
        <ele>12.2</ele>
        <time>2017-10-21T09:59:28Z</time>
      </trkpt>
      <trkpt lat="59.241864980293" lon="17.675771842388">
        <ele>12.2</ele>
        <time>2017-10-21T09:59:30Z</time>
      </trkpt>
      <trkpt lat="59.241951397682" lon="17.675494317679">
        <ele>12.2</ele>
        <time>2017-10-21T09:59:32Z</time>
      </trkpt>
      <trkpt lat="59.242040581098" lon="17.675220313368">
        <ele>12.2</ele>
        <time>2017-10-21T09:59:34Z</time>
      </trkpt>
      <trkpt lat="59.242128758686" lon="17.674947901618">
        <ele>12.2</ele>
        <time>2017-10-21T09:59:36Z</time>
      </trkpt>
      <trkpt lat="59.242218193559" lon="17.674678758809">
        <ele>12.2</ele>
        <time>2017-10-21T09:59:38Z</time>
      </trkpt>
      <trkpt lat="59.242301006731" lon="17.67441548333">
        <ele>12.2</ele>
        <time>2017-10-21T09:59:40Z</time>
      </trkpt>
      <trkpt lat="59.242383987541" lon="17.674165535072">
        <ele>12.4</ele>
        <time>2017-10-21T09:59:42Z</time>
      </trkpt>
      <trkpt lat="59.242470321111" lon="17.673946013111">
        <ele>12.4</ele>
        <time>2017-10-21T09:59:44Z</time>
      </trkpt>
      <trkpt lat="59.242574005214" lon="17.673776698731">
        <ele>12.6</ele>
        <time>2017-10-21T09:59:46Z</time>
      </trkpt>
      <trkpt lat="59.2426405575" lon="17.673716851965">
        <ele>13</ele>
        <time>2017-10-21T09:59:47Z</time>
      </trkpt>
      <trkpt lat="59.242714150582" lon="17.673672176438">
        <ele>13.2</ele>
        <time>2017-10-21T09:59:48Z</time>
      </trkpt>
      <trkpt lat="59.242789420044" lon="17.673635882811">
        <ele>13.4</ele>
        <time>2017-10-21T09:59:49Z</time>
      </trkpt>
      <trkpt lat="59.242866114429" lon="17.673600930288">
        <ele>13.4</ele>
        <time>2017-10-21T09:59:50Z</time>
      </trkpt>
      <trkpt lat="59.243022017769" lon="17.673533204536">
        <ele>13.6</ele>
        <time>2017-10-21T09:59:52Z</time>
      </trkpt>
      <trkpt lat="59.243178507842" lon="17.67346916682">
        <ele>13.6</ele>
        <time>2017-10-21T09:59:54Z</time>
      </trkpt>
      <trkpt lat="59.243332650983" lon="17.673400351421">
        <ele>13.6</ele>
        <time>2017-10-21T09:59:56Z</time>
      </trkpt>
      <trkpt lat="59.243483357545" lon="17.673331452203">
        <ele>13.8</ele>
        <time>2017-10-21T09:59:58Z</time>
      </trkpt>
      <trkpt lat="59.243628112958" lon="17.673252746162">
        <ele>14</ele>
        <time>2017-10-21T10:00:00Z</time>
      </trkpt>
      <trkpt lat="59.243768509783" lon="17.673137578856">
        <ele>13.8</ele>
        <time>2017-10-21T10:00:02Z</time>
      </trkpt>
      <trkpt lat="59.243904296563" lon="17.672987123751">
        <ele>13.8</ele>
        <time>2017-10-21T10:00:04Z</time>
      </trkpt>
      <trkpt lat="59.24397663236" lon="17.67292853427">
        <ele>13.8</ele>
        <time>2017-10-21T10:00:05Z</time>
      </trkpt>
      <trkpt lat="59.244056679505" lon="17.672893917023">
        <ele>13.8</ele>
        <time>2017-10-21T10:00:06Z</time>
      </trkpt>
      <trkpt lat="59.244224233686" lon="17.672905148769">
        <ele>13.6</ele>
        <time>2017-10-21T10:00:08Z</time>
      </trkpt>
      <trkpt lat="59.244386423451" lon="17.672986453199">
        <ele>13.6</ele>
        <time>2017-10-21T10:00:10Z</time>
      </trkpt>
      <trkpt lat="59.244547607388" lon="17.673084269972">
        <ele>13.6</ele>
        <time>2017-10-21T10:00:12Z</time>
      </trkpt>
      <trkpt lat="59.244703846004" lon="17.673174794492">
        <ele>13.2</ele>
        <time>2017-10-21T10:00:14Z</time>
      </trkpt>
      <trkpt lat="59.244855558394" lon="17.673246962651">
        <ele>12.6</ele>
        <time>2017-10-21T10:00:16Z</time>
      </trkpt>
      <trkpt lat="59.245002325463" lon="17.673281160803">
        <ele>12.4</ele>
        <time>2017-10-21T10:00:18Z</time>
      </trkpt>
      <trkpt lat="59.245136771139" lon="17.673288033961">
        <ele>12.4</ele>
        <time>2017-10-21T10:00:20Z</time>
      </trkpt>
      <trkpt lat="59.245253950101" lon="17.67329817606">
        <ele>12.4</ele>
        <time>2017-10-21T10:00:22Z</time>
      </trkpt>
      <trkpt lat="59.245359142946" lon="17.673305300675">
        <ele>12.4</ele>
        <time>2017-10-21T10:00:24Z</time>
      </trkpt>
      <trkpt lat="59.2454065845" lon="17.673290464712">
        <ele>12.6</ele>
        <time>2017-10-21T10:00:25Z</time>
      </trkpt>
      <trkpt lat="59.245448074905" lon="17.673246543556">
        <ele>12.8</ele>
        <time>2017-10-21T10:00:26Z</time>
      </trkpt>
      <trkpt lat="59.245508340766" lon="17.673089047655">
        <ele>13.4</ele>
        <time>2017-10-21T10:00:28Z</time>
      </trkpt>
      <trkpt lat="59.245536755407" lon="17.672870615341">
        <ele>14.2</ele>
        <time>2017-10-21T10:00:30Z</time>
      </trkpt>
      <trkpt lat="59.245557961614" lon="17.672631395915">
        <ele>14.4</ele>
        <time>2017-10-21T10:00:32Z</time>
      </trkpt>
      <trkpt lat="59.245580006011" lon="17.672383124037">
        <ele>14.8</ele>
        <time>2017-10-21T10:00:34Z</time>
      </trkpt>
      <trkpt lat="59.245608336833" lon="17.672134684521">
        <ele>15.2</ele>
        <time>2017-10-21T10:00:36Z</time>
      </trkpt>
      <trkpt lat="59.245643876089" lon="17.671894375448">
        <ele>15.4</ele>
        <time>2017-10-21T10:00:38Z</time>
      </trkpt>
      <trkpt lat="59.245689641263" lon="17.671668818519">
        <ele>15.6</ele>
        <time>2017-10-21T10:00:40Z</time>
      </trkpt>
      <trkpt lat="59.245738172464" lon="17.67144493797">
        <ele>15.8</ele>
        <time>2017-10-21T10:00:42Z</time>
      </trkpt>
      <trkpt lat="59.245785194923" lon="17.671209071304">
        <ele>15.8</ele>
        <time>2017-10-21T10:00:44Z</time>
      </trkpt>
      <trkpt lat="59.245836240694" lon="17.670964738919">
        <ele>16.4</ele>
        <time>2017-10-21T10:00:46Z</time>
      </trkpt>
      <trkpt lat="59.245890052492" lon="17.670714203928">
        <ele>17.2</ele>
        <time>2017-10-21T10:00:48Z</time>
      </trkpt>
      <trkpt lat="59.24591536583" lon="17.670589481256">
        <ele>17.4</ele>
        <time>2017-10-21T10:00:49Z</time>
      </trkpt>
      <trkpt lat="59.24593967334" lon="17.67046677024">
        <ele>18</ele>
        <time>2017-10-21T10:00:50Z</time>
      </trkpt>
      <trkpt lat="59.245996334984" lon="17.670222270217">
        <ele>18.6</ele>
        <time>2017-10-21T10:00:52Z</time>
      </trkpt>
      <trkpt lat="59.246053583361" lon="17.669966873724">
        <ele>18.8</ele>
        <time>2017-10-21T10:00:54Z</time>
      </trkpt>
      <trkpt lat="59.24610312039" lon="17.669690271024">
        <ele>18.8</ele>
        <time>2017-10-21T10:00:56Z</time>
      </trkpt>
      <trkpt lat="59.246148298831" lon="17.669394389954">
        <ele>18.8</ele>
        <time>2017-10-21T10:00:58Z</time>
      </trkpt>
      <trkpt lat="59.246189873055" lon="17.669074704288">
        <ele>18.8</ele>
        <time>2017-10-21T10:01:00Z</time>
      </trkpt>
      <trkpt lat="59.246226669596" lon="17.668736494623">
        <ele>18.6</ele>
        <time>2017-10-21T10:01:02Z</time>
      </trkpt>
      <trkpt lat="59.246261705938" lon="17.668384203366">
        <ele>18</ele>
        <time>2017-10-21T10:01:04Z</time>
      </trkpt>
      <trkpt lat="59.246273524417" lon="17.668202232317">
        <ele>17.6</ele>
        <time>2017-10-21T10:01:05Z</time>
      </trkpt>
      <trkpt lat="59.246281235765" lon="17.668017830517">
        <ele>17.2</ele>
        <time>2017-10-21T10:01:06Z</time>
      </trkpt>
      <trkpt lat="59.246289030932" lon="17.667648021089">
        <ele>16.4</ele>
        <time>2017-10-21T10:01:08Z</time>
      </trkpt>
      <trkpt lat="59.246291377864" lon="17.667284330448">
        <ele>16</ele>
        <time>2017-10-21T10:01:10Z</time>
      </trkpt>
      <trkpt lat="59.246287689828" lon="17.666924160205">
        <ele>15.4</ele>
        <time>2017-10-21T10:01:12Z</time>
      </trkpt>
      <trkpt lat="59.246285929629" lon="17.666573545328">
        <ele>14.6</ele>
        <time>2017-10-21T10:01:14Z</time>
      </trkpt>
      <trkpt lat="59.246284504706" lon="17.666228378686">
        <ele>14.4</ele>
        <time>2017-10-21T10:01:16Z</time>
      </trkpt>
      <trkpt lat="59.246284085611" lon="17.66605621446">
        <ele>14.2</ele>
        <time>2017-10-21T10:01:17Z</time>
      </trkpt>
      <trkpt lat="59.246283582697" lon="17.665882541492">
        <ele>14</ele>
        <time>2017-10-21T10:01:18Z</time>
      </trkpt>
      <trkpt lat="59.246282409231" lon="17.665531591339">
        <ele>14</ele>
        <time>2017-10-21T10:01:20Z</time>
      </trkpt>
      <trkpt lat="59.246280984308" lon="17.665175192951">
        <ele>14</ele>
        <time>2017-10-21T10:01:22Z</time>
      </trkpt>
      <trkpt lat="59.246280732851" lon="17.664816028536">
        <ele>14</ele>
        <time>2017-10-21T10:01:24Z</time>
      </trkpt>
      <trkpt lat="59.24627997848" lon="17.664462228537">
        <ele>14</ele>
        <time>2017-10-21T10:01:26Z</time>
      </trkpt>
      <trkpt lat="59.246274614064" lon="17.664114714963">
        <ele>14.2</ele>
        <time>2017-10-21T10:01:28Z</time>
      </trkpt>
      <trkpt lat="59.246272267132" lon="17.663774158366">
        <ele>14.2</ele>
        <time>2017-10-21T10:01:30Z</time>
      </trkpt>
      <trkpt lat="59.246272099494" lon="17.66344106166">
        <ele>14.4</ele>
        <time>2017-10-21T10:01:32Z</time>
      </trkpt>
      <trkpt lat="59.246274530245" lon="17.663109808972">
        <ele>14.6</ele>
        <time>2017-10-21T10:01:34Z</time>
      </trkpt>
      <trkpt lat="59.246276709539" lon="17.662767911271">
        <ele>15.2</ele>
        <time>2017-10-21T10:01:36Z</time>
      </trkpt>
      <trkpt lat="59.246278553557" lon="17.662592142828">
        <ele>15.2</ele>
        <time>2017-10-21T10:01:37Z</time>
      </trkpt>
      <trkpt lat="59.24628081667" lon="17.662414530367">
        <ele>15.4</ele>
        <time>2017-10-21T10:01:38Z</time>
      </trkpt>
      <trkpt lat="59.246286181086" lon="17.662054108667">
        <ele>15.4</ele>
        <time>2017-10-21T10:01:40Z</time>
      </trkpt>
      <trkpt lat="59.246296574642" lon="17.661689998931">
        <ele>15.4</ele>
        <time>2017-10-21T10:01:42Z</time>
      </trkpt>
      <trkpt lat="59.246309985682" lon="17.661324128996">
        <ele>15.4</ele>
        <time>2017-10-21T10:01:44Z</time>
      </trkpt>
      <trkpt lat="59.246324486369" lon="17.660953984292">
        <ele>15.2</ele>
        <time>2017-10-21T10:01:46Z</time>
      </trkpt>
      <trkpt lat="59.24634116635" lon="17.660585515968">
        <ele>15</ele>
        <time>2017-10-21T10:01:48Z</time>
      </trkpt>
      <trkpt lat="59.246360947634" lon="17.66022492663">
        <ele>14.8</ele>
        <time>2017-10-21T10:01:50Z</time>
      </trkpt>
      <trkpt lat="59.24637553214" lon="17.65988043054">
        <ele>14.6</ele>
        <time>2017-10-21T10:01:52Z</time>
      </trkpt>
      <trkpt lat="59.246387350619" lon="17.659562840349">
        <ele>14.6</ele>
        <time>2017-10-21T10:01:54Z</time>
      </trkpt>
      <trkpt lat="59.246397492718" lon="17.65927525736">
        <ele>14.6</ele>
        <time>2017-10-21T10:01:56Z</time>
      </trkpt>
      <trkpt lat="59.246407718636" lon="17.65900955113">
        <ele>14.6</ele>
        <time>2017-10-21T10:01:58Z</time>
      </trkpt>
      <trkpt lat="59.246422806056" lon="17.658763710003">
        <ele>15</ele>
        <time>2017-10-21T10:02:00Z</time>
      </trkpt>
      <trkpt lat="59.246438564028" lon="17.658541589653">
        <ele>16</ele>
        <time>2017-10-21T10:02:02Z</time>
      </trkpt>
      <trkpt lat="59.246441497693" lon="17.658435474799">
        <ele>16.8</ele>
        <time>2017-10-21T10:02:03Z</time>
      </trkpt>
      <trkpt lat="59.24644426372" lon="17.658325252814">
        <ele>17.6</ele>
        <time>2017-10-21T10:02:04Z</time>
      </trkpt>
      <trkpt lat="59.246450214869" lon="17.658206732748">
        <ele>18.4</ele>
        <time>2017-10-21T10:02:05Z</time>
      </trkpt>
      <trkpt lat="59.24645348381" lon="17.658084524646">
        <ele>19</ele>
        <time>2017-10-21T10:02:06Z</time>
      </trkpt>
      <trkpt lat="59.246455914561" lon="17.65795762268">
        <ele>19.4</ele>
        <time>2017-10-21T10:02:07Z</time>
      </trkpt>
      <trkpt lat="59.246460273149" lon="17.657831475085">
        <ele>20</ele>
        <time>2017-10-21T10:02:08Z</time>
      </trkpt>
      <trkpt lat="59.246466559574" lon="17.657703232015">
        <ele>20.6</ele>
        <time>2017-10-21T10:02:09Z</time>
      </trkpt>
      <trkpt lat="59.246473432732" lon="17.65756786433">
        <ele>21</ele>
        <time>2017-10-21T10:02:10Z</time>
      </trkpt>
      <trkpt lat="59.246487095229" lon="17.657286064852">
        <ele>21.4</ele>
        <time>2017-10-21T10:02:12Z</time>
      </trkpt>
      <trkpt lat="59.246495812405" lon="17.657141309439">
        <ele>21.6</ele>
        <time>2017-10-21T10:02:13Z</time>
      </trkpt>
      <trkpt lat="59.24650377521" lon="17.656993536542">
        <ele>21.6</ele>
        <time>2017-10-21T10:02:14Z</time>
      </trkpt>
      <trkpt lat="59.246519784639" lon="17.656695057083">
        <ele>21.6</ele>
        <time>2017-10-21T10:02:16Z</time>
      </trkpt>
      <trkpt lat="59.246536799896" lon="17.656396661443">
        <ele>21.6</ele>
        <time>2017-10-21T10:02:18Z</time>
      </trkpt>
      <trkpt lat="59.246547947823" lon="17.656102037658">
        <ele>21.4</ele>
        <time>2017-10-21T10:02:20Z</time>
      </trkpt>
      <trkpt lat="59.246560855949" lon="17.655803222923">
        <ele>21</ele>
        <time>2017-10-21T10:02:22Z</time>
      </trkpt>
      <trkpt lat="59.246567896745" lon="17.655496445383">
        <ele>20.6</ele>
        <time>2017-10-21T10:02:24Z</time>
      </trkpt>
      <trkpt lat="59.246567142374" lon="17.655191344223">
        <ele>20.6</ele>
        <time>2017-10-21T10:02:26Z</time>
      </trkpt>
      <trkpt lat="59.246557335551" lon="17.654891775117">
        <ele>20.6</ele>
        <time>2017-10-21T10:02:28Z</time>
      </trkpt>
      <trkpt lat="59.246543589235" lon="17.654586841595">
        <ele>20.6</ele>
        <time>2017-10-21T10:02:30Z</time>
      </trkpt>
      <trkpt lat="59.246531100204" lon="17.654283332996">
        <ele>20.6</ele>
        <time>2017-10-21T10:02:32Z</time>
      </trkpt>
      <trkpt lat="59.246515593689" lon="17.653979153845">
        <ele>20.6</ele>
        <time>2017-10-21T10:02:34Z</time>
      </trkpt>
      <trkpt lat="59.246500673907" lon="17.653674387961">
        <ele>20.8</ele>
        <time>2017-10-21T10:02:36Z</time>
      </trkpt>
      <trkpt lat="59.24648365865" lon="17.653367191326">
        <ele>20.8</ele>
        <time>2017-10-21T10:02:38Z</time>
      </trkpt>
      <trkpt lat="59.246465134651" lon="17.653058988863">
        <ele>21</ele>
        <time>2017-10-21T10:02:40Z</time>
      </trkpt>
      <trkpt lat="59.246449544317" lon="17.652748607106">
        <ele>21.2</ele>
        <time>2017-10-21T10:02:42Z</time>
      </trkpt>
      <trkpt lat="59.246432696698" lon="17.652439482634">
        <ele>21.2</ele>
        <time>2017-10-21T10:02:44Z</time>
      </trkpt>
      <trkpt lat="59.246415010889" lon="17.652132369818">
        <ele>21.2</ele>
        <time>2017-10-21T10:02:46Z</time>
      </trkpt>
      <trkpt lat="59.246399923469" lon="17.651823580622">
        <ele>21.4</ele>
        <time>2017-10-21T10:02:48Z</time>
      </trkpt>
      <trkpt lat="59.246382572936" lon="17.651513869417">
        <ele>21.2</ele>
        <time>2017-10-21T10:02:50Z</time>
      </trkpt>
      <trkpt lat="59.24636463567" lon="17.651204661126">
        <ele>21.2</ele>
        <time>2017-10-21T10:02:52Z</time>
      </trkpt>
      <trkpt lat="59.246348793879" lon="17.650894614645">
        <ele>21.2</ele>
        <time>2017-10-21T10:02:54Z</time>
      </trkpt>
      <trkpt lat="59.246335215201" lon="17.650576772997">
        <ele>21.2</ele>
        <time>2017-10-21T10:02:56Z</time>
      </trkpt>
      <trkpt lat="59.246315266279" lon="17.650256584417">
        <ele>21.2</ele>
        <time>2017-10-21T10:02:58Z</time>
      </trkpt>
      <trkpt lat="59.246297245194" lon="17.649934551819">
        <ele>21.2</ele>
        <time>2017-10-21T10:03:00Z</time>
      </trkpt>
      <trkpt lat="59.246280397575" lon="17.64960589752">
        <ele>21.2</ele>
        <time>2017-10-21T10:03:02Z</time>
      </trkpt>
      <trkpt lat="59.246265561612" lon="17.649275231565">
        <ele>21.2</ele>
        <time>2017-10-21T10:03:04Z</time>
      </trkpt>
      <trkpt lat="59.246250558011" lon="17.648935177882">
        <ele>21.2</ele>
        <time>2017-10-21T10:03:06Z</time>
      </trkpt>
      <trkpt lat="59.246233542754" lon="17.648586407023">
        <ele>21.2</ele>
        <time>2017-10-21T10:03:08Z</time>
      </trkpt>
      <trkpt lat="59.246217281868" lon="17.648225901504">
        <ele>20.8</ele>
        <time>2017-10-21T10:03:10Z</time>
      </trkpt>
      <trkpt lat="59.246199260783" lon="17.647863468148">
        <ele>20.4</ele>
        <time>2017-10-21T10:03:12Z</time>
      </trkpt>
      <trkpt lat="59.24618274844" lon="17.647501956801">
        <ele>20</ele>
        <time>2017-10-21T10:03:14Z</time>
      </trkpt>
      <trkpt lat="59.246167577201" lon="17.647145390775">
        <ele>20</ele>
        <time>2017-10-21T10:03:16Z</time>
      </trkpt>
      <trkpt lat="59.246148969383" lon="17.646803325436">
        <ele>19.4</ele>
        <time>2017-10-21T10:03:18Z</time>
      </trkpt>
      <trkpt lat="59.246140503664" lon="17.646636525626">
        <ele>19.2</ele>
        <time>2017-10-21T10:03:19Z</time>
      </trkpt>
      <trkpt lat="59.246133211411" lon="17.646474503499">
        <ele>19.2</ele>
        <time>2017-10-21T10:03:20Z</time>
      </trkpt>
      <trkpt lat="59.246120890018" lon="17.646163618828">
        <ele>19.2</ele>
        <time>2017-10-21T10:03:22Z</time>
      </trkpt>
      <trkpt lat="59.246109322996" lon="17.645866983387">
        <ele>19.2</ele>
        <time>2017-10-21T10:03:24Z</time>
      </trkpt>
      <trkpt lat="59.246094989947" lon="17.64557168905">
        <ele>19.4</ele>
        <time>2017-10-21T10:03:26Z</time>
      </trkpt>
      <trkpt lat="59.246080824536" lon="17.645267090804">
        <ele>20</ele>
        <time>2017-10-21T10:03:28Z</time>
      </trkpt>
      <trkpt lat="59.246067413496" lon="17.644949249156">
        <ele>20.2</ele>
        <time>2017-10-21T10:03:30Z</time>
      </trkpt>
      <trkpt lat="59.24605366718" lon="17.64462118159">
        <ele>20.2</ele>
        <time>2017-10-21T10:03:32Z</time>
      </trkpt>
      <trkpt lat="59.246038998855" lon="17.644291689101">
        <ele>20.2</ele>
        <time>2017-10-21T10:03:34Z</time>
      </trkpt>
      <trkpt lat="59.246028102385" lon="17.643967644847">
        <ele>20.2</ele>
        <time>2017-10-21T10:03:36Z</time>
      </trkpt>
      <trkpt lat="59.246018714657" lon="17.643652401588">
        <ele>20.2</ele>
        <time>2017-10-21T10:03:38Z</time>
      </trkpt>
      <trkpt lat="59.246010668033" lon="17.643341181641">
        <ele>20</ele>
        <time>2017-10-21T10:03:40Z</time>
      </trkpt>
      <trkpt lat="59.24600337578" lon="17.643035577567">
        <ele>20</ele>
        <time>2017-10-21T10:03:42Z</time>
      </trkpt>
      <trkpt lat="59.24599499388" lon="17.642727039828">
        <ele>20</ele>
        <time>2017-10-21T10:03:44Z</time>
      </trkpt>
      <trkpt lat="59.245984265048" lon="17.642412383302">
        <ele>20</ele>
        <time>2017-10-21T10:03:46Z</time>
      </trkpt>
      <trkpt lat="59.245978565356" lon="17.642092194722">
        <ele>20</ele>
        <time>2017-10-21T10:03:48Z</time>
      </trkpt>
      <trkpt lat="59.245970854008" lon="17.641766138812">
        <ele>20.2</ele>
        <time>2017-10-21T10:03:50Z</time>
      </trkpt>
      <trkpt lat="59.245965321954" lon="17.641604116685">
        <ele>20.4</ele>
        <time>2017-10-21T10:03:51Z</time>
      </trkpt>
      <trkpt lat="59.245960711909" lon="17.641442262196">
        <ele>20.6</ele>
        <time>2017-10-21T10:03:52Z</time>
      </trkpt>
      <trkpt lat="59.245955515131" lon="17.641114949001">
        <ele>21</ele>
        <time>2017-10-21T10:03:54Z</time>
      </trkpt>
      <trkpt lat="59.245953335837" lon="17.64078813872">
        <ele>21.2</ele>
        <time>2017-10-21T10:03:56Z</time>
      </trkpt>
      <trkpt lat="59.245946462679" lon="17.640460071154">
        <ele>21.2</ele>
        <time>2017-10-21T10:03:58Z</time>
      </trkpt>
      <trkpt lat="59.245935817666" lon="17.640136110719">
        <ele>21.2</ele>
        <time>2017-10-21T10:04:00Z</time>
      </trkpt>
      <trkpt lat="59.245918550952" lon="17.639813072293">
        <ele>21.2</ele>
        <time>2017-10-21T10:04:02Z</time>
      </trkpt>
      <trkpt lat="59.245900781324" lon="17.639476790465">
        <ele>21</ele>
        <time>2017-10-21T10:04:04Z</time>
      </trkpt>
      <trkpt lat="59.245889801035" lon="17.639121062629">
        <ele>21</ele>
        <time>2017-10-21T10:04:06Z</time>
      </trkpt>
      <trkpt lat="59.245884604257" lon="17.638757288169">
        <ele>21</ele>
        <time>2017-10-21T10:04:08Z</time>
      </trkpt>
      <trkpt lat="59.245876138538" lon="17.638402901437">
        <ele>20.6</ele>
        <time>2017-10-21T10:04:10Z</time>
      </trkpt>
      <trkpt lat="59.245869600656" lon="17.63805144837">
        <ele>20</ele>
        <time>2017-10-21T10:04:12Z</time>
      </trkpt>
      <trkpt lat="59.245863230412" lon="17.637707287556">
        <ele>19.4</ele>
        <time>2017-10-21T10:04:14Z</time>
      </trkpt>
      <trkpt lat="59.245853591227" lon="17.637369496986">
        <ele>19.2</ele>
        <time>2017-10-21T10:04:16Z</time>
      </trkpt>
      <trkpt lat="59.245845460784" lon="17.637036567918">
        <ele>19.2</ele>
        <time>2017-10-21T10:04:18Z</time>
      </trkpt>
      <trkpt lat="59.245839341997" lon="17.636721324659">
        <ele>19.2</ele>
        <time>2017-10-21T10:04:20Z</time>
      </trkpt>
      <trkpt lat="59.24583573778" lon="17.636412703101">
        <ele>19.2</ele>
        <time>2017-10-21T10:04:22Z</time>
      </trkpt>
      <trkpt lat="59.245832636477" lon="17.636113469271">
        <ele>19.4</ele>
        <time>2017-10-21T10:04:24Z</time>
      </trkpt>
      <trkpt lat="59.245829954269" lon="17.635807278464">
        <ele>20</ele>
        <time>2017-10-21T10:04:26Z</time>
      </trkpt>
      <trkpt lat="59.245821740007" lon="17.635496142336">
        <ele>20.4</ele>
        <time>2017-10-21T10:04:28Z</time>
      </trkpt>
      <trkpt lat="59.245823835482" lon="17.63517478029">
        <ele>21.2</ele>
        <time>2017-10-21T10:04:30Z</time>
      </trkpt>
      <trkpt lat="59.245822913473" lon="17.635012590525">
        <ele>21.4</ele>
        <time>2017-10-21T10:04:31Z</time>
      </trkpt>
      <trkpt lat="59.245816962324" lon="17.634851071312">
        <ele>21.6</ele>
        <time>2017-10-21T10:04:32Z</time>
      </trkpt>
      <trkpt lat="59.245808664243" lon="17.634528703438">
        <ele>21.8</ele>
        <time>2017-10-21T10:04:34Z</time>
      </trkpt>
      <trkpt lat="59.245800952895" lon="17.634205162098">
        <ele>21.8</ele>
        <time>2017-10-21T10:04:36Z</time>
      </trkpt>
      <trkpt lat="59.245790726977" lon="17.633884302966">
        <ele>21.8</ele>
        <time>2017-10-21T10:04:38Z</time>
      </trkpt>
      <trkpt lat="59.245783853819" lon="17.633566377499">
        <ele>21.8</ele>
        <time>2017-10-21T10:04:40Z</time>
      </trkpt>
      <trkpt lat="59.245776729204" lon="17.633246775652">
        <ele>21.8</ele>
        <time>2017-10-21T10:04:42Z</time>
      </trkpt>
      <trkpt lat="59.24576868258" lon="17.632929017823">
        <ele>21.8</ele>
        <time>2017-10-21T10:04:44Z</time>
      </trkpt>
      <trkpt lat="59.245761390327" lon="17.632612936374">
        <ele>21.8</ele>
        <time>2017-10-21T10:04:46Z</time>
      </trkpt>
      <trkpt lat="59.24575610973" lon="17.632299285676">
        <ele>21.8</ele>
        <time>2017-10-21T10:04:48Z</time>
      </trkpt>
      <trkpt lat="59.245749990943" lon="17.631991586127">
        <ele>21.8</ele>
        <time>2017-10-21T10:04:50Z</time>
      </trkpt>
      <trkpt lat="59.245742447233" lon="17.631683299845">
        <ele>22</ele>
        <time>2017-10-21T10:04:52Z</time>
      </trkpt>
      <trkpt lat="59.245738088645" lon="17.631528150876">
        <ele>22.4</ele>
        <time>2017-10-21T10:04:53Z</time>
      </trkpt>
      <trkpt lat="59.245734903523" lon="17.631372918088">
        <ele>22.6</ele>
        <time>2017-10-21T10:04:54Z</time>
      </trkpt>
      <trkpt lat="59.245728198003" lon="17.631059183571">
        <ele>22.8</ele>
        <time>2017-10-21T10:04:56Z</time>
      </trkpt>
      <trkpt lat="59.24571922937" lon="17.630734636403">
        <ele>23</ele>
        <time>2017-10-21T10:04:58Z</time>
      </trkpt>
      <trkpt lat="59.24571168566" lon="17.630399947136">
        <ele>23</ele>
        <time>2017-10-21T10:05:00Z</time>
      </trkpt>
      <trkpt lat="59.245703890493" lon="17.630061402195">
        <ele>23</ele>
        <time>2017-10-21T10:05:02Z</time>
      </trkpt>
      <trkpt lat="59.245695592412" lon="17.629723863082">
        <ele>23</ele>
        <time>2017-10-21T10:05:04Z</time>
      </trkpt>
      <trkpt lat="59.245690227996" lon="17.629390598738">
        <ele>22.8</ele>
        <time>2017-10-21T10:05:06Z</time>
      </trkpt>
      <trkpt lat="59.245683690114" lon="17.629066973579">
        <ele>22.6</ele>
        <time>2017-10-21T10:05:08Z</time>
      </trkpt>
      <trkpt lat="59.245679247707" lon="17.62875675946">
        <ele>22.6</ele>
        <time>2017-10-21T10:05:10Z</time>
      </trkpt>
      <trkpt lat="59.245671620178" lon="17.62845920201">
        <ele>22.6</ele>
        <time>2017-10-21T10:05:12Z</time>
      </trkpt>
      <trkpt lat="59.245663489735" lon="17.628169858822">
        <ele>22.6</ele>
        <time>2017-10-21T10:05:14Z</time>
      </trkpt>
      <trkpt lat="59.245656197482" lon="17.62788252729">
        <ele>22.6</ele>
        <time>2017-10-21T10:05:16Z</time>
      </trkpt>
      <trkpt lat="59.245650749247" lon="17.627593603197">
        <ele>22.8</ele>
        <time>2017-10-21T10:05:18Z</time>
      </trkpt>
      <trkpt lat="59.24564379227" lon="17.62730417619">
        <ele>23.4</ele>
        <time>2017-10-21T10:05:20Z</time>
      </trkpt>
      <trkpt lat="59.245641110062" lon="17.627158834044">
        <ele>23.8</ele>
        <time>2017-10-21T10:05:21Z</time>
      </trkpt>
      <trkpt lat="59.245637422026" lon="17.627011144966">
        <ele>24</ele>
        <time>2017-10-21T10:05:22Z</time>
      </trkpt>
      <trkpt lat="59.245625100633" lon="17.626710570032">
        <ele>24.6</ele>
        <time>2017-10-21T10:05:24Z</time>
      </trkpt>
      <trkpt lat="59.245617473104" lon="17.62639641642">
        <ele>24.6</ele>
        <time>2017-10-21T10:05:26Z</time>
      </trkpt>
      <trkpt lat="59.245612443964" lon="17.62606114042">
        <ele>24.6</ele>
        <time>2017-10-21T10:05:28Z</time>
      </trkpt>
      <trkpt lat="59.245600541666" lon="17.625722260203">
        <ele>24.6</ele>
        <time>2017-10-21T10:05:30Z</time>
      </trkpt>
      <trkpt lat="59.24558763354" lon="17.625380446321">
        <ele>24.6</ele>
        <time>2017-10-21T10:05:32Z</time>
      </trkpt>
      <trkpt lat="59.245580341287" lon="17.625028238883">
        <ele>24.4</ele>
        <time>2017-10-21T10:05:34Z</time>
      </trkpt>
      <trkpt lat="59.245570366826" lon="17.624664548242">
        <ele>23.8</ele>
        <time>2017-10-21T10:05:36Z</time>
      </trkpt>
      <trkpt lat="59.245562320202" lon="17.624300857601">
        <ele>23.2</ele>
        <time>2017-10-21T10:05:38Z</time>
      </trkpt>
      <trkpt lat="59.245565337686" lon="17.624119138009">
        <ele>22.8</ele>
        <time>2017-10-21T10:05:39Z</time>
      </trkpt>
      <trkpt lat="59.245580844201" lon="17.623942112281">
        <ele>22.6</ele>
        <time>2017-10-21T10:05:40Z</time>
      </trkpt>
      <trkpt lat="59.2456580415" lon="17.623621923701">
        <ele>21.6</ele>
        <time>2017-10-21T10:05:42Z</time>
      </trkpt>
      <trkpt lat="59.245709422547" lon="17.623485885464">
        <ele>21</ele>
        <time>2017-10-21T10:05:43Z</time>
      </trkpt>
      <trkpt lat="59.245762228517" lon="17.623357810032">
        <ele>21</ele>
        <time>2017-10-21T10:05:44Z</time>
      </trkpt>
      <trkpt lat="59.245808748062" lon="17.623225124555">
        <ele>20.6</ele>
        <time>2017-10-21T10:05:45Z</time>
      </trkpt>
      <trkpt lat="59.245848981182" lon="17.623084560092">
        <ele>19.8</ele>
        <time>2017-10-21T10:05:46Z</time>
      </trkpt>
      <trkpt lat="59.245909833776" lon="17.622788427565">
        <ele>19</ele>
        <time>2017-10-21T10:05:48Z</time>
      </trkpt>
      <trkpt lat="59.245930369431" lon="17.622630512569">
        <ele>18.8</ele>
        <time>2017-10-21T10:05:49Z</time>
      </trkpt>
      <trkpt lat="59.245951743276" lon="17.622471507926">
        <ele>18.6</ele>
        <time>2017-10-21T10:05:50Z</time>
      </trkpt>
      <trkpt lat="59.24599247931" lon="17.622155091201">
        <ele>18.4</ele>
        <time>2017-10-21T10:05:52Z</time>
      </trkpt>
      <trkpt lat="59.246035897552" lon="17.621840769951">
        <ele>18.4</ele>
        <time>2017-10-21T10:05:54Z</time>
      </trkpt>
      <trkpt lat="59.246082081821" lon="17.621515468412">
        <ele>17.8</ele>
        <time>2017-10-21T10:05:56Z</time>
      </trkpt>
      <trkpt lat="59.246133211411" lon="17.62119209471">
        <ele>16.8</ele>
        <time>2017-10-21T10:05:58Z</time>
      </trkpt>
      <trkpt lat="59.246162883337" lon="17.621032754791">
        <ele>16.6</ele>
        <time>2017-10-21T10:05:59Z</time>
      </trkpt>
      <trkpt lat="59.246191381797" lon="17.620875175071">
        <ele>16.4</ele>
        <time>2017-10-21T10:06:00Z</time>
      </trkpt>
      <trkpt lat="59.24624812726" lon="17.620542832736">
        <ele>16</ele>
        <time>2017-10-21T10:06:02Z</time>
      </trkpt>
      <trkpt lat="59.246307806388" lon="17.620215938636">
        <ele>15.6</ele>
        <time>2017-10-21T10:06:04Z</time>
      </trkpt>
      <trkpt lat="59.246380142185" lon="17.619904048137">
        <ele>14.8</ele>
        <time>2017-10-21T10:06:06Z</time>
      </trkpt>
      <trkpt lat="59.246419453296" lon="17.619753593032">
        <ele>14.4</ele>
        <time>2017-10-21T10:06:07Z</time>
      </trkpt>
      <trkpt lat="59.246465302289" lon="17.619606155411">
        <ele>14.2</ele>
        <time>2017-10-21T10:06:08Z</time>
      </trkpt>
      <trkpt lat="59.246562951424" lon="17.619335420041">
        <ele>14</ele>
        <time>2017-10-21T10:06:10Z</time>
      </trkpt>
      <trkpt lat="59.246619110154" lon="17.619216648518">
        <ele>13.8</ele>
        <time>2017-10-21T10:06:11Z</time>
      </trkpt>
      <trkpt lat="59.246686919725" lon="17.619129644396">
        <ele>13.8</ele>
        <time>2017-10-21T10:06:12Z</time>
      </trkpt>
      <trkpt lat="59.246811307121" lon="17.618915654489">
        <ele>13.8</ele>
        <time>2017-10-21T10:06:14Z</time>
      </trkpt>
      <trkpt lat="59.246940053105" lon="17.618698730917">
        <ele>13.6</ele>
        <time>2017-10-21T10:06:16Z</time>
      </trkpt>
      <trkpt lat="59.247067793261" lon="17.618484070458">
        <ele>13.6</ele>
        <time>2017-10-21T10:06:18Z</time>
      </trkpt>
      <trkpt lat="59.247188995535" lon="17.61827435532">
        <ele>13.6</ele>
        <time>2017-10-21T10:06:20Z</time>
      </trkpt>
      <trkpt lat="59.247307767058" lon="17.618075117557">
        <ele>13.4</ele>
        <time>2017-10-21T10:06:22Z</time>
      </trkpt>
      <trkpt lat="59.247427712047" lon="17.617886860083">
        <ele>13.4</ele>
        <time>2017-10-21T10:06:24Z</time>
      </trkpt>
      <trkpt lat="59.247550842158" lon="17.617719389721">
        <ele>13.4</ele>
        <time>2017-10-21T10:06:26Z</time>
      </trkpt>
      <trkpt lat="59.247683443816" lon="17.617564743666">
        <ele>13.4</ele>
        <time>2017-10-21T10:06:28Z</time>
      </trkpt>
      <trkpt lat="59.247822667175" lon="17.617405319928">
        <ele>13.4</ele>
        <time>2017-10-21T10:06:30Z</time>
      </trkpt>
      <trkpt lat="59.247887710719" lon="17.617308089888">
        <ele>13.4</ele>
        <time>2017-10-21T10:06:31Z</time>
      </trkpt>
      <trkpt lat="59.247943534173" lon="17.617183953949">
        <ele>13.4</ele>
        <time>2017-10-21T10:06:32Z</time>
      </trkpt>
      <trkpt lat="59.247988880252" lon="17.616858736229">
        <ele>13.4</ele>
        <time>2017-10-21T10:06:34Z</time>
      </trkpt>
      <trkpt lat="59.247992484469" lon="17.616509797732">
        <ele>13.2</ele>
        <time>2017-10-21T10:06:36Z</time>
      </trkpt>
      <trkpt lat="59.248002039835" lon="17.616158260846">
        <ele>12.4</ele>
        <time>2017-10-21T10:06:38Z</time>
      </trkpt>
      <trkpt lat="59.248019306549" lon="17.615985342249">
        <ele>11.6</ele>
        <time>2017-10-21T10:06:39Z</time>
      </trkpt>
      <trkpt lat="59.248046631543" lon="17.615815776412">
        <ele>10.8</ele>
        <time>2017-10-21T10:06:40Z</time>
      </trkpt>
      <trkpt lat="59.24808208698" lon="17.615656436493">
        <ele>10.2</ele>
        <time>2017-10-21T10:06:41Z</time>
      </trkpt>
      <trkpt lat="59.248132462199" lon="17.615518051324">
        <ele>9.8</ele>
        <time>2017-10-21T10:06:42Z</time>
      </trkpt>
      <trkpt lat="59.248272104653" lon="17.615350497143">
        <ele>9</ele>
        <time>2017-10-21T10:06:44Z</time>
      </trkpt>
      <trkpt lat="59.248432198943" lon="17.615355191007">
        <ele>8</ele>
        <time>2017-10-21T10:06:46Z</time>
      </trkpt>
      <trkpt lat="59.248510904984" lon="17.615377989775">
        <ele>7.6</ele>
        <time>2017-10-21T10:06:47Z</time>
      </trkpt>
      <trkpt lat="59.248589108111" lon="17.615399195982">
        <ele>7.2</ele>
        <time>2017-10-21T10:06:48Z</time>
      </trkpt>
      <trkpt lat="59.24873671337" lon="17.615412523203">
        <ele>6.2</ele>
        <time>2017-10-21T10:06:50Z</time>
      </trkpt>
      <trkpt lat="59.248867135734" lon="17.615414115764">
        <ele>5.8</ele>
        <time>2017-10-21T10:06:52Z</time>
      </trkpt>
      <trkpt lat="59.248983811782" lon="17.61544881683">
        <ele>5.8</ele>
        <time>2017-10-21T10:06:54Z</time>
      </trkpt>
      <trkpt lat="59.249090178093" lon="17.615485864828">
        <ele>5.8</ele>
        <time>2017-10-21T10:06:56Z</time>
      </trkpt>
      <trkpt lat="59.249143570796" lon="17.615500281696">
        <ele>5.8</ele>
        <time>2017-10-21T10:06:57Z</time>
      </trkpt>
      <trkpt lat="59.249196292947" lon="17.615509837062">
        <ele>5.8</ele>
        <time>2017-10-21T10:06:58Z</time>
      </trkpt>
      <trkpt lat="59.249317495221" lon="17.615522912826">
        <ele>5.8</ele>
        <time>2017-10-21T10:07:00Z</time>
      </trkpt>
      <trkpt lat="59.249446408843" lon="17.6155602961">
        <ele>6.4</ele>
        <time>2017-10-21T10:07:02Z</time>
      </trkpt>
      <trkpt lat="59.24958496165" lon="17.615600193944">
        <ele>6.6</ele>
        <time>2017-10-21T10:07:04Z</time>
      </trkpt>
      <trkpt lat="59.249725274656" lon="17.615631961345">
        <ele>6.6</ele>
        <time>2017-10-21T10:07:06Z</time>
      </trkpt>
      <trkpt lat="59.249866342033" lon="17.615670601904">
        <ele>6.6</ele>
        <time>2017-10-21T10:07:08Z</time>
      </trkpt>
      <trkpt lat="59.250009169609" lon="17.615698848907">
        <ele>6.6</ele>
        <time>2017-10-21T10:07:10Z</time>
      </trkpt>
      <trkpt lat="59.250152919194" lon="17.615728688471">
        <ele>6.4</ele>
        <time>2017-10-21T10:07:12Z</time>
      </trkpt>
      <trkpt lat="59.250290298535" lon="17.615740004036">
        <ele>6.4</ele>
        <time>2017-10-21T10:07:14Z</time>
      </trkpt>
      <trkpt lat="59.25040890242" lon="17.615667249144">
        <ele>6.4</ele>
        <time>2017-10-21T10:07:16Z</time>
      </trkpt>
      <trkpt lat="59.250467491901" lon="17.615543364662">
        <ele>6.4</ele>
        <time>2017-10-21T10:07:18Z</time>
      </trkpt>
      <trkpt lat="59.250496241818" lon="17.615397603421">
        <ele>6.4</ele>
        <time>2017-10-21T10:07:20Z</time>
      </trkpt>
      <trkpt lat="59.250498840207" lon="17.615244549927">
        <ele>6.8</ele>
        <time>2017-10-21T10:07:22Z</time>
      </trkpt>
      <trkpt lat="59.250504875175" lon="17.615167520266">
        <ele>7.4</ele>
        <time>2017-10-21T10:07:23Z</time>
      </trkpt>
      <trkpt lat="59.250512670342" lon="17.615097782858">
        <ele>8</ele>
        <time>2017-10-21T10:07:24Z</time>
      </trkpt>
      <trkpt lat="59.250524069726" lon="17.61503894192">
        <ele>8.6</ele>
        <time>2017-10-21T10:07:25Z</time>
      </trkpt>
      <trkpt lat="59.2505446892" lon="17.61498613595">
        <ele>9</ele>
        <time>2017-10-21T10:07:26Z</time>
      </trkpt>
      <trkpt lat="59.250587772166" lon="17.614884798779">
        <ele>9.8</ele>
        <time>2017-10-21T10:07:28Z</time>
      </trkpt>
      <trkpt lat="59.250629681666" lon="17.614804919272">
        <ele>10.4</ele>
        <time>2017-10-21T10:07:30Z</time>
      </trkpt>
      <trkpt lat="59.250649546769" lon="17.614775917898">
        <ele>10.8</ele>
        <time>2017-10-21T10:07:31Z</time>
      </trkpt>
      <trkpt lat="59.25066538856" lon="17.614747084162">
        <ele>11.2</ele>
        <time>2017-10-21T10:07:32Z</time>
      </trkpt>
      <trkpt lat="59.250693216468" lon="17.614684639007">
        <ele>12</ele>
        <time>2017-10-21T10:07:34Z</time>
      </trkpt>
      <trkpt lat="59.250721882566" lon="17.614598473075">
        <ele>12.8</ele>
        <time>2017-10-21T10:07:36Z</time>
      </trkpt>
      <trkpt lat="59.250738646366" lon="17.614559581059">
        <ele>13.4</ele>
        <time>2017-10-21T10:07:37Z</time>
      </trkpt>
      <trkpt lat="59.250757338003" lon="17.614526891649">
        <ele>14</ele>
        <time>2017-10-21T10:07:38Z</time>
      </trkpt>
      <trkpt lat="59.250774688536" lon="17.61449411842">
        <ele>14.4</ele>
        <time>2017-10-21T10:07:39Z</time>
      </trkpt>
      <trkpt lat="59.250797319666" lon="17.614454304395">
        <ele>15</ele>
        <time>2017-10-21T10:07:40Z</time>
      </trkpt>
      <trkpt lat="59.25084392303" lon="17.614373586698">
        <ele>15.8</ele>
        <time>2017-10-21T10:07:42Z</time>
      </trkpt>
      <trkpt lat="59.250888933833" lon="17.614283229816">
        <ele>16.4</ele>
        <time>2017-10-21T10:07:44Z</time>
      </trkpt>
      <trkpt lat="59.250933022627" lon="17.614196896246">
        <ele>17</ele>
        <time>2017-10-21T10:07:46Z</time>
      </trkpt>
      <trkpt lat="59.250981050914" lon="17.614123889897">
        <ele>17.8</ele>
        <time>2017-10-21T10:07:48Z</time>
      </trkpt>
      <trkpt lat="59.25100401732" lon="17.614092206315">
        <ele>18</ele>
        <time>2017-10-21T10:07:49Z</time>
      </trkpt>
      <trkpt lat="59.251026899907" lon="17.614061528561">
        <ele>18.2</ele>
        <time>2017-10-21T10:07:50Z</time>
      </trkpt>
      <trkpt lat="59.251067635941" lon="17.613990450049">
        <ele>18.6</ele>
        <time>2017-10-21T10:07:52Z</time>
      </trkpt>
      <trkpt lat="59.251082388085" lon="17.613953402051">
        <ele>19</ele>
        <time>2017-10-21T10:07:53Z</time>
      </trkpt>
      <trkpt lat="59.251095547668" lon="17.613911324913">
        <ele>19.2</ele>
        <time>2017-10-21T10:07:54Z</time>
      </trkpt>
      <trkpt lat="59.25110879107" lon="17.613871846164">
        <ele>19.6</ele>
        <time>2017-10-21T10:07:55Z</time>
      </trkpt>
      <trkpt lat="59.251125471051" lon="17.613866062653">
        <ele>19.8</ele>
        <time>2017-10-21T10:07:56Z</time>
      </trkpt>
      <trkpt lat="59.251178528478" lon="17.613879306055">
        <ele>20.2</ele>
        <time>2017-10-21T10:07:58Z</time>
      </trkpt>
      <trkpt lat="59.251218845417" lon="17.613868996318">
        <ele>20.8</ele>
        <time>2017-10-21T10:08:00Z</time>
      </trkpt>
      <trkpt lat="59.251255222863" lon="17.613850304681">
        <ele>21.4</ele>
        <time>2017-10-21T10:08:02Z</time>
      </trkpt>
      <trkpt lat="59.251292606137" lon="17.613835217261">
        <ele>22.4</ele>
        <time>2017-10-21T10:08:04Z</time>
      </trkpt>
      <trkpt lat="59.251316159276" lon="17.613829852845">
        <ele>22.6</ele>
        <time>2017-10-21T10:08:05Z</time>
      </trkpt>
      <trkpt lat="59.251335605284" lon="17.613822979687">
        <ele>22.6</ele>
        <time>2017-10-21T10:08:06Z</time>
      </trkpt>
      <trkpt lat="59.251378101517" lon="17.613809652466">
        <ele>22.8</ele>
        <time>2017-10-21T10:08:08Z</time>
      </trkpt>
      <trkpt lat="59.251425962166" lon="17.613788781535">
        <ele>23.4</ele>
        <time>2017-10-21T10:08:10Z</time>
      </trkpt>
      <trkpt lat="59.251480360697" lon="17.613762965283">
        <ele>24</ele>
        <time>2017-10-21T10:08:12Z</time>
      </trkpt>
      <trkpt lat="59.251534423952" lon="17.613721223421">
        <ele>24.6</ele>
        <time>2017-10-21T10:08:14Z</time>
      </trkpt>
      <trkpt lat="59.251591169415" lon="17.613674955333">
        <ele>25.4</ele>
        <time>2017-10-21T10:08:16Z</time>
      </trkpt>
      <trkpt lat="59.251620254608" lon="17.61365006109">
        <ele>26</ele>
        <time>2017-10-21T10:08:17Z</time>
      </trkpt>
      <trkpt lat="59.25165193819" lon="17.613623155191">
        <ele>26.4</ele>
        <time>2017-10-21T10:08:18Z</time>
      </trkpt>
      <trkpt lat="59.251712036413" lon="17.61356121295">
        <ele>27.2</ele>
        <time>2017-10-21T10:08:20Z</time>
      </trkpt>
      <trkpt lat="59.251773643378" lon="17.613498516338">
        <ele>27.4</ele>
        <time>2017-10-21T10:08:22Z</time>
      </trkpt>
      <trkpt lat="59.251830053565" lon="17.613430036215">
        <ele>27.8</ele>
        <time>2017-10-21T10:08:24Z</time>
      </trkpt>
      <trkpt lat="59.251889900331" lon="17.613359292979">
        <ele>28.2</ele>
        <time>2017-10-21T10:08:26Z</time>
      </trkpt>
      <trkpt lat="59.251922505922" lon="17.61331897604">
        <ele>28.4</ele>
        <time>2017-10-21T10:08:27Z</time>
      </trkpt>
      <trkpt lat="59.251958631911" lon="17.613275138703">
        <ele>28.6</ele>
        <time>2017-10-21T10:08:28Z</time>
      </trkpt>
      <trkpt lat="59.252031554441" lon="17.613191487341">
        <ele>28.8</ele>
        <time>2017-10-21T10:08:30Z</time>
      </trkpt>
      <trkpt lat="59.252103219686" lon="17.613095011672">
        <ele>29</ele>
        <time>2017-10-21T10:08:32Z</time>
      </trkpt>
      <trkpt lat="59.252185613763" lon="17.612996021433">
        <ele>29</ele>
        <time>2017-10-21T10:08:34Z</time>
      </trkpt>
      <trkpt lat="59.252271863514" lon="17.612890493312">
        <ele>29</ele>
        <time>2017-10-21T10:08:36Z</time>
      </trkpt>
      <trkpt lat="59.252361130749" lon="17.612776583291">
        <ele>29</ele>
        <time>2017-10-21T10:08:38Z</time>
      </trkpt>
      <trkpt lat="59.252447715776" lon="17.612666193668">
        <ele>29</ele>
        <time>2017-10-21T10:08:40Z</time>
      </trkpt>
      <trkpt lat="59.252532372966" lon="17.61256376685">
        <ele>29</ele>
        <time>2017-10-21T10:08:42Z</time>
      </trkpt>
      <trkpt lat="59.252613090663" lon="17.612455472702">
        <ele>28.8</ele>
        <time>2017-10-21T10:08:44Z</time>
      </trkpt>
      <trkpt lat="59.252696574387" lon="17.612343993432">
        <ele>28.8</ele>
        <time>2017-10-21T10:08:46Z</time>
      </trkpt>
      <trkpt lat="59.252782321224" lon="17.61223100542">
        <ele>28.8</ele>
        <time>2017-10-21T10:08:48Z</time>
      </trkpt>
      <trkpt lat="59.252866056405" lon="17.612119945245">
        <ele>29</ele>
        <time>2017-10-21T10:08:50Z</time>
      </trkpt>
      <trkpt lat="59.252947947568" lon="17.61201056145">
        <ele>29.2</ele>
        <time>2017-10-21T10:08:52Z</time>
      </trkpt>
      <trkpt lat="59.253028832903" lon="17.61190327313">
        <ele>29.2</ele>
        <time>2017-10-21T10:08:54Z</time>
      </trkpt>
      <trkpt lat="59.253110807885" lon="17.611790033661">
        <ele>29.2</ele>
        <time>2017-10-21T10:08:56Z</time>
      </trkpt>
      <trkpt lat="59.253192950505" lon="17.611672435604">
        <ele>29.4</ele>
        <time>2017-10-21T10:08:58Z</time>
      </trkpt>
      <trkpt lat="59.253279032618" lon="17.611544779267">
        <ele>29.6</ele>
        <time>2017-10-21T10:09:00Z</time>
      </trkpt>
      <trkpt lat="59.253362516342" lon="17.611405052994">
        <ele>29.8</ele>
        <time>2017-10-21T10:09:02Z</time>
      </trkpt>
      <trkpt lat="59.253440551831" lon="17.611253089147">
        <ele>30</ele>
        <time>2017-10-21T10:09:04Z</time>
      </trkpt>
      <trkpt lat="59.253508277583" lon="17.611090145011">
        <ele>30.2</ele>
        <time>2017-10-21T10:09:06Z</time>
      </trkpt>
      <trkpt lat="59.25356887872" lon="17.610917142595">
        <ele>30.2</ele>
        <time>2017-10-21T10:09:08Z</time>
      </trkpt>
      <trkpt lat="59.253633586988" lon="17.610739697772">
        <ele>30.2</ele>
        <time>2017-10-21T10:09:10Z</time>
      </trkpt>
      <trkpt lat="59.253662672181" lon="17.610651520184">
        <ele>30.2</ele>
        <time>2017-10-21T10:09:11Z</time>
      </trkpt>
      <trkpt lat="59.253689075166" lon="17.610557307628">
        <ele>30.4</ele>
        <time>2017-10-21T10:09:12Z</time>
      </trkpt>
      <trkpt lat="59.253743389878" lon="17.610373492561">
        <ele>30.4</ele>
        <time>2017-10-21T10:09:14Z</time>
      </trkpt>
      <trkpt lat="59.253802901368" lon="17.610196047738">
        <ele>30.8</ele>
        <time>2017-10-21T10:09:16Z</time>
      </trkpt>
      <trkpt lat="59.253837434796" lon="17.610107199598">
        <ele>30.8</ele>
        <time>2017-10-21T10:09:17Z</time>
      </trkpt>
      <trkpt lat="59.2538723035" lon="17.610011562119">
        <ele>30.8</ele>
        <time>2017-10-21T10:09:18Z</time>
      </trkpt>
      <trkpt lat="59.253929719515" lon="17.609798494221">
        <ele>30.8</ele>
        <time>2017-10-21T10:09:20Z</time>
      </trkpt>
      <trkpt lat="59.253997612905" lon="17.609558520424">
        <ele>30.8</ele>
        <time>2017-10-21T10:09:22Z</time>
      </trkpt>
      <trkpt lat="59.254079084973" lon="17.609291053995">
        <ele>30.8</ele>
        <time>2017-10-21T10:09:24Z</time>
      </trkpt>
      <trkpt lat="59.254163406887" lon="17.609005901757">
        <ele>30.8</ele>
        <time>2017-10-21T10:09:26Z</time>
      </trkpt>
      <trkpt lat="59.254254015226" lon="17.608719995148">
        <ele>30.4</ele>
        <time>2017-10-21T10:09:28Z</time>
      </trkpt>
      <trkpt lat="59.254344539746" lon="17.608447499579">
        <ele>29</ele>
        <time>2017-10-21T10:09:30Z</time>
      </trkpt>
      <trkpt lat="59.254425257443" lon="17.608189504697">
        <ele>27.2</ele>
        <time>2017-10-21T10:09:32Z</time>
      </trkpt>
      <trkpt lat="59.25449675505" lon="17.607941149">
        <ele>25.4</ele>
        <time>2017-10-21T10:09:34Z</time>
      </trkpt>
      <trkpt lat="59.254575209634" lon="17.607697906262">
        <ele>24.4</ele>
        <time>2017-10-21T10:09:36Z</time>
      </trkpt>
      <trkpt lat="59.254614436926" lon="17.60757569816">
        <ele>24.4</ele>
        <time>2017-10-21T10:09:37Z</time>
      </trkpt>
      <trkpt lat="59.254657855168" lon="17.607447790366">
        <ele>24.2</ele>
        <time>2017-10-21T10:09:38Z</time>
      </trkpt>
      <trkpt lat="59.254755001389" lon="17.607176132987">
        <ele>23.8</ele>
        <time>2017-10-21T10:09:40Z</time>
      </trkpt>
      <trkpt lat="59.254855751827" lon="17.606887041256">
        <ele>23.8</ele>
        <time>2017-10-21T10:09:42Z</time>
      </trkpt>
      <trkpt lat="59.254949796745" lon="17.606591830738">
        <ele>23.6</ele>
        <time>2017-10-21T10:09:44Z</time>
      </trkpt>
      <trkpt lat="59.255001513068" lon="17.606441375633">
        <ele>23</ele>
        <time>2017-10-21T10:09:45Z</time>
      </trkpt>
      <trkpt lat="59.255054402857" lon="17.606289830881">
        <ele>22.4</ele>
        <time>2017-10-21T10:09:46Z</time>
      </trkpt>
      <trkpt lat="59.255103185515" lon="17.606136693568">
        <ele>21.8</ele>
        <time>2017-10-21T10:09:47Z</time>
      </trkpt>
      <trkpt lat="59.255145681748" lon="17.605995374734">
        <ele>21</ele>
        <time>2017-10-21T10:09:48Z</time>
      </trkpt>
      <trkpt lat="59.255183987031" lon="17.60586830513">
        <ele>20</ele>
        <time>2017-10-21T10:09:49Z</time>
      </trkpt>
      <trkpt lat="59.255220196839" lon="17.605750455616">
        <ele>19.2</ele>
        <time>2017-10-21T10:09:50Z</time>
      </trkpt>
      <trkpt lat="59.25525280243" lon="17.605639982174">
        <ele>18.4</ele>
        <time>2017-10-21T10:09:51Z</time>
      </trkpt>
      <trkpt lat="59.255279456872" lon="17.605543757962">
        <ele>17.6</ele>
        <time>2017-10-21T10:09:52Z</time>
      </trkpt>
      <trkpt lat="59.255307703875" lon="17.605463040265">
        <ele>16.2</ele>
        <time>2017-10-21T10:09:53Z</time>
      </trkpt>
      <trkpt lat="59.255334693593" lon="17.605398415816">
        <ele>15</ele>
        <time>2017-10-21T10:09:54Z</time>
      </trkpt>
      <trkpt lat="59.255366377175" lon="17.605345442208">
        <ele>14.4</ele>
        <time>2017-10-21T10:09:55Z</time>
      </trkpt>
      <trkpt lat="59.255408957227" lon="17.605309064762">
        <ele>14</ele>
        <time>2017-10-21T10:09:56Z</time>
      </trkpt>
      <trkpt lat="59.255460086817" lon="17.605294061161">
        <ele>13.8</ele>
        <time>2017-10-21T10:09:57Z</time>
      </trkpt>
      <trkpt lat="59.255514652986" lon="17.605292971514">
        <ele>13.6</ele>
        <time>2017-10-21T10:09:58Z</time>
      </trkpt>
      <trkpt lat="59.25557299101" lon="17.605294312618">
        <ele>13.4</ele>
        <time>2017-10-21T10:09:59Z</time>
      </trkpt>
      <trkpt lat="59.255632586319" lon="17.605301604871">
        <ele>13.2</ele>
        <time>2017-10-21T10:10:00Z</time>
      </trkpt>
      <trkpt lat="59.255746244883" lon="17.605315183549">
        <ele>13</ele>
        <time>2017-10-21T10:10:02Z</time>
      </trkpt>
      <trkpt lat="59.255798547939" lon="17.605327253485">
        <ele>13</ele>
        <time>2017-10-21T10:10:03Z</time>
      </trkpt>
      <trkpt lat="59.255846073312" lon="17.605350136072">
        <ele>13</ele>
        <time>2017-10-21T10:10:04Z</time>
      </trkpt>
      <trkpt lat="59.255941878429" lon="17.605415263435">
        <ele>13</ele>
        <time>2017-10-21T10:10:06Z</time>
      </trkpt>
      <trkpt lat="59.256033660234" lon="17.60551961809">
        <ele>13.2</ele>
        <time>2017-10-21T10:10:08Z</time>
      </trkpt>
      <trkpt lat="59.25609266881" lon="17.605697062913">
        <ele>13.4</ele>
        <time>2017-10-21T10:10:10Z</time>
      </trkpt>
      <trkpt lat="59.256117227777" lon="17.605903090015">
        <ele>13.6</ele>
        <time>2017-10-21T10:10:12Z</time>
      </trkpt>
      <trkpt lat="59.256125525858" lon="17.606010126878">
        <ele>13.6</ele>
        <time>2017-10-21T10:10:13Z</time>
      </trkpt>
      <trkpt lat="59.256134829767" lon="17.606119175397">
        <ele>14</ele>
        <time>2017-10-21T10:10:14Z</time>
      </trkpt>
      <trkpt lat="59.256155113965" lon="17.606330734553">
        <ele>14.4</ele>
        <time>2017-10-21T10:10:16Z</time>
      </trkpt>
      <trkpt lat="59.256184282977" lon="17.60653215161">
        <ele>14.6</ele>
        <time>2017-10-21T10:10:18Z</time>
      </trkpt>
      <trkpt lat="59.256222839717" lon="17.606709261157">
        <ele>15</ele>
        <time>2017-10-21T10:10:20Z</time>
      </trkpt>
      <trkpt lat="59.25628461432" lon="17.606841946634">
        <ele>15.2</ele>
        <time>2017-10-21T10:10:22Z</time>
      </trkpt>
      <trkpt lat="59.2563701097" lon="17.606904978522">
        <ele>15.4</ele>
        <time>2017-10-21T10:10:24Z</time>
      </trkpt>
      <trkpt lat="59.256464992808" lon="17.606926855281">
        <ele>15.8</ele>
        <time>2017-10-21T10:10:26Z</time>
      </trkpt>
      <trkpt lat="59.256513021095" lon="17.606928531661">
        <ele>16</ele>
        <time>2017-10-21T10:10:27Z</time>
      </trkpt>
      <trkpt lat="59.256561719934" lon="17.606935656276">
        <ele>16.4</ele>
        <time>2017-10-21T10:10:28Z</time>
      </trkpt>
      <trkpt lat="59.256610418773" lon="17.606951581886">
        <ele>16.8</ele>
        <time>2017-10-21T10:10:29Z</time>
      </trkpt>
      <trkpt lat="59.256659955802" lon="17.606970357342">
        <ele>17.2</ele>
        <time>2017-10-21T10:10:30Z</time>
      </trkpt>
      <trkpt lat="59.25676238262" lon="17.606994664852">
        <ele>18</ele>
        <time>2017-10-21T10:10:32Z</time>
      </trkpt>
      <trkpt lat="59.256863552153" lon="17.607016793068">
        <ele>18.2</ele>
        <time>2017-10-21T10:10:34Z</time>
      </trkpt>
      <trkpt lat="59.256914765562" lon="17.607031964307">
        <ele>18.4</ele>
        <time>2017-10-21T10:10:35Z</time>
      </trkpt>
      <trkpt lat="59.256967822989" lon="17.607045794442">
        <ele>18.4</ele>
        <time>2017-10-21T10:10:36Z</time>
      </trkpt>
      <trkpt lat="59.257074943671" lon="17.607068090296">
        <ele>18.6</ele>
        <time>2017-10-21T10:10:38Z</time>
      </trkpt>
      <trkpt lat="59.257187680226" lon="17.607097259308">
        <ele>19</ele>
        <time>2017-10-21T10:10:40Z</time>
      </trkpt>
      <trkpt lat="59.257304272455" lon="17.607125087216">
        <ele>19.2</ele>
        <time>2017-10-21T10:10:42Z</time>
      </trkpt>
      <trkpt lat="59.257362107565" lon="17.607142521568">
        <ele>19.6</ele>
        <time>2017-10-21T10:10:43Z</time>
      </trkpt>
      <trkpt lat="59.257420864684" lon="17.607158866273">
        <ele>20</ele>
        <time>2017-10-21T10:10:44Z</time>
      </trkpt>
      <trkpt lat="59.257533852696" lon="17.607194573167">
        <ele>20</ele>
        <time>2017-10-21T10:10:46Z</time>
      </trkpt>
      <trkpt lat="59.257632842935" lon="17.60723623121">
        <ele>20</ele>
        <time>2017-10-21T10:10:48Z</time>
      </trkpt>
      <trkpt lat="59.257673243693" lon="17.607272608656">
        <ele>20.2</ele>
        <time>2017-10-21T10:10:49Z</time>
      </trkpt>
      <trkpt lat="59.257700065773" lon="17.607330359947">
        <ele>20.2</ele>
        <time>2017-10-21T10:10:50Z</time>
      </trkpt>
      <trkpt lat="59.25770115542" lon="17.607481653242">
        <ele>20.2</ele>
        <time>2017-10-21T10:10:52Z</time>
      </trkpt>
      <trkpt lat="59.257691013321" lon="17.607568070631">
        <ele>20.2</ele>
        <time>2017-10-21T10:10:53Z</time>
      </trkpt>
      <trkpt lat="59.257682799059" lon="17.60766203173">
        <ele>20.2</ele>
        <time>2017-10-21T10:10:54Z</time>
      </trkpt>
      <trkpt lat="59.257674417159" lon="17.607760686693">
        <ele>20.6</ele>
        <time>2017-10-21T10:10:55Z</time>
      </trkpt>
      <trkpt lat="59.257663688327" lon="17.607863616425">
        <ele>20.6</ele>
        <time>2017-10-21T10:10:56Z</time>
      </trkpt>
      <trkpt lat="59.257643236491" lon="17.608089257173">
        <ele>20.8</ele>
        <time>2017-10-21T10:10:58Z</time>
      </trkpt>
      <trkpt lat="59.257617755515" lon="17.608330655893">
        <ele>20.8</ele>
        <time>2017-10-21T10:11:00Z</time>
      </trkpt>
      <trkpt lat="59.257597974231" lon="17.608586890576">
        <ele>20.8</ele>
        <time>2017-10-21T10:11:02Z</time>
      </trkpt>
      <trkpt lat="59.257575259282" lon="17.608843711992">
        <ele>20.8</ele>
        <time>2017-10-21T10:11:04Z</time>
      </trkpt>
      <trkpt lat="59.257554136894" lon="17.609096426277">
        <ele>20.4</ele>
        <time>2017-10-21T10:11:06Z</time>
      </trkpt>
      <trkpt lat="59.257531254307" lon="17.6093493082">
        <ele>20</ele>
        <time>2017-10-21T10:11:08Z</time>
      </trkpt>
      <trkpt lat="59.257507701168" lon="17.609603950322">
        <ele>19.8</ele>
        <time>2017-10-21T10:11:10Z</time>
      </trkpt>
      <trkpt lat="59.257484231848" lon="17.609864040679">
        <ele>19.6</ele>
        <time>2017-10-21T10:11:12Z</time>
      </trkpt>
      <trkpt lat="59.257471742817" lon="17.609997564346">
        <ele>19.4</ele>
        <time>2017-10-21T10:11:13Z</time>
      </trkpt>
      <trkpt lat="59.257457745044" lon="17.610133770221">
        <ele>19.4</ele>
        <time>2017-10-21T10:11:14Z</time>
      </trkpt>
      <trkpt lat="59.257432431706" lon="17.610405595238">
        <ele>19.2</ele>
        <time>2017-10-21T10:11:16Z</time>
      </trkpt>
      <trkpt lat="59.257407369825" lon="17.610680186282">
        <ele>19.2</ele>
        <time>2017-10-21T10:11:18Z</time>
      </trkpt>
      <trkpt lat="59.257381972668" lon="17.610955447878">
        <ele>19.2</ele>
        <time>2017-10-21T10:11:20Z</time>
      </trkpt>
      <trkpt lat="59.257357246063" lon="17.611231799121">
        <ele>19.2</ele>
        <time>2017-10-21T10:11:22Z</time>
      </trkpt>
      <trkpt lat="59.257332603277" lon="17.611509910563">
        <ele>19.2</ele>
        <time>2017-10-21T10:11:24Z</time>
      </trkpt>
      <trkpt lat="59.257305445921" lon="17.6117884411">
        <ele>19.2</ele>
        <time>2017-10-21T10:11:26Z</time>
      </trkpt>
      <trkpt lat="59.257277282737" lon="17.612070743492">
        <ele>19</ele>
        <time>2017-10-21T10:11:28Z</time>
      </trkpt>
      <trkpt lat="59.257251466485" lon="17.612353464979">
        <ele>19</ele>
        <time>2017-10-21T10:11:30Z</time>
      </trkpt>
      <trkpt lat="59.257226236966" lon="17.61263585119">
        <ele>19</ele>
        <time>2017-10-21T10:11:32Z</time>
      </trkpt>
      <trkpt lat="59.257204276388" lon="17.612914465546">
        <ele>19</ele>
        <time>2017-10-21T10:11:34Z</time>
      </trkpt>
      <trkpt lat="59.257185500932" lon="17.613191152065">
        <ele>19</ele>
        <time>2017-10-21T10:11:36Z</time>
      </trkpt>
      <trkpt lat="59.257157421567" lon="17.613464737281">
        <ele>19</ele>
        <time>2017-10-21T10:11:38Z</time>
      </trkpt>
      <trkpt lat="59.257133533152" lon="17.613742094352">
        <ele>19</ele>
        <time>2017-10-21T10:11:40Z</time>
      </trkpt>
      <trkpt lat="59.257113332773" lon="17.614015763387">
        <ele>19</ele>
        <time>2017-10-21T10:11:42Z</time>
      </trkpt>
      <trkpt lat="59.257084750494" lon="17.614286834033">
        <ele>19.2</ele>
        <time>2017-10-21T10:11:44Z</time>
      </trkpt>
      <trkpt lat="59.257056503491" lon="17.614559245783">
        <ele>19.4</ele>
        <time>2017-10-21T10:11:46Z</time>
      </trkpt>
      <trkpt lat="59.257028172669" lon="17.614835932302">
        <ele>19.6</ele>
        <time>2017-10-21T10:11:48Z</time>
      </trkpt>
      <trkpt lat="59.257000596218" lon="17.615114630477">
        <ele>20</ele>
        <time>2017-10-21T10:11:50Z</time>
      </trkpt>
      <trkpt lat="59.256977713631" lon="17.615388886245">
        <ele>20.2</ele>
        <time>2017-10-21T10:11:52Z</time>
      </trkpt>
      <trkpt lat="59.256956255967" lon="17.615652245543">
        <ele>20.4</ele>
        <time>2017-10-21T10:11:54Z</time>
      </trkpt>
      <trkpt lat="59.256931277905" lon="17.615905965656">
        <ele>20.8</ele>
        <time>2017-10-21T10:11:56Z</time>
      </trkpt>
      <trkpt lat="59.256911077526" lon="17.616147196738">
        <ele>20.8</ele>
        <time>2017-10-21T10:11:58Z</time>
      </trkpt>
      <trkpt lat="59.256891212423" lon="17.61637250221">
        <ele>21</ele>
        <time>2017-10-21T10:12:00Z</time>
      </trkpt>
      <trkpt lat="59.25686715637" lon="17.616575176552">
        <ele>21.6</ele>
        <time>2017-10-21T10:12:02Z</time>
      </trkpt>
      <trkpt lat="59.256849470561" lon="17.616758572524">
        <ele>22</ele>
        <time>2017-10-21T10:12:04Z</time>
      </trkpt>
      <trkpt lat="59.256833964046" lon="17.616925791429">
        <ele>22.8</ele>
        <time>2017-10-21T10:12:06Z</time>
      </trkpt>
      <trkpt lat="59.25681770316" lon="17.617085550443">
        <ele>23.6</ele>
        <time>2017-10-21T10:12:08Z</time>
      </trkpt>
      <trkpt lat="59.256809237441" lon="17.617164340303">
        <ele>24.6</ele>
        <time>2017-10-21T10:12:09Z</time>
      </trkpt>
      <trkpt lat="59.256801358455" lon="17.617244722724">
        <ele>25</ele>
        <time>2017-10-21T10:12:10Z</time>
      </trkpt>
      <trkpt lat="59.25678585194" lon="17.617400793702">
        <ele>25.8</ele>
        <time>2017-10-21T10:12:12Z</time>
      </trkpt>
      <trkpt lat="59.256771770348" lon="17.617561139449">
        <ele>26.8</ele>
        <time>2017-10-21T10:12:14Z</time>
      </trkpt>
      <trkpt lat="59.256758946041" lon="17.617712851839">
        <ele>27.8</ele>
        <time>2017-10-21T10:12:16Z</time>
      </trkpt>
      <trkpt lat="59.256749139218" lon="17.617788540396">
        <ele>28.2</ele>
        <time>2017-10-21T10:12:17Z</time>
      </trkpt>
      <trkpt lat="59.256743188069" lon="17.617863139306">
        <ele>28.6</ele>
        <time>2017-10-21T10:12:18Z</time>
      </trkpt>
      <trkpt lat="59.256727681554" lon="17.61802206013">
        <ele>29.6</ele>
        <time>2017-10-21T10:12:20Z</time>
      </trkpt>
      <trkpt lat="59.256706056252" lon="17.618191542148">
        <ele>30.6</ele>
        <time>2017-10-21T10:12:22Z</time>
      </trkpt>
      <trkpt lat="59.256693567221" lon="17.618274942053">
        <ele>31</ele>
        <time>2017-10-21T10:12:23Z</time>
      </trkpt>
      <trkpt lat="59.25668191638" lon="17.618354737741">
        <ele>31.4</ele>
        <time>2017-10-21T10:12:24Z</time>
      </trkpt>
      <trkpt lat="59.256658111784" lon="17.618501169534">
        <ele>32.2</ele>
        <time>2017-10-21T10:12:26Z</time>
      </trkpt>
      <trkpt lat="59.25662743403" lon="17.618646595499">
        <ele>32.8</ele>
        <time>2017-10-21T10:12:28Z</time>
      </trkpt>
      <trkpt lat="59.256620560872" lon="17.618724966264">
        <ele>33</ele>
        <time>2017-10-21T10:12:29Z</time>
      </trkpt>
      <trkpt lat="59.25660983204" lon="17.618802079744">
        <ele>33</ele>
        <time>2017-10-21T10:12:30Z</time>
      </trkpt>
      <trkpt lat="59.256586614177" lon="17.61895077465">
        <ele>33.6</ele>
        <time>2017-10-21T10:12:32Z</time>
      </trkpt>
      <trkpt lat="59.256562558124" lon="17.619095530063">
        <ele>34</ele>
        <time>2017-10-21T10:12:34Z</time>
      </trkpt>
      <trkpt lat="59.256545459048" lon="17.61922821554">
        <ele>34.4</ele>
        <time>2017-10-21T10:12:36Z</time>
      </trkpt>
      <trkpt lat="59.256525677764" lon="17.61934472395">
        <ele>35.2</ele>
        <time>2017-10-21T10:12:38Z</time>
      </trkpt>
      <trkpt lat="59.256511344715" lon="17.619453269555">
        <ele>35.6</ele>
        <time>2017-10-21T10:12:40Z</time>
      </trkpt>
      <trkpt lat="59.256499107141" lon="17.619552762708">
        <ele>35.8</ele>
        <time>2017-10-21T10:12:42Z</time>
      </trkpt>
      <trkpt lat="59.256489300318" lon="17.619641024115">
        <ele>36</ele>
        <time>2017-10-21T10:12:44Z</time>
      </trkpt>
      <trkpt lat="59.256480918418" lon="17.619685112909">
        <ele>36.2</ele>
        <time>2017-10-21T10:12:45Z</time>
      </trkpt>
      <trkpt lat="59.256470357224" lon="17.619735907223">
        <ele>36.8</ele>
        <time>2017-10-21T10:12:46Z</time>
      </trkpt>
      <trkpt lat="59.25645895784" lon="17.619796005446">
        <ele>37.4</ele>
        <time>2017-10-21T10:12:47Z</time>
      </trkpt>
      <trkpt lat="59.256446133533" lon="17.619862138637">
        <ele>37.8</ele>
        <time>2017-10-21T10:12:48Z</time>
      </trkpt>
      <trkpt lat="59.256421742204" lon="17.620016533235">
        <ele>38</ele>
        <time>2017-10-21T10:12:50Z</time>
      </trkpt>
      <trkpt lat="59.256393998115" lon="17.620185009425">
        <ele>38.4</ele>
        <time>2017-10-21T10:12:52Z</time>
      </trkpt>
      <trkpt lat="59.256358207402" lon="17.620350887226">
        <ele>38.6</ele>
        <time>2017-10-21T10:12:54Z</time>
      </trkpt>
      <trkpt lat="59.256323673974" lon="17.62052908642">
        <ele>38.6</ele>
        <time>2017-10-21T10:12:56Z</time>
      </trkpt>
      <trkpt lat="59.256290733107" lon="17.620715583695">
        <ele>38.8</ele>
        <time>2017-10-21T10:12:58Z</time>
      </trkpt>
      <trkpt lat="59.256269359262" lon="17.620911971612">
        <ele>39</ele>
        <time>2017-10-21T10:13:00Z</time>
      </trkpt>
      <trkpt lat="59.256249494159" lon="17.621107353701">
        <ele>39</ele>
        <time>2017-10-21T10:13:02Z</time>
      </trkpt>
      <trkpt lat="59.256231389255" lon="17.621306172369">
        <ele>39.2</ele>
        <time>2017-10-21T10:13:04Z</time>
      </trkpt>
      <trkpt lat="59.256212362342" lon="17.621507505607">
        <ele>39.2</ele>
        <time>2017-10-21T10:13:06Z</time>
      </trkpt>
      <trkpt lat="59.256200376225" lon="17.621721411695">
        <ele>39.2</ele>
        <time>2017-10-21T10:13:08Z</time>
      </trkpt>
      <trkpt lat="59.256194676533" lon="17.621830208757">
        <ele>39.4</ele>
        <time>2017-10-21T10:13:09Z</time>
      </trkpt>
      <trkpt lat="59.25618906066" lon="17.621938838181">
        <ele>39.4</ele>
        <time>2017-10-21T10:13:10Z</time>
      </trkpt>
      <trkpt lat="59.256175984896" lon="17.622155929391">
        <ele>39.6</ele>
        <time>2017-10-21T10:13:12Z</time>
      </trkpt>
      <trkpt lat="59.256160478381" lon="17.622373439696">
        <ele>39.6</ele>
        <time>2017-10-21T10:13:14Z</time>
      </trkpt>
      <trkpt lat="59.25614212202" lon="17.622592291105">
        <ele>39.8</ele>
        <time>2017-10-21T10:13:16Z</time>
      </trkpt>
      <trkpt lat="59.256120748175" lon="17.622810136686">
        <ele>39.8</ele>
        <time>2017-10-21T10:13:18Z</time>
      </trkpt>
      <trkpt lat="59.256107337135" lon="17.623028820457">
        <ele>39.8</ele>
        <time>2017-10-21T10:13:20Z</time>
      </trkpt>
      <trkpt lat="59.256102810909" lon="17.623246163124">
        <ele>39.8</ele>
        <time>2017-10-21T10:13:22Z</time>
      </trkpt>
      <trkpt lat="59.256101553624" lon="17.623459733936">
        <ele>40</ele>
        <time>2017-10-21T10:13:24Z</time>
      </trkpt>
      <trkpt lat="59.256105325479" lon="17.6235650106">
        <ele>40</ele>
        <time>2017-10-21T10:13:25Z</time>
      </trkpt>
      <trkpt lat="59.256112953008" lon="17.623670203445">
        <ele>40</ele>
        <time>2017-10-21T10:13:26Z</time>
      </trkpt>
      <trkpt lat="59.256129632989" lon="17.623881930239">
        <ele>40.2</ele>
        <time>2017-10-21T10:13:28Z</time>
      </trkpt>
      <trkpt lat="59.256138517803" lon="17.623988045093">
        <ele>40.4</ele>
        <time>2017-10-21T10:13:29Z</time>
      </trkpt>
      <trkpt lat="59.25614966573" lon="17.624094327585">
        <ele>40.6</ele>
        <time>2017-10-21T10:13:30Z</time>
      </trkpt>
      <trkpt lat="59.256169027919" lon="17.624306892569">
        <ele>41.2</ele>
        <time>2017-10-21T10:13:32Z</time>
      </trkpt>
      <trkpt lat="59.256189395936" lon="17.624518954639">
        <ele>41.6</ele>
        <time>2017-10-21T10:13:34Z</time>
      </trkpt>
      <trkpt lat="59.256202723157" lon="17.624732525451">
        <ele>42</ele>
        <time>2017-10-21T10:13:36Z</time>
      </trkpt>
      <trkpt lat="59.256210769781" lon="17.624944922797">
        <ele>42.2</ele>
        <time>2017-10-21T10:13:38Z</time>
      </trkpt>
      <trkpt lat="59.256218313491" lon="17.625147932415">
        <ele>42.4</ele>
        <time>2017-10-21T10:13:40Z</time>
      </trkpt>
      <trkpt lat="59.25621588274" lon="17.62524725793">
        <ele>42.6</ele>
        <time>2017-10-21T10:13:41Z</time>
      </trkpt>
      <trkpt lat="59.25621252998" lon="17.625346248169">
        <ele>42.6</ele>
        <time>2017-10-21T10:13:42Z</time>
      </trkpt>
      <trkpt lat="59.256212110885" lon="17.625443226752">
        <ele>42.6</ele>
        <time>2017-10-21T10:13:43Z</time>
      </trkpt>
      <trkpt lat="59.256213535808" lon="17.625538864231">
        <ele>42.8</ele>
        <time>2017-10-21T10:13:44Z</time>
      </trkpt>
      <trkpt lat="59.256215212188" lon="17.625731145017">
        <ele>42.8</ele>
        <time>2017-10-21T10:13:46Z</time>
      </trkpt>
      <trkpt lat="59.256219570776" lon="17.625923593441">
        <ele>43</ele>
        <time>2017-10-21T10:13:48Z</time>
      </trkpt>
      <trkpt lat="59.256224348459" lon="17.626114952218">
        <ele>43.2</ele>
        <time>2017-10-21T10:13:50Z</time>
      </trkpt>
      <trkpt lat="59.256234658196" lon="17.626318632388">
        <ele>43.2</ele>
        <time>2017-10-21T10:13:52Z</time>
      </trkpt>
      <trkpt lat="59.256246392856" lon="17.62652298311">
        <ele>43.2</ele>
        <time>2017-10-21T10:13:54Z</time>
      </trkpt>
      <trkpt lat="59.256268521072" lon="17.626733871714">
        <ele>43.2</ele>
        <time>2017-10-21T10:13:56Z</time>
      </trkpt>
      <trkpt lat="59.256298528274" lon="17.626957836082">
        <ele>43.2</ele>
        <time>2017-10-21T10:13:58Z</time>
      </trkpt>
      <trkpt lat="59.256332977883" lon="17.627184398839">
        <ele>43</ele>
        <time>2017-10-21T10:14:00Z</time>
      </trkpt>
      <trkpt lat="59.256371869899" lon="17.627414481994">
        <ele>42.8</ele>
        <time>2017-10-21T10:14:02Z</time>
      </trkpt>
      <trkpt lat="59.256419311453" lon="17.627642385855">
        <ele>42.8</ele>
        <time>2017-10-21T10:14:04Z</time>
      </trkpt>
      <trkpt lat="59.256462226781" lon="17.627874899761">
        <ele>43</ele>
        <time>2017-10-21T10:14:06Z</time>
      </trkpt>
      <trkpt lat="59.256497095485" lon="17.62811470592">
        <ele>42.8</ele>
        <time>2017-10-21T10:14:08Z</time>
      </trkpt>
      <trkpt lat="59.256530958361" lon="17.628357948658">
        <ele>42.8</ele>
        <time>2017-10-21T10:14:10Z</time>
      </trkpt>
      <trkpt lat="59.25655534969" lon="17.628601778129">
        <ele>42.8</ele>
        <time>2017-10-21T10:14:12Z</time>
      </trkpt>
      <trkpt lat="59.256576220621" lon="17.628845439962">
        <ele>42.8</ele>
        <time>2017-10-21T10:14:14Z</time>
      </trkpt>
      <trkpt lat="59.256594912258" lon="17.629086838682">
        <ele>43</ele>
        <time>2017-10-21T10:14:16Z</time>
      </trkpt>
      <trkpt lat="59.256614944999" lon="17.629333601818">
        <ele>43.2</ele>
        <time>2017-10-21T10:14:18Z</time>
      </trkpt>
      <trkpt lat="59.256640342156" lon="17.629578520936">
        <ele>43.4</ele>
        <time>2017-10-21T10:14:20Z</time>
      </trkpt>
      <trkpt lat="59.256661716001" lon="17.629826122262">
        <ele>43.6</ele>
        <time>2017-10-21T10:14:22Z</time>
      </trkpt>
      <trkpt lat="59.25669281285" lon="17.630074477959">
        <ele>43.6</ele>
        <time>2017-10-21T10:14:24Z</time>
      </trkpt>
      <trkpt lat="59.256722652414" lon="17.630326018778">
        <ele>43.8</ele>
        <time>2017-10-21T10:14:26Z</time>
      </trkpt>
      <trkpt lat="59.256749977408" lon="17.630583678384">
        <ele>44</ele>
        <time>2017-10-21T10:14:28Z</time>
      </trkpt>
      <trkpt lat="59.256757521118" lon="17.63071728587">
        <ele>44</ele>
        <time>2017-10-21T10:14:29Z</time>
      </trkpt>
      <trkpt lat="59.256759448955" lon="17.630851983003">
        <ele>44</ele>
        <time>2017-10-21T10:14:30Z</time>
      </trkpt>
      <trkpt lat="59.256748803942" lon="17.631140739458">
        <ele>44</ele>
        <time>2017-10-21T10:14:32Z</time>
      </trkpt>
      <trkpt lat="59.256712761772" lon="17.631451707948">
        <ele>44</ele>
        <time>2017-10-21T10:14:34Z</time>
      </trkpt>
      <trkpt lat="59.256648304961" lon="17.631757144384">
        <ele>44</ele>
        <time>2017-10-21T10:14:36Z</time>
      </trkpt>
      <trkpt lat="59.256609748221" lon="17.631908940593">
        <ele>43.8</ele>
        <time>2017-10-21T10:14:37Z</time>
      </trkpt>
      <trkpt lat="59.256569179825" lon="17.632062664639">
        <ele>43.6</ele>
        <time>2017-10-21T10:14:38Z</time>
      </trkpt>
      <trkpt lat="59.256497179304" lon="17.632388972006">
        <ele>42.8</ele>
        <time>2017-10-21T10:14:40Z</time>
      </trkpt>
      <trkpt lat="59.256477481839" lon="17.632559795128">
        <ele>42.2</ele>
        <time>2017-10-21T10:14:41Z</time>
      </trkpt>
      <trkpt lat="59.25646985431" lon="17.632731121164">
        <ele>41.4</ele>
        <time>2017-10-21T10:14:42Z</time>
      </trkpt>
      <trkpt lat="59.256468932301" lon="17.632899010621">
        <ele>40.8</ele>
        <time>2017-10-21T10:14:43Z</time>
      </trkpt>
      <trkpt lat="59.256472452699" lon="17.633067067716">
        <ele>40.4</ele>
        <time>2017-10-21T10:14:44Z</time>
      </trkpt>
      <trkpt lat="59.256480080228" lon="17.633230766223">
        <ele>39.8</ele>
        <time>2017-10-21T10:14:45Z</time>
      </trkpt>
      <trkpt lat="59.256488126852" lon="17.633390944332">
        <ele>39.4</ele>
        <time>2017-10-21T10:14:46Z</time>
      </trkpt>
      <trkpt lat="59.256483684445" lon="17.633738038811">
        <ele>38.4</ele>
        <time>2017-10-21T10:14:48Z</time>
      </trkpt>
      <trkpt lat="59.256400787454" lon="17.634055126088">
        <ele>37.8</ele>
        <time>2017-10-21T10:14:50Z</time>
      </trkpt>
      <trkpt lat="59.256252344005" lon="17.634286550347">
        <ele>37.6</ele>
        <time>2017-10-21T10:14:52Z</time>
      </trkpt>
      <trkpt lat="59.256173721783" lon="17.634391994649">
        <ele>37.2</ele>
        <time>2017-10-21T10:14:53Z</time>
      </trkpt>
      <trkpt lat="59.256091746801" lon="17.634499953521">
        <ele>37</ele>
        <time>2017-10-21T10:14:54Z</time>
      </trkpt>
      <trkpt lat="59.256009855638" lon="17.634619730872">
        <ele>36.2</ele>
        <time>2017-10-21T10:14:55Z</time>
      </trkpt>
      <trkpt lat="59.255935592004" lon="17.634745794648">
        <ele>35.6</ele>
        <time>2017-10-21T10:14:56Z</time>
      </trkpt>
      <trkpt lat="59.255872476297" lon="17.634877055202">
        <ele>34.8</ele>
        <time>2017-10-21T10:14:57Z</time>
      </trkpt>
      <trkpt lat="59.255820676155" lon="17.635018122579">
        <ele>34.2</ele>
        <time>2017-10-21T10:14:58Z</time>
      </trkpt>
      <trkpt lat="59.255783628157" lon="17.635163297087">
        <ele>33.6</ele>
        <time>2017-10-21T10:14:59Z</time>
      </trkpt>
      <trkpt lat="59.255755129697" lon="17.635309393604">
        <ele>33.2</ele>
        <time>2017-10-21T10:15:00Z</time>
      </trkpt>
      <trkpt lat="59.255730822187" lon="17.635450880076">
        <ele>33.2</ele>
        <time>2017-10-21T10:15:01Z</time>
      </trkpt>
      <trkpt lat="59.255707017591" lon="17.63558549339">
        <ele>33</ele>
        <time>2017-10-21T10:15:02Z</time>
      </trkpt>
      <trkpt lat="59.255656307096" lon="17.635841560435">
        <ele>33</ele>
        <time>2017-10-21T10:15:04Z</time>
      </trkpt>
      <trkpt lat="59.255599980728" lon="17.63610852395">
        <ele>33</ele>
        <time>2017-10-21T10:15:06Z</time>
      </trkpt>
      <trkpt lat="59.255529991863" lon="17.636388060315">
        <ele>33</ele>
        <time>2017-10-21T10:15:08Z</time>
      </trkpt>
      <trkpt lat="59.255460589731" lon="17.636687629421">
        <ele>33.2</ele>
        <time>2017-10-21T10:15:10Z</time>
      </trkpt>
      <trkpt lat="59.255391606694" lon="17.637000441929">
        <ele>33.2</ele>
        <time>2017-10-21T10:15:12Z</time>
      </trkpt>
      <trkpt lat="59.255322791295" lon="17.63732054669">
        <ele>33.4</ele>
        <time>2017-10-21T10:15:14Z</time>
      </trkpt>
      <trkpt lat="59.255258250665" lon="17.637641238184">
        <ele>33.4</ele>
        <time>2017-10-21T10:15:16Z</time>
      </trkpt>
      <trkpt lat="59.255197733347" lon="17.637965701533">
        <ele>33.4</ele>
        <time>2017-10-21T10:15:18Z</time>
      </trkpt>
      <trkpt lat="59.255134533821" lon="17.638285135742">
        <ele>32</ele>
        <time>2017-10-21T10:15:20Z</time>
      </trkpt>
      <trkpt lat="59.255068903544" lon="17.638601887743">
        <ele>31.4</ele>
        <time>2017-10-21T10:15:22Z</time>
      </trkpt>
      <trkpt lat="59.254994807548" lon="17.638909838749">
        <ele>31.2</ele>
        <time>2017-10-21T10:15:24Z</time>
      </trkpt>
      <trkpt lat="59.25490495358" lon="17.639195410082">
        <ele>31.2</ele>
        <time>2017-10-21T10:15:26Z</time>
      </trkpt>
      <trkpt lat="59.254808394092" lon="17.63945876938">
        <ele>31.2</ele>
        <time>2017-10-21T10:15:28Z</time>
      </trkpt>
      <trkpt lat="59.254714265355" lon="17.639721458126">
        <ele>31.2</ele>
        <time>2017-10-21T10:15:30Z</time>
      </trkpt>
      <trkpt lat="59.254640756092" lon="17.639998647559">
        <ele>31.2</ele>
        <time>2017-10-21T10:15:32Z</time>
      </trkpt>
      <trkpt lat="59.254585351733" lon="17.640279441209">
        <ele>31.4</ele>
        <time>2017-10-21T10:15:34Z</time>
      </trkpt>
      <trkpt lat="59.254541682034" lon="17.640547242914">
        <ele>32</ele>
        <time>2017-10-21T10:15:36Z</time>
      </trkpt>
      <trkpt lat="59.254494156661" lon="17.640801298303">
        <ele>32.8</ele>
        <time>2017-10-21T10:15:38Z</time>
      </trkpt>
      <trkpt lat="59.254469262418" lon="17.640926104794">
        <ele>33.2</ele>
        <time>2017-10-21T10:15:39Z</time>
      </trkpt>
      <trkpt lat="59.25444143451" lon="17.641052671484">
        <ele>33.4</ele>
        <time>2017-10-21T10:15:40Z</time>
      </trkpt>
      <trkpt lat="59.254385191961" lon="17.641311672194">
        <ele>33.8</ele>
        <time>2017-10-21T10:15:42Z</time>
      </trkpt>
      <trkpt lat="59.25431402963" lon="17.641584000125">
        <ele>34</ele>
        <time>2017-10-21T10:15:44Z</time>
      </trkpt>
      <trkpt lat="59.254237083788" lon="17.641865967241">
        <ele>34</ele>
        <time>2017-10-21T10:15:46Z</time>
      </trkpt>
      <trkpt lat="59.254164161258" lon="17.642154807515">
        <ele>34</ele>
        <time>2017-10-21T10:15:48Z</time>
      </trkpt>
      <trkpt lat="59.25410196756" lon="17.642452532603">
        <ele>34</ele>
        <time>2017-10-21T10:15:50Z</time>
      </trkpt>
      <trkpt lat="59.254056789119" lon="17.642757466125">
        <ele>33.8</ele>
        <time>2017-10-21T10:15:52Z</time>
      </trkpt>
      <trkpt lat="59.254021249863" lon="17.643055526489">
        <ele>33.8</ele>
        <time>2017-10-21T10:15:54Z</time>
      </trkpt>
      <trkpt lat="59.253980597648" lon="17.643349479722">
        <ele>33.8</ele>
        <time>2017-10-21T10:15:56Z</time>
      </trkpt>
      <trkpt lat="59.253951847731" lon="17.643493313126">
        <ele>33.8</ele>
        <time>2017-10-21T10:15:57Z</time>
      </trkpt>
      <trkpt lat="59.253921672891" lon="17.643632033571">
        <ele>33.8</ele>
        <time>2017-10-21T10:15:58Z</time>
      </trkpt>
      <trkpt lat="59.253846906343" lon="17.643901679294">
        <ele>33.8</ele>
        <time>2017-10-21T10:16:00Z</time>
      </trkpt>
      <trkpt lat="59.253765182818" lon="17.644145424946">
        <ele>34.2</ele>
        <time>2017-10-21T10:16:02Z</time>
      </trkpt>
      <trkpt lat="59.253690080994" lon="17.644350110944">
        <ele>34.4</ele>
        <time>2017-10-21T10:16:04Z</time>
      </trkpt>
      <trkpt lat="59.253623696346" lon="17.64452981888">
        <ele>34.6</ele>
        <time>2017-10-21T10:16:06Z</time>
      </trkpt>
      <trkpt lat="59.253563681942" lon="17.644730481566">
        <ele>34.8</ele>
        <time>2017-10-21T10:16:08Z</time>
      </trkpt>
      <trkpt lat="59.253513725818" lon="17.644951009355">
        <ele>35.4</ele>
        <time>2017-10-21T10:16:10Z</time>
      </trkpt>
      <trkpt lat="59.253464859341" lon="17.645186289288">
        <ele>36.4</ele>
        <time>2017-10-21T10:16:12Z</time>
      </trkpt>
      <trkpt lat="59.253439294546" lon="17.645308916485">
        <ele>37.4</ele>
        <time>2017-10-21T10:16:13Z</time>
      </trkpt>
      <trkpt lat="59.253409287344" lon="17.645434728804">
        <ele>37.6</ele>
        <time>2017-10-21T10:16:14Z</time>
      </trkpt>
      <trkpt lat="59.253334604615" lon="17.645688448917">
        <ele>37.8</ele>
        <time>2017-10-21T10:16:16Z</time>
      </trkpt>
      <trkpt lat="59.253236452566" lon="17.64592205247">
        <ele>37.8</ele>
        <time>2017-10-21T10:16:18Z</time>
      </trkpt>
      <trkpt lat="59.25312128526" lon="17.646137718757">
        <ele>37.8</ele>
        <time>2017-10-21T10:16:20Z</time>
      </trkpt>
      <trkpt lat="59.252998490425" lon="17.646344416411">
        <ele>37.8</ele>
        <time>2017-10-21T10:16:22Z</time>
      </trkpt>
      <trkpt lat="59.252883155481" lon="17.646566536761">
        <ele>37.2</ele>
        <time>2017-10-21T10:16:24Z</time>
      </trkpt>
      <trkpt lat="59.252778633188" lon="17.646813216078">
        <ele>36.6</ele>
        <time>2017-10-21T10:16:26Z</time>
      </trkpt>
      <trkpt lat="59.252731443091" lon="17.646940201863">
        <ele>36.4</ele>
        <time>2017-10-21T10:16:27Z</time>
      </trkpt>
      <trkpt lat="59.252692467256" lon="17.647064589259">
        <ele>36.4</ele>
        <time>2017-10-21T10:16:28Z</time>
      </trkpt>
      <trkpt lat="59.252639577467" lon="17.647287883075">
        <ele>36.4</ele>
        <time>2017-10-21T10:16:30Z</time>
      </trkpt>
      <trkpt lat="59.252628764816" lon="17.647460214939">
        <ele>36.2</ele>
        <time>2017-10-21T10:16:32Z</time>
      </trkpt>
      <trkpt lat="59.252636559983" lon="17.647524504112">
        <ele>36.2</ele>
        <time>2017-10-21T10:16:34Z</time>
      </trkpt>
      <trkpt lat="59.252636308526" lon="17.647528359786">
        <ele>36.2</ele>
        <time>2017-10-21T10:16:36Z</time>
      </trkpt>
      <trkpt lat="59.252660029303" lon="17.647627350025">
        <ele>38</ele>
        <time>2017-10-21T10:16:43Z</time>
      </trkpt>
      <trkpt lat="59.252673021248" lon="17.647650232612">
        <ele>38.2</ele>
        <time>2017-10-21T10:16:44Z</time>
      </trkpt>
      <trkpt lat="59.252682660433" lon="17.647678647253">
        <ele>38.2</ele>
        <time>2017-10-21T10:16:45Z</time>
      </trkpt>
      <trkpt lat="59.252691629066" lon="17.647709492645">
        <ele>38.4</ele>
        <time>2017-10-21T10:16:46Z</time>
      </trkpt>
      <trkpt lat="59.252706045934" lon="17.647787444315">
        <ele>38.4</ele>
        <time>2017-10-21T10:16:48Z</time>
      </trkpt>
      <trkpt lat="59.252726330132" lon="17.647852823135">
        <ele>38.4</ele>
        <time>2017-10-21T10:16:50Z</time>
      </trkpt>
      <trkpt lat="59.252746279054" lon="17.6478892844">
        <ele>38.6</ele>
        <time>2017-10-21T10:16:52Z</time>
      </trkpt>
      <trkpt lat="59.252747368701" lon="17.647892804798">
        <ele>38.8</ele>
        <time>2017-10-21T10:16:54Z</time>
      </trkpt>
      <trkpt lat="59.252774693695" lon="17.648010235217">
        <ele>39.6</ele>
        <time>2017-10-21T10:18:44Z</time>
      </trkpt>
      <trkpt lat="59.252805203811" lon="17.64807871534">
        <ele>39.6</ele>
        <time>2017-10-21T10:18:46Z</time>
      </trkpt>
      <trkpt lat="59.252850214614" lon="17.648156415553">
        <ele>39.6</ele>
        <time>2017-10-21T10:18:48Z</time>
      </trkpt>
      <trkpt lat="59.252881060006" lon="17.64824719153">
        <ele>39.6</ele>
        <time>2017-10-21T10:18:50Z</time>
      </trkpt>
      <trkpt lat="59.252911570122" lon="17.648368393804">
        <ele>39.6</ele>
        <time>2017-10-21T10:18:52Z</time>
      </trkpt>
      <trkpt lat="59.252959933685" lon="17.648507700982">
        <ele>39.6</ele>
        <time>2017-10-21T10:18:54Z</time>
      </trkpt>
      <trkpt lat="59.252988599783" lon="17.648579282408">
        <ele>39.6</ele>
        <time>2017-10-21T10:18:55Z</time>
      </trkpt>
      <trkpt lat="59.253019612813" lon="17.648645834694">
        <ele>39.6</ele>
        <time>2017-10-21T10:18:56Z</time>
      </trkpt>
      <trkpt lat="59.25308105214" lon="17.648767036968">
        <ele>40</ele>
        <time>2017-10-21T10:18:58Z</time>
      </trkpt>
      <trkpt lat="59.253147185331" lon="17.648878180962">
        <ele>40.2</ele>
        <time>2017-10-21T10:19:00Z</time>
      </trkpt>
      <trkpt lat="59.253212145056" lon="17.648986642748">
        <ele>40.4</ele>
        <time>2017-10-21T10:19:02Z</time>
      </trkpt>
      <trkpt lat="59.25328305593" lon="17.649064175323">
        <ele>40.4</ele>
        <time>2017-10-21T10:19:04Z</time>
      </trkpt>
      <trkpt lat="59.253356900469" lon="17.649102061511">
        <ele>40.4</ele>
        <time>2017-10-21T10:19:06Z</time>
      </trkpt>
      <trkpt lat="59.253418339796" lon="17.649121088424">
        <ele>40.6</ele>
        <time>2017-10-21T10:19:08Z</time>
      </trkpt>
      <trkpt lat="59.253481874598" lon="17.649112538886">
        <ele>40.8</ele>
        <time>2017-10-21T10:19:10Z</time>
      </trkpt>
      <trkpt lat="59.253539206794" lon="17.649077167268">
        <ele>41.6</ele>
        <time>2017-10-21T10:19:12Z</time>
      </trkpt>
      <trkpt lat="59.253565609779" lon="17.649050009912">
        <ele>42.2</ele>
        <time>2017-10-21T10:19:13Z</time>
      </trkpt>
      <trkpt lat="59.253592767135" lon="17.649019751253">
        <ele>42.6</ele>
        <time>2017-10-21T10:19:14Z</time>
      </trkpt>
      <trkpt lat="59.253654038824" lon="17.648958060469">
        <ele>43.8</ele>
        <time>2017-10-21T10:19:16Z</time>
      </trkpt>
      <trkpt lat="59.253718747092" lon="17.648890837631">
        <ele>45</ele>
        <time>2017-10-21T10:19:18Z</time>
      </trkpt>
      <trkpt lat="59.253780605514" lon="17.648828392476">
        <ele>45.8</ele>
        <time>2017-10-21T10:19:20Z</time>
      </trkpt>
      <trkpt lat="59.253809020155" lon="17.648801318939">
        <ele>46</ele>
        <time>2017-10-21T10:19:21Z</time>
      </trkpt>
      <trkpt lat="59.253836177511" lon="17.648779274542">
        <ele>46.4</ele>
        <time>2017-10-21T10:19:22Z</time>
      </trkpt>
      <trkpt lat="59.253884708712" lon="17.648744992571">
        <ele>47.2</ele>
        <time>2017-10-21T10:19:24Z</time>
      </trkpt>
      <trkpt lat="59.253934748655" lon="17.648693024791">
        <ele>47.8</ele>
        <time>2017-10-21T10:19:26Z</time>
      </trkpt>
      <trkpt lat="59.25397623906" lon="17.648640135002">
        <ele>48.2</ele>
        <time>2017-10-21T10:19:28Z</time>
      </trkpt>
      <trkpt lat="59.253994176326" lon="17.648621191908">
        <ele>48.4</ele>
        <time>2017-10-21T10:19:29Z</time>
      </trkpt>
      <trkpt lat="59.25400809028" lon="17.648606439764">
        <ele>49</ele>
        <time>2017-10-21T10:19:30Z</time>
      </trkpt>
      <trkpt lat="59.254023261519" lon="17.64859755495">
        <ele>49.6</ele>
        <time>2017-10-21T10:19:31Z</time>
      </trkpt>
      <trkpt lat="59.254042372251" lon="17.648591939077">
        <ele>50.2</ele>
        <time>2017-10-21T10:19:32Z</time>
      </trkpt>
      <trkpt lat="59.254088053606" lon="17.648586071747">
        <ele>50.8</ele>
        <time>2017-10-21T10:19:34Z</time>
      </trkpt>
      <trkpt lat="59.254133483504" lon="17.648588167222">
        <ele>51.4</ele>
        <time>2017-10-21T10:19:36Z</time>
      </trkpt>
      <trkpt lat="59.254158796842" lon="17.648600823891">
        <ele>51.8</ele>
        <time>2017-10-21T10:19:37Z</time>
      </trkpt>
      <trkpt lat="59.254183188171" lon="17.648619180252">
        <ele>52.2</ele>
        <time>2017-10-21T10:19:38Z</time>
      </trkpt>
      <trkpt lat="59.254236664693" lon="17.648666537987">
        <ele>53</ele>
        <time>2017-10-21T10:19:40Z</time>
      </trkpt>
      <trkpt lat="59.254285866446" lon="17.648696964284">
        <ele>53.4</ele>
        <time>2017-10-21T10:19:42Z</time>
      </trkpt>
      <trkpt lat="59.254334397647" lon="17.648723702545">
        <ele>53.8</ele>
        <time>2017-10-21T10:19:44Z</time>
      </trkpt>
      <trkpt lat="59.254358202243" lon="17.648737113585">
        <ele>54</ele>
        <time>2017-10-21T10:19:45Z</time>
      </trkpt>
      <trkpt lat="59.254383096486" lon="17.648758906525">
        <ele>54.2</ele>
        <time>2017-10-21T10:19:46Z</time>
      </trkpt>
      <trkpt lat="59.254442775614" lon="17.648812466866">
        <ele>54.8</ele>
        <time>2017-10-21T10:19:48Z</time>
      </trkpt>
      <trkpt lat="59.254474291558" lon="17.648841216783">
        <ele>55.2</ele>
        <time>2017-10-21T10:19:49Z</time>
      </trkpt>
      <trkpt lat="59.25450681333" lon="17.64886912851">
        <ele>55.6</ele>
        <time>2017-10-21T10:19:50Z</time>
      </trkpt>
      <trkpt lat="59.254572695064" lon="17.648938111547">
        <ele>56.2</ele>
        <time>2017-10-21T10:19:52Z</time>
      </trkpt>
      <trkpt lat="59.254604127189" lon="17.648976500649">
        <ele>56.2</ele>
        <time>2017-10-21T10:19:53Z</time>
      </trkpt>
      <trkpt lat="59.254634385848" lon="17.649007932774">
        <ele>56.4</ele>
        <time>2017-10-21T10:19:54Z</time>
      </trkpt>
      <trkpt lat="59.25469624427" lon="17.649055374328">
        <ele>56.6</ele>
        <time>2017-10-21T10:19:56Z</time>
      </trkpt>
      <trkpt lat="59.254761790728" lon="17.649073311594">
        <ele>56.8</ele>
        <time>2017-10-21T10:19:58Z</time>
      </trkpt>
      <trkpt lat="59.254834629439" lon="17.649080687666">
        <ele>56.8</ele>
        <time>2017-10-21T10:20:00Z</time>
      </trkpt>
      <trkpt lat="59.254899505345" lon="17.64906442678">
        <ele>57</ele>
        <time>2017-10-21T10:20:02Z</time>
      </trkpt>
      <trkpt lat="59.254971673504" lon="17.649045735143">
        <ele>57.4</ele>
        <time>2017-10-21T10:20:04Z</time>
      </trkpt>
      <trkpt lat="59.25503990217" lon="17.649017571959">
        <ele>58</ele>
        <time>2017-10-21T10:20:06Z</time>
      </trkpt>
      <trkpt lat="59.255118524392" lon="17.64897641683">
        <ele>58.4</ele>
        <time>2017-10-21T10:20:08Z</time>
      </trkpt>
      <trkpt lat="59.255160936806" lon="17.648950516759">
        <ele>58.6</ele>
        <time>2017-10-21T10:20:09Z</time>
      </trkpt>
      <trkpt lat="59.255206953437" lon="17.648921263928">
        <ele>58.8</ele>
        <time>2017-10-21T10:20:10Z</time>
      </trkpt>
      <trkpt lat="59.255299489613" lon="17.648858734954">
        <ele>58.8</ele>
        <time>2017-10-21T10:20:12Z</time>
      </trkpt>
      <trkpt lat="59.255390433228" lon="17.648802240948">
        <ele>58.8</ele>
        <time>2017-10-21T10:20:14Z</time>
      </trkpt>
      <trkpt lat="59.255480287196" lon="17.648727642038">
        <ele>58.8</ele>
        <time>2017-10-21T10:20:16Z</time>
      </trkpt>
      <trkpt lat="59.255525717094" lon="17.648693192429">
        <ele>58.8</ele>
        <time>2017-10-21T10:20:17Z</time>
      </trkpt>
      <trkpt lat="59.255569135336" lon="17.648656395888">
        <ele>58.6</ele>
        <time>2017-10-21T10:20:18Z</time>
      </trkpt>
      <trkpt lat="59.255666365376" lon="17.648583892453">
        <ele>58.4</ele>
        <time>2017-10-21T10:20:20Z</time>
      </trkpt>
      <trkpt lat="59.255764517425" lon="17.648508371534">
        <ele>58.2</ele>
        <time>2017-10-21T10:20:22Z</time>
      </trkpt>
      <trkpt lat="59.255868620623" lon="17.648414242797">
        <ele>58</ele>
        <time>2017-10-21T10:20:24Z</time>
      </trkpt>
      <trkpt lat="59.255992253648" lon="17.648315001101">
        <ele>57.8</ele>
        <time>2017-10-21T10:20:26Z</time>
      </trkpt>
      <trkpt lat="59.256115216121" lon="17.648234702499">
        <ele>57.6</ele>
        <time>2017-10-21T10:20:28Z</time>
      </trkpt>
      <trkpt lat="59.256250919082" lon="17.648169575136">
        <ele>57.6</ele>
        <time>2017-10-21T10:20:30Z</time>
      </trkpt>
      <trkpt lat="59.256387376414" lon="17.648109644551">
        <ele>57.4</ele>
        <time>2017-10-21T10:20:32Z</time>
      </trkpt>
      <trkpt lat="59.256519558977" lon="17.64803848222">
        <ele>57.2</ele>
        <time>2017-10-21T10:20:34Z</time>
      </trkpt>
      <trkpt lat="59.256652915006" lon="17.647974612142">
        <ele>56.6</ele>
        <time>2017-10-21T10:20:36Z</time>
      </trkpt>
      <trkpt lat="59.256719802568" lon="17.647941838913">
        <ele>56.4</ele>
        <time>2017-10-21T10:20:37Z</time>
      </trkpt>
      <trkpt lat="59.256784343198" lon="17.647912837539">
        <ele>56</ele>
        <time>2017-10-21T10:20:38Z</time>
      </trkpt>
      <trkpt lat="59.256852823321" lon="17.647876124817">
        <ele>55.8</ele>
        <time>2017-10-21T10:20:39Z</time>
      </trkpt>
      <trkpt lat="59.256920381435" lon="17.647848632185">
        <ele>55.2</ele>
        <time>2017-10-21T10:20:40Z</time>
      </trkpt>
      <trkpt lat="59.257052563998" lon="17.647829269996">
        <ele>54.6</ele>
        <time>2017-10-21T10:20:42Z</time>
      </trkpt>
      <trkpt lat="59.257114590058" lon="17.647816948603">
        <ele>54.6</ele>
        <time>2017-10-21T10:20:43Z</time>
      </trkpt>
      <trkpt lat="59.25716974296" lon="17.647801442088">
        <ele>54.2</ele>
        <time>2017-10-21T10:20:44Z</time>
      </trkpt>
      <trkpt lat="59.257222129835" lon="17.647775374379">
        <ele>54</ele>
        <time>2017-10-21T10:20:45Z</time>
      </trkpt>
      <trkpt lat="59.257274684348" lon="17.647743774616">
        <ele>53.8</ele>
        <time>2017-10-21T10:20:46Z</time>
      </trkpt>
      <trkpt lat="59.257372249664" lon="17.647666409679">
        <ele>53.8</ele>
        <time>2017-10-21T10:20:48Z</time>
      </trkpt>
      <trkpt lat="59.257468054781" lon="17.647570939838">
        <ele>53.6</ele>
        <time>2017-10-21T10:20:50Z</time>
      </trkpt>
      <trkpt lat="59.257570565418" lon="17.647473793617">
        <ele>53.6</ele>
        <time>2017-10-21T10:20:52Z</time>
      </trkpt>
      <trkpt lat="59.257672070227" lon="17.647371618256">
        <ele>53.8</ele>
        <time>2017-10-21T10:20:54Z</time>
      </trkpt>
      <trkpt lat="59.257773575036" lon="17.647262737375">
        <ele>54.2</ele>
        <time>2017-10-21T10:20:56Z</time>
      </trkpt>
      <trkpt lat="59.257873152008" lon="17.647147402431">
        <ele>54.4</ele>
        <time>2017-10-21T10:20:58Z</time>
      </trkpt>
      <trkpt lat="59.257976836111" lon="17.647030726383">
        <ele>54.4</ele>
        <time>2017-10-21T10:21:00Z</time>
      </trkpt>
      <trkpt lat="59.258086471363" lon="17.646909607928">
        <ele>54.4</ele>
        <time>2017-10-21T10:21:02Z</time>
      </trkpt>
      <trkpt lat="59.258204656153" lon="17.646796368459">
        <ele>54.4</ele>
        <time>2017-10-21T10:21:04Z</time>
      </trkpt>
      <trkpt lat="59.258322170391" lon="17.646699222238">
        <ele>54.4</ele>
        <time>2017-10-21T10:21:06Z</time>
      </trkpt>
      <trkpt lat="59.258380592234" lon="17.646670891416">
        <ele>54.4</ele>
        <time>2017-10-21T10:21:07Z</time>
      </trkpt>
      <trkpt lat="59.258439433172" lon="17.646671813425">
        <ele>54.4</ele>
        <time>2017-10-21T10:21:08Z</time>
      </trkpt>
      <trkpt lat="59.258562144188" lon="17.646781867772">
        <ele>54.4</ele>
        <time>2017-10-21T10:21:10Z</time>
      </trkpt>
      <trkpt lat="59.258622158592" lon="17.646866944057">
        <ele>54.4</ele>
        <time>2017-10-21T10:21:11Z</time>
      </trkpt>
      <trkpt lat="59.258684184652" lon="17.646957803853">
        <ele>54.4</ele>
        <time>2017-10-21T10:21:12Z</time>
      </trkpt>
      <trkpt lat="59.258807398582" lon="17.64715000082">
        <ele>54.4</ele>
        <time>2017-10-21T10:21:14Z</time>
      </trkpt>
      <trkpt lat="59.258925080458" lon="17.647329624937">
        <ele>54.2</ele>
        <time>2017-10-21T10:21:16Z</time>
      </trkpt>
      <trkpt lat="59.259030692398" lon="17.647498017308">
        <ele>54</ele>
        <time>2017-10-21T10:21:18Z</time>
      </trkpt>
      <trkpt lat="59.259109817534" lon="17.647632714441">
        <ele>54</ele>
        <time>2017-10-21T10:21:20Z</time>
      </trkpt>
      <trkpt lat="59.259172765603" lon="17.647742014417">
        <ele>54</ele>
        <time>2017-10-21T10:21:22Z</time>
      </trkpt>
      <trkpt lat="59.259237892966" lon="17.647870508944">
        <ele>54</ele>
        <time>2017-10-21T10:21:24Z</time>
      </trkpt>
      <trkpt lat="59.259298410284" lon="17.648009480846">
        <ele>54.2</ele>
        <time>2017-10-21T10:21:26Z</time>
      </trkpt>
      <trkpt lat="59.259347109123" lon="17.648150632042">
        <ele>55</ele>
        <time>2017-10-21T10:21:28Z</time>
      </trkpt>
      <trkpt lat="59.259392371383" lon="17.64830167388">
        <ele>56.2</ele>
        <time>2017-10-21T10:21:30Z</time>
      </trkpt>
      <trkpt lat="59.259445680267" lon="17.648466126758">
        <ele>57</ele>
        <time>2017-10-21T10:21:32Z</time>
      </trkpt>
      <trkpt lat="59.259538048805" lon="17.648563356798">
        <ele>57.2</ele>
        <time>2017-10-21T10:21:34Z</time>
      </trkpt>
      <trkpt lat="59.259643828383" lon="17.64857324744">
        <ele>57.2</ele>
        <time>2017-10-21T10:21:36Z</time>
      </trkpt>
      <trkpt lat="59.259696634353" lon="17.648572073974">
        <ele>57.2</ele>
        <time>2017-10-21T10:21:37Z</time>
      </trkpt>
      <trkpt lat="59.259746590477" lon="17.648572995983">
        <ele>57.2</ele>
        <time>2017-10-21T10:21:38Z</time>
      </trkpt>
      <trkpt lat="59.25979663042" lon="17.648592022896">
        <ele>57.2</ele>
        <time>2017-10-21T10:21:39Z</time>
      </trkpt>
      <trkpt lat="59.259851364227" lon="17.64862856798">
        <ele>57.2</ele>
        <time>2017-10-21T10:21:40Z</time>
      </trkpt>
      <trkpt lat="59.259954293959" lon="17.648736526852">
        <ele>56.2</ele>
        <time>2017-10-21T10:21:42Z</time>
      </trkpt>
      <trkpt lat="59.26000617792" lon="17.648802743862">
        <ele>56</ele>
        <time>2017-10-21T10:21:43Z</time>
      </trkpt>
      <trkpt lat="59.260056804596" lon="17.648876001668">
        <ele>56</ele>
        <time>2017-10-21T10:21:44Z</time>
      </trkpt>
      <trkpt lat="59.260161326889" lon="17.649036431234">
        <ele>55.8</ele>
        <time>2017-10-21T10:21:46Z</time>
      </trkpt>
      <trkpt lat="59.260275823643" lon="17.64920272813">
        <ele>55.6</ele>
        <time>2017-10-21T10:21:48Z</time>
      </trkpt>
      <trkpt lat="59.26039593627" lon="17.649384782998">
        <ele>55.6</ele>
        <time>2017-10-21T10:21:50Z</time>
      </trkpt>
      <trkpt lat="59.260508924282" lon="17.649561305812">
        <ele>55.4</ele>
        <time>2017-10-21T10:21:52Z</time>
      </trkpt>
      <trkpt lat="59.260618559534" lon="17.649728021803">
        <ele>54.8</ele>
        <time>2017-10-21T10:21:54Z</time>
      </trkpt>
      <trkpt lat="59.26073037408" lon="17.649905634264">
        <ele>54.2</ele>
        <time>2017-10-21T10:21:56Z</time>
      </trkpt>
      <trkpt lat="59.260848307413" lon="17.650071428246">
        <ele>53.8</ele>
        <time>2017-10-21T10:21:58Z</time>
      </trkpt>
      <trkpt lat="59.260961965977" lon="17.650199838954">
        <ele>53.8</ele>
        <time>2017-10-21T10:22:00Z</time>
      </trkpt>
      <trkpt lat="59.261068583745" lon="17.650300254116">
        <ele>53.8</ele>
        <time>2017-10-21T10:22:02Z</time>
      </trkpt>
      <trkpt lat="59.261176961712" lon="17.650383318745">
        <ele>53.8</ele>
        <time>2017-10-21T10:22:04Z</time>
      </trkpt>
      <trkpt lat="59.261288189525" lon="17.650467221564">
        <ele>53.8</ele>
        <time>2017-10-21T10:22:06Z</time>
      </trkpt>
      <trkpt lat="59.261395394026" lon="17.650563194319">
        <ele>54</ele>
        <time>2017-10-21T10:22:08Z</time>
      </trkpt>
      <trkpt lat="59.261511986255" lon="17.650669812087">
        <ele>54.8</ele>
        <time>2017-10-21T10:22:10Z</time>
      </trkpt>
      <trkpt lat="59.261635451642" lon="17.650779112063">
        <ele>55</ele>
        <time>2017-10-21T10:22:12Z</time>
      </trkpt>
      <trkpt lat="59.261771992793" lon="17.650874246628">
        <ele>55</ele>
        <time>2017-10-21T10:22:14Z</time>
      </trkpt>
      <trkpt lat="59.261847848988" lon="17.650895369016">
        <ele>55</ele>
        <time>2017-10-21T10:22:15Z</time>
      </trkpt>
      <trkpt lat="59.261929404875" lon="17.650886735659">
        <ele>55</ele>
        <time>2017-10-21T10:22:16Z</time>
      </trkpt>
      <trkpt lat="59.262073573555" lon="17.650774502018">
        <ele>55</ele>
        <time>2017-10-21T10:22:18Z</time>
      </trkpt>
      <trkpt lat="59.262183460264" lon="17.650600661412">
        <ele>54.8</ele>
        <time>2017-10-21T10:22:20Z</time>
      </trkpt>
      <trkpt lat="59.26226593816" lon="17.650416762526">
        <ele>54.4</ele>
        <time>2017-10-21T10:22:22Z</time>
      </trkpt>
      <trkpt lat="59.262343219278" lon="17.65024292192">
        <ele>54.2</ele>
        <time>2017-10-21T10:22:24Z</time>
      </trkpt>
      <trkpt lat="59.262419494568" lon="17.650076625024">
        <ele>54.2</ele>
        <time>2017-10-21T10:22:26Z</time>
      </trkpt>
      <trkpt lat="59.262492752374" lon="17.649920805503">
        <ele>54.2</ele>
        <time>2017-10-21T10:22:28Z</time>
      </trkpt>
      <trkpt lat="59.262570536406" lon="17.649781833601">
        <ele>54.2</ele>
        <time>2017-10-21T10:22:30Z</time>
      </trkpt>
      <trkpt lat="59.262660138917" lon="17.649706312682">
        <ele>54.4</ele>
        <time>2017-10-21T10:22:32Z</time>
      </trkpt>
      <trkpt lat="59.262759296794" lon="17.649742690128">
        <ele>55</ele>
        <time>2017-10-21T10:22:34Z</time>
      </trkpt>
      <trkpt lat="59.262850827142" lon="17.649866909886">
        <ele>56</ele>
        <time>2017-10-21T10:22:36Z</time>
      </trkpt>
      <trkpt lat="59.262937998902" lon="17.650030356936">
        <ele>56.2</ele>
        <time>2017-10-21T10:22:38Z</time>
      </trkpt>
      <trkpt lat="59.263017626952" lon="17.650197408203">
        <ele>56.6</ele>
        <time>2017-10-21T10:22:40Z</time>
      </trkpt>
      <trkpt lat="59.26308568798" lon="17.650396813604">
        <ele>56.6</ele>
        <time>2017-10-21T10:22:42Z</time>
      </trkpt>
      <trkpt lat="59.26314100852" lon="17.650606025828">
        <ele>56.6</ele>
        <time>2017-10-21T10:22:44Z</time>
      </trkpt>
      <trkpt lat="59.263193730671" lon="17.65082881673">
        <ele>56.6</ele>
        <time>2017-10-21T10:22:46Z</time>
      </trkpt>
      <trkpt lat="59.263249889401" lon="17.651078681169">
        <ele>56.6</ele>
        <time>2017-10-21T10:22:48Z</time>
      </trkpt>
      <trkpt lat="59.263305461398" lon="17.651327958875">
        <ele>56.4</ele>
        <time>2017-10-21T10:22:50Z</time>
      </trkpt>
      <trkpt lat="59.263382071964" lon="17.651520910213">
        <ele>56.2</ele>
        <time>2017-10-21T10:22:52Z</time>
      </trkpt>
      <trkpt lat="59.263507632826" lon="17.65162174447">
        <ele>55.6</ele>
        <time>2017-10-21T10:22:54Z</time>
      </trkpt>
      <trkpt lat="59.26357602913" lon="17.651642866858">
        <ele>55.2</ele>
        <time>2017-10-21T10:22:55Z</time>
      </trkpt>
      <trkpt lat="59.263641156493" lon="17.651649823835">
        <ele>54.8</ele>
        <time>2017-10-21T10:22:56Z</time>
      </trkpt>
      <trkpt lat="59.263765711527" lon="17.651636496614">
        <ele>54</ele>
        <time>2017-10-21T10:22:58Z</time>
      </trkpt>
      <trkpt lat="59.263826228845" lon="17.651626270696">
        <ele>53.6</ele>
        <time>2017-10-21T10:22:59Z</time>
      </trkpt>
      <trkpt lat="59.263884399231" lon="17.651621912108">
        <ele>53</ele>
        <time>2017-10-21T10:23:00Z</time>
      </trkpt>
      <trkpt lat="59.263999231261" lon="17.651619565176">
        <ele>52.2</ele>
        <time>2017-10-21T10:23:02Z</time>
      </trkpt>
      <trkpt lat="59.264058742751" lon="17.651619313719">
        <ele>51.2</ele>
        <time>2017-10-21T10:23:03Z</time>
      </trkpt>
      <trkpt lat="59.264116829318" lon="17.651616547692">
        <ele>51</ele>
        <time>2017-10-21T10:23:04Z</time>
      </trkpt>
      <trkpt lat="59.264227638036" lon="17.651615458045">
        <ele>50.8</ele>
        <time>2017-10-21T10:23:06Z</time>
      </trkpt>
      <trkpt lat="59.264348169758" lon="17.651619062262">
        <ele>50.6</ele>
        <time>2017-10-21T10:23:08Z</time>
      </trkpt>
      <trkpt lat="59.264471886602" lon="17.651628617628">
        <ele>50.4</ele>
        <time>2017-10-21T10:23:10Z</time>
      </trkpt>
      <trkpt lat="59.264605074993" lon="17.651701288701">
        <ele>50.4</ele>
        <time>2017-10-21T10:23:12Z</time>
      </trkpt>
      <trkpt lat="59.264724097973" lon="17.651859119878">
        <ele>50.2</ele>
        <time>2017-10-21T10:23:14Z</time>
      </trkpt>
      <trkpt lat="59.264809928629" lon="17.652091214689">
        <ele>50.2</ele>
        <time>2017-10-21T10:23:16Z</time>
      </trkpt>
      <trkpt lat="59.26484253422" lon="17.652218787207">
        <ele>50.2</ele>
        <time>2017-10-21T10:23:17Z</time>
      </trkpt>
      <trkpt lat="59.264871284137" lon="17.65234677882">
        <ele>50.2</ele>
        <time>2017-10-21T10:23:18Z</time>
      </trkpt>
      <trkpt lat="59.264896513656" lon="17.652473261691">
        <ele>50</ele>
        <time>2017-10-21T10:23:19Z</time>
      </trkpt>
      <trkpt lat="59.264922581365" lon="17.652601420942">
        <ele>49.6</ele>
        <time>2017-10-21T10:23:20Z</time>
      </trkpt>
      <trkpt lat="59.264965329055" lon="17.652860421652">
        <ele>49</ele>
        <time>2017-10-21T10:23:22Z</time>
      </trkpt>
      <trkpt lat="59.264981925217" lon="17.652991766025">
        <ele>48.8</ele>
        <time>2017-10-21T10:23:23Z</time>
      </trkpt>
      <trkpt lat="59.264993576058" lon="17.653123110398">
        <ele>48.6</ele>
        <time>2017-10-21T10:23:24Z</time>
      </trkpt>
      <trkpt lat="59.264990390936" lon="17.653387559343">
        <ele>48.4</ele>
        <time>2017-10-21T10:23:26Z</time>
      </trkpt>
      <trkpt lat="59.264965412874" lon="17.65364597332">
        <ele>48.2</ele>
        <time>2017-10-21T10:23:28Z</time>
      </trkpt>
      <trkpt lat="59.264938842251" lon="17.653900866899">
        <ele>48.2</ele>
        <time>2017-10-21T10:23:30Z</time>
      </trkpt>
      <trkpt lat="59.264912271628" lon="17.654166656948">
        <ele>48</ele>
        <time>2017-10-21T10:23:32Z</time>
      </trkpt>
      <trkpt lat="59.264894837276" lon="17.654448372607">
        <ele>48</ele>
        <time>2017-10-21T10:23:34Z</time>
      </trkpt>
      <trkpt lat="59.264866254997" lon="17.654732351379">
        <ele>48</ele>
        <time>2017-10-21T10:23:36Z</time>
      </trkpt>
      <trkpt lat="59.264839600555" lon="17.655018509445">
        <ele>48</ele>
        <time>2017-10-21T10:23:38Z</time>
      </trkpt>
      <trkpt lat="59.264808838982" lon="17.655287652254">
        <ele>48</ele>
        <time>2017-10-21T10:23:40Z</time>
      </trkpt>
      <trkpt lat="59.264770868975" lon="17.655544725127">
        <ele>47.8</ele>
        <time>2017-10-21T10:23:42Z</time>
      </trkpt>
      <trkpt lat="59.264733988615" lon="17.655802300914">
        <ele>48</ele>
        <time>2017-10-21T10:23:44Z</time>
      </trkpt>
      <trkpt lat="59.264700544834" lon="17.656061469262">
        <ele>48</ele>
        <time>2017-10-21T10:23:46Z</time>
      </trkpt>
      <trkpt lat="59.264665257035" lon="17.656324660922">
        <ele>48</ele>
        <time>2017-10-21T10:23:48Z</time>
      </trkpt>
      <trkpt lat="59.26463801586" lon="17.656576537017">
        <ele>48</ele>
        <time>2017-10-21T10:23:50Z</time>
      </trkpt>
      <trkpt lat="59.264616558196" lon="17.656830843863">
        <ele>48.2</ele>
        <time>2017-10-21T10:23:52Z</time>
      </trkpt>
      <trkpt lat="59.264590071392" lon="17.657077104085">
        <ele>48.4</ele>
        <time>2017-10-21T10:23:54Z</time>
      </trkpt>
      <trkpt lat="59.264564506597" lon="17.657323531945">
        <ele>48.6</ele>
        <time>2017-10-21T10:23:56Z</time>
      </trkpt>
      <trkpt lat="59.264542294562" lon="17.657563757199">
        <ele>49.2</ele>
        <time>2017-10-21T10:23:58Z</time>
      </trkpt>
      <trkpt lat="59.264529721712" lon="17.657817225855">
        <ele>49.4</ele>
        <time>2017-10-21T10:24:00Z</time>
      </trkpt>
      <trkpt lat="59.264530559902" lon="17.658067509389">
        <ele>49.4</ele>
        <time>2017-10-21T10:24:02Z</time>
      </trkpt>
      <trkpt lat="59.264546150236" lon="17.658318128199">
        <ele>49.4</ele>
        <time>2017-10-21T10:24:04Z</time>
      </trkpt>
      <trkpt lat="59.264561572932" lon="17.658611662337">
        <ele>49.4</ele>
        <time>2017-10-21T10:24:06Z</time>
      </trkpt>
      <trkpt lat="59.264563500769" lon="17.658914416565">
        <ele>49.4</ele>
        <time>2017-10-21T10:24:08Z</time>
      </trkpt>
      <trkpt lat="59.264549419177" lon="17.659226307064">
        <ele>49.4</ele>
        <time>2017-10-21T10:24:10Z</time>
      </trkpt>
      <trkpt lat="59.2645173165" lon="17.659545657454">
        <ele>49.2</ele>
        <time>2017-10-21T10:24:12Z</time>
      </trkpt>
      <trkpt lat="59.264493260447" lon="17.659865846034">
        <ele>48.2</ele>
        <time>2017-10-21T10:24:14Z</time>
      </trkpt>
      <trkpt lat="59.264480017045" lon="17.660170109004">
        <ele>47.2</ele>
        <time>2017-10-21T10:24:16Z</time>
      </trkpt>
      <trkpt lat="59.264467276557" lon="17.660456518527">
        <ele>46.6</ele>
        <time>2017-10-21T10:24:18Z</time>
      </trkpt>
      <trkpt lat="59.264454368431" lon="17.660734965245">
        <ele>46.4</ele>
        <time>2017-10-21T10:24:20Z</time>
      </trkpt>
      <trkpt lat="59.264450680395" lon="17.661012238497">
        <ele>46</ele>
        <time>2017-10-21T10:24:22Z</time>
      </trkpt>
      <trkpt lat="59.264467192738" lon="17.66127853146">
        <ele>46</ele>
        <time>2017-10-21T10:24:24Z</time>
      </trkpt>
      <trkpt lat="59.264532823015" lon="17.661506100045">
        <ele>46</ele>
        <time>2017-10-21T10:24:26Z</time>
      </trkpt>
      <trkpt lat="59.264639440783" lon="17.661672564579">
        <ele>45.8</ele>
        <time>2017-10-21T10:24:28Z</time>
      </trkpt>
      <trkpt lat="59.264697275893" lon="17.661739871236">
        <ele>45.8</ele>
        <time>2017-10-21T10:24:29Z</time>
      </trkpt>
      <trkpt lat="59.26475703884" lon="17.661803154581">
        <ele>45.8</ele>
        <time>2017-10-21T10:24:30Z</time>
      </trkpt>
      <trkpt lat="59.264881174779" lon="17.661910694358">
        <ele>45.2</ele>
        <time>2017-10-21T10:24:32Z</time>
      </trkpt>
      <trkpt lat="59.264944290486" lon="17.661947574718">
        <ele>45</ele>
        <time>2017-10-21T10:24:33Z</time>
      </trkpt>
      <trkpt lat="59.265006568003" lon="17.661972468961">
        <ele>44.8</ele>
        <time>2017-10-21T10:24:34Z</time>
      </trkpt>
      <trkpt lat="59.265117963454" lon="17.662001302697">
        <ele>44.6</ele>
        <time>2017-10-21T10:24:36Z</time>
      </trkpt>
      <trkpt lat="59.265212008372" lon="17.662003481991">
        <ele>44.4</ele>
        <time>2017-10-21T10:24:38Z</time>
      </trkpt>
      <trkpt lat="59.26529012768" lon="17.662002057068">
        <ele>44.4</ele>
        <time>2017-10-21T10:24:40Z</time>
      </trkpt>
      <trkpt lat="59.265366905884" lon="17.662024855836">
        <ele>44.4</ele>
        <time>2017-10-21T10:24:42Z</time>
      </trkpt>
      <trkpt lat="59.265458687689" lon="17.662080260195">
        <ele>44.6</ele>
        <time>2017-10-21T10:24:44Z</time>
      </trkpt>
      <trkpt lat="59.26556253943" lon="17.662217471898">
        <ele>44.6</ele>
        <time>2017-10-21T10:24:46Z</time>
      </trkpt>
      <trkpt lat="59.265648286267" lon="17.662432467633">
        <ele>44.8</ele>
        <time>2017-10-21T10:24:48Z</time>
      </trkpt>
      <trkpt lat="59.265698829124" lon="17.66267076505">
        <ele>44.8</ele>
        <time>2017-10-21T10:24:50Z</time>
      </trkpt>
      <trkpt lat="59.265717017847" lon="17.66289539997">
        <ele>44.8</ele>
        <time>2017-10-21T10:24:52Z</time>
      </trkpt>
      <trkpt lat="59.26572263372" lon="17.663110982438">
        <ele>45</ele>
        <time>2017-10-21T10:24:54Z</time>
      </trkpt>
      <trkpt lat="59.265734284561" lon="17.663334108616">
        <ele>45</ele>
        <time>2017-10-21T10:24:56Z</time>
      </trkpt>
      <trkpt lat="59.265762783021" lon="17.66357601025">
        <ele>45</ele>
        <time>2017-10-21T10:24:58Z</time>
      </trkpt>
      <trkpt lat="59.265811565679" lon="17.663829562725">
        <ele>45.2</ele>
        <time>2017-10-21T10:25:00Z</time>
      </trkpt>
      <trkpt lat="59.265868562599" lon="17.664090072177">
        <ele>45.4</ele>
        <time>2017-10-21T10:25:02Z</time>
      </trkpt>
      <trkpt lat="59.26592379932" lon="17.664353766751">
        <ele>45.4</ele>
        <time>2017-10-21T10:25:04Z</time>
      </trkpt>
      <trkpt lat="59.265978030213" lon="17.664617126049">
        <ele>45.4</ele>
        <time>2017-10-21T10:25:06Z</time>
      </trkpt>
      <trkpt lat="59.266030584726" lon="17.664887107048">
        <ele>45.4</ele>
        <time>2017-10-21T10:25:08Z</time>
      </trkpt>
      <trkpt lat="59.266090934406" lon="17.665168319793">
        <ele>45.4</ele>
        <time>2017-10-21T10:25:10Z</time>
      </trkpt>
      <trkpt lat="59.266155726493" lon="17.665456740972">
        <ele>45.4</ele>
        <time>2017-10-21T10:25:12Z</time>
      </trkpt>
      <trkpt lat="59.266216243811" lon="17.665740552106">
        <ele>45.4</ele>
        <time>2017-10-21T10:25:14Z</time>
      </trkpt>
      <trkpt lat="59.266269301238" lon="17.666016987168">
        <ele>44.8</ele>
        <time>2017-10-21T10:25:16Z</time>
      </trkpt>
      <trkpt lat="59.266325711425" lon="17.66628504033">
        <ele>44</ele>
        <time>2017-10-21T10:25:18Z</time>
      </trkpt>
      <trkpt lat="59.266357562645" lon="17.666415211237">
        <ele>43.8</ele>
        <time>2017-10-21T10:25:19Z</time>
      </trkpt>
      <trkpt lat="59.26638983296" lon="17.666544208678">
        <ele>43.2</ele>
        <time>2017-10-21T10:25:20Z</time>
      </trkpt>
      <trkpt lat="59.266447751889" lon="17.666806729786">
        <ele>43</ele>
        <time>2017-10-21T10:25:22Z</time>
      </trkpt>
      <trkpt lat="59.26646946101" lon="17.666939834358">
        <ele>43</ele>
        <time>2017-10-21T10:25:23Z</time>
      </trkpt>
      <trkpt lat="59.266482536774" lon="17.667073358025">
        <ele>42.8</ele>
        <time>2017-10-21T10:25:24Z</time>
      </trkpt>
      <trkpt lat="59.266491924502" lon="17.667304782284">
        <ele>42.8</ele>
        <time>2017-10-21T10:25:26Z</time>
      </trkpt>
      <trkpt lat="59.266490080484" lon="17.667478371433">
        <ele>42.8</ele>
        <time>2017-10-21T10:25:28Z</time>
      </trkpt>
      <trkpt lat="59.266484799887" lon="17.667640225922">
        <ele>43</ele>
        <time>2017-10-21T10:25:30Z</time>
      </trkpt>
      <trkpt lat="59.266485554258" lon="17.667801577497">
        <ele>43.4</ele>
        <time>2017-10-21T10:25:32Z</time>
      </trkpt>
      <trkpt lat="59.266482955869" lon="17.667957732294">
        <ele>44.2</ele>
        <time>2017-10-21T10:25:34Z</time>
      </trkpt>
      <trkpt lat="59.26648371024" lon="17.668032582661">
        <ele>45.4</ele>
        <time>2017-10-21T10:25:35Z</time>
      </trkpt>
      <trkpt lat="59.266482285317" lon="17.668099805499">
        <ele>46.2</ele>
        <time>2017-10-21T10:25:36Z</time>
      </trkpt>
      <trkpt lat="59.266476669444" lon="17.668156886238">
        <ele>46.6</ele>
        <time>2017-10-21T10:25:37Z</time>
      </trkpt>
      <trkpt lat="59.266468874277" lon="17.66821036276">
        <ele>46.8</ele>
        <time>2017-10-21T10:25:38Z</time>
      </trkpt>
      <trkpt lat="59.266465102422" lon="17.668314968872">
        <ele>47.4</ele>
        <time>2017-10-21T10:25:40Z</time>
      </trkpt>
      <trkpt lat="59.266462084938" lon="17.66842829216">
        <ele>47.8</ele>
        <time>2017-10-21T10:25:42Z</time>
      </trkpt>
      <trkpt lat="59.266458983635" lon="17.668561815827">
        <ele>48.4</ele>
        <time>2017-10-21T10:25:44Z</time>
      </trkpt>
      <trkpt lat="59.266454876504" lon="17.668630882683">
        <ele>49</ele>
        <time>2017-10-21T10:25:45Z</time>
      </trkpt>
      <trkpt lat="59.266449595907" lon="17.668702212652">
        <ele>49.4</ele>
        <time>2017-10-21T10:25:46Z</time>
      </trkpt>
      <trkpt lat="59.266439202351" lon="17.668841100735">
        <ele>50</ele>
        <time>2017-10-21T10:25:48Z</time>
      </trkpt>
      <trkpt lat="59.266420510714" lon="17.668984431225">
        <ele>50.6</ele>
        <time>2017-10-21T10:25:50Z</time>
      </trkpt>
      <trkpt lat="59.266403160181" lon="17.669125917697">
        <ele>51.2</ele>
        <time>2017-10-21T10:25:52Z</time>
      </trkpt>
      <trkpt lat="59.266394107729" lon="17.669196409476">
        <ele>51.4</ele>
        <time>2017-10-21T10:25:53Z</time>
      </trkpt>
      <trkpt lat="59.266383462716" lon="17.669272098033">
        <ele>51.8</ele>
        <time>2017-10-21T10:25:54Z</time>
      </trkpt>
      <trkpt lat="59.266357814102" lon="17.669434036341">
        <ele>52.4</ele>
        <time>2017-10-21T10:25:56Z</time>
      </trkpt>
      <trkpt lat="59.266348510193" lon="17.66952380649">
        <ele>52.4</ele>
        <time>2017-10-21T10:25:57Z</time>
      </trkpt>
      <trkpt lat="59.26633786518" lon="17.669614750105">
        <ele>52.4</ele>
        <time>2017-10-21T10:25:58Z</time>
      </trkpt>
      <trkpt lat="59.266322861579" lon="17.669799319543">
        <ele>52.6</ele>
        <time>2017-10-21T10:26:00Z</time>
      </trkpt>
      <trkpt lat="59.266321269018" lon="17.669997802935">
        <ele>52.6</ele>
        <time>2017-10-21T10:26:02Z</time>
      </trkpt>
      <trkpt lat="59.266333338954" lon="17.670212547213">
        <ele>52.6</ele>
        <time>2017-10-21T10:26:04Z</time>
      </trkpt>
      <trkpt lat="59.266345995623" lon="17.670426201844">
        <ele>52.6</ele>
        <time>2017-10-21T10:26:06Z</time>
      </trkpt>
      <trkpt lat="59.266363094699" lon="17.670628121815">
        <ele>52.6</ele>
        <time>2017-10-21T10:26:08Z</time>
      </trkpt>
      <trkpt lat="59.266376673377" lon="17.670824425913">
        <ele>52.4</ele>
        <time>2017-10-21T10:26:10Z</time>
      </trkpt>
      <trkpt lat="59.266384971458" lon="17.671015700871">
        <ele>52.2</ele>
        <time>2017-10-21T10:26:12Z</time>
      </trkpt>
      <trkpt lat="59.26639821486" lon="17.671202784879">
        <ele>52.2</ele>
        <time>2017-10-21T10:26:14Z</time>
      </trkpt>
      <trkpt lat="59.266425120759" lon="17.671395065665">
        <ele>51.8</ele>
        <time>2017-10-21T10:26:16Z</time>
      </trkpt>
      <trkpt lat="59.26646024092" lon="17.67161928149">
        <ele>51.8</ele>
        <time>2017-10-21T10:26:18Z</time>
      </trkpt>
      <trkpt lat="59.266504329714" lon="17.671876354363">
        <ele>51.6</ele>
        <time>2017-10-21T10:26:20Z</time>
      </trkpt>
      <trkpt lat="59.26653148707" lon="17.672014655713">
        <ele>51.4</ele>
        <time>2017-10-21T10:26:21Z</time>
      </trkpt>
      <trkpt lat="59.266561410453" lon="17.672159243488">
        <ele>51.4</ele>
        <time>2017-10-21T10:26:22Z</time>
      </trkpt>
      <trkpt lat="59.266636428458" lon="17.672457052395">
        <ele>51.4</ele>
        <time>2017-10-21T10:26:24Z</time>
      </trkpt>
      <trkpt lat="59.266747572452" lon="17.672722758625">
        <ele>51.4</ele>
        <time>2017-10-21T10:26:26Z</time>
      </trkpt>
      <trkpt lat="59.266870032011" lon="17.672956026902">
        <ele>50.4</ele>
        <time>2017-10-21T10:26:28Z</time>
      </trkpt>
      <trkpt lat="59.266952929002" lon="17.673210752843">
        <ele>48.8</ele>
        <time>2017-10-21T10:26:30Z</time>
      </trkpt>
      <trkpt lat="59.266987378611" lon="17.673482242584">
        <ele>47</ele>
        <time>2017-10-21T10:26:32Z</time>
      </trkpt>
      <trkpt lat="59.26699416795" lon="17.673615598613">
        <ele>46.4</ele>
        <time>2017-10-21T10:26:33Z</time>
      </trkpt>
      <trkpt lat="59.267000370556" lon="17.673747278262">
        <ele>45.8</ele>
        <time>2017-10-21T10:26:34Z</time>
      </trkpt>
      <trkpt lat="59.266997017796" lon="17.673876946255">
        <ele>45.6</ele>
        <time>2017-10-21T10:26:35Z</time>
      </trkpt>
      <trkpt lat="59.266980505453" lon="17.674003429126">
        <ele>45.2</ele>
        <time>2017-10-21T10:26:36Z</time>
      </trkpt>
      <trkpt lat="59.266912612063" lon="17.67422186144">
        <ele>44.8</ele>
        <time>2017-10-21T10:26:38Z</time>
      </trkpt>
      <trkpt lat="59.266863158853" lon="17.67431909148">
        <ele>44.8</ele>
        <time>2017-10-21T10:26:39Z</time>
      </trkpt>
      <trkpt lat="59.266810017607" lon="17.674412298208">
        <ele>44.6</ele>
        <time>2017-10-21T10:26:40Z</time>
      </trkpt>
      <trkpt lat="59.266694515025" lon="17.674591084135">
        <ele>44.2</ele>
        <time>2017-10-21T10:26:42Z</time>
      </trkpt>
      <trkpt lat="59.266573648027" lon="17.67476836132">
        <ele>44.2</ele>
        <time>2017-10-21T10:26:44Z</time>
      </trkpt>
      <trkpt lat="59.266454289771" lon="17.674952595482">
        <ele>44</ele>
        <time>2017-10-21T10:26:46Z</time>
      </trkpt>
      <trkpt lat="59.266331411117" lon="17.675120149663">
        <ele>43.8</ele>
        <time>2017-10-21T10:26:48Z</time>
      </trkpt>
      <trkpt lat="59.266195791975" lon="17.675272532605">
        <ele>43.6</ele>
        <time>2017-10-21T10:26:50Z</time>
      </trkpt>
      <trkpt lat="59.266126306024" lon="17.675343527298">
        <ele>43.4</ele>
        <time>2017-10-21T10:26:51Z</time>
      </trkpt>
      <trkpt lat="59.266058244996" lon="17.675415946914">
        <ele>43.4</ele>
        <time>2017-10-21T10:26:52Z</time>
      </trkpt>
      <trkpt lat="59.265925727157" lon="17.675582327629">
        <ele>43</ele>
        <time>2017-10-21T10:26:54Z</time>
      </trkpt>
      <trkpt lat="59.265794969517" lon="17.675770166008">
        <ele>42.6</ele>
        <time>2017-10-21T10:26:56Z</time>
      </trkpt>
      <trkpt lat="59.265732692" lon="17.675873850111">
        <ele>42.4</ele>
        <time>2017-10-21T10:26:57Z</time>
      </trkpt>
      <trkpt lat="59.265672090863" lon="17.675975774015">
        <ele>42.2</ele>
        <time>2017-10-21T10:26:58Z</time>
      </trkpt>
      <trkpt lat="59.265565808371" lon="17.67618322604">
        <ele>41.6</ele>
        <time>2017-10-21T10:27:00Z</time>
      </trkpt>
      <trkpt lat="59.265523563595" lon="17.676295794957">
        <ele>41.2</ele>
        <time>2017-10-21T10:27:01Z</time>
      </trkpt>
      <trkpt lat="59.265486096502" lon="17.676410878444">
        <ele>40.6</ele>
        <time>2017-10-21T10:27:02Z</time>
      </trkpt>
      <trkpt lat="59.265455334929" lon="17.676540881713">
        <ele>40</ele>
        <time>2017-10-21T10:27:03Z</time>
      </trkpt>
      <trkpt lat="59.265429853953" lon="17.676686726773">
        <ele>39.6</ele>
        <time>2017-10-21T10:27:04Z</time>
      </trkpt>
      <trkpt lat="59.265389201738" lon="17.677007250629">
        <ele>38.4</ele>
        <time>2017-10-21T10:27:06Z</time>
      </trkpt>
      <trkpt lat="59.265353997758" lon="17.677339257688">
        <ele>37.2</ele>
        <time>2017-10-21T10:27:08Z</time>
      </trkpt>
      <trkpt lat="59.265315189561" lon="17.677643688296">
        <ele>35.4</ele>
        <time>2017-10-21T10:27:10Z</time>
      </trkpt>
      <trkpt lat="59.265269340568" lon="17.677910567992">
        <ele>33.6</ele>
        <time>2017-10-21T10:27:12Z</time>
      </trkpt>
      <trkpt lat="59.265217288969" lon="17.678149200685">
        <ele>32.6</ele>
        <time>2017-10-21T10:27:14Z</time>
      </trkpt>
      <trkpt lat="59.265165321189" lon="17.67837928384">
        <ele>32.2</ele>
        <time>2017-10-21T10:27:16Z</time>
      </trkpt>
      <trkpt lat="59.265118969282" lon="17.678608864081">
        <ele>32</ele>
        <time>2017-10-21T10:27:18Z</time>
      </trkpt>
      <trkpt lat="59.26506968371" lon="17.678841797082">
        <ele>32</ele>
        <time>2017-10-21T10:27:20Z</time>
      </trkpt>
      <trkpt lat="59.26501603955" lon="17.679079004852">
        <ele>31.8</ele>
        <time>2017-10-21T10:27:22Z</time>
      </trkpt>
      <trkpt lat="59.264961892476" lon="17.679321577038">
        <ele>31.8</ele>
        <time>2017-10-21T10:27:24Z</time>
      </trkpt>
      <trkpt lat="59.264909170325" lon="17.679568172536">
        <ele>31.6</ele>
        <time>2017-10-21T10:27:26Z</time>
      </trkpt>
      <trkpt lat="59.264850161749" lon="17.67982599978">
        <ele>31.6</ele>
        <time>2017-10-21T10:27:28Z</time>
      </trkpt>
      <trkpt lat="59.264785956395" lon="17.68007997135">
        <ele>31.6</ele>
        <time>2017-10-21T10:27:30Z</time>
      </trkpt>
      <trkpt lat="59.264755278641" lon="17.680206705678">
        <ele>31.6</ele>
        <time>2017-10-21T10:27:31Z</time>
      </trkpt>
      <trkpt lat="59.264725439077" lon="17.680334362015">
        <ele>31.6</ele>
        <time>2017-10-21T10:27:32Z</time>
      </trkpt>
      <trkpt lat="59.264669783261" lon="17.680588417404">
        <ele>31.4</ele>
        <time>2017-10-21T10:27:34Z</time>
      </trkpt>
      <trkpt lat="59.264611780513" lon="17.680841299327">
        <ele>31.4</ele>
        <time>2017-10-21T10:27:36Z</time>
      </trkpt>
      <trkpt lat="59.264578085275" lon="17.680963842705">
        <ele>31.2</ele>
        <time>2017-10-21T10:27:37Z</time>
      </trkpt>
      <trkpt lat="59.264539025621" lon="17.681080686391">
        <ele>31.2</ele>
        <time>2017-10-21T10:27:38Z</time>
      </trkpt>
      <trkpt lat="59.264446154169" lon="17.681293754289">
        <ele>31.2</ele>
        <time>2017-10-21T10:27:40Z</time>
      </trkpt>
      <trkpt lat="59.264332663243" lon="17.68145711752">
        <ele>31</ele>
        <time>2017-10-21T10:27:42Z</time>
      </trkpt>
      <trkpt lat="59.264209281675" lon="17.681591311739">
        <ele>31</ele>
        <time>2017-10-21T10:27:44Z</time>
      </trkpt>
      <trkpt lat="59.264083553175" lon="17.681718213705">
        <ele>31</ele>
        <time>2017-10-21T10:27:46Z</time>
      </trkpt>
      <trkpt lat="59.263969726973" lon="17.681858526711">
        <ele>31</ele>
        <time>2017-10-21T10:27:48Z</time>
      </trkpt>
      <trkpt lat="59.263924967627" lon="17.681936897476">
        <ele>31</ele>
        <time>2017-10-21T10:27:49Z</time>
      </trkpt>
      <trkpt lat="59.263900157203" lon="17.682018956277">
        <ele>31</ele>
        <time>2017-10-21T10:27:50Z</time>
      </trkpt>
      <trkpt lat="59.263886327068" lon="17.682152060849">
        <ele>31</ele>
        <time>2017-10-21T10:27:52Z</time>
      </trkpt>
      <trkpt lat="59.263891691484" lon="17.682260271178">
        <ele>31</ele>
        <time>2017-10-21T10:27:54Z</time>
      </trkpt>
      <trkpt lat="59.263913149148" lon="17.682382227823">
        <ele>31</ele>
        <time>2017-10-21T10:27:56Z</time>
      </trkpt>
      <trkpt lat="59.263930499681" lon="17.682454228344">
        <ele>31.2</ele>
        <time>2017-10-21T10:27:57Z</time>
      </trkpt>
      <trkpt lat="59.263950280965" lon="17.682532766747">
        <ele>31.4</ele>
        <time>2017-10-21T10:27:58Z</time>
      </trkpt>
      <trkpt lat="59.263995794682" lon="17.682696213797">
        <ele>31.8</ele>
        <time>2017-10-21T10:28:00Z</time>
      </trkpt>
      <trkpt lat="59.264013648129" lon="17.682788498516">
        <ele>31.8</ele>
        <time>2017-10-21T10:28:01Z</time>
      </trkpt>
      <trkpt lat="59.264029406101" lon="17.682879693588">
        <ele>32</ele>
        <time>2017-10-21T10:28:02Z</time>
      </trkpt>
      <trkpt lat="59.264053545973" lon="17.683070968546">
        <ele>32.2</ele>
        <time>2017-10-21T10:28:04Z</time>
      </trkpt>
      <trkpt lat="59.264071818515" lon="17.683284455539">
        <ele>32.4</ele>
        <time>2017-10-21T10:28:06Z</time>
      </trkpt>
      <trkpt lat="59.264082714985" lon="17.683513532866">
        <ele>32.4</ele>
        <time>2017-10-21T10:28:08Z</time>
      </trkpt>
      <trkpt lat="59.264076093284" lon="17.683753003749">
        <ele>32.6</ele>
        <time>2017-10-21T10:28:10Z</time>
      </trkpt>
      <trkpt lat="59.264072489067" lon="17.68387445748">
        <ele>32.6</ele>
        <time>2017-10-21T10:28:11Z</time>
      </trkpt>
      <trkpt lat="59.264066873194" lon="17.683994653926">
        <ele>32.6</ele>
        <time>2017-10-21T10:28:12Z</time>
      </trkpt>
      <trkpt lat="59.264056814914" lon="17.684231442601">
        <ele>32.6</ele>
        <time>2017-10-21T10:28:14Z</time>
      </trkpt>
      <trkpt lat="59.264036363078" lon="17.684468482733">
        <ele>32.8</ele>
        <time>2017-10-21T10:28:16Z</time>
      </trkpt>
      <trkpt lat="59.263998979804" lon="17.68470761834">
        <ele>33</ele>
        <time>2017-10-21T10:28:18Z</time>
      </trkpt>
      <trkpt lat="59.26394567092" lon="17.68493979697">
        <ele>33</ele>
        <time>2017-10-21T10:28:20Z</time>
      </trkpt>
      <trkpt lat="59.263900157203" lon="17.685153032506">
        <ele>33.2</ele>
        <time>2017-10-21T10:28:22Z</time>
      </trkpt>
      <trkpt lat="59.263870569096" lon="17.68534883369">
        <ele>33.6</ele>
        <time>2017-10-21T10:28:24Z</time>
      </trkpt>
      <trkpt lat="59.263861097549" lon="17.685445644635">
        <ele>33.8</ele>
        <time>2017-10-21T10:28:25Z</time>
      </trkpt>
      <trkpt lat="59.263854392029" lon="17.685539773372">
        <ele>33.8</ele>
        <time>2017-10-21T10:28:26Z</time>
      </trkpt>
      <trkpt lat="59.263845255758" lon="17.685737502393">
        <ele>34</ele>
        <time>2017-10-21T10:28:28Z</time>
      </trkpt>
      <trkpt lat="59.263836622401" lon="17.685950989386">
        <ele>34.8</ele>
        <time>2017-10-21T10:28:30Z</time>
      </trkpt>
      <trkpt lat="59.263834946021" lon="17.686060708457">
        <ele>36</ele>
        <time>2017-10-21T10:28:31Z</time>
      </trkpt>
      <trkpt lat="59.263832012356" lon="17.686173193555">
        <ele>36.4</ele>
        <time>2017-10-21T10:28:32Z</time>
      </trkpt>
      <trkpt lat="59.263826731759" lon="17.686397828475">
        <ele>36.8</ele>
        <time>2017-10-21T10:28:34Z</time>
      </trkpt>
      <trkpt lat="59.263820948248" lon="17.686620284101">
        <ele>37</ele>
        <time>2017-10-21T10:28:36Z</time>
      </trkpt>
      <trkpt lat="59.263809967959" lon="17.686847098315">
        <ele>37</ele>
        <time>2017-10-21T10:28:38Z</time>
      </trkpt>
      <trkpt lat="59.263797059833" lon="17.687075169814">
        <ele>37.2</ele>
        <time>2017-10-21T10:28:40Z</time>
      </trkpt>
      <trkpt lat="59.263785157535" lon="17.687305252969">
        <ele>37.2</ele>
        <time>2017-10-21T10:28:42Z</time>
      </trkpt>
      <trkpt lat="59.263773925789" lon="17.687538605065">
        <ele>37.2</ele>
        <time>2017-10-21T10:28:44Z</time>
      </trkpt>
      <trkpt lat="59.263764957156" lon="17.687782769812">
        <ele>37.2</ele>
        <time>2017-10-21T10:28:46Z</time>
      </trkpt>
      <trkpt lat="59.263754982695" lon="17.688042189617">
        <ele>37</ele>
        <time>2017-10-21T10:28:48Z</time>
      </trkpt>
      <trkpt lat="59.26374115256" lon="17.688319211412">
        <ele>37</ele>
        <time>2017-10-21T10:28:50Z</time>
      </trkpt>
      <trkpt lat="59.263728495891" lon="17.68860436365">
        <ele>36.8</ele>
        <time>2017-10-21T10:28:52Z</time>
      </trkpt>
      <trkpt lat="59.263715587765" lon="17.688899238892">
        <ele>36.6</ele>
        <time>2017-10-21T10:28:54Z</time>
      </trkpt>
      <trkpt lat="59.263698488689" lon="17.689205597337">
        <ele>36.2</ele>
        <time>2017-10-21T10:28:56Z</time>
      </trkpt>
      <trkpt lat="59.263692453721" lon="17.689360746306">
        <ele>35.8</ele>
        <time>2017-10-21T10:28:57Z</time>
      </trkpt>
      <trkpt lat="59.26369002297" lon="17.68951882894">
        <ele>35.2</ele>
        <time>2017-10-21T10:28:58Z</time>
      </trkpt>
      <trkpt lat="59.263686502572" lon="17.689676827755">
        <ele>34.2</ele>
        <time>2017-10-21T10:28:59Z</time>
      </trkpt>
      <trkpt lat="59.263685077649" lon="17.689838263149">
        <ele>33.6</ele>
        <time>2017-10-21T10:29:00Z</time>
      </trkpt>
      <trkpt lat="59.263668732944" lon="17.690155182788">
        <ele>32.8</ele>
        <time>2017-10-21T10:29:02Z</time>
      </trkpt>
      <trkpt lat="59.263637971371" lon="17.69047436554">
        <ele>32</ele>
        <time>2017-10-21T10:29:04Z</time>
      </trkpt>
      <trkpt lat="59.263619782648" lon="17.69063445983">
        <ele>31.8</ele>
        <time>2017-10-21T10:29:05Z</time>
      </trkpt>
      <trkpt lat="59.26360285121" lon="17.6907962305">
        <ele>31.6</ele>
        <time>2017-10-21T10:29:06Z</time>
      </trkpt>
      <trkpt lat="59.263565048841" lon="17.691118430736">
        <ele>31.2</ele>
        <time>2017-10-21T10:29:08Z</time>
      </trkpt>
      <trkpt lat="59.263525570092" lon="17.691433841633">
        <ele>30.8</ele>
        <time>2017-10-21T10:29:10Z</time>
      </trkpt>
      <trkpt lat="59.263472596484" lon="17.691741457363">
        <ele>30</ele>
        <time>2017-10-21T10:29:12Z</time>
      </trkpt>
      <trkpt lat="59.26339581828" lon="17.692030549094">
        <ele>29.2</ele>
        <time>2017-10-21T10:29:14Z</time>
      </trkpt>
      <trkpt lat="59.26329858824" lon="17.692306145966">
        <ele>28</ele>
        <time>2017-10-21T10:29:16Z</time>
      </trkpt>
      <trkpt lat="59.263189204445" lon="17.692558273518">
        <ele>26.8</ele>
        <time>2017-10-21T10:29:18Z</time>
      </trkpt>
      <trkpt lat="59.263071857845" lon="17.692773772167">
        <ele>25.6</ele>
        <time>2017-10-21T10:29:20Z</time>
      </trkpt>
      <trkpt lat="59.262953337779" lon="17.692963622202">
        <ele>24.6</ele>
        <time>2017-10-21T10:29:22Z</time>
      </trkpt>
      <trkpt lat="59.262841104138" lon="17.693126650157">
        <ele>23.2</ele>
        <time>2017-10-21T10:29:24Z</time>
      </trkpt>
      <trkpt lat="59.262792237661" lon="17.693206362026">
        <ele>22.2</ele>
        <time>2017-10-21T10:29:25Z</time>
      </trkpt>
      <trkpt lat="59.262762481916" lon="17.693305352265">
        <ele>20.4</ele>
        <time>2017-10-21T10:29:26Z</time>
      </trkpt>
      <trkpt lat="59.262771534368" lon="17.693531412108">
        <ele>19.2</ele>
        <time>2017-10-21T10:29:28Z</time>
      </trkpt>
      <trkpt lat="59.262844540717" lon="17.693753951553">
        <ele>18</ele>
        <time>2017-10-21T10:29:30Z</time>
      </trkpt>
      <trkpt lat="59.262884103285" lon="17.693878171311">
        <ele>17.4</ele>
        <time>2017-10-21T10:29:31Z</time>
      </trkpt>
      <trkpt lat="59.262918720532" lon="17.694015047738">
        <ele>16.8</ele>
        <time>2017-10-21T10:29:32Z</time>
      </trkpt>
      <trkpt lat="59.262974543986" lon="17.694308917152">
        <ele>16.6</ele>
        <time>2017-10-21T10:29:34Z</time>
      </trkpt>
      <trkpt lat="59.263023829558" lon="17.694619550366">
        <ele>15.8</ele>
        <time>2017-10-21T10:29:36Z</time>
      </trkpt>
      <trkpt lat="59.263073366587" lon="17.694933452521">
        <ele>15.2</ele>
        <time>2017-10-21T10:29:38Z</time>
      </trkpt>
      <trkpt lat="59.263124496177" lon="17.695248109047">
        <ele>14</ele>
        <time>2017-10-21T10:29:40Z</time>
      </trkpt>
      <trkpt lat="59.263195071775" lon="17.695538877158">
        <ele>12.4</ele>
        <time>2017-10-21T10:29:42Z</time>
      </trkpt>
      <trkpt lat="59.263301773362" lon="17.695788573959">
        <ele>11.4</ele>
        <time>2017-10-21T10:29:44Z</time>
      </trkpt>
      <trkpt lat="59.263357680635" lon="17.695904579455">
        <ele>11.2</ele>
        <time>2017-10-21T10:29:45Z</time>
      </trkpt>
      <trkpt lat="59.263415180469" lon="17.696010526671">
        <ele>11</ele>
        <time>2017-10-21T10:29:46Z</time>
      </trkpt>
      <trkpt lat="59.26352741411" lon="17.696176404472">
        <ele>11</ele>
        <time>2017-10-21T10:29:48Z</time>
      </trkpt>
      <trkpt lat="59.263633528964" lon="17.696299199307">
        <ele>10.8</ele>
        <time>2017-10-21T10:29:50Z</time>
      </trkpt>
      <trkpt lat="59.263688011314" lon="17.696377067158">
        <ele>10.8</ele>
        <time>2017-10-21T10:29:51Z</time>
      </trkpt>
      <trkpt lat="59.263739057085" lon="17.696482595279">
        <ele>10.8</ele>
        <time>2017-10-21T10:29:52Z</time>
      </trkpt>
      <trkpt lat="59.263819607144" lon="17.696753665925">
        <ele>11</ele>
        <time>2017-10-21T10:29:54Z</time>
      </trkpt>
      <trkpt lat="59.263856571323" lon="17.697051474832">
        <ele>11</ele>
        <time>2017-10-21T10:29:56Z</time>
      </trkpt>
      <trkpt lat="59.263863779757" lon="17.697335621242">
        <ele>11.2</ele>
        <time>2017-10-21T10:29:58Z</time>
      </trkpt>
      <trkpt lat="59.263862857748" lon="17.697470486013">
        <ele>11.4</ele>
        <time>2017-10-21T10:29:59Z</time>
      </trkpt>
      <trkpt lat="59.263862522472" lon="17.697608032992">
        <ele>11.6</ele>
        <time>2017-10-21T10:30:00Z</time>
      </trkpt>
      <trkpt lat="59.26386939563" lon="17.697871979023">
        <ele>12</ele>
        <time>2017-10-21T10:30:02Z</time>
      </trkpt>
      <trkpt lat="59.263875179141" lon="17.697991756374">
        <ele>12.2</ele>
        <time>2017-10-21T10:30:03Z</time>
      </trkpt>
      <trkpt lat="59.263883058127" lon="17.698107258956">
        <ele>12.4</ele>
        <time>2017-10-21T10:30:04Z</time>
      </trkpt>
      <trkpt lat="59.2639054378" lon="17.698342287432">
        <ele>12.8</ele>
        <time>2017-10-21T10:30:06Z</time>
      </trkpt>
      <trkpt lat="59.263938546305" lon="17.698604305626">
        <ele>12.8</ele>
        <time>2017-10-21T10:30:08Z</time>
      </trkpt>
      <trkpt lat="59.26396494929" lon="17.698880489231">
        <ele>13.2</ele>
        <time>2017-10-21T10:30:10Z</time>
      </trkpt>
      <trkpt lat="59.263978444149" lon="17.699019125857">
        <ele>13.4</ele>
        <time>2017-10-21T10:30:11Z</time>
      </trkpt>
      <trkpt lat="59.263994034483" lon="17.699153655352">
        <ele>13.6</ele>
        <time>2017-10-21T10:30:12Z</time>
      </trkpt>
      <trkpt lat="59.264021191839" lon="17.699405447628">
        <ele>13.8</ele>
        <time>2017-10-21T10:30:14Z</time>
      </trkpt>
      <trkpt lat="59.264042565684" lon="17.699623041752">
        <ele>14.2</ele>
        <time>2017-10-21T10:30:16Z</time>
      </trkpt>
      <trkpt lat="59.26406134114" lon="17.699803671697">
        <ele>14.4</ele>
        <time>2017-10-21T10:30:18Z</time>
      </trkpt>
      <trkpt lat="59.264063939529" lon="17.699881958643">
        <ele>14.6</ele>
        <time>2017-10-21T10:30:19Z</time>
      </trkpt>
      <trkpt lat="59.264061676416" lon="17.699953204793">
        <ele>14.8</ele>
        <time>2017-10-21T10:30:20Z</time>
      </trkpt>
      <trkpt lat="59.264051115222" lon="17.700095361817">
        <ele>15</ele>
        <time>2017-10-21T10:30:22Z</time>
      </trkpt>
      <trkpt lat="59.264015324509" lon="17.700241542153">
        <ele>15.4</ele>
        <time>2017-10-21T10:30:24Z</time>
      </trkpt>
      <trkpt lat="59.263989592076" lon="17.700318823271">
        <ele>15.8</ele>
        <time>2017-10-21T10:30:25Z</time>
      </trkpt>
      <trkpt lat="59.263963608186" lon="17.700396104389">
        <ele>16.6</ele>
        <time>2017-10-21T10:30:26Z</time>
      </trkpt>
      <trkpt lat="59.263935277364" lon="17.700470787118">
        <ele>17.2</ele>
        <time>2017-10-21T10:30:27Z</time>
      </trkpt>
      <trkpt lat="59.263907784732" lon="17.700549912254">
        <ele>17.8</ele>
        <time>2017-10-21T10:30:28Z</time>
      </trkpt>
      <trkpt lat="59.263853386201" lon="17.700719310453">
        <ele>18.4</ele>
        <time>2017-10-21T10:30:30Z</time>
      </trkpt>
      <trkpt lat="59.263791527779" lon="17.700909579583">
        <ele>18.4</ele>
        <time>2017-10-21T10:30:32Z</time>
      </trkpt>
      <trkpt lat="59.263718772887" lon="17.701130191191">
        <ele>18.6</ele>
        <time>2017-10-21T10:30:34Z</time>
      </trkpt>
      <trkpt lat="59.263635456801" lon="17.701372595739">
        <ele>18.6</ele>
        <time>2017-10-21T10:30:36Z</time>
      </trkpt>
      <trkpt lat="59.263582147917" lon="17.701490780529">
        <ele>18.6</ele>
        <time>2017-10-21T10:30:37Z</time>
      </trkpt>
      <trkpt lat="59.263519451305" lon="17.701600164324">
        <ele>18.6</ele>
        <time>2017-10-21T10:30:38Z</time>
      </trkpt>
      <trkpt lat="59.263379976489" lon="17.701816501163">
        <ele>18.2</ele>
        <time>2017-10-21T10:30:40Z</time>
      </trkpt>
      <trkpt lat="59.263241842777" lon="17.702042393368">
        <ele>16.8</ele>
        <time>2017-10-21T10:30:42Z</time>
      </trkpt>
      <trkpt lat="59.263110917499" lon="17.702259233121">
        <ele>15.2</ele>
        <time>2017-10-21T10:30:44Z</time>
      </trkpt>
      <trkpt lat="59.262993151804" lon="17.702468445345">
        <ele>13.6</ele>
        <time>2017-10-21T10:30:46Z</time>
      </trkpt>
      <trkpt lat="59.262939591463" lon="17.702571458896">
        <ele>11.8</ele>
        <time>2017-10-21T10:30:47Z</time>
      </trkpt>
      <trkpt lat="59.262888964787" lon="17.702671371144">
        <ele>11.4</ele>
        <time>2017-10-21T10:30:48Z</time>
      </trkpt>
      <trkpt lat="59.262791986204" lon="17.702854767116">
        <ele>10.6</ele>
        <time>2017-10-21T10:30:50Z</time>
      </trkpt>
      <trkpt lat="59.262701210227" lon="17.703018549442">
        <ele>10</ele>
        <time>2017-10-21T10:30:52Z</time>
      </trkpt>
      <trkpt lat="59.262619738159" lon="17.703172357307">
        <ele>9.8</ele>
        <time>2017-10-21T10:30:54Z</time>
      </trkpt>
      <trkpt lat="59.26253499715" lon="17.703323902059">
        <ele>9.8</ele>
        <time>2017-10-21T10:30:56Z</time>
      </trkpt>
      <trkpt lat="59.262452603073" lon="17.703466981092">
        <ele>9.8</ele>
        <time>2017-10-21T10:30:58Z</time>
      </trkpt>
      <trkpt lat="59.262384542045" lon="17.703595475619">
        <ele>10.2</ele>
        <time>2017-10-21T10:31:00Z</time>
      </trkpt>
      <trkpt lat="59.262330227333" lon="17.703704775595">
        <ele>10.8</ele>
        <time>2017-10-21T10:31:02Z</time>
      </trkpt>
      <trkpt lat="59.262284965073" lon="17.703802927644">
        <ele>11</ele>
        <time>2017-10-21T10:31:04Z</time>
      </trkpt>
      <trkpt lat="59.262249928731" lon="17.703889093576">
        <ele>11.8</ele>
        <time>2017-10-21T10:31:06Z</time>
      </trkpt>
      <trkpt lat="59.26221564676" lon="17.70398347377">
        <ele>12.6</ele>
        <time>2017-10-21T10:31:08Z</time>
      </trkpt>
      <trkpt lat="59.262197374218" lon="17.704037285568">
        <ele>13</ele>
        <time>2017-10-21T10:31:09Z</time>
      </trkpt>
      <trkpt lat="59.262179017857" lon="17.70409327666">
        <ele>13.4</ele>
        <time>2017-10-21T10:31:10Z</time>
      </trkpt>
      <trkpt lat="59.262142556592" lon="17.704209617432">
        <ele>14.6</ele>
        <time>2017-10-21T10:31:12Z</time>
      </trkpt>
      <trkpt lat="59.262121015109" lon="17.704321348159">
        <ele>16.2</ele>
        <time>2017-10-21T10:31:14Z</time>
      </trkpt>
      <trkpt lat="59.262104838042" lon="17.704383709495">
        <ele>16.8</ele>
        <time>2017-10-21T10:31:16Z</time>
      </trkpt>
      <trkpt lat="59.262054881918" lon="17.704424194072">
        <ele>17.4</ele>
        <time>2017-10-21T10:31:18Z</time>
      </trkpt>
      <trkpt lat="59.261999058464" lon="17.704500888457">
        <ele>17.8</ele>
        <time>2017-10-21T10:31:20Z</time>
      </trkpt>
      <trkpt lat="59.261964022122" lon="17.704622258369">
        <ele>18.4</ele>
        <time>2017-10-21T10:31:22Z</time>
      </trkpt>
      <trkpt lat="59.26195161691" lon="17.704783023211">
        <ele>18.6</ele>
        <time>2017-10-21T10:31:24Z</time>
      </trkpt>
      <trkpt lat="59.26196838071" lon="17.704973208522">
        <ele>18.8</ele>
        <time>2017-10-21T10:31:26Z</time>
      </trkpt>
      <trkpt lat="59.262020013214" lon="17.705192059931">
        <ele>18.8</ele>
        <time>2017-10-21T10:31:28Z</time>
      </trkpt>
      <trkpt lat="59.262096539961" lon="17.705411330435">
        <ele>18.8</ele>
        <time>2017-10-21T10:31:30Z</time>
      </trkpt>
      <trkpt lat="59.262194105277" lon="17.705605874334">
        <ele>18.8</ele>
        <time>2017-10-21T10:31:32Z</time>
      </trkpt>
      <trkpt lat="59.262248252351" lon="17.705694722474">
        <ele>18.4</ele>
        <time>2017-10-21T10:31:33Z</time>
      </trkpt>
      <trkpt lat="59.262304075805" lon="17.705781223682">
        <ele>18.2</ele>
        <time>2017-10-21T10:31:34Z</time>
      </trkpt>
      <trkpt lat="59.26242770883" lon="17.705959841971">
        <ele>17.2</ele>
        <time>2017-10-21T10:31:36Z</time>
      </trkpt>
      <trkpt lat="59.262568357112" lon="17.706142064477">
        <ele>16.2</ele>
        <time>2017-10-21T10:31:38Z</time>
      </trkpt>
      <trkpt lat="59.262643542755" lon="17.70623233754">
        <ele>16</ele>
        <time>2017-10-21T10:31:39Z</time>
      </trkpt>
      <trkpt lat="59.262717974027" lon="17.706324203164">
        <ele>15.6</ele>
        <time>2017-10-21T10:31:40Z</time>
      </trkpt>
      <trkpt lat="59.262867088028" lon="17.706505168385">
        <ele>14.8</ele>
        <time>2017-10-21T10:31:42Z</time>
      </trkpt>
      <trkpt lat="59.263013016907" lon="17.706673309299">
        <ele>13.8</ele>
        <time>2017-10-21T10:31:44Z</time>
      </trkpt>
      <trkpt lat="59.263083843962" lon="17.706757715032">
        <ele>13.2</ele>
        <time>2017-10-21T10:31:45Z</time>
      </trkpt>
      <trkpt lat="59.263152407904" lon="17.706845976439">
        <ele>12.4</ele>
        <time>2017-10-21T10:31:46Z</time>
      </trkpt>
      <trkpt lat="59.263219127828" lon="17.706936333321">
        <ele>11.8</ele>
        <time>2017-10-21T10:31:47Z</time>
      </trkpt>
      <trkpt lat="59.263283668458" lon="17.707026522565">
        <ele>11.4</ele>
        <time>2017-10-21T10:31:48Z</time>
      </trkpt>
      <trkpt lat="59.263347789993" lon="17.707125261347">
        <ele>11.2</ele>
        <time>2017-10-21T10:31:49Z</time>
      </trkpt>
      <trkpt lat="59.263405373646" lon="17.707239422825">
        <ele>10.8</ele>
        <time>2017-10-21T10:31:50Z</time>
      </trkpt>
      <trkpt lat="59.263514505984" lon="17.707528682194">
        <ele>10.4</ele>
        <time>2017-10-21T10:31:52Z</time>
      </trkpt>
      <trkpt lat="59.263578878976" lon="17.707914836327">
        <ele>10</ele>
        <time>2017-10-21T10:31:54Z</time>
      </trkpt>
      <trkpt lat="59.263585835953" lon="17.708123629456">
        <ele>9.4</ele>
        <time>2017-10-21T10:31:55Z</time>
      </trkpt>
      <trkpt lat="59.263574855664" lon="17.708326722893">
        <ele>9</ele>
        <time>2017-10-21T10:31:56Z</time>
      </trkpt>
      <trkpt lat="59.263503693333" lon="17.708700890909">
        <ele>7.6</ele>
        <time>2017-10-21T10:31:58Z</time>
      </trkpt>
      <trkpt lat="59.263406547112" lon="17.709027617371">
        <ele>6</ele>
        <time>2017-10-21T10:32:00Z</time>
      </trkpt>
      <trkpt lat="59.263353741142" lon="17.709179497399">
        <ele>4.6</ele>
        <time>2017-10-21T10:32:01Z</time>
      </trkpt>
      <trkpt lat="59.263299845525" lon="17.709324923364">
        <ele>3.4</ele>
        <time>2017-10-21T10:32:02Z</time>
      </trkpt>
      <trkpt lat="59.263192473386" lon="17.709602615711">
        <ele>2</ele>
        <time>2017-10-21T10:32:04Z</time>
      </trkpt>
      <trkpt lat="59.263085352704" lon="17.709874859823">
        <ele>1.6</ele>
        <time>2017-10-21T10:32:06Z</time>
      </trkpt>
      <trkpt lat="59.262972616149" lon="17.710125646271">
        <ele>1.4</ele>
        <time>2017-10-21T10:32:08Z</time>
      </trkpt>
      <trkpt lat="59.262911679736" lon="17.710238466645">
        <ele>1.4</ele>
        <time>2017-10-21T10:32:09Z</time>
      </trkpt>
      <trkpt lat="59.262849905133" lon="17.710335948142">
        <ele>1.4</ele>
        <time>2017-10-21T10:32:10Z</time>
      </trkpt>
      <trkpt lat="59.262721494425" lon="17.710504424332">
        <ele>1.4</ele>
        <time>2017-10-21T10:32:12Z</time>
      </trkpt>
      <trkpt lat="59.262598112857" lon="17.710657058731">
        <ele>1.6</ele>
        <time>2017-10-21T10:32:14Z</time>
      </trkpt>
      <trkpt lat="59.26247800023" lon="17.71080550218">
        <ele>1.6</ele>
        <time>2017-10-21T10:32:16Z</time>
      </trkpt>
      <trkpt lat="59.262357133232" lon="17.710933577612">
        <ele>1.8</ele>
        <time>2017-10-21T10:32:18Z</time>
      </trkpt>
      <trkpt lat="59.262238026433" lon="17.711056791542">
        <ele>2</ele>
        <time>2017-10-21T10:32:20Z</time>
      </trkpt>
      <trkpt lat="59.26212512224" lon="17.711180759843">
        <ele>2.6</ele>
        <time>2017-10-21T10:32:22Z</time>
      </trkpt>
      <trkpt lat="59.2620111284" lon="17.711309924922">
        <ele>3</ele>
        <time>2017-10-21T10:32:24Z</time>
      </trkpt>
      <trkpt lat="59.261898559483" lon="17.711446885168">
        <ele>3.8</ele>
        <time>2017-10-21T10:32:26Z</time>
      </trkpt>
      <trkpt lat="59.261842819848" lon="17.711515616748">
        <ele>4.2</ele>
        <time>2017-10-21T10:32:27Z</time>
      </trkpt>
      <trkpt lat="59.261788337498" lon="17.711578732455">
        <ele>4.4</ele>
        <time>2017-10-21T10:32:28Z</time>
      </trkpt>
      <trkpt lat="59.26167752878" lon="17.711706975525">
        <ele>4.6</ele>
        <time>2017-10-21T10:32:30Z</time>
      </trkpt>
      <trkpt lat="59.261566217148" lon="17.711828429256">
        <ele>5.2</ele>
        <time>2017-10-21T10:32:32Z</time>
      </trkpt>
      <trkpt lat="59.26146546671" lon="17.71195633705">
        <ele>5.6</ele>
        <time>2017-10-21T10:32:34Z</time>
      </trkpt>
      <trkpt lat="59.261374020181" lon="17.712085250672">
        <ele>5.8</ele>
        <time>2017-10-21T10:32:36Z</time>
      </trkpt>
      <trkpt lat="59.261337391278" lon="17.712150629492">
        <ele>5.8</ele>
        <time>2017-10-21T10:32:37Z</time>
      </trkpt>
      <trkpt lat="59.261305875334" lon="17.712222797651">
        <ele>6.2</ele>
        <time>2017-10-21T10:32:38Z</time>
      </trkpt>
      <trkpt lat="59.261268743517" lon="17.712376018783">
        <ele>6.8</ele>
        <time>2017-10-21T10:32:40Z</time>
      </trkpt>
      <trkpt lat="59.26130621061" lon="17.712542567136">
        <ele>7.6</ele>
        <time>2017-10-21T10:32:42Z</time>
      </trkpt>
      <trkpt lat="59.261340911676" lon="17.712638707529">
        <ele>8.2</ele>
        <time>2017-10-21T10:32:43Z</time>
      </trkpt>
      <trkpt lat="59.26137661857" lon="17.712741134347">
        <ele>8.4</ele>
        <time>2017-10-21T10:32:44Z</time>
      </trkpt>
      <trkpt lat="59.261452307127" lon="17.712960069575">
        <ele>8.4</ele>
        <time>2017-10-21T10:32:46Z</time>
      </trkpt>
      <trkpt lat="59.261524223829" lon="17.713192080567">
        <ele>8.4</ele>
        <time>2017-10-21T10:32:48Z</time>
      </trkpt>
      <trkpt lat="59.261598236006" lon="17.713426438491">
        <ele>8.4</ele>
        <time>2017-10-21T10:32:50Z</time>
      </trkpt>
      <trkpt lat="59.261674678934" lon="17.713666160831">
        <ele>8.4</ele>
        <time>2017-10-21T10:32:52Z</time>
      </trkpt>
      <trkpt lat="59.261743410514" lon="17.713898926194">
        <ele>7.8</ele>
        <time>2017-10-21T10:32:54Z</time>
      </trkpt>
      <trkpt lat="59.261809711343" lon="17.714094895016">
        <ele>7.6</ele>
        <time>2017-10-21T10:32:56Z</time>
      </trkpt>
      <trkpt lat="59.261862182037" lon="17.714252390917">
        <ele>7.6</ele>
        <time>2017-10-21T10:32:58Z</time>
      </trkpt>
      <trkpt lat="59.261901493148" lon="17.714409467723">
        <ele>7.6</ele>
        <time>2017-10-21T10:33:00Z</time>
      </trkpt>
      <trkpt lat="59.261911551428" lon="17.714571992764">
        <ele>7.6</ele>
        <time>2017-10-21T10:33:02Z</time>
      </trkpt>
      <trkpt lat="59.261901660786" lon="17.714653297194">
        <ele>7.8</ele>
        <time>2017-10-21T10:33:03Z</time>
      </trkpt>
      <trkpt lat="59.261886573366" lon="17.714739882221">
        <ele>8.2</ele>
        <time>2017-10-21T10:33:04Z</time>
      </trkpt>
      <trkpt lat="59.261869558109" lon="17.714832502216">
        <ele>8.6</ele>
        <time>2017-10-21T10:33:05Z</time>
      </trkpt>
      <trkpt lat="59.261852039938" lon="17.714916237397">
        <ele>9.2</ele>
        <time>2017-10-21T10:33:06Z</time>
      </trkpt>
      <trkpt lat="59.261832929206" lon="17.715003660614">
        <ele>10.6</ele>
        <time>2017-10-21T10:33:07Z</time>
      </trkpt>
      <trkpt lat="59.261813064103" lon="17.715095526238">
        <ele>11.2</ele>
        <time>2017-10-21T10:33:08Z</time>
      </trkpt>
      <trkpt lat="59.261793534276" lon="17.715186302215">
        <ele>11.8</ele>
        <time>2017-10-21T10:33:09Z</time>
      </trkpt>
      <trkpt lat="59.261773166259" lon="17.715280263314">
        <ele>12</ele>
        <time>2017-10-21T10:33:10Z</time>
      </trkpt>
      <trkpt lat="59.26173117294" lon="17.715469275159">
        <ele>12.4</ele>
        <time>2017-10-21T10:33:12Z</time>
      </trkpt>
      <trkpt lat="59.261689850173" lon="17.715662058859">
        <ele>12.8</ele>
        <time>2017-10-21T10:33:14Z</time>
      </trkpt>
      <trkpt lat="59.261649365596" lon="17.715857021853">
        <ele>13.2</ele>
        <time>2017-10-21T10:33:16Z</time>
      </trkpt>
      <trkpt lat="59.261610641218" lon="17.716055253788">
        <ele>13.4</ele>
        <time>2017-10-21T10:33:18Z</time>
      </trkpt>
      <trkpt lat="59.261573090306" lon="17.716259353053">
        <ele>14.2</ele>
        <time>2017-10-21T10:33:20Z</time>
      </trkpt>
      <trkpt lat="59.261535455575" lon="17.716468481458">
        <ele>14.4</ele>
        <time>2017-10-21T10:33:22Z</time>
      </trkpt>
      <trkpt lat="59.261496395921" lon="17.7166711558">
        <ele>14.6</ele>
        <time>2017-10-21T10:33:24Z</time>
      </trkpt>
      <trkpt lat="59.261453229136" lon="17.716872908133">
        <ele>14.8</ele>
        <time>2017-10-21T10:33:26Z</time>
      </trkpt>
      <trkpt lat="59.261411403455" lon="17.717077091217">
        <ele>14.8</ele>
        <time>2017-10-21T10:33:28Z</time>
      </trkpt>
      <trkpt lat="59.26137158943" lon="17.717287476907">
        <ele>15</ele>
        <time>2017-10-21T10:33:30Z</time>
      </trkpt>
      <trkpt lat="59.261325740437" lon="17.717508256153">
        <ele>15.2</ele>
        <time>2017-10-21T10:33:32Z</time>
      </trkpt>
      <trkpt lat="59.261280561996" lon="17.717746721208">
        <ele>15.2</ele>
        <time>2017-10-21T10:33:34Z</time>
      </trkpt>
      <trkpt lat="59.26124586093" lon="17.718002117701">
        <ele>15.2</ele>
        <time>2017-10-21T10:33:36Z</time>
      </trkpt>
      <trkpt lat="59.26120981876" lon="17.718252904149">
        <ele>15.2</ele>
        <time>2017-10-21T10:33:38Z</time>
      </trkpt>
      <trkpt lat="59.261180565929" lon="17.718507881547">
        <ele>15.2</ele>
        <time>2017-10-21T10:33:40Z</time>
      </trkpt>
      <trkpt lat="59.261155504048" lon="17.718762691307">
        <ele>14.6</ele>
        <time>2017-10-21T10:33:42Z</time>
      </trkpt>
      <trkpt lat="59.261135052212" lon="17.719021189103">
        <ele>14.6</ele>
        <time>2017-10-21T10:33:44Z</time>
      </trkpt>
      <trkpt lat="59.261108733046" lon="17.719282201469">
        <ele>14.6</ele>
        <time>2017-10-21T10:33:46Z</time>
      </trkpt>
      <trkpt lat="59.261082162423" lon="17.719541788912">
        <ele>14.4</ele>
        <time>2017-10-21T10:33:48Z</time>
      </trkpt>
      <trkpt lat="59.261055843257" lon="17.719797520681">
        <ele>14.4</ele>
        <time>2017-10-21T10:33:50Z</time>
      </trkpt>
      <trkpt lat="59.261026841883" lon="17.720048474767">
        <ele>14.6</ele>
        <time>2017-10-21T10:33:52Z</time>
      </trkpt>
      <trkpt lat="59.260991721722" lon="17.720295321722">
        <ele>14.6</ele>
        <time>2017-10-21T10:33:54Z</time>
      </trkpt>
      <trkpt lat="59.260950231317" lon="17.720538732098">
        <ele>14.8</ele>
        <time>2017-10-21T10:33:56Z</time>
      </trkpt>
      <trkpt lat="59.260891641836" lon="17.720769318167">
        <ele>15</ele>
        <time>2017-10-21T10:33:58Z</time>
      </trkpt>
      <trkpt lat="59.260827185025" lon="17.72099034887">
        <ele>15.2</ele>
        <time>2017-10-21T10:34:00Z</time>
      </trkpt>
      <trkpt lat="59.260755100685" lon="17.721195789239">
        <ele>15.4</ele>
        <time>2017-10-21T10:34:02Z</time>
      </trkpt>
      <trkpt lat="59.260682178155" lon="17.721393769717">
        <ele>15.4</ele>
        <time>2017-10-21T10:34:04Z</time>
      </trkpt>
      <trkpt lat="59.260609507082" lon="17.721592672204">
        <ele>15.6</ele>
        <time>2017-10-21T10:34:06Z</time>
      </trkpt>
      <trkpt lat="59.260543541529" lon="17.721793921623">
        <ele>16</ele>
        <time>2017-10-21T10:34:08Z</time>
      </trkpt>
      <trkpt lat="59.260510097748" lon="17.72189224131">
        <ele>16.2</ele>
        <time>2017-10-21T10:34:09Z</time>
      </trkpt>
      <trkpt lat="59.260480677279" lon="17.721993829938">
        <ele>16.4</ele>
        <time>2017-10-21T10:34:10Z</time>
      </trkpt>
      <trkpt lat="59.260429715327" lon="17.722199773221">
        <ele>16.4</ele>
        <time>2017-10-21T10:34:12Z</time>
      </trkpt>
      <trkpt lat="59.260386045628" lon="17.72240353721">
        <ele>16.6</ele>
        <time>2017-10-21T10:34:14Z</time>
      </trkpt>
      <trkpt lat="59.260346818336" lon="17.722602523516">
        <ele>16.8</ele>
        <time>2017-10-21T10:34:16Z</time>
      </trkpt>
      <trkpt lat="59.260310105614" lon="17.722803102383">
        <ele>16.8</ele>
        <time>2017-10-21T10:34:18Z</time>
      </trkpt>
      <trkpt lat="59.260269201942" lon="17.723010973503">
        <ele>17.2</ele>
        <time>2017-10-21T10:34:20Z</time>
      </trkpt>
      <trkpt lat="59.260247073726" lon="17.723118932375">
        <ele>17.6</ele>
        <time>2017-10-21T10:34:21Z</time>
      </trkpt>
      <trkpt lat="59.26022326913" lon="17.723230411645">
        <ele>17.8</ele>
        <time>2017-10-21T10:34:22Z</time>
      </trkpt>
      <trkpt lat="59.260169373513" lon="17.723462674094">
        <ele>18</ele>
        <time>2017-10-21T10:34:24Z</time>
      </trkpt>
      <trkpt lat="59.260105503435" lon="17.723707509393">
        <ele>18</ele>
        <time>2017-10-21T10:34:26Z</time>
      </trkpt>
      <trkpt lat="59.26003132362" lon="17.72396257061">
        <ele>18</ele>
        <time>2017-10-21T10:34:28Z</time>
      </trkpt>
      <trkpt lat="59.259947336982" lon="17.724209669022">
        <ele>18</ele>
        <time>2017-10-21T10:34:30Z</time>
      </trkpt>
      <trkpt lat="59.259852537693" lon="17.724442518204">
        <ele>17.8</ele>
        <time>2017-10-21T10:34:32Z</time>
      </trkpt>
      <trkpt lat="59.259750027056" lon="17.724674026282">
        <ele>17.4</ele>
        <time>2017-10-21T10:34:34Z</time>
      </trkpt>
      <trkpt lat="59.259645923858" lon="17.724914419174">
        <ele>16.4</ele>
        <time>2017-10-21T10:34:36Z</time>
      </trkpt>
      <trkpt lat="59.259543245583" lon="17.725169899486">
        <ele>15.8</ele>
        <time>2017-10-21T10:34:38Z</time>
      </trkpt>
      <trkpt lat="59.259454984176" lon="17.725450860774">
        <ele>15.4</ele>
        <time>2017-10-21T10:34:40Z</time>
      </trkpt>
      <trkpt lat="59.259387761338" lon="17.725741042152">
        <ele>15</ele>
        <time>2017-10-21T10:34:42Z</time>
      </trkpt>
      <trkpt lat="59.259344091639" lon="17.726031726444">
        <ele>14.8</ele>
        <time>2017-10-21T10:34:44Z</time>
      </trkpt>
      <trkpt lat="59.259315676998" lon="17.7263187227">
        <ele>14.4</ele>
        <time>2017-10-21T10:34:46Z</time>
      </trkpt>
      <trkpt lat="59.259294051696" lon="17.726462220828">
        <ele>14</ele>
        <time>2017-10-21T10:34:47Z</time>
      </trkpt>
      <trkpt lat="59.259265553236" lon="17.726602450015">
        <ele>14</ele>
        <time>2017-10-21T10:34:48Z</time>
      </trkpt>
      <trkpt lat="59.259190116136" lon="17.72687695724">
        <ele>13.4</ele>
        <time>2017-10-21T10:34:50Z</time>
      </trkpt>
      <trkpt lat="59.25914870955" lon="17.727014168943">
        <ele>13.4</ele>
        <time>2017-10-21T10:34:51Z</time>
      </trkpt>
      <trkpt lat="59.259104536937" lon="17.727152302655">
        <ele>13.2</ele>
        <time>2017-10-21T10:34:52Z</time>
      </trkpt>
      <trkpt lat="59.259020382661" lon="17.727429911183">
        <ele>13</ele>
        <time>2017-10-21T10:34:54Z</time>
      </trkpt>
      <trkpt lat="59.258944023552" lon="17.727713303222">
        <ele>12.6</ele>
        <time>2017-10-21T10:34:56Z</time>
      </trkpt>
      <trkpt lat="59.258863892588" lon="17.727985714972">
        <ele>12.4</ele>
        <time>2017-10-21T10:34:58Z</time>
      </trkpt>
      <trkpt lat="59.258821144898" lon="17.728122423761">
        <ele>12.2</ele>
        <time>2017-10-21T10:34:59Z</time>
      </trkpt>
      <trkpt lat="59.258775295905" lon="17.728247062614">
        <ele>12.2</ele>
        <time>2017-10-21T10:35:00Z</time>
      </trkpt>
      <trkpt lat="59.258680328978" lon="17.728475050294">
        <ele>12</ele>
        <time>2017-10-21T10:35:02Z</time>
      </trkpt>
      <trkpt lat="59.258593743951" lon="17.728698008834">
        <ele>12</ele>
        <time>2017-10-21T10:35:04Z</time>
      </trkpt>
      <trkpt lat="59.258518139213" lon="17.728919207175">
        <ele>12</ele>
        <time>2017-10-21T10:35:06Z</time>
      </trkpt>
      <trkpt lat="59.258443121208" lon="17.729152978366">
        <ele>12</ele>
        <time>2017-10-21T10:35:08Z</time>
      </trkpt>
      <trkpt lat="59.258398194224" lon="17.729266469292">
        <ele>12</ele>
        <time>2017-10-21T10:35:09Z</time>
      </trkpt>
      <trkpt lat="59.258345639711" lon="17.729366884454">
        <ele>12.2</ele>
        <time>2017-10-21T10:35:10Z</time>
      </trkpt>
      <trkpt lat="59.258225610903" lon="17.729546005657">
        <ele>12.4</ele>
        <time>2017-10-21T10:35:12Z</time>
      </trkpt>
      <trkpt lat="59.258161908463" lon="17.729614821056">
        <ele>12.6</ele>
        <time>2017-10-21T10:35:13Z</time>
      </trkpt>
      <trkpt lat="59.258099211851" lon="17.729670141596">
        <ele>12.8</ele>
        <time>2017-10-21T10:35:14Z</time>
      </trkpt>
      <trkpt lat="59.257986391477" lon="17.729775082984">
        <ele>13</ele>
        <time>2017-10-21T10:35:16Z</time>
      </trkpt>
      <trkpt lat="59.257890921636" lon="17.729898129276">
        <ele>13.2</ele>
        <time>2017-10-21T10:35:18Z</time>
      </trkpt>
      <trkpt lat="59.257844318272" lon="17.7299648492">
        <ele>13.2</ele>
        <time>2017-10-21T10:35:19Z</time>
      </trkpt>
      <trkpt lat="59.257797798727" lon="17.730035927712">
        <ele>13.2</ele>
        <time>2017-10-21T10:35:20Z</time>
      </trkpt>
      <trkpt lat="59.257703586171" lon="17.730195686726">
        <ele>14</ele>
        <time>2017-10-21T10:35:22Z</time>
      </trkpt>
      <trkpt lat="59.25765840773" lon="17.730278499898">
        <ele>14.6</ele>
        <time>2017-10-21T10:35:23Z</time>
      </trkpt>
      <trkpt lat="59.257616749687" lon="17.730359804328">
        <ele>15</ele>
        <time>2017-10-21T10:35:24Z</time>
      </trkpt>
      <trkpt lat="59.257539133293" lon="17.730519563342">
        <ele>15.8</ele>
        <time>2017-10-21T10:35:26Z</time>
      </trkpt>
      <trkpt lat="59.257466629858" lon="17.730685189686">
        <ele>16.2</ele>
        <time>2017-10-21T10:35:28Z</time>
      </trkpt>
      <trkpt lat="59.257389767835" lon="17.730870681133">
        <ele>16.4</ele>
        <time>2017-10-21T10:35:30Z</time>
      </trkpt>
      <trkpt lat="59.257302260799" lon="17.731069835077">
        <ele>16.8</ele>
        <time>2017-10-21T10:35:32Z</time>
      </trkpt>
      <trkpt lat="59.257216011048" lon="17.731289608495">
        <ele>17</ele>
        <time>2017-10-21T10:35:34Z</time>
      </trkpt>
      <trkpt lat="59.257132108229" lon="17.731532683595">
        <ele>17</ele>
        <time>2017-10-21T10:35:36Z</time>
      </trkpt>
      <trkpt lat="59.257049965609" lon="17.731773160306">
        <ele>17</ele>
        <time>2017-10-21T10:35:38Z</time>
      </trkpt>
      <trkpt lat="59.256968744998" lon="17.732006596221">
        <ele>17</ele>
        <time>2017-10-21T10:35:40Z</time>
      </trkpt>
      <trkpt lat="59.256891882975" lon="17.732246234742">
        <ele>17</ele>
        <time>2017-10-21T10:35:42Z</time>
      </trkpt>
      <trkpt lat="59.256817451703" lon="17.732484196883">
        <ele>17</ele>
        <time>2017-10-21T10:35:44Z</time>
      </trkpt>
      <trkpt lat="59.256744445354" lon="17.732716878427">
        <ele>16.8</ele>
        <time>2017-10-21T10:35:46Z</time>
      </trkpt>
      <trkpt lat="59.256674037394" lon="17.732940256062">
        <ele>16.8</ele>
        <time>2017-10-21T10:35:48Z</time>
      </trkpt>
      <trkpt lat="59.256608407117" lon="17.733158436919">
        <ele>16.8</ele>
        <time>2017-10-21T10:35:50Z</time>
      </trkpt>
      <trkpt lat="59.256545207591" lon="17.733364128745">
        <ele>17</ele>
        <time>2017-10-21T10:35:52Z</time>
      </trkpt>
      <trkpt lat="59.256483516807" lon="17.733563869422">
        <ele>17.2</ele>
        <time>2017-10-21T10:35:54Z</time>
      </trkpt>
      <trkpt lat="59.256418305625" lon="17.733761514624">
        <ele>17.6</ele>
        <time>2017-10-21T10:35:56Z</time>
      </trkpt>
      <trkpt lat="59.256383856016" lon="17.733866372193">
        <ele>18</ele>
        <time>2017-10-21T10:35:57Z</time>
      </trkpt>
      <trkpt lat="59.25635083133" lon="17.733975169255">
        <ele>18.2</ele>
        <time>2017-10-21T10:35:58Z</time>
      </trkpt>
      <trkpt lat="59.256283943768" lon="17.734199636537">
        <ele>18.8</ele>
        <time>2017-10-21T10:36:00Z</time>
      </trkpt>
      <trkpt lat="59.256225270468" lon="17.734435838479">
        <ele>19.2</ele>
        <time>2017-10-21T10:36:02Z</time>
      </trkpt>
      <trkpt lat="59.256177326" lon="17.734682685434">
        <ele>19.4</ele>
        <time>2017-10-21T10:36:04Z</time>
      </trkpt>
      <trkpt lat="59.256132315197" lon="17.734933388063">
        <ele>19.4</ele>
        <time>2017-10-21T10:36:06Z</time>
      </trkpt>
      <trkpt lat="59.256086969118" lon="17.735180151199">
        <ele>19.6</ele>
        <time>2017-10-21T10:36:08Z</time>
      </trkpt>
      <trkpt lat="59.256044389066" lon="17.735419202987">
        <ele>19.8</ele>
        <time>2017-10-21T10:36:10Z</time>
      </trkpt>
      <trkpt lat="59.256012370208" lon="17.735649537599">
        <ele>19.8</ele>
        <time>2017-10-21T10:36:12Z</time>
      </trkpt>
      <trkpt lat="59.255987475965" lon="17.735867466999">
        <ele>20</ele>
        <time>2017-10-21T10:36:14Z</time>
      </trkpt>
      <trkpt lat="59.255971215079" lon="17.736081792182">
        <ele>20.2</ele>
        <time>2017-10-21T10:36:16Z</time>
      </trkpt>
      <trkpt lat="59.255958306953" lon="17.736289998578">
        <ele>20.2</ele>
        <time>2017-10-21T10:36:18Z</time>
      </trkpt>
      <trkpt lat="59.255940369687" lon="17.736499210802">
        <ele>20.8</ele>
        <time>2017-10-21T10:36:20Z</time>
      </trkpt>
      <trkpt lat="59.255921007498" lon="17.736707081922">
        <ele>21.6</ele>
        <time>2017-10-21T10:36:22Z</time>
      </trkpt>
      <trkpt lat="59.255893263409" lon="17.736912354653">
        <ele>22.2</ele>
        <time>2017-10-21T10:36:24Z</time>
      </trkpt>
      <trkpt lat="59.255875326143" lon="17.737012602177">
        <ele>22.8</ele>
        <time>2017-10-21T10:36:25Z</time>
      </trkpt>
      <trkpt lat="59.255856550687" lon="17.737104970715">
        <ele>23.2</ele>
        <time>2017-10-21T10:36:26Z</time>
      </trkpt>
      <trkpt lat="59.2558169043" lon="17.737285852117">
        <ele>23.8</ele>
        <time>2017-10-21T10:36:28Z</time>
      </trkpt>
      <trkpt lat="59.255781784139" lon="17.737470086279">
        <ele>24.4</ele>
        <time>2017-10-21T10:36:30Z</time>
      </trkpt>
      <trkpt lat="59.255741215743" lon="17.73766362435">
        <ele>24.8</ele>
        <time>2017-10-21T10:36:32Z</time>
      </trkpt>
      <trkpt lat="59.255695534388" lon="17.737875518782">
        <ele>25</ele>
        <time>2017-10-21T10:36:34Z</time>
      </trkpt>
      <trkpt lat="59.255641471133" lon="17.738096717123">
        <ele>25</ele>
        <time>2017-10-21T10:36:36Z</time>
      </trkpt>
      <trkpt lat="59.255585144765" lon="17.738332164694">
        <ele>25</ele>
        <time>2017-10-21T10:36:38Z</time>
      </trkpt>
      <trkpt lat="59.255527309655" lon="17.738566019704">
        <ele>24.8</ele>
        <time>2017-10-21T10:36:40Z</time>
      </trkpt>
      <trkpt lat="59.255473162581" lon="17.738810855003">
        <ele>24.2</ele>
        <time>2017-10-21T10:36:42Z</time>
      </trkpt>
      <trkpt lat="59.255419853697" lon="17.7390592107">
        <ele>23.2</ele>
        <time>2017-10-21T10:36:44Z</time>
      </trkpt>
      <trkpt lat="59.255364114062" lon="17.739302118162">
        <ele>22.8</ele>
        <time>2017-10-21T10:36:46Z</time>
      </trkpt>
      <trkpt lat="59.255311140454" lon="17.739552569334">
        <ele>22.4</ele>
        <time>2017-10-21T10:36:48Z</time>
      </trkpt>
      <trkpt lat="59.255261519606" lon="17.739809893664">
        <ele>22.2</ele>
        <time>2017-10-21T10:36:50Z</time>
      </trkpt>
      <trkpt lat="59.255209384188" lon="17.740079371749">
        <ele>21.6</ele>
        <time>2017-10-21T10:36:52Z</time>
      </trkpt>
      <trkpt lat="59.255151632897" lon="17.740369888403">
        <ele>21.2</ele>
        <time>2017-10-21T10:36:54Z</time>
      </trkpt>
      <trkpt lat="59.255084242421" lon="17.740662165256">
        <ele>21</ele>
        <time>2017-10-21T10:36:56Z</time>
      </trkpt>
      <trkpt lat="59.255018360687" lon="17.740929966961">
        <ele>20.6</ele>
        <time>2017-10-21T10:36:58Z</time>
      </trkpt>
      <trkpt lat="59.254967650192" lon="17.741132557484">
        <ele>19.6</ele>
        <time>2017-10-21T10:37:00Z</time>
      </trkpt>
      <trkpt lat="59.254927165615" lon="17.741280078924">
        <ele>18.2</ele>
        <time>2017-10-21T10:37:02Z</time>
      </trkpt>
      <trkpt lat="59.254886681038" lon="17.74138518795">
        <ele>17.8</ele>
        <time>2017-10-21T10:37:04Z</time>
      </trkpt>
      <trkpt lat="59.254851644696" lon="17.741466324742">
        <ele>17.6</ele>
        <time>2017-10-21T10:37:06Z</time>
      </trkpt>
      <trkpt lat="59.254833875068" lon="17.741528099345">
        <ele>17.6</ele>
        <time>2017-10-21T10:37:08Z</time>
      </trkpt>
      <trkpt lat="59.254819206743" lon="17.741553915597">
        <ele>17.6</ele>
        <time>2017-10-21T10:37:10Z</time>
      </trkpt>
      <trkpt lat="59.254801101839" lon="17.741561626945">
        <ele>17.8</ele>
        <time>2017-10-21T10:37:12Z</time>
      </trkpt>
      <trkpt lat="59.254794815414" lon="17.741587275559">
        <ele>18</ele>
        <time>2017-10-21T10:37:14Z</time>
      </trkpt>
      <trkpt lat="59.254795821242" lon="17.741604458454">
        <ele>18.2</ele>
        <time>2017-10-21T10:37:16Z</time>
      </trkpt>
      <trkpt lat="59.254796156518" lon="17.741610996336">
        <ele>18.4</ele>
        <time>2017-10-21T10:37:17Z</time>
      </trkpt>
      <trkpt lat="59.254780398546" lon="17.741727588565">
        <ele>18.6</ele>
        <time>2017-10-21T10:37:23Z</time>
      </trkpt>
      <trkpt lat="59.254770424085" lon="17.741773521377">
        <ele>18.6</ele>
        <time>2017-10-21T10:37:24Z</time>
      </trkpt>
      <trkpt lat="59.254744272557" lon="17.741888521045">
        <ele>18.6</ele>
        <time>2017-10-21T10:37:26Z</time>
      </trkpt>
      <trkpt lat="59.25470714074" lon="17.742001676695">
        <ele>18.6</ele>
        <time>2017-10-21T10:37:28Z</time>
      </trkpt>
      <trkpt lat="59.254677217357" lon="17.742085998609">
        <ele>18.6</ele>
        <time>2017-10-21T10:37:30Z</time>
      </trkpt>
      <trkpt lat="59.254647210155" lon="17.742164285555">
        <ele>18.2</ele>
        <time>2017-10-21T10:37:32Z</time>
      </trkpt>
      <trkpt lat="59.254612341451" lon="17.742254055704">
        <ele>18</ele>
        <time>2017-10-21T10:37:34Z</time>
      </trkpt>
      <trkpt lat="59.254571773055" lon="17.742356063427">
        <ele>17.8</ele>
        <time>2017-10-21T10:37:36Z</time>
      </trkpt>
      <trkpt lat="59.254514440859" lon="17.742462932652">
        <ele>17.8</ele>
        <time>2017-10-21T10:37:38Z</time>
      </trkpt>
      <trkpt lat="59.254448056211" lon="17.742593438835">
        <ele>17.6</ele>
        <time>2017-10-21T10:37:40Z</time>
      </trkpt>
      <trkpt lat="59.254368931075" lon="17.742745067406">
        <ele>17.4</ele>
        <time>2017-10-21T10:37:42Z</time>
      </trkpt>
      <trkpt lat="59.254325429014" lon="17.742825701284">
        <ele>17.2</ele>
        <time>2017-10-21T10:37:43Z</time>
      </trkpt>
      <trkpt lat="59.254280753487" lon="17.742908765913">
        <ele>16.8</ele>
        <time>2017-10-21T10:37:44Z</time>
      </trkpt>
      <trkpt lat="59.254192240623" lon="17.74308084632">
        <ele>16</ele>
        <time>2017-10-21T10:37:46Z</time>
      </trkpt>
      <trkpt lat="59.254098530981" lon="17.743250076881">
        <ele>15.6</ele>
        <time>2017-10-21T10:37:48Z</time>
      </trkpt>
      <trkpt lat="59.254008593194" lon="17.743408662429">
        <ele>15.2</ele>
        <time>2017-10-21T10:37:50Z</time>
      </trkpt>
      <trkpt lat="59.253965091133" lon="17.743480495312">
        <ele>15</ele>
        <time>2017-10-21T10:37:51Z</time>
      </trkpt>
      <trkpt lat="59.253921421434" lon="17.743551490005">
        <ele>15</ele>
        <time>2017-10-21T10:37:52Z</time>
      </trkpt>
      <trkpt lat="59.253844140316" lon="17.743683924025">
        <ele>15</ele>
        <time>2017-10-21T10:37:54Z</time>
      </trkpt>
      <trkpt lat="59.253781527523" lon="17.743788949232">
        <ele>15</ele>
        <time>2017-10-21T10:37:56Z</time>
      </trkpt>
      <trkpt lat="59.253732744865" lon="17.743889951127">
        <ele>15</ele>
        <time>2017-10-21T10:37:58Z</time>
      </trkpt>
      <trkpt lat="59.253705922785" lon="17.743999167284">
        <ele>15.2</ele>
        <time>2017-10-21T10:38:00Z</time>
      </trkpt>
      <trkpt lat="59.253705084595" lon="17.744101929378">
        <ele>16.2</ele>
        <time>2017-10-21T10:38:02Z</time>
      </trkpt>
      <trkpt lat="59.253712879762" lon="17.744215085028">
        <ele>17.2</ele>
        <time>2017-10-21T10:38:04Z</time>
      </trkpt>
      <trkpt lat="59.253721680757" lon="17.74434567503">
        <ele>18.4</ele>
        <time>2017-10-21T10:38:06Z</time>
      </trkpt>
      <trkpt lat="59.253733331598" lon="17.744474085738">
        <ele>19.4</ele>
        <time>2017-10-21T10:38:08Z</time>
      </trkpt>
      <trkpt lat="59.253739534204" lon="17.744540638024">
        <ele>19.8</ele>
        <time>2017-10-21T10:38:09Z</time>
      </trkpt>
      <trkpt lat="59.253740875308" lon="17.744609369604">
        <ele>20.2</ele>
        <time>2017-10-21T10:38:10Z</time>
      </trkpt>
      <trkpt lat="59.253752945244" lon="17.744749012058">
        <ele>20.8</ele>
        <time>2017-10-21T10:38:12Z</time>
      </trkpt>
      <trkpt lat="59.253765434275" lon="17.744826544633">
        <ele>21</ele>
        <time>2017-10-21T10:38:13Z</time>
      </trkpt>
      <trkpt lat="59.253776330745" lon="17.744905250674">
        <ele>21</ele>
        <time>2017-10-21T10:38:14Z</time>
      </trkpt>
      <trkpt lat="59.253806254128" lon="17.745067524258">
        <ele>21.2</ele>
        <time>2017-10-21T10:38:16Z</time>
      </trkpt>
      <trkpt lat="59.253831735104" lon="17.745242203054">
        <ele>21.2</ele>
        <time>2017-10-21T10:38:18Z</time>
      </trkpt>
      <trkpt lat="59.253851097293" lon="17.745422413904">
        <ele>21.4</ele>
        <time>2017-10-21T10:38:20Z</time>
      </trkpt>
      <trkpt lat="59.253855204424" lon="17.745509585664">
        <ele>21.4</ele>
        <time>2017-10-21T10:38:21Z</time>
      </trkpt>
      <trkpt lat="59.253858305727" lon="17.745600529279">
        <ele>21.4</ele>
        <time>2017-10-21T10:38:22Z</time>
      </trkpt>
      <trkpt lat="59.253855623519" lon="17.745692394903">
        <ele>21.4</ele>
        <time>2017-10-21T10:38:23Z</time>
      </trkpt>
      <trkpt lat="59.253848163628" lon="17.745786272183">
        <ele>21.4</ele>
        <time>2017-10-21T10:38:24Z</time>
      </trkpt>
      <trkpt lat="59.253831483647" lon="17.745993388932">
        <ele>21.2</ele>
        <time>2017-10-21T10:38:26Z</time>
      </trkpt>
      <trkpt lat="59.253814049295" lon="17.746206205373">
        <ele>21.2</ele>
        <time>2017-10-21T10:38:28Z</time>
      </trkpt>
      <trkpt lat="59.253801644083" lon="17.746308632191">
        <ele>21.2</ele>
        <time>2017-10-21T10:38:29Z</time>
      </trkpt>
      <trkpt lat="59.253786724301" lon="17.74640426967">
        <ele>21.2</ele>
        <time>2017-10-21T10:38:30Z</time>
      </trkpt>
      <trkpt lat="59.253760405135" lon="17.746589342022">
        <ele>21</ele>
        <time>2017-10-21T10:38:32Z</time>
      </trkpt>
      <trkpt lat="59.253743808973" lon="17.746769133777">
        <ele>20.6</ele>
        <time>2017-10-21T10:38:34Z</time>
      </trkpt>
      <trkpt lat="59.253732661046" lon="17.746943142021">
        <ele>20.6</ele>
        <time>2017-10-21T10:38:36Z</time>
      </trkpt>
      <trkpt lat="59.253723189499" lon="17.74702704484">
        <ele>20.6</ele>
        <time>2017-10-21T10:38:37Z</time>
      </trkpt>
      <trkpt lat="59.253710365192" lon="17.747125448346">
        <ele>20.4</ele>
        <time>2017-10-21T10:38:38Z</time>
      </trkpt>
      <trkpt lat="59.2536879017" lon="17.747328457964">
        <ele>20.2</ele>
        <time>2017-10-21T10:38:40Z</time>
      </trkpt>
      <trkpt lat="59.253662672181" lon="17.747528114822">
        <ele>20.2</ele>
        <time>2017-10-21T10:38:42Z</time>
      </trkpt>
      <trkpt lat="59.253637526481" lon="17.747727101128">
        <ele>20.2</ele>
        <time>2017-10-21T10:38:44Z</time>
      </trkpt>
      <trkpt lat="59.25360324451" lon="17.747917286439">
        <ele>20.2</ele>
        <time>2017-10-21T10:38:46Z</time>
      </trkpt>
      <trkpt lat="59.253571728566" lon="17.748106214465">
        <ele>20</ele>
        <time>2017-10-21T10:38:48Z</time>
      </trkpt>
      <trkpt lat="59.253546750504" lon="17.748305368409">
        <ele>20</ele>
        <time>2017-10-21T10:38:50Z</time>
      </trkpt>
      <trkpt lat="59.253527891229" lon="17.748507372199">
        <ele>20</ele>
        <time>2017-10-21T10:38:52Z</time>
      </trkpt>
      <trkpt lat="59.25350685266" lon="17.74871348312">
        <ele>20</ele>
        <time>2017-10-21T10:38:54Z</time>
      </trkpt>
      <trkpt lat="59.253490340317" lon="17.748816748128">
        <ele>20</ele>
        <time>2017-10-21T10:38:55Z</time>
      </trkpt>
      <trkpt lat="59.253473660336" lon="17.748920851326">
        <ele>20</ele>
        <time>2017-10-21T10:38:56Z</time>
      </trkpt>
      <trkpt lat="59.253441054745" lon="17.749131237016">
        <ele>20</ele>
        <time>2017-10-21T10:38:58Z</time>
      </trkpt>
      <trkpt lat="59.253408281516" lon="17.749339024317">
        <ele>20</ele>
        <time>2017-10-21T10:39:00Z</time>
      </trkpt>
      <trkpt lat="59.253373664269" lon="17.749553684776">
        <ele>19.8</ele>
        <time>2017-10-21T10:39:02Z</time>
      </trkpt>
      <trkpt lat="59.253350027311" lon="17.74977044071">
        <ele>19.8</ele>
        <time>2017-10-21T10:39:04Z</time>
      </trkpt>
      <trkpt lat="59.253345501085" lon="17.749874292451">
        <ele>19.8</ele>
        <time>2017-10-21T10:39:05Z</time>
      </trkpt>
      <trkpt lat="59.253344914352" lon="17.749976970726">
        <ele>19.8</ele>
        <time>2017-10-21T10:39:06Z</time>
      </trkpt>
      <trkpt lat="59.253348183293" lon="17.750076212422">
        <ele>19.8</ele>
        <time>2017-10-21T10:39:07Z</time>
      </trkpt>
      <trkpt lat="59.253352960976" lon="17.750174532109">
        <ele>19.8</ele>
        <time>2017-10-21T10:39:08Z</time>
      </trkpt>
      <trkpt lat="59.253360923781" lon="17.750268493208">
        <ele>19.8</ele>
        <time>2017-10-21T10:39:09Z</time>
      </trkpt>
      <trkpt lat="59.253374083364" lon="17.750350635828">
        <ele>19.8</ele>
        <time>2017-10-21T10:39:10Z</time>
      </trkpt>
      <trkpt lat="59.253416663416" lon="17.750500168924">
        <ele>19.8</ele>
        <time>2017-10-21T10:39:12Z</time>
      </trkpt>
      <trkpt lat="59.253476761639" lon="17.750624137225">
        <ele>19.8</ele>
        <time>2017-10-21T10:39:14Z</time>
      </trkpt>
      <trkpt lat="59.253551612006" lon="17.750750117182">
        <ele>20</ele>
        <time>2017-10-21T10:39:16Z</time>
      </trkpt>
      <trkpt lat="59.253634006083" lon="17.750888418532">
        <ele>19.8</ele>
        <time>2017-10-21T10:39:18Z</time>
      </trkpt>
      <trkpt lat="59.253705336052" lon="17.751040633836">
        <ele>19.8</ele>
        <time>2017-10-21T10:39:20Z</time>
      </trkpt>
      <trkpt lat="59.253733666874" lon="17.751120094248">
        <ele>19.8</ele>
        <time>2017-10-21T10:39:21Z</time>
      </trkpt>
      <trkpt lat="59.25375579509" lon="17.751197375366">
        <ele>20</ele>
        <time>2017-10-21T10:39:22Z</time>
      </trkpt>
      <trkpt lat="59.253774402908" lon="17.751343555702">
        <ele>20.2</ele>
        <time>2017-10-21T10:39:24Z</time>
      </trkpt>
      <trkpt lat="59.253779851143" lon="17.751408850703">
        <ele>20.2</ele>
        <time>2017-10-21T10:39:25Z</time>
      </trkpt>
      <trkpt lat="59.253780437876" lon="17.751475067713">
        <ele>20.4</ele>
        <time>2017-10-21T10:39:26Z</time>
      </trkpt>
      <trkpt lat="59.253766943017" lon="17.751610351579">
        <ele>20.4</ele>
        <time>2017-10-21T10:39:28Z</time>
      </trkpt>
      <trkpt lat="59.253738276919" lon="17.751742282685">
        <ele>21</ele>
        <time>2017-10-21T10:39:30Z</time>
      </trkpt>
      <trkpt lat="59.253720423472" lon="17.751802632365">
        <ele>21.6</ele>
        <time>2017-10-21T10:39:31Z</time>
      </trkpt>
      <trkpt lat="59.253698630532" lon="17.75185669562">
        <ele>22</ele>
        <time>2017-10-21T10:39:32Z</time>
      </trkpt>
      <trkpt lat="59.253649847874" lon="17.751957362239">
        <ele>22.6</ele>
        <time>2017-10-21T10:39:34Z</time>
      </trkpt>
      <trkpt lat="59.25360324451" lon="17.752057190668">
        <ele>23</ele>
        <time>2017-10-21T10:39:36Z</time>
      </trkpt>
      <trkpt lat="59.253558233707" lon="17.752146876998">
        <ele>23</ele>
        <time>2017-10-21T10:39:38Z</time>
      </trkpt>
      <trkpt lat="59.253516575664" lon="17.752232623835">
        <ele>23.2</ele>
        <time>2017-10-21T10:39:40Z</time>
      </trkpt>
      <trkpt lat="59.25348086877" lon="17.752330021513">
        <ele>23.4</ele>
        <time>2017-10-21T10:39:42Z</time>
      </trkpt>
      <trkpt lat="59.253448933731" lon="17.752444099172">
        <ele>24</ele>
        <time>2017-10-21T10:39:44Z</time>
      </trkpt>
      <trkpt lat="59.253416747235" lon="17.752575946459">
        <ele>25.2</ele>
        <time>2017-10-21T10:39:46Z</time>
      </trkpt>
      <trkpt lat="59.25338866787" lon="17.752715588913">
        <ele>26.2</ele>
        <time>2017-10-21T10:39:48Z</time>
      </trkpt>
      <trkpt lat="59.253364695636" lon="17.752874342099">
        <ele>27.2</ele>
        <time>2017-10-21T10:39:50Z</time>
      </trkpt>
      <trkpt lat="59.253352206605" lon="17.752956149443">
        <ele>27.4</ele>
        <time>2017-10-21T10:39:51Z</time>
      </trkpt>
      <trkpt lat="59.253338292651" lon="17.753041728642">
        <ele>27.6</ele>
        <time>2017-10-21T10:39:52Z</time>
      </trkpt>
      <trkpt lat="59.253305938517" lon="17.753217497085">
        <ele>27.6</ele>
        <time>2017-10-21T10:39:54Z</time>
      </trkpt>
      <trkpt lat="59.253273165288" lon="17.753391924424">
        <ele>27.6</ele>
        <time>2017-10-21T10:39:56Z</time>
      </trkpt>
      <trkpt lat="59.253236452566" lon="17.753558556596">
        <ele>27.6</ele>
        <time>2017-10-21T10:39:58Z</time>
      </trkpt>
      <trkpt lat="59.253200997129" lon="17.753724434397">
        <ele>27.6</ele>
        <time>2017-10-21T10:40:00Z</time>
      </trkpt>
      <trkpt lat="59.253162775665" lon="17.753901124849">
        <ele>27.6</ele>
        <time>2017-10-21T10:40:02Z</time>
      </trkpt>
      <trkpt lat="59.253111646075" lon="17.7540795755">
        <ele>27.2</ele>
        <time>2017-10-21T10:40:04Z</time>
      </trkpt>
      <trkpt lat="59.253052302223" lon="17.754264480214">
        <ele>27.2</ele>
        <time>2017-10-21T10:40:06Z</time>
      </trkpt>
      <trkpt lat="59.252983486824" lon="17.754452402412">
        <ele>27</ele>
        <time>2017-10-21T10:40:08Z</time>
      </trkpt>
      <trkpt lat="59.252912995045" lon="17.754640408429">
        <ele>26.8</ele>
        <time>2017-10-21T10:40:10Z</time>
      </trkpt>
      <trkpt lat="59.252835881565" lon="17.75481969727">
        <ele>26.8</ele>
        <time>2017-10-21T10:40:12Z</time>
      </trkpt>
      <trkpt lat="59.252754409497" lon="17.754990939487">
        <ele>26.4</ele>
        <time>2017-10-21T10:40:14Z</time>
      </trkpt>
      <trkpt lat="59.252676374008" lon="17.755161008238">
        <ele>26.2</ele>
        <time>2017-10-21T10:40:16Z</time>
      </trkpt>
      <trkpt lat="59.252613090663" lon="17.755347589332">
        <ele>26.2</ele>
        <time>2017-10-21T10:40:18Z</time>
      </trkpt>
      <trkpt lat="59.252571767896" lon="17.755558897031">
        <ele>26</ele>
        <time>2017-10-21T10:40:20Z</time>
      </trkpt>
      <trkpt lat="59.252556848114" lon="17.755669789568">
        <ele>26</ele>
        <time>2017-10-21T10:40:21Z</time>
      </trkpt>
      <trkpt lat="59.252543939988" lon="17.755782693761">
        <ele>26</ele>
        <time>2017-10-21T10:40:22Z</time>
      </trkpt>
      <trkpt lat="59.252519800116" lon="17.756008921242">
        <ele>26</ele>
        <time>2017-10-21T10:40:24Z</time>
      </trkpt>
      <trkpt lat="59.252497168986" lon="17.75622366552">
        <ele>26</ele>
        <time>2017-10-21T10:40:26Z</time>
      </trkpt>
      <trkpt lat="59.252469508716" lon="17.75642399293">
        <ele>26</ele>
        <time>2017-10-21T10:40:28Z</time>
      </trkpt>
      <trkpt lat="59.252431287252" lon="17.756609987291">
        <ele>26</ele>
        <time>2017-10-21T10:40:30Z</time>
      </trkpt>
      <trkpt lat="59.252386863182" lon="17.756766142088">
        <ele>26.4</ele>
        <time>2017-10-21T10:40:32Z</time>
      </trkpt>
      <trkpt lat="59.252341014189" lon="17.756882818136">
        <ele>26.8</ele>
        <time>2017-10-21T10:40:34Z</time>
      </trkpt>
      <trkpt lat="59.252317209593" lon="17.756934199183">
        <ele>27.2</ele>
        <time>2017-10-21T10:40:35Z</time>
      </trkpt>
      <trkpt lat="59.252294913739" lon="17.756983652393">
        <ele>27.4</ele>
        <time>2017-10-21T10:40:36Z</time>
      </trkpt>
      <trkpt lat="59.2522545968" lon="17.757086079211">
        <ele>28.4</ele>
        <time>2017-10-21T10:40:38Z</time>
      </trkpt>
      <trkpt lat="59.252232049489" lon="17.757139555733">
        <ele>28.8</ele>
        <time>2017-10-21T10:40:39Z</time>
      </trkpt>
      <trkpt lat="59.252210340368" lon="17.757193954264">
        <ele>29.2</ele>
        <time>2017-10-21T10:40:40Z</time>
      </trkpt>
      <trkpt lat="59.252169269058" lon="17.757304846801">
        <ele>30.2</ele>
        <time>2017-10-21T10:40:42Z</time>
      </trkpt>
      <trkpt lat="59.252149487774" lon="17.757424205057">
        <ele>30.8</ele>
        <time>2017-10-21T10:40:44Z</time>
      </trkpt>
      <trkpt lat="59.252143033711" lon="17.757484470918">
        <ele>31.2</ele>
        <time>2017-10-21T10:40:45Z</time>
      </trkpt>
      <trkpt lat="59.252140100046" lon="17.757547838082">
        <ele>31.6</ele>
        <time>2017-10-21T10:40:46Z</time>
      </trkpt>
      <trkpt lat="59.252134819449" lon="17.757683038129">
        <ele>32</ele>
        <time>2017-10-21T10:40:48Z</time>
      </trkpt>
      <trkpt lat="59.252130209404" lon="17.75779946272">
        <ele>32.4</ele>
        <time>2017-10-21T10:40:50Z</time>
      </trkpt>
      <trkpt lat="59.252115624898" lon="17.757917815148">
        <ele>33</ele>
        <time>2017-10-21T10:40:52Z</time>
      </trkpt>
      <trkpt lat="59.252104393152" lon="17.757984115977">
        <ele>33.4</ele>
        <time>2017-10-21T10:40:53Z</time>
      </trkpt>
      <trkpt lat="59.252094837786" lon="17.758052679919">
        <ele>33.8</ele>
        <time>2017-10-21T10:40:54Z</time>
      </trkpt>
      <trkpt lat="59.252082684031" lon="17.758124428983">
        <ele>34.4</ele>
        <time>2017-10-21T10:40:55Z</time>
      </trkpt>
      <trkpt lat="59.252071284647" lon="17.75819927935">
        <ele>34.6</ele>
        <time>2017-10-21T10:40:56Z</time>
      </trkpt>
      <trkpt lat="59.252049407888" lon="17.758361720572">
        <ele>35.4</ele>
        <time>2017-10-21T10:40:58Z</time>
      </trkpt>
      <trkpt lat="59.252041528902" lon="17.758446293943">
        <ele>35.6</ele>
        <time>2017-10-21T10:40:59Z</time>
      </trkpt>
      <trkpt lat="59.252032560269" lon="17.758531537866">
        <ele>35.8</ele>
        <time>2017-10-21T10:41:00Z</time>
      </trkpt>
      <trkpt lat="59.252011856976" lon="17.758696409839">
        <ele>35.8</ele>
        <time>2017-10-21T10:41:02Z</time>
      </trkpt>
      <trkpt lat="59.252000457592" lon="17.758859521613">
        <ele>36</ele>
        <time>2017-10-21T10:41:04Z</time>
      </trkpt>
      <trkpt lat="59.251996015185" lon="17.759045180698">
        <ele>36</ele>
        <time>2017-10-21T10:41:06Z</time>
      </trkpt>
      <trkpt lat="59.252000541411" lon="17.759143248928">
        <ele>36</ele>
        <time>2017-10-21T10:41:07Z</time>
      </trkpt>
      <trkpt lat="59.252018394858" lon="17.759242909719">
        <ele>36</ele>
        <time>2017-10-21T10:41:08Z</time>
      </trkpt>
      <trkpt lat="59.252065333498" lon="17.759460252386">
        <ele>36</ele>
        <time>2017-10-21T10:41:10Z</time>
      </trkpt>
      <trkpt lat="59.25209617889" lon="17.75957307276">
        <ele>36</ele>
        <time>2017-10-21T10:41:11Z</time>
      </trkpt>
      <trkpt lat="59.252126689006" lon="17.759694191215">
        <ele>35.8</ele>
        <time>2017-10-21T10:41:12Z</time>
      </trkpt>
      <trkpt lat="59.252155187466" lon="17.759966267689">
        <ele>35.2</ele>
        <time>2017-10-21T10:41:14Z</time>
      </trkpt>
      <trkpt lat="59.252101459487" lon="17.760225268399">
        <ele>34.4</ele>
        <time>2017-10-21T10:41:16Z</time>
      </trkpt>
      <trkpt lat="59.252063070385" lon="17.760338675506">
        <ele>33.8</ele>
        <time>2017-10-21T10:41:17Z</time>
      </trkpt>
      <trkpt lat="59.252022753446" lon="17.760451328242">
        <ele>33.2</ele>
        <time>2017-10-21T10:41:18Z</time>
      </trkpt>
      <trkpt lat="59.251940946102" lon="17.760670682565">
        <ele>32</ele>
        <time>2017-10-21T10:41:20Z</time>
      </trkpt>
      <trkpt lat="59.251855534541" lon="17.760893892562">
        <ele>30.6</ele>
        <time>2017-10-21T10:41:22Z</time>
      </trkpt>
      <trkpt lat="59.251764926202" lon="17.761112660152">
        <ele>27.8</ele>
        <time>2017-10-21T10:41:24Z</time>
      </trkpt>
      <trkpt lat="59.251676161881" lon="17.761338719995">
        <ele>27</ele>
        <time>2017-10-21T10:41:26Z</time>
      </trkpt>
      <trkpt lat="59.251632576001" lon="17.761454893129">
        <ele>26.4</ele>
        <time>2017-10-21T10:41:27Z</time>
      </trkpt>
      <trkpt lat="59.251588906302" lon="17.761569054607">
        <ele>25.8</ele>
        <time>2017-10-21T10:41:28Z</time>
      </trkpt>
      <trkpt lat="59.251501985999" lon="17.761801903789">
        <ele>25.6</ele>
        <time>2017-10-21T10:41:30Z</time>
      </trkpt>
      <trkpt lat="59.251413808411" lon="17.762035926437">
        <ele>25.4</ele>
        <time>2017-10-21T10:41:32Z</time>
      </trkpt>
      <trkpt lat="59.251331246696" lon="17.762273637121">
        <ele>25.4</ele>
        <time>2017-10-21T10:41:34Z</time>
      </trkpt>
      <trkpt lat="59.251254971406" lon="17.762522831008">
        <ele>25.4</ele>
        <time>2017-10-21T10:41:36Z</time>
      </trkpt>
      <trkpt lat="59.251225634756" lon="17.762655432666">
        <ele>25.2</ele>
        <time>2017-10-21T10:41:37Z</time>
      </trkpt>
      <trkpt lat="59.251203422721" lon="17.762791638541">
        <ele>25.2</ele>
        <time>2017-10-21T10:41:38Z</time>
      </trkpt>
      <trkpt lat="59.251170481854" lon="17.76307000144">
        <ele>25.2</ele>
        <time>2017-10-21T10:41:40Z</time>
      </trkpt>
      <trkpt lat="59.251140726109" lon="17.763351214185">
        <ele>25.2</ele>
        <time>2017-10-21T10:41:42Z</time>
      </trkpt>
      <trkpt lat="59.251109713079" lon="17.763633851853">
        <ele>25</ele>
        <time>2017-10-21T10:41:44Z</time>
      </trkpt>
      <trkpt lat="59.25107526347" lon="17.763913974951">
        <ele>25</ele>
        <time>2017-10-21T10:41:46Z</time>
      </trkpt>
      <trkpt lat="59.251040730042" lon="17.764189068909">
        <ele>25</ele>
        <time>2017-10-21T10:41:48Z</time>
      </trkpt>
      <trkpt lat="59.251010555202" lon="17.764461732116">
        <ele>25</ele>
        <time>2017-10-21T10:41:50Z</time>
      </trkpt>
      <trkpt lat="59.250994042859" lon="17.764738502454">
        <ele>25</ele>
        <time>2017-10-21T10:41:52Z</time>
      </trkpt>
      <trkpt lat="59.250990857737" lon="17.765020385751">
        <ele>25.2</ele>
        <time>2017-10-21T10:41:54Z</time>
      </trkpt>
      <trkpt lat="59.250995719239" lon="17.765305202713">
        <ele>25.2</ele>
        <time>2017-10-21T10:41:56Z</time>
      </trkpt>
      <trkpt lat="59.251004939329" lon="17.765593120978">
        <ele>25.2</ele>
        <time>2017-10-21T10:41:58Z</time>
      </trkpt>
      <trkpt lat="59.251016673989" lon="17.765884559641">
        <ele>25.2</ele>
        <time>2017-10-21T10:42:00Z</time>
      </trkpt>
      <trkpt lat="59.25102832483" lon="17.766175998304">
        <ele>25.2</ele>
        <time>2017-10-21T10:42:02Z</time>
      </trkpt>
      <trkpt lat="59.251030671762" lon="17.766460312352">
        <ele>25.2</ele>
        <time>2017-10-21T10:42:04Z</time>
      </trkpt>
      <trkpt lat="59.251022960414" lon="17.766599032797">
        <ele>25.2</ele>
        <time>2017-10-21T10:42:05Z</time>
      </trkpt>
      <trkpt lat="59.251007872994" lon="17.766735993043">
        <ele>25.2</ele>
        <time>2017-10-21T10:42:06Z</time>
      </trkpt>
      <trkpt lat="59.250949367332" lon="17.766981415075">
        <ele>25.2</ele>
        <time>2017-10-21T10:42:08Z</time>
      </trkpt>
      <trkpt lat="59.250870828929" lon="17.767205379443">
        <ele>25</ele>
        <time>2017-10-21T10:42:10Z</time>
      </trkpt>
      <trkpt lat="59.25081374819" lon="17.76744702962">
        <ele>25</ele>
        <time>2017-10-21T10:42:12Z</time>
      </trkpt>
      <trkpt lat="59.250762953876" lon="17.767689769444">
        <ele>25</ele>
        <time>2017-10-21T10:42:14Z</time>
      </trkpt>
      <trkpt lat="59.250715093227" lon="17.767949524525">
        <ele>24.8</ele>
        <time>2017-10-21T10:42:16Z</time>
      </trkpt>
      <trkpt lat="59.250664969465" lon="17.768228138881">
        <ele>24.8</ele>
        <time>2017-10-21T10:42:18Z</time>
      </trkpt>
      <trkpt lat="59.250594058591" lon="17.768512285291">
        <ele>24.6</ele>
        <time>2017-10-21T10:42:20Z</time>
      </trkpt>
      <trkpt lat="59.250499007845" lon="17.768789474724">
        <ele>24.2</ele>
        <time>2017-10-21T10:42:22Z</time>
      </trkpt>
      <trkpt lat="59.250390797516" lon="17.769062389388">
        <ele>23.8</ele>
        <time>2017-10-21T10:42:24Z</time>
      </trkpt>
      <trkpt lat="59.250284347386" lon="17.769357096992">
        <ele>23.2</ele>
        <time>2017-10-21T10:42:26Z</time>
      </trkpt>
      <trkpt lat="59.250238666031" lon="17.769510569581">
        <ele>22.6</ele>
        <time>2017-10-21T10:42:27Z</time>
      </trkpt>
      <trkpt lat="59.250197007988" lon="17.769659767401">
        <ele>22</ele>
        <time>2017-10-21T10:42:28Z</time>
      </trkpt>
      <trkpt lat="59.25016163637" lon="17.769797733475">
        <ele>21.6</ele>
        <time>2017-10-21T10:42:29Z</time>
      </trkpt>
      <trkpt lat="59.250125761838" lon="17.769923545794">
        <ele>21</ele>
        <time>2017-10-21T10:42:30Z</time>
      </trkpt>
      <trkpt lat="59.250086702184" lon="17.770041982041">
        <ele>20.4</ele>
        <time>2017-10-21T10:42:31Z</time>
      </trkpt>
      <trkpt lat="59.250038757716" lon="17.770133260932">
        <ele>19.4</ele>
        <time>2017-10-21T10:42:32Z</time>
      </trkpt>
      <trkpt lat="59.249985448832" lon="17.770190844585">
        <ele>19</ele>
        <time>2017-10-21T10:42:33Z</time>
      </trkpt>
      <trkpt lat="59.24993113412" lon="17.770230071877">
        <ele>18.6</ele>
        <time>2017-10-21T10:42:34Z</time>
      </trkpt>
      <trkpt lat="59.24988168091" lon="17.77026083345">
        <ele>18.6</ele>
        <time>2017-10-21T10:42:35Z</time>
      </trkpt>
      <trkpt lat="59.249833484985" lon="17.770290589195">
        <ele>18.4</ele>
        <time>2017-10-21T10:42:36Z</time>
      </trkpt>
      <trkpt lat="59.249738853334" lon="17.77035135797">
        <ele>18.4</ele>
        <time>2017-10-21T10:42:38Z</time>
      </trkpt>
      <trkpt lat="59.249647071529" lon="17.770406427053">
        <ele>18.4</ele>
        <time>2017-10-21T10:42:40Z</time>
      </trkpt>
      <trkpt lat="59.249557636656" lon="17.770454371521">
        <ele>18.4</ele>
        <time>2017-10-21T10:42:42Z</time>
      </trkpt>
      <trkpt lat="59.249471303086" lon="17.770502567446">
        <ele>19.4</ele>
        <time>2017-10-21T10:42:44Z</time>
      </trkpt>
      <trkpt lat="59.249380778566" lon="17.770550931009">
        <ele>20.2</ele>
        <time>2017-10-21T10:42:46Z</time>
      </trkpt>
      <trkpt lat="59.249294528815" lon="17.770608011748">
        <ele>21</ele>
        <time>2017-10-21T10:42:48Z</time>
      </trkpt>
      <trkpt lat="59.249249518012" lon="17.770634247095">
        <ele>21.4</ele>
        <time>2017-10-21T10:42:49Z</time>
      </trkpt>
      <trkpt lat="59.249200986811" lon="17.770661320632">
        <ele>21.6</ele>
        <time>2017-10-21T10:42:50Z</time>
      </trkpt>
      <trkpt lat="59.249105936065" lon="17.77073021985">
        <ele>22.8</ele>
        <time>2017-10-21T10:42:52Z</time>
      </trkpt>
      <trkpt lat="59.249014489536" lon="17.77082074437">
        <ele>23.2</ele>
        <time>2017-10-21T10:42:54Z</time>
      </trkpt>
      <trkpt lat="59.248920863713" lon="17.770919231695">
        <ele>23.6</ele>
        <time>2017-10-21T10:42:56Z</time>
      </trkpt>
      <trkpt lat="59.248875517634" lon="17.770973714045">
        <ele>24</ele>
        <time>2017-10-21T10:42:57Z</time>
      </trkpt>
      <trkpt lat="59.248830758288" lon="17.771026687653">
        <ele>24.2</ele>
        <time>2017-10-21T10:42:58Z</time>
      </trkpt>
      <trkpt lat="59.248740652863" lon="17.771131126127">
        <ele>24.4</ele>
        <time>2017-10-21T10:43:00Z</time>
      </trkpt>
      <trkpt lat="59.24865457075" lon="17.771226679787">
        <ele>24.6</ele>
        <time>2017-10-21T10:43:02Z</time>
      </trkpt>
      <trkpt lat="59.248611487784" lon="17.771272780237">
        <ele>24.8</ele>
        <time>2017-10-21T10:43:03Z</time>
      </trkpt>
      <trkpt lat="59.248569578284" lon="17.771321814352">
        <ele>25</ele>
        <time>2017-10-21T10:43:04Z</time>
      </trkpt>
      <trkpt lat="59.248487016569" lon="17.771409321388">
        <ele>25.2</ele>
        <time>2017-10-21T10:43:06Z</time>
      </trkpt>
      <trkpt lat="59.248396240592" lon="17.77149045818">
        <ele>25.8</ele>
        <time>2017-10-21T10:43:08Z</time>
      </trkpt>
      <trkpt lat="59.24830169276" lon="17.771551143136">
        <ele>26.2</ele>
        <time>2017-10-21T10:43:10Z</time>
      </trkpt>
      <trkpt lat="59.248199601218" lon="17.771604619658">
        <ele>26.6</ele>
        <time>2017-10-21T10:43:12Z</time>
      </trkpt>
      <trkpt lat="59.248148890723" lon="17.771633453394">
        <ele>27</ele>
        <time>2017-10-21T10:43:13Z</time>
      </trkpt>
      <trkpt lat="59.248098347866" lon="17.771662538587">
        <ele>27.2</ele>
        <time>2017-10-21T10:43:14Z</time>
      </trkpt>
      <trkpt lat="59.248002878025" lon="17.771711321245">
        <ele>28</ele>
        <time>2017-10-21T10:43:16Z</time>
      </trkpt>
      <trkpt lat="59.247956023204" lon="17.771736299307">
        <ele>28.2</ele>
        <time>2017-10-21T10:43:17Z</time>
      </trkpt>
      <trkpt lat="59.247911180039" lon="17.771761696464">
        <ele>28.6</ele>
        <time>2017-10-21T10:43:18Z</time>
      </trkpt>
      <trkpt lat="59.247819062958" lon="17.771820621221">
        <ele>29.4</ele>
        <time>2017-10-21T10:43:20Z</time>
      </trkpt>
      <trkpt lat="59.24773759089" lon="17.771894717217">
        <ele>29.6</ele>
        <time>2017-10-21T10:43:22Z</time>
      </trkpt>
      <trkpt lat="59.247674978097" lon="17.771970657231">
        <ele>29.8</ele>
        <time>2017-10-21T10:43:24Z</time>
      </trkpt>
      <trkpt lat="59.247614879874" lon="17.772057326077">
        <ele>30</ele>
        <time>2017-10-21T10:43:26Z</time>
      </trkpt>
      <trkpt lat="59.247542711715" lon="17.772162518922">
        <ele>30.2</ele>
        <time>2017-10-21T10:43:28Z</time>
      </trkpt>
      <trkpt lat="59.247510776676" lon="17.772222114231">
        <ele>30.4</ele>
        <time>2017-10-21T10:43:29Z</time>
      </trkpt>
      <trkpt lat="59.247479679827" lon="17.772284978481">
        <ele>30.8</ele>
        <time>2017-10-21T10:43:30Z</time>
      </trkpt>
      <trkpt lat="59.247420503613" lon="17.772410706981">
        <ele>31.6</ele>
        <time>2017-10-21T10:43:32Z</time>
      </trkpt>
      <trkpt lat="59.247365602168" lon="17.772536267843">
        <ele>32.4</ele>
        <time>2017-10-21T10:43:34Z</time>
      </trkpt>
      <trkpt lat="59.247341713753" lon="17.772599467369">
        <ele>32.6</ele>
        <time>2017-10-21T10:43:35Z</time>
      </trkpt>
      <trkpt lat="59.247319417899" lon="17.772666271112">
        <ele>33</ele>
        <time>2017-10-21T10:43:36Z</time>
      </trkpt>
      <trkpt lat="59.247280106788" lon="17.77280306372">
        <ele>33.4</ele>
        <time>2017-10-21T10:43:38Z</time>
      </trkpt>
      <trkpt lat="59.247245824817" lon="17.772944801649">
        <ele>33.8</ele>
        <time>2017-10-21T10:43:40Z</time>
      </trkpt>
      <trkpt lat="59.247213554502" lon="17.773073547633">
        <ele>34</ele>
        <time>2017-10-21T10:43:42Z</time>
      </trkpt>
      <trkpt lat="59.247182290015" lon="17.7732070713">
        <ele>34.6</ele>
        <time>2017-10-21T10:43:44Z</time>
      </trkpt>
      <trkpt lat="59.247167286414" lon="17.773271360473">
        <ele>35</ele>
        <time>2017-10-21T10:43:45Z</time>
      </trkpt>
      <trkpt lat="59.247151612261" lon="17.773336487836">
        <ele>35.2</ele>
        <time>2017-10-21T10:43:46Z</time>
      </trkpt>
      <trkpt lat="59.247118839032" lon="17.773479147774">
        <ele>35.8</ele>
        <time>2017-10-21T10:43:48Z</time>
      </trkpt>
      <trkpt lat="59.247101069404" lon="17.773553662865">
        <ele>36.4</ele>
        <time>2017-10-21T10:43:49Z</time>
      </trkpt>
      <trkpt lat="59.247084389423" lon="17.773627758861">
        <ele>36.8</ele>
        <time>2017-10-21T10:43:50Z</time>
      </trkpt>
      <trkpt lat="59.247055890963" lon="17.773773017188">
        <ele>37.2</ele>
        <time>2017-10-21T10:43:52Z</time>
      </trkpt>
      <trkpt lat="59.247024207381" lon="17.773916096221">
        <ele>37.6</ele>
        <time>2017-10-21T10:43:54Z</time>
      </trkpt>
      <trkpt lat="59.246994032541" lon="17.774050122802">
        <ele>37.8</ele>
        <time>2017-10-21T10:43:56Z</time>
      </trkpt>
      <trkpt lat="59.246973413067" lon="17.774186412496">
        <ele>38.2</ele>
        <time>2017-10-21T10:43:58Z</time>
      </trkpt>
      <trkpt lat="59.246944495512" lon="17.774323205104">
        <ele>38.6</ele>
        <time>2017-10-21T10:44:00Z</time>
      </trkpt>
      <trkpt lat="59.246928569902" lon="17.774459578617">
        <ele>39</ele>
        <time>2017-10-21T10:44:02Z</time>
      </trkpt>
      <trkpt lat="59.246915410319" lon="17.774594611026">
        <ele>39.6</ele>
        <time>2017-10-21T10:44:04Z</time>
      </trkpt>
      <trkpt lat="59.246895377578" lon="17.7747074314">
        <ele>40.4</ele>
        <time>2017-10-21T10:44:06Z</time>
      </trkpt>
      <trkpt lat="59.246876266846" lon="17.774828633674">
        <ele>41</ele>
        <time>2017-10-21T10:44:08Z</time>
      </trkpt>
      <trkpt lat="59.24685916777" lon="17.774949500672">
        <ele>41.4</ele>
        <time>2017-10-21T10:44:10Z</time>
      </trkpt>
      <trkpt lat="59.246843577436" lon="17.775065925263">
        <ele>42</ele>
        <time>2017-10-21T10:44:12Z</time>
      </trkpt>
      <trkpt lat="59.246825556351" lon="17.77517011228">
        <ele>42.6</ele>
        <time>2017-10-21T10:44:14Z</time>
      </trkpt>
      <trkpt lat="59.246809966017" lon="17.775282513559">
        <ele>43.2</ele>
        <time>2017-10-21T10:44:16Z</time>
      </trkpt>
      <trkpt lat="59.246793621312" lon="17.77540899643">
        <ele>43.6</ele>
        <time>2017-10-21T10:44:18Z</time>
      </trkpt>
      <trkpt lat="59.246785909964" lon="17.775481248408">
        <ele>44.2</ele>
        <time>2017-10-21T10:44:19Z</time>
      </trkpt>
      <trkpt lat="59.246777611883" lon="17.775559116259">
        <ele>44.2</ele>
        <time>2017-10-21T10:44:20Z</time>
      </trkpt>
      <trkpt lat="59.246757243866" lon="17.775737986005">
        <ele>44.4</ele>
        <time>2017-10-21T10:44:22Z</time>
      </trkpt>
      <trkpt lat="59.246735786202" lon="17.775945270392">
        <ele>44.4</ele>
        <time>2017-10-21T10:44:24Z</time>
      </trkpt>
      <trkpt lat="59.246711897787" lon="17.776181388515">
        <ele>44.4</ele>
        <time>2017-10-21T10:44:26Z</time>
      </trkpt>
      <trkpt lat="59.246683902241" lon="17.776446172736">
        <ele>44.4</ele>
        <time>2017-10-21T10:44:28Z</time>
      </trkpt>
      <trkpt lat="59.246652721573" lon="17.77673082206">
        <ele>44</ele>
        <time>2017-10-21T10:44:30Z</time>
      </trkpt>
      <trkpt lat="59.246619110154" lon="17.777034330659">
        <ele>43.2</ele>
        <time>2017-10-21T10:44:32Z</time>
      </trkpt>
      <trkpt lat="59.246602597811" lon="17.777184031393">
        <ele>42.6</ele>
        <time>2017-10-21T10:44:33Z</time>
      </trkpt>
      <trkpt lat="59.246588851495" lon="17.77733348067">
        <ele>41.8</ele>
        <time>2017-10-21T10:44:34Z</time>
      </trkpt>
      <trkpt lat="59.246575188998" lon="17.777481421205">
        <ele>41</ele>
        <time>2017-10-21T10:44:35Z</time>
      </trkpt>
      <trkpt lat="59.246560017759" lon="17.777623578229">
        <ele>40.4</ele>
        <time>2017-10-21T10:44:36Z</time>
      </trkpt>
      <trkpt lat="59.246545517072" lon="17.777762298674">
        <ele>39.8</ele>
        <time>2017-10-21T10:44:37Z</time>
      </trkpt>
      <trkpt lat="59.246531100204" lon="17.77789506797">
        <ele>39</ele>
        <time>2017-10-21T10:44:38Z</time>
      </trkpt>
      <trkpt lat="59.246515928965" lon="17.778021550841">
        <ele>38.4</ele>
        <time>2017-10-21T10:44:39Z</time>
      </trkpt>
      <trkpt lat="59.246501847373" lon="17.778144345676">
        <ele>37.8</ele>
        <time>2017-10-21T10:44:40Z</time>
      </trkpt>
      <trkpt lat="59.246486257039" lon="17.778262781923">
        <ele>37.4</ele>
        <time>2017-10-21T10:44:41Z</time>
      </trkpt>
      <trkpt lat="59.246471001981" lon="17.778380212342">
        <ele>37.2</ele>
        <time>2017-10-21T10:44:42Z</time>
      </trkpt>
      <trkpt lat="59.246441078598" lon="17.778613564438">
        <ele>37</ele>
        <time>2017-10-21T10:44:44Z</time>
      </trkpt>
      <trkpt lat="59.246411490491" lon="17.778844569602">
        <ele>37</ele>
        <time>2017-10-21T10:44:46Z</time>
      </trkpt>
      <trkpt lat="59.246383494945" lon="17.779072222006">
        <ele>37</ele>
        <time>2017-10-21T10:44:48Z</time>
      </trkpt>
      <trkpt lat="59.246359355073" lon="17.779305993197">
        <ele>37</ele>
        <time>2017-10-21T10:44:50Z</time>
      </trkpt>
      <trkpt lat="59.246335466658" lon="17.779547559555">
        <ele>37.2</ele>
        <time>2017-10-21T10:44:52Z</time>
      </trkpt>
      <trkpt lat="59.246309650406" lon="17.779794741786">
        <ele>37.2</ele>
        <time>2017-10-21T10:44:54Z</time>
      </trkpt>
      <trkpt lat="59.246280900489" lon="17.780051982297">
        <ele>37.2</ele>
        <time>2017-10-21T10:44:56Z</time>
      </trkpt>
      <trkpt lat="59.246255838608" lon="17.780312240292">
        <ele>37.4</ele>
        <time>2017-10-21T10:44:58Z</time>
      </trkpt>
      <trkpt lat="59.246239996817" lon="17.780571827735">
        <ele>37.6</ele>
        <time>2017-10-21T10:45:00Z</time>
      </trkpt>
      <trkpt lat="59.24623136346" lon="17.780834013567">
        <ele>37.6</ele>
        <time>2017-10-21T10:45:02Z</time>
      </trkpt>
      <trkpt lat="59.246221640456" lon="17.78109527739">
        <ele>37.8</ele>
        <time>2017-10-21T10:45:04Z</time>
      </trkpt>
      <trkpt lat="59.246209151425" lon="17.781356876489">
        <ele>38</ele>
        <time>2017-10-21T10:45:06Z</time>
      </trkpt>
      <trkpt lat="59.2461944831" lon="17.781620403425">
        <ele>38</ele>
        <time>2017-10-21T10:45:08Z</time>
      </trkpt>
      <trkpt lat="59.246170343228" lon="17.781874123538">
        <ele>38.2</ele>
        <time>2017-10-21T10:45:10Z</time>
      </trkpt>
      <trkpt lat="59.246128852823" lon="17.782106637444">
        <ele>38.4</ele>
        <time>2017-10-21T10:45:12Z</time>
      </trkpt>
      <trkpt lat="59.246098175069" lon="17.782212165565">
        <ele>38.4</ele>
        <time>2017-10-21T10:45:13Z</time>
      </trkpt>
      <trkpt lat="59.246062300537" lon="17.782312245451">
        <ele>38.6</ele>
        <time>2017-10-21T10:45:14Z</time>
      </trkpt>
      <trkpt lat="59.245972278931" lon="17.782481978926">
        <ele>38.6</ele>
        <time>2017-10-21T10:45:16Z</time>
      </trkpt>
      <trkpt lat="59.245859123281" lon="17.782623213941">
        <ele>38.6</ele>
        <time>2017-10-21T10:45:18Z</time>
      </trkpt>
      <trkpt lat="59.24579634285" lon="17.782687335476">
        <ele>38.6</ele>
        <time>2017-10-21T10:45:19Z</time>
      </trkpt>
      <trkpt lat="59.245729371469" lon="17.782743242749">
        <ele>38.6</ele>
        <time>2017-10-21T10:45:20Z</time>
      </trkpt>
      <trkpt lat="59.245592997956" lon="17.782832426165">
        <ele>38.6</ele>
        <time>2017-10-21T10:45:22Z</time>
      </trkpt>
      <trkpt lat="59.245455283339" lon="17.782912054215">
        <ele>38.6</ele>
        <time>2017-10-21T10:45:24Z</time>
      </trkpt>
      <trkpt lat="59.245320753844" lon="17.782984138555">
        <ele>38.4</ele>
        <time>2017-10-21T10:45:26Z</time>
      </trkpt>
      <trkpt lat="59.245186056711" lon="17.783062341682">
        <ele>37.2</ele>
        <time>2017-10-21T10:45:28Z</time>
      </trkpt>
      <trkpt lat="59.245049683198" lon="17.783147334148">
        <ele>36.4</ele>
        <time>2017-10-21T10:45:30Z</time>
      </trkpt>
      <trkpt lat="59.244918841739" lon="17.783247330215">
        <ele>36.2</ele>
        <time>2017-10-21T10:45:32Z</time>
      </trkpt>
      <trkpt lat="59.244784982796" lon="17.783359563856">
        <ele>36</ele>
        <time>2017-10-21T10:45:34Z</time>
      </trkpt>
      <trkpt lat="59.244647938731" lon="17.783469534384">
        <ele>36</ele>
        <time>2017-10-21T10:45:36Z</time>
      </trkpt>
      <trkpt lat="59.244512906322" lon="17.783590736658">
        <ele>35.6</ele>
        <time>2017-10-21T10:45:38Z</time>
      </trkpt>
      <trkpt lat="59.244383322148" lon="17.783711938932">
        <ele>35</ele>
        <time>2017-10-21T10:45:40Z</time>
      </trkpt>
      <trkpt lat="59.244265304996" lon="17.783833141206">
        <ele>34.8</ele>
        <time>2017-10-21T10:45:42Z</time>
      </trkpt>
      <trkpt lat="59.244169583698" lon="17.783948979064">
        <ele>34.6</ele>
        <time>2017-10-21T10:45:44Z</time>
      </trkpt>
      <trkpt lat="59.24413002113" lon="17.784045790009">
        <ele>34.2</ele>
        <time>2017-10-21T10:45:46Z</time>
      </trkpt>
      <trkpt lat="59.244113508787" lon="17.78407169008">
        <ele>34</ele>
        <time>2017-10-21T10:45:47Z</time>
      </trkpt>
      <trkpt lat="59.244090710019" lon="17.78408342474">
        <ele>33.8</ele>
        <time>2017-10-21T10:45:48Z</time>
      </trkpt>
      <trkpt lat="59.244059696989" lon="17.7840951594">
        <ele>33.8</ele>
        <time>2017-10-21T10:45:49Z</time>
      </trkpt>
      <trkpt lat="59.244026420846" lon="17.784110414458">
        <ele>33.6</ele>
        <time>2017-10-21T10:45:50Z</time>
      </trkpt>
      <trkpt lat="59.243954168868" lon="17.784160957315">
        <ele>33.6</ele>
        <time>2017-10-21T10:45:52Z</time>
      </trkpt>
      <trkpt lat="59.243902955459" lon="17.784301857054">
        <ele>33.6</ele>
        <time>2017-10-21T10:45:54Z</time>
      </trkpt>
      <trkpt lat="59.243853837525" lon="17.784482906094">
        <ele>33.4</ele>
        <time>2017-10-21T10:45:56Z</time>
      </trkpt>
      <trkpt lat="59.243791140913" lon="17.784672756129">
        <ele>33.4</ele>
        <time>2017-10-21T10:45:58Z</time>
      </trkpt>
      <trkpt lat="59.243719475668" lon="17.784860594508">
        <ele>33.4</ele>
        <time>2017-10-21T10:46:00Z</time>
      </trkpt>
      <trkpt lat="59.243645882586" lon="17.785050193086">
        <ele>33.4</ele>
        <time>2017-10-21T10:46:02Z</time>
      </trkpt>
      <trkpt lat="59.24356005193" lon="17.785232667049">
        <ele>33</ele>
        <time>2017-10-21T10:46:04Z</time>
      </trkpt>
      <trkpt lat="59.243474388912" lon="17.785382200145">
        <ele>31.4</ele>
        <time>2017-10-21T10:46:06Z</time>
      </trkpt>
      <trkpt lat="59.243393419758" lon="17.78553768439">
        <ele>30.6</ele>
        <time>2017-10-21T10:46:08Z</time>
      </trkpt>
      <trkpt lat="59.243365340393" lon="17.785628879462">
        <ele>30.4</ele>
        <time>2017-10-21T10:46:09Z</time>
      </trkpt>
      <trkpt lat="59.243348911869" lon="17.785734910497">
        <ele>30.2</ele>
        <time>2017-10-21T10:46:10Z</time>
      </trkpt>
      <trkpt lat="59.243346648756" lon="17.785948816585">
        <ele>30</ele>
        <time>2017-10-21T10:46:12Z</time>
      </trkpt>
      <trkpt lat="59.243346900213" lon="17.786039927838">
        <ele>29.6</ele>
        <time>2017-10-21T10:46:13Z</time>
      </trkpt>
      <trkpt lat="59.243337177209" lon="17.78611938825">
        <ele>29.4</ele>
        <time>2017-10-21T10:46:14Z</time>
      </trkpt>
      <trkpt lat="59.243315384269" lon="17.78618644345">
        <ele>29</ele>
        <time>2017-10-21T10:46:15Z</time>
      </trkpt>
      <trkpt lat="59.243282191945" lon="17.786228101493">
        <ele>28.2</ele>
        <time>2017-10-21T10:46:16Z</time>
      </trkpt>
      <trkpt lat="59.243238019332" lon="17.786238830325">
        <ele>27.8</ele>
        <time>2017-10-21T10:46:17Z</time>
      </trkpt>
      <trkpt lat="59.243182447335" lon="17.786218797584">
        <ele>27.4</ele>
        <time>2017-10-21T10:46:18Z</time>
      </trkpt>
      <trkpt lat="59.243051773514" lon="17.786161968302">
        <ele>26.6</ele>
        <time>2017-10-21T10:46:20Z</time>
      </trkpt>
      <trkpt lat="59.242904503531" lon="17.786091895618">
        <ele>26.2</ele>
        <time>2017-10-21T10:46:22Z</time>
      </trkpt>
      <trkpt lat="59.242746504716" lon="17.786025259513">
        <ele>25.6</ele>
        <time>2017-10-21T10:46:24Z</time>
      </trkpt>
      <trkpt lat="59.242662601897" lon="17.786003634211">
        <ele>25.4</ele>
        <time>2017-10-21T10:46:25Z</time>
      </trkpt>
      <trkpt lat="59.242576100689" lon="17.78599365975">
        <ele>25</ele>
        <time>2017-10-21T10:46:26Z</time>
      </trkpt>
      <trkpt lat="59.242487587825" lon="17.785997515424">
        <ele>24.4</ele>
        <time>2017-10-21T10:46:27Z</time>
      </trkpt>
      <trkpt lat="59.242398069133" lon="17.786011345559">
        <ele>23.4</ele>
        <time>2017-10-21T10:46:28Z</time>
      </trkpt>
      <trkpt lat="59.242307460794" lon="17.786026516798">
        <ele>22.6</ele>
        <time>2017-10-21T10:46:29Z</time>
      </trkpt>
      <trkpt lat="59.242218780292" lon="17.786038754372">
        <ele>21.6</ele>
        <time>2017-10-21T10:46:30Z</time>
      </trkpt>
      <trkpt lat="59.242134626016" lon="17.786024169866">
        <ele>20.6</ele>
        <time>2017-10-21T10:46:31Z</time>
      </trkpt>
      <trkpt lat="59.242055165604" lon="17.785965496566">
        <ele>20</ele>
        <time>2017-10-21T10:46:32Z</time>
      </trkpt>
      <trkpt lat="59.241988361861" lon="17.785863488843">
        <ele>19</ele>
        <time>2017-10-21T10:46:33Z</time>
      </trkpt>
      <trkpt lat="59.241938070461" lon="17.785726444778">
        <ele>18.2</ele>
        <time>2017-10-21T10:46:34Z</time>
      </trkpt>
      <trkpt lat="59.241899932816" lon="17.785571798723">
        <ele>17.2</ele>
        <time>2017-10-21T10:46:35Z</time>
      </trkpt>
      <trkpt lat="59.241866237578" lon="17.785414386641">
        <ele>16.4</ele>
        <time>2017-10-21T10:46:36Z</time>
      </trkpt>
      <trkpt lat="59.241831620331" lon="17.785256639283">
        <ele>15.8</ele>
        <time>2017-10-21T10:46:37Z</time>
      </trkpt>
      <trkpt lat="59.241795075247" lon="17.785098556649">
        <ele>15.4</ele>
        <time>2017-10-21T10:46:38Z</time>
      </trkpt>
      <trkpt lat="59.241721733622" lon="17.78478750434">
        <ele>15.2</ele>
        <time>2017-10-21T10:46:40Z</time>
      </trkpt>
      <trkpt lat="59.241638836631" lon="17.784492126184">
        <ele>15</ele>
        <time>2017-10-21T10:46:42Z</time>
      </trkpt>
      <trkpt lat="59.241540600763" lon="17.784217870416">
        <ele>15</ele>
        <time>2017-10-21T10:46:44Z</time>
      </trkpt>
      <trkpt lat="59.241438006307" lon="17.783950739263">
        <ele>14.8</ele>
        <time>2017-10-21T10:46:46Z</time>
      </trkpt>
      <trkpt lat="59.241379752102" lon="17.783827357695">
        <ele>14.8</ele>
        <time>2017-10-21T10:46:47Z</time>
      </trkpt>
      <trkpt lat="59.241316384938" lon="17.78371462114">
        <ele>14.8</ele>
        <time>2017-10-21T10:46:48Z</time>
      </trkpt>
      <trkpt lat="59.241179257054" lon="17.783519071413">
        <ele>14.8</ele>
        <time>2017-10-21T10:46:50Z</time>
      </trkpt>
      <trkpt lat="59.24103039451" lon="17.783367275204">
        <ele>14.8</ele>
        <time>2017-10-21T10:46:52Z</time>
      </trkpt>
      <trkpt lat="59.240951939926" lon="17.783306003515">
        <ele>14.8</ele>
        <time>2017-10-21T10:46:53Z</time>
      </trkpt>
      <trkpt lat="59.240871808962" lon="17.783253365183">
        <ele>14.8</ele>
        <time>2017-10-21T10:46:54Z</time>
      </trkpt>
      <trkpt lat="59.24070769136" lon="17.783169965278">
        <ele>14.8</ele>
        <time>2017-10-21T10:46:56Z</time>
      </trkpt>
      <trkpt lat="59.240540723912" lon="17.783104754096">
        <ele>14.8</ele>
        <time>2017-10-21T10:46:58Z</time>
      </trkpt>
      <trkpt lat="59.24037576812" lon="17.783034262317">
        <ele>14.8</ele>
        <time>2017-10-21T10:47:00Z</time>
      </trkpt>
      <trkpt lat="59.240207627206" lon="17.782980785795">
        <ele>15</ele>
        <time>2017-10-21T10:47:02Z</time>
      </trkpt>
      <trkpt lat="59.240039737749" lon="17.782923956513">
        <ele>15</ele>
        <time>2017-10-21T10:47:04Z</time>
      </trkpt>
      <trkpt lat="59.239874279043" lon="17.782872575466">
        <ele>15</ele>
        <time>2017-10-21T10:47:06Z</time>
      </trkpt>
      <trkpt lat="59.239712927468" lon="17.78281775784">
        <ele>15.2</ele>
        <time>2017-10-21T10:47:08Z</time>
      </trkpt>
      <trkpt lat="59.239557359404" lon="17.782763107852">
        <ele>15.4</ele>
        <time>2017-10-21T10:47:10Z</time>
      </trkpt>
      <trkpt lat="59.239410927611" lon="17.782710720977">
        <ele>15.4</ele>
        <time>2017-10-21T10:47:12Z</time>
      </trkpt>
      <trkpt lat="59.239275559926" lon="17.782664536708">
        <ele>15.8</ele>
        <time>2017-10-21T10:47:14Z</time>
      </trkpt>
      <trkpt lat="59.239154776747" lon="17.782623800674">
        <ele>16</ele>
        <time>2017-10-21T10:47:16Z</time>
      </trkpt>
      <trkpt lat="59.23904556059" lon="17.782584824839">
        <ele>16.6</ele>
        <time>2017-10-21T10:47:18Z</time>
      </trkpt>
      <trkpt lat="59.238993173715" lon="17.782560265872">
        <ele>16.8</ele>
        <time>2017-10-21T10:47:19Z</time>
      </trkpt>
      <trkpt lat="59.238939026641" lon="17.782540736045">
        <ele>17</ele>
        <time>2017-10-21T10:47:20Z</time>
      </trkpt>
      <trkpt lat="59.238831654502" lon="17.78251433306">
        <ele>18.2</ele>
        <time>2017-10-21T10:47:22Z</time>
      </trkpt>
      <trkpt lat="59.238729982055" lon="17.782483068573">
        <ele>19.2</ele>
        <time>2017-10-21T10:47:24Z</time>
      </trkpt>
      <trkpt lat="59.238678936284" lon="17.782469238438">
        <ele>19.6</ele>
        <time>2017-10-21T10:47:25Z</time>
      </trkpt>
      <trkpt lat="59.238629985988" lon="17.782453899561">
        <ele>20</ele>
        <time>2017-10-21T10:47:26Z</time>
      </trkpt>
      <trkpt lat="59.23852839736" lon="17.782420791056">
        <ele>21</ele>
        <time>2017-10-21T10:47:28Z</time>
      </trkpt>
      <trkpt lat="59.238427395465" lon="17.78238860456">
        <ele>21.8</ele>
        <time>2017-10-21T10:47:30Z</time>
      </trkpt>
      <trkpt lat="59.238373499848" lon="17.782372930407">
        <ele>22</ele>
        <time>2017-10-21T10:47:31Z</time>
      </trkpt>
      <trkpt lat="59.238319352774" lon="17.782353819675">
        <ele>22.4</ele>
        <time>2017-10-21T10:47:32Z</time>
      </trkpt>
      <trkpt lat="59.238208627875" lon="17.782318448057">
        <ele>23</ele>
        <time>2017-10-21T10:47:34Z</time>
      </trkpt>
      <trkpt lat="59.238095639863" lon="17.782281064783">
        <ele>23.8</ele>
        <time>2017-10-21T10:47:36Z</time>
      </trkpt>
      <trkpt lat="59.238037972391" lon="17.782260193852">
        <ele>24</ele>
        <time>2017-10-21T10:47:37Z</time>
      </trkpt>
      <trkpt lat="59.237977790349" lon="17.782238400912">
        <ele>24.2</ele>
        <time>2017-10-21T10:47:38Z</time>
      </trkpt>
      <trkpt lat="59.237856588075" lon="17.782192384281">
        <ele>24.4</ele>
        <time>2017-10-21T10:47:40Z</time>
      </trkpt>
      <trkpt lat="59.237729853747" lon="17.782142763433">
        <ele>24.4</ele>
        <time>2017-10-21T10:47:42Z</time>
      </trkpt>
      <trkpt lat="59.237599431383" lon="17.782094651327">
        <ele>24.4</ele>
        <time>2017-10-21T10:47:44Z</time>
      </trkpt>
      <trkpt lat="59.237464231336" lon="17.782039414606">
        <ele>24.4</ele>
        <time>2017-10-21T10:47:46Z</time>
      </trkpt>
      <trkpt lat="59.237322828683" lon="17.781989039387">
        <ele>24</ele>
        <time>2017-10-21T10:47:48Z</time>
      </trkpt>
      <trkpt lat="59.23717639689" lon="17.781936736331">
        <ele>23.8</ele>
        <time>2017-10-21T10:47:50Z</time>
      </trkpt>
      <trkpt lat="59.237022840482" lon="17.781879990868">
        <ele>23.4</ele>
        <time>2017-10-21T10:47:52Z</time>
      </trkpt>
      <trkpt lat="59.23686375202" lon="17.781818802998">
        <ele>23.2</ele>
        <time>2017-10-21T10:47:54Z</time>
      </trkpt>
      <trkpt lat="59.236782615228" lon="17.781788879615">
        <ele>23</ele>
        <time>2017-10-21T10:47:55Z</time>
      </trkpt>
      <trkpt lat="59.23670030497" lon="17.781758201861">
        <ele>22.6</ele>
        <time>2017-10-21T10:47:56Z</time>
      </trkpt>
      <trkpt lat="59.236534008074" lon="17.78169542143">
        <ele>22</ele>
        <time>2017-10-21T10:47:58Z</time>
      </trkpt>
      <trkpt lat="59.23645052435" lon="17.781665162771">
        <ele>21.2</ele>
        <time>2017-10-21T10:47:59Z</time>
      </trkpt>
      <trkpt lat="59.236367711178" lon="17.78163507175">
        <ele>20.6</ele>
        <time>2017-10-21T10:48:00Z</time>
      </trkpt>
      <trkpt lat="59.236285568558" lon="17.781606070376">
        <ele>20.2</ele>
        <time>2017-10-21T10:48:01Z</time>
      </trkpt>
      <trkpt lat="59.236203928852" lon="17.781576482269">
        <ele>20</ele>
        <time>2017-10-21T10:48:02Z</time>
      </trkpt>
      <trkpt lat="59.236044169838" lon="17.781521748462">
        <ele>19.6</ele>
        <time>2017-10-21T10:48:04Z</time>
      </trkpt>
      <trkpt lat="59.235891619258" lon="17.781467517569">
        <ele>19.4</ele>
        <time>2017-10-21T10:48:06Z</time>
      </trkpt>
      <trkpt lat="59.235740493601" lon="17.781413454314">
        <ele>19.4</ele>
        <time>2017-10-21T10:48:08Z</time>
      </trkpt>
      <trkpt lat="59.235589870858" lon="17.781359726335">
        <ele>19.4</ele>
        <time>2017-10-21T10:48:10Z</time>
      </trkpt>
      <trkpt lat="59.23543882902" lon="17.781309602573">
        <ele>19.4</ele>
        <time>2017-10-21T10:48:12Z</time>
      </trkpt>
      <trkpt lat="59.235287703363" lon="17.78126040082">
        <ele>20</ele>
        <time>2017-10-21T10:48:14Z</time>
      </trkpt>
      <trkpt lat="59.235138924638" lon="17.781208768316">
        <ele>20.4</ele>
        <time>2017-10-21T10:48:16Z</time>
      </trkpt>
      <trkpt lat="59.234988972447" lon="17.781161326762">
        <ele>20.6</ele>
        <time>2017-10-21T10:48:18Z</time>
      </trkpt>
      <trkpt lat="59.23483868498" lon="17.781115645407">
        <ele>20.6</ele>
        <time>2017-10-21T10:48:20Z</time>
      </trkpt>
      <trkpt lat="59.234689151884" lon="17.781086141119">
        <ele>20.8</ele>
        <time>2017-10-21T10:48:22Z</time>
      </trkpt>
      <trkpt lat="59.234541798082" lon="17.781066024559">
        <ele>21</ele>
        <time>2017-10-21T10:48:24Z</time>
      </trkpt>
      <trkpt lat="59.234395617746" lon="17.781049847492">
        <ele>21.2</ele>
        <time>2017-10-21T10:48:26Z</time>
      </trkpt>
      <trkpt lat="59.234250862333" lon="17.781041549411">
        <ele>21.2</ele>
        <time>2017-10-21T10:48:28Z</time>
      </trkpt>
      <trkpt lat="59.234110381689" lon="17.781047584379">
        <ele>21.2</ele>
        <time>2017-10-21T10:48:30Z</time>
      </trkpt>
      <trkpt lat="59.23397870204" lon="17.781061833609">
        <ele>21.4</ele>
        <time>2017-10-21T10:48:32Z</time>
      </trkpt>
      <trkpt lat="59.233854482282" lon="17.781081279617">
        <ele>21.4</ele>
        <time>2017-10-21T10:48:34Z</time>
      </trkpt>
      <trkpt lat="59.233739901709" lon="17.781099803616">
        <ele>21.8</ele>
        <time>2017-10-21T10:48:36Z</time>
      </trkpt>
      <trkpt lat="59.23363420595" lon="17.781125116954">
        <ele>22.4</ele>
        <time>2017-10-21T10:48:38Z</time>
      </trkpt>
      <trkpt lat="59.233583663093" lon="17.78113970146">
        <ele>22.8</ele>
        <time>2017-10-21T10:48:39Z</time>
      </trkpt>
      <trkpt lat="59.233534880435" lon="17.781155291794">
        <ele>23</ele>
        <time>2017-10-21T10:48:40Z</time>
      </trkpt>
      <trkpt lat="59.233442008983" lon="17.781183874073">
        <ele>24</ele>
        <time>2017-10-21T10:48:42Z</time>
      </trkpt>
      <trkpt lat="59.233348718436" lon="17.78121765313">
        <ele>24.8</ele>
        <time>2017-10-21T10:48:44Z</time>
      </trkpt>
      <trkpt lat="59.233300857787" lon="17.781231399446">
        <ele>25.2</ele>
        <time>2017-10-21T10:48:45Z</time>
      </trkpt>
      <trkpt lat="59.233254170604" lon="17.781245481038">
        <ele>25.6</ele>
        <time>2017-10-21T10:48:46Z</time>
      </trkpt>
      <trkpt lat="59.233165909197" lon="17.781290240384">
        <ele>26</ele>
        <time>2017-10-21T10:48:48Z</time>
      </trkpt>
      <trkpt lat="59.233119724928" lon="17.781313709704">
        <ele>26.6</ele>
        <time>2017-10-21T10:48:49Z</time>
      </trkpt>
      <trkpt lat="59.233072870107" lon="17.781331060237">
        <ele>27.2</ele>
        <time>2017-10-21T10:48:50Z</time>
      </trkpt>
      <trkpt lat="59.232985614528" lon="17.781368443511">
        <ele>27.8</ele>
        <time>2017-10-21T10:48:52Z</time>
      </trkpt>
      <trkpt lat="59.232898778044" lon="17.781418483454">
        <ele>28.6</ele>
        <time>2017-10-21T10:48:54Z</time>
      </trkpt>
      <trkpt lat="59.232811438646" lon="17.78147078651">
        <ele>29.2</ele>
        <time>2017-10-21T10:48:56Z</time>
      </trkpt>
      <trkpt lat="59.232726529999" lon="17.781537674072">
        <ele>30</ele>
        <time>2017-10-21T10:48:58Z</time>
      </trkpt>
      <trkpt lat="59.232686799793" lon="17.781569944387">
        <ele>30.4</ele>
        <time>2017-10-21T10:48:59Z</time>
      </trkpt>
      <trkpt lat="59.232643130094" lon="17.781602885254">
        <ele>30.8</ele>
        <time>2017-10-21T10:49:00Z</time>
      </trkpt>
      <trkpt lat="59.232557886171" lon="17.781670778644">
        <ele>31.2</ele>
        <time>2017-10-21T10:49:02Z</time>
      </trkpt>
      <trkpt lat="59.232516311947" lon="17.781704222425">
        <ele>31.6</ele>
        <time>2017-10-21T10:49:03Z</time>
      </trkpt>
      <trkpt lat="59.23247582737" lon="17.781740013138">
        <ele>31.8</ele>
        <time>2017-10-21T10:49:04Z</time>
      </trkpt>
      <trkpt lat="59.232395947863" lon="17.781808157985">
        <ele>32.2</ele>
        <time>2017-10-21T10:49:06Z</time>
      </trkpt>
      <trkpt lat="59.232353200173" lon="17.781847888191">
        <ele>32.6</ele>
        <time>2017-10-21T10:49:07Z</time>
      </trkpt>
      <trkpt lat="59.232309949569" lon="17.781888540406">
        <ele>32.8</ele>
        <time>2017-10-21T10:49:08Z</time>
      </trkpt>
      <trkpt lat="59.232221771981" lon="17.781974790157">
        <ele>33.4</ele>
        <time>2017-10-21T10:49:10Z</time>
      </trkpt>
      <trkpt lat="59.232178437558" lon="17.78202231553">
        <ele>33.8</ele>
        <time>2017-10-21T10:49:11Z</time>
      </trkpt>
      <trkpt lat="59.232133510574" lon="17.782069924722">
        <ele>34</ele>
        <time>2017-10-21T10:49:12Z</time>
      </trkpt>
      <trkpt lat="59.232044746253" lon="17.782159191957">
        <ele>34.4</ele>
        <time>2017-10-21T10:49:14Z</time>
      </trkpt>
      <trkpt lat="59.231956568665" lon="17.782255164712">
        <ele>34.6</ele>
        <time>2017-10-21T10:49:16Z</time>
      </trkpt>
      <trkpt lat="59.231864367765" lon="17.782351305105">
        <ele>34.8</ele>
        <time>2017-10-21T10:49:18Z</time>
      </trkpt>
      <trkpt lat="59.231815752745" lon="17.782402518514">
        <ele>35</ele>
        <time>2017-10-21T10:49:19Z</time>
      </trkpt>
      <trkpt lat="59.231766634811" lon="17.782455408303">
        <ele>35.2</ele>
        <time>2017-10-21T10:49:20Z</time>
      </trkpt>
      <trkpt lat="59.231665968192" lon="17.78256630084">
        <ele>35.4</ele>
        <time>2017-10-21T10:49:22Z</time>
      </trkpt>
      <trkpt lat="59.231561613537" lon="17.782677444834">
        <ele>35.4</ele>
        <time>2017-10-21T10:49:24Z</time>
      </trkpt>
      <trkpt lat="59.23145575014" lon="17.782791103398">
        <ele>35.4</ele>
        <time>2017-10-21T10:49:26Z</time>
      </trkpt>
      <trkpt lat="59.231345863431" lon="17.782911467482">
        <ele>35.4</ele>
        <time>2017-10-21T10:49:28Z</time>
      </trkpt>
      <trkpt lat="59.23123530617" lon="17.783032669756">
        <ele>35.4</ele>
        <time>2017-10-21T10:49:30Z</time>
      </trkpt>
      <trkpt lat="59.23112215052" lon="17.783156302781">
        <ele>35.4</ele>
        <time>2017-10-21T10:49:32Z</time>
      </trkpt>
      <trkpt lat="59.23100899487" lon="17.783278007969">
        <ele>35.4</ele>
        <time>2017-10-21T10:49:34Z</time>
      </trkpt>
      <trkpt lat="59.230892989374" lon="17.783401808632">
        <ele>35.4</ele>
        <time>2017-10-21T10:49:36Z</time>
      </trkpt>
      <trkpt lat="59.230775642774" lon="17.783529045874">
        <ele>35.4</ele>
        <time>2017-10-21T10:49:38Z</time>
      </trkpt>
      <trkpt lat="59.230659553459" lon="17.783658630048">
        <ele>35.2</ele>
        <time>2017-10-21T10:49:40Z</time>
      </trkpt>
      <trkpt lat="59.230544805248" lon="17.783783771815">
        <ele>35.2</ele>
        <time>2017-10-21T10:49:42Z</time>
      </trkpt>
      <trkpt lat="59.230426620458" lon="17.783912266342">
        <ele>35.2</ele>
        <time>2017-10-21T10:49:44Z</time>
      </trkpt>
      <trkpt lat="59.230309525315" lon="17.784040341774">
        <ele>35.2</ele>
        <time>2017-10-21T10:49:46Z</time>
      </trkpt>
      <trkpt lat="59.230190418516" lon="17.784163974799">
        <ele>35.2</ele>
        <time>2017-10-21T10:49:48Z</time>
      </trkpt>
      <trkpt lat="59.230065528206" lon="17.784278974467">
        <ele>35</ele>
        <time>2017-10-21T10:49:50Z</time>
      </trkpt>
      <trkpt lat="59.229937033679" lon="17.784382407113">
        <ele>35</ele>
        <time>2017-10-21T10:49:52Z</time>
      </trkpt>
      <trkpt lat="59.229803174736" lon="17.784468321588">
        <ele>35</ele>
        <time>2017-10-21T10:49:54Z</time>
      </trkpt>
      <trkpt lat="59.229668812879" lon="17.784547027629">
        <ele>34.8</ele>
        <time>2017-10-21T10:49:56Z</time>
      </trkpt>
      <trkpt lat="59.229533361375" lon="17.784614082829">
        <ele>34.8</ele>
        <time>2017-10-21T10:49:58Z</time>
      </trkpt>
      <trkpt lat="59.229400005346" lon="17.784665547695">
        <ele>34.6</ele>
        <time>2017-10-21T10:50:00Z</time>
      </trkpt>
      <trkpt lat="59.229264386204" lon="17.784716593466">
        <ele>34.6</ele>
        <time>2017-10-21T10:50:02Z</time>
      </trkpt>
      <trkpt lat="59.229130946356" lon="17.784768477427">
        <ele>34.6</ele>
        <time>2017-10-21T10:50:04Z</time>
      </trkpt>
      <trkpt lat="59.228994237567" lon="17.784819439379">
        <ele>34.6</ele>
        <time>2017-10-21T10:50:06Z</time>
      </trkpt>
      <trkpt lat="59.228858283149" lon="17.784867719123">
        <ele>34.8</ele>
        <time>2017-10-21T10:50:08Z</time>
      </trkpt>
      <trkpt lat="59.228721909636" lon="17.784911221184">
        <ele>35</ele>
        <time>2017-10-21T10:50:10Z</time>
      </trkpt>
      <trkpt lat="59.228583608286" lon="17.784956483444">
        <ele>35</ele>
        <time>2017-10-21T10:50:12Z</time>
      </trkpt>
      <trkpt lat="59.22843742795" lon="17.78500627193">
        <ele>35</ele>
        <time>2017-10-21T10:50:14Z</time>
      </trkpt>
      <trkpt lat="59.2282823628" lon="17.785062095384">
        <ele>35</ele>
        <time>2017-10-21T10:50:16Z</time>
      </trkpt>
      <trkpt lat="59.228120173035" lon="17.785118840847">
        <ele>35</ele>
        <time>2017-10-21T10:50:18Z</time>
      </trkpt>
      <trkpt lat="59.227952283578" lon="17.785184219667">
        <ele>35</ele>
        <time>2017-10-21T10:50:20Z</time>
      </trkpt>
      <trkpt lat="59.227775509307" lon="17.785247000098">
        <ele>34.6</ele>
        <time>2017-10-21T10:50:22Z</time>
      </trkpt>
      <trkpt lat="59.227597226294" lon="17.785310031986">
        <ele>34</ele>
        <time>2017-10-21T10:50:24Z</time>
      </trkpt>
      <trkpt lat="59.227419613833" lon="17.785373566788">
        <ele>32.6</ele>
        <time>2017-10-21T10:50:26Z</time>
      </trkpt>
      <trkpt lat="59.22723965444" lon="17.785438442694">
        <ele>30.6</ele>
        <time>2017-10-21T10:50:28Z</time>
      </trkpt>
      <trkpt lat="59.227052905708" lon="17.785496193985">
        <ele>28.8</ele>
        <time>2017-10-21T10:50:30Z</time>
      </trkpt>
      <trkpt lat="59.226956178582" lon="17.785524440988">
        <ele>27.4</ele>
        <time>2017-10-21T10:50:31Z</time>
      </trkpt>
      <trkpt lat="59.226857942714" lon="17.785549921964">
        <ele>26.2</ele>
        <time>2017-10-21T10:50:32Z</time>
      </trkpt>
      <trkpt lat="59.226654430182" lon="17.78559216674">
        <ele>25.2</ele>
        <time>2017-10-21T10:50:34Z</time>
      </trkpt>
      <trkpt lat="59.226549656432" lon="17.785607673255">
        <ele>25</ele>
        <time>2017-10-21T10:50:35Z</time>
      </trkpt>
      <trkpt lat="59.226444128311" lon="17.785616641888">
        <ele>24.8</ele>
        <time>2017-10-21T10:50:36Z</time>
      </trkpt>
      <trkpt lat="59.226231898603" lon="17.785610942196">
        <ele>24.4</ele>
        <time>2017-10-21T10:50:38Z</time>
      </trkpt>
      <trkpt lat="59.226124191188" lon="17.785594010758">
        <ele>23.8</ele>
        <time>2017-10-21T10:50:39Z</time>
      </trkpt>
      <trkpt lat="59.226017489601" lon="17.785566266669">
        <ele>23.4</ele>
        <time>2017-10-21T10:50:40Z</time>
      </trkpt>
      <trkpt lat="59.225910368919" lon="17.78552930249">
        <ele>22.8</ele>
        <time>2017-10-21T10:50:41Z</time>
      </trkpt>
      <trkpt lat="59.225803667332" lon="17.785484375506">
        <ele>22.2</ele>
        <time>2017-10-21T10:50:42Z</time>
      </trkpt>
      <trkpt lat="59.225697217202" lon="17.785430228432">
        <ele>21.4</ele>
        <time>2017-10-21T10:50:43Z</time>
      </trkpt>
      <trkpt lat="59.225592527271" lon="17.785365436345">
        <ele>20.4</ele>
        <time>2017-10-21T10:50:44Z</time>
      </trkpt>
      <trkpt lat="59.225488424073" lon="17.785290250702">
        <ele>19.8</ele>
        <time>2017-10-21T10:50:45Z</time>
      </trkpt>
      <trkpt lat="59.22538557816" lon="17.785206347883">
        <ele>19.2</ele>
        <time>2017-10-21T10:50:46Z</time>
      </trkpt>
      <trkpt lat="59.225184580198" lon="17.785019599151">
        <ele>18.2</ele>
        <time>2017-10-21T10:50:48Z</time>
      </trkpt>
      <trkpt lat="59.224991042127" lon="17.784823127415">
        <ele>17.4</ele>
        <time>2017-10-21T10:50:50Z</time>
      </trkpt>
      <trkpt lat="59.224894901734" lon="17.784726567927">
        <ele>17</ele>
        <time>2017-10-21T10:50:51Z</time>
      </trkpt>
      <trkpt lat="59.224799934807" lon="17.784630427534">
        <ele>16.6</ele>
        <time>2017-10-21T10:50:52Z</time>
      </trkpt>
      <trkpt lat="59.224608743668" lon="17.784446863924">
        <ele>16.2</ele>
        <time>2017-10-21T10:50:54Z</time>
      </trkpt>
      <trkpt lat="59.224514447293" lon="17.784354914481">
        <ele>16</ele>
        <time>2017-10-21T10:50:55Z</time>
      </trkpt>
      <trkpt lat="59.224421408203" lon="17.784262545943">
        <ele>15.8</ele>
        <time>2017-10-21T10:50:56Z</time>
      </trkpt>
      <trkpt lat="59.224235246204" lon="17.784081413084">
        <ele>15.6</ele>
        <time>2017-10-21T10:50:58Z</time>
      </trkpt>
      <trkpt lat="59.22405201787" lon="17.783894077619">
        <ele>15.4</ele>
        <time>2017-10-21T10:51:00Z</time>
      </trkpt>
      <trkpt lat="59.223868370441" lon="17.783700539548">
        <ele>15.4</ele>
        <time>2017-10-21T10:51:02Z</time>
      </trkpt>
      <trkpt lat="59.223683298089" lon="17.783519490508">
        <ele>15.2</ele>
        <time>2017-10-21T10:51:04Z</time>
      </trkpt>
      <trkpt lat="59.223502751963" lon="17.783336010717">
        <ele>15.2</ele>
        <time>2017-10-21T10:51:06Z</time>
      </trkpt>
      <trkpt lat="59.223325558597" lon="17.783156973333">
        <ele>15</ele>
        <time>2017-10-21T10:51:08Z</time>
      </trkpt>
      <trkpt lat="59.223151047439" lon="17.782981037252">
        <ele>14.4</ele>
        <time>2017-10-21T10:51:10Z</time>
      </trkpt>
      <trkpt lat="59.222978212661" lon="17.782808705388">
        <ele>14.2</ele>
        <time>2017-10-21T10:51:12Z</time>
      </trkpt>
      <trkpt lat="59.22280730572" lon="17.782638217542">
        <ele>14</ele>
        <time>2017-10-21T10:51:14Z</time>
      </trkpt>
      <trkpt lat="59.222639080987" lon="17.782466137135">
        <ele>13.8</ele>
        <time>2017-10-21T10:51:16Z</time>
      </trkpt>
      <trkpt lat="59.222472448815" lon="17.782296990393">
        <ele>13.6</ele>
        <time>2017-10-21T10:51:18Z</time>
      </trkpt>
      <trkpt lat="59.222307912118" lon="17.782131028773">
        <ele>13.6</ele>
        <time>2017-10-21T10:51:20Z</time>
      </trkpt>
      <trkpt lat="59.22214597381" lon="17.781967749361">
        <ele>13.6</ele>
        <time>2017-10-21T10:51:22Z</time>
      </trkpt>
      <trkpt lat="59.221983867864" lon="17.781811343107">
        <ele>13.6</ele>
        <time>2017-10-21T10:51:24Z</time>
      </trkpt>
      <trkpt lat="59.221820923728" lon="17.781659043984">
        <ele>13.4</ele>
        <time>2017-10-21T10:51:26Z</time>
      </trkpt>
      <trkpt lat="59.221657392859" lon="17.78151437239">
        <ele>13.4</ele>
        <time>2017-10-21T10:51:28Z</time>
      </trkpt>
      <trkpt lat="59.221493107619" lon="17.781375903402">
        <ele>13.4</ele>
        <time>2017-10-21T10:51:30Z</time>
      </trkpt>
      <trkpt lat="59.221327565094" lon="17.781251432187">
        <ele>13.4</ele>
        <time>2017-10-21T10:51:32Z</time>
      </trkpt>
      <trkpt lat="59.221159005085" lon="17.78114053965">
        <ele>13.2</ele>
        <time>2017-10-21T10:51:34Z</time>
      </trkpt>
      <trkpt lat="59.220991199447" lon="17.781033754244">
        <ele>13</ele>
        <time>2017-10-21T10:51:36Z</time>
      </trkpt>
      <trkpt lat="59.220905955524" lon="17.780982037921">
        <ele>12.6</ele>
        <time>2017-10-21T10:51:37Z</time>
      </trkpt>
      <trkpt lat="59.220819789592" lon="17.780930573055">
        <ele>12.6</ele>
        <time>2017-10-21T10:51:38Z</time>
      </trkpt>
      <trkpt lat="59.22064812828" lon="17.780824793477">
        <ele>12.2</ele>
        <time>2017-10-21T10:51:40Z</time>
      </trkpt>
      <trkpt lat="59.220472778932" lon="17.78072395922">
        <ele>12</ele>
        <time>2017-10-21T10:51:42Z</time>
      </trkpt>
      <trkpt lat="59.220296591394" lon="17.780621951497">
        <ele>11.4</ele>
        <time>2017-10-21T10:51:44Z</time>
      </trkpt>
      <trkpt lat="59.220119984761" lon="17.780515333729">
        <ele>10.8</ele>
        <time>2017-10-21T10:51:46Z</time>
      </trkpt>
      <trkpt lat="59.219942120843" lon="17.780405027925">
        <ele>10.4</ele>
        <time>2017-10-21T10:51:48Z</time>
      </trkpt>
      <trkpt lat="59.219759730699" lon="17.780296901415">
        <ele>10</ele>
        <time>2017-10-21T10:51:50Z</time>
      </trkpt>
      <trkpt lat="59.219575412718" lon="17.780182069385">
        <ele>9.2</ele>
        <time>2017-10-21T10:51:52Z</time>
      </trkpt>
      <trkpt lat="59.219390759461" lon="17.78007687654">
        <ele>8.4</ele>
        <time>2017-10-21T10:51:54Z</time>
      </trkpt>
      <trkpt lat="59.219298139466" lon="17.780028010063">
        <ele>8</ele>
        <time>2017-10-21T10:51:55Z</time>
      </trkpt>
      <trkpt lat="59.219206525299" lon="17.779977886301">
        <ele>7.6</ele>
        <time>2017-10-21T10:51:56Z</time>
      </trkpt>
      <trkpt lat="59.219026314449" lon="17.779871184714">
        <ele>7</ele>
        <time>2017-10-21T10:51:58Z</time>
      </trkpt>
      <trkpt lat="59.218848366712" lon="17.779761633281">
        <ele>6.4</ele>
        <time>2017-10-21T10:52:00Z</time>
      </trkpt>
      <trkpt lat="59.218672095355" lon="17.779662475404">
        <ele>6</ele>
        <time>2017-10-21T10:52:02Z</time>
      </trkpt>
      <trkpt lat="59.218585929423" lon="17.779612267823">
        <ele>5.8</ele>
        <time>2017-10-21T10:52:03Z</time>
      </trkpt>
      <trkpt lat="59.218501020776" lon="17.7795605515">
        <ele>5.8</ele>
        <time>2017-10-21T10:52:04Z</time>
      </trkpt>
      <trkpt lat="59.218333466595" lon="17.779458879053">
        <ele>5.6</ele>
        <time>2017-10-21T10:52:06Z</time>
      </trkpt>
      <trkpt lat="59.218168343165" lon="17.779356955149">
        <ele>5.4</ele>
        <time>2017-10-21T10:52:08Z</time>
      </trkpt>
      <trkpt lat="59.217999950794" lon="17.779263916059">
        <ele>5.6</ele>
        <time>2017-10-21T10:52:10Z</time>
      </trkpt>
      <trkpt lat="59.21783348626" lon="17.779166518381">
        <ele>5.6</ele>
        <time>2017-10-21T10:52:12Z</time>
      </trkpt>
      <trkpt lat="59.217668781925" lon="17.779065767943">
        <ele>5.6</ele>
        <time>2017-10-21T10:52:14Z</time>
      </trkpt>
      <trkpt lat="59.217505418694" lon="17.778962419116">
        <ele>6</ele>
        <time>2017-10-21T10:52:16Z</time>
      </trkpt>
      <trkpt lat="59.217342474558" lon="17.778858064461">
        <ele>6.4</ele>
        <time>2017-10-21T10:52:18Z</time>
      </trkpt>
      <trkpt lat="59.217182464087" lon="17.778744489716">
        <ele>6.4</ele>
        <time>2017-10-21T10:52:20Z</time>
      </trkpt>
      <trkpt lat="59.217024381453" lon="17.778628651858">
        <ele>6.4</ele>
        <time>2017-10-21T10:52:22Z</time>
      </trkpt>
      <trkpt lat="59.21687962604" lon="17.778471994147">
        <ele>6.4</ele>
        <time>2017-10-21T10:52:24Z</time>
      </trkpt>
      <trkpt lat="59.216738726301" lon="17.778308630916">
        <ele>6.6</ele>
        <time>2017-10-21T10:52:26Z</time>
      </trkpt>
      <trkpt lat="59.216603610073" lon="17.778129090618">
        <ele>6.6</ele>
        <time>2017-10-21T10:52:28Z</time>
      </trkpt>
      <trkpt lat="59.216474277356" lon="17.777946281379">
        <ele>6.6</ele>
        <time>2017-10-21T10:52:30Z</time>
      </trkpt>
      <trkpt lat="59.216352823625" lon="17.777763807416">
        <ele>6.6</ele>
        <time>2017-10-21T10:52:32Z</time>
      </trkpt>
      <trkpt lat="59.216237404862" lon="17.777576639589">
        <ele>6.6</ele>
        <time>2017-10-21T10:52:34Z</time>
      </trkpt>
      <trkpt lat="59.216125674135" lon="17.777380000215">
        <ele>6.6</ele>
        <time>2017-10-21T10:52:36Z</time>
      </trkpt>
      <trkpt lat="59.216019810738" lon="17.777167938145">
        <ele>6.6</ele>
        <time>2017-10-21T10:52:38Z</time>
      </trkpt>
      <trkpt lat="59.215918305929" lon="17.776945901614">
        <ele>6.8</ele>
        <time>2017-10-21T10:52:40Z</time>
      </trkpt>
      <trkpt lat="59.215817304034" lon="17.776717159563">
        <ele>7.2</ele>
        <time>2017-10-21T10:52:42Z</time>
      </trkpt>
      <trkpt lat="59.215715966863" lon="17.776486322037">
        <ele>7.4</ele>
        <time>2017-10-21T10:52:44Z</time>
      </trkpt>
      <trkpt lat="59.215613372407" lon="17.776246599697">
        <ele>7.6</ele>
        <time>2017-10-21T10:52:46Z</time>
      </trkpt>
      <trkpt lat="59.215509939761" lon="17.775996651439">
        <ele>7.6</ele>
        <time>2017-10-21T10:52:48Z</time>
      </trkpt>
      <trkpt lat="59.215410949522" lon="17.775741171127">
        <ele>7.6</ele>
        <time>2017-10-21T10:52:50Z</time>
      </trkpt>
      <trkpt lat="59.215319083898" lon="17.775476722182">
        <ele>7.8</ele>
        <time>2017-10-21T10:52:52Z</time>
      </trkpt>
      <trkpt lat="59.215239958762" lon="17.775191318487">
        <ele>7.8</ele>
        <time>2017-10-21T10:52:54Z</time>
      </trkpt>
      <trkpt lat="59.215177597426" lon="17.774891665562">
        <ele>8</ele>
        <time>2017-10-21T10:52:56Z</time>
      </trkpt>
      <trkpt lat="59.215130407329" lon="17.77458589385">
        <ele>8.2</ele>
        <time>2017-10-21T10:52:58Z</time>
      </trkpt>
      <trkpt lat="59.215095538625" lon="17.774275595912">
        <ele>8.2</ele>
        <time>2017-10-21T10:53:00Z</time>
      </trkpt>
      <trkpt lat="59.21506662107" lon="17.773963286318">
        <ele>8</ele>
        <time>2017-10-21T10:53:02Z</time>
      </trkpt>
      <trkpt lat="59.2150473427" lon="17.773644522661">
        <ele>8</ele>
        <time>2017-10-21T10:53:04Z</time>
      </trkpt>
      <trkpt lat="59.215041559189" lon="17.773319472579">
        <ele>8.2</ele>
        <time>2017-10-21T10:53:06Z</time>
      </trkpt>
      <trkpt lat="59.215057149523" lon="17.772995260687">
        <ele>8.4</ele>
        <time>2017-10-21T10:53:08Z</time>
      </trkpt>
      <trkpt lat="59.21509009039" lon="17.772678592505">
        <ele>8.4</ele>
        <time>2017-10-21T10:53:10Z</time>
      </trkpt>
      <trkpt lat="59.215136442297" lon="17.772376089734">
        <ele>8.6</ele>
        <time>2017-10-21T10:53:12Z</time>
      </trkpt>
      <trkpt lat="59.215189080629" lon="17.772089177297">
        <ele>8.6</ele>
        <time>2017-10-21T10:53:14Z</time>
      </trkpt>
      <trkpt lat="59.215253621259" lon="17.771824476895">
        <ele>8.8</ele>
        <time>2017-10-21T10:53:16Z</time>
      </trkpt>
      <trkpt lat="59.215320089726" lon="17.77157427718">
        <ele>8.8</ele>
        <time>2017-10-21T10:53:18Z</time>
      </trkpt>
      <trkpt lat="59.215390413867" lon="17.771340170713">
        <ele>8.8</ele>
        <time>2017-10-21T10:53:20Z</time>
      </trkpt>
      <trkpt lat="59.215464677501" lon="17.771120732571">
        <ele>9.4</ele>
        <time>2017-10-21T10:53:22Z</time>
      </trkpt>
      <trkpt lat="59.215537348574" lon="17.770908419044">
        <ele>10</ele>
        <time>2017-10-21T10:53:24Z</time>
      </trkpt>
      <trkpt lat="59.21557456421" lon="17.770804986398">
        <ele>10.6</ele>
        <time>2017-10-21T10:53:25Z</time>
      </trkpt>
      <trkpt lat="59.215612534217" lon="17.770702391942">
        <ele>10.8</ele>
        <time>2017-10-21T10:53:26Z</time>
      </trkpt>
      <trkpt lat="59.215688809507" lon="17.770498125039">
        <ele>11.4</ele>
        <time>2017-10-21T10:53:28Z</time>
      </trkpt>
      <trkpt lat="59.215726528057" lon="17.770395027669">
        <ele>11.6</ele>
        <time>2017-10-21T10:53:29Z</time>
      </trkpt>
      <trkpt lat="59.215765336254" lon="17.770292768489">
        <ele>11.8</ele>
        <time>2017-10-21T10:53:30Z</time>
      </trkpt>
      <trkpt lat="59.215845634856" lon="17.770090513242">
        <ele>12.4</ele>
        <time>2017-10-21T10:53:32Z</time>
      </trkpt>
      <trkpt lat="59.215886454709" lon="17.769988840795">
        <ele>12.6</ele>
        <time>2017-10-21T10:53:33Z</time>
      </trkpt>
      <trkpt lat="59.2159274422" lon="17.769886497796">
        <ele>13</ele>
        <time>2017-10-21T10:53:34Z</time>
      </trkpt>
      <trkpt lat="59.216009417182" lon="17.7696782914">
        <ele>13</ele>
        <time>2017-10-21T10:53:36Z</time>
      </trkpt>
      <trkpt lat="59.216088961413" lon="17.769463211846">
        <ele>13.2</ele>
        <time>2017-10-21T10:53:38Z</time>
      </trkpt>
      <trkpt lat="59.216166661626" lon="17.769240085668">
        <ele>13.2</ele>
        <time>2017-10-21T10:53:40Z</time>
      </trkpt>
      <trkpt lat="59.216242014907" lon="17.769007655581">
        <ele>13.2</ele>
        <time>2017-10-21T10:53:42Z</time>
      </trkpt>
      <trkpt lat="59.216314602161" lon="17.768769777259">
        <ele>13</ele>
        <time>2017-10-21T10:53:44Z</time>
      </trkpt>
      <trkpt lat="59.216383836655" lon="17.768525528693">
        <ele>13</ele>
        <time>2017-10-21T10:53:46Z</time>
      </trkpt>
      <trkpt lat="59.216451646226" lon="17.768277005358">
        <ele>13</ele>
        <time>2017-10-21T10:53:48Z</time>
      </trkpt>
      <trkpt lat="59.216517192684" lon="17.768024626349">
        <ele>13</ele>
        <time>2017-10-21T10:53:50Z</time>
      </trkpt>
      <trkpt lat="59.216582236228" lon="17.767774091358">
        <ele>13</ele>
        <time>2017-10-21T10:53:52Z</time>
      </trkpt>
      <trkpt lat="59.216643507917" lon="17.767519281598">
        <ele>13</ele>
        <time>2017-10-21T10:53:54Z</time>
      </trkpt>
      <trkpt lat="59.216701426846" lon="17.76726095144">
        <ele>13</ele>
        <time>2017-10-21T10:53:56Z</time>
      </trkpt>
      <trkpt lat="59.216755490101" lon="17.767001699273">
        <ele>13.2</ele>
        <time>2017-10-21T10:53:58Z</time>
      </trkpt>
      <trkpt lat="59.216803183112" lon="17.766741944192">
        <ele>13.2</ele>
        <time>2017-10-21T10:54:00Z</time>
      </trkpt>
      <trkpt lat="59.216842829499" lon="17.76648143474">
        <ele>13.4</ele>
        <time>2017-10-21T10:54:02Z</time>
      </trkpt>
      <trkpt lat="59.216877279108" lon="17.766224529505">
        <ele>13.4</ele>
        <time>2017-10-21T10:54:04Z</time>
      </trkpt>
      <trkpt lat="59.216910722889" lon="17.765970809392">
        <ele>13.6</ele>
        <time>2017-10-21T10:54:06Z</time>
      </trkpt>
      <trkpt lat="59.216940730091" lon="17.765721364048">
        <ele>13.8</ele>
        <time>2017-10-21T10:54:08Z</time>
      </trkpt>
      <trkpt lat="59.216970569655" lon="17.765479378595">
        <ele>14.2</ele>
        <time>2017-10-21T10:54:10Z</time>
      </trkpt>
      <trkpt lat="59.216998146106" lon="17.76524594268">
        <ele>14.6</ele>
        <time>2017-10-21T10:54:12Z</time>
      </trkpt>
      <trkpt lat="59.217027315118" lon="17.765013596412">
        <ele>15.2</ele>
        <time>2017-10-21T10:54:14Z</time>
      </trkpt>
      <trkpt lat="59.217054472474" lon="17.764775298995">
        <ele>16</ele>
        <time>2017-10-21T10:54:16Z</time>
      </trkpt>
      <trkpt lat="59.217085653142" lon="17.764535660474">
        <ele>16.4</ele>
        <time>2017-10-21T10:54:18Z</time>
      </trkpt>
      <trkpt lat="59.217113061955" lon="17.764304487672">
        <ele>16.8</ele>
        <time>2017-10-21T10:54:20Z</time>
      </trkpt>
      <trkpt lat="59.217142398605" lon="17.76407331487">
        <ele>17.2</ele>
        <time>2017-10-21T10:54:22Z</time>
      </trkpt>
      <trkpt lat="59.217158910948" lon="17.763957560831">
        <ele>17.4</ele>
        <time>2017-10-21T10:54:23Z</time>
      </trkpt>
      <trkpt lat="59.217175339472" lon="17.763840549507">
        <ele>17.6</ele>
        <time>2017-10-21T10:54:24Z</time>
      </trkpt>
      <trkpt lat="59.217209118529" lon="17.763604012289">
        <ele>18.2</ele>
        <time>2017-10-21T10:54:26Z</time>
      </trkpt>
      <trkpt lat="59.217244322509" lon="17.763364792863">
        <ele>18.6</ele>
        <time>2017-10-21T10:54:28Z</time>
      </trkpt>
      <trkpt lat="59.217282627792" lon="17.763122975048">
        <ele>19</ele>
        <time>2017-10-21T10:54:30Z</time>
      </trkpt>
      <trkpt lat="59.217322777093" lon="17.762879648491">
        <ele>19.2</ele>
        <time>2017-10-21T10:54:32Z</time>
      </trkpt>
      <trkpt lat="59.217369212819" lon="17.762639255599">
        <ele>19.6</ele>
        <time>2017-10-21T10:54:34Z</time>
      </trkpt>
      <trkpt lat="59.217394190881" lon="17.762517885687">
        <ele>19.6</ele>
        <time>2017-10-21T10:54:35Z</time>
      </trkpt>
      <trkpt lat="59.217419923314" lon="17.76239693487">
        <ele>19.8</ele>
        <time>2017-10-21T10:54:36Z</time>
      </trkpt>
      <trkpt lat="59.2174780937" lon="17.762158637453">
        <ele>19.8</ele>
        <time>2017-10-21T10:54:38Z</time>
      </trkpt>
      <trkpt lat="59.217541041769" lon="17.761926123547">
        <ele>20</ele>
        <time>2017-10-21T10:54:40Z</time>
      </trkpt>
      <trkpt lat="59.217607845512" lon="17.761696962401">
        <ele>20.2</ele>
        <time>2017-10-21T10:54:42Z</time>
      </trkpt>
      <trkpt lat="59.217659897111" lon="17.761459167898">
        <ele>20.8</ele>
        <time>2017-10-21T10:54:44Z</time>
      </trkpt>
      <trkpt lat="59.217684120802" lon="17.761210225468">
        <ele>21</ele>
        <time>2017-10-21T10:54:46Z</time>
      </trkpt>
      <trkpt lat="59.217655873799" lon="17.760962540323">
        <ele>21.2</ele>
        <time>2017-10-21T10:54:48Z</time>
      </trkpt>
      <trkpt lat="59.217574904645" lon="17.760763637836">
        <ele>21.4</ele>
        <time>2017-10-21T10:54:50Z</time>
      </trkpt>
      <trkpt lat="59.217465185574" lon="17.760621816088">
        <ele>21.4</ele>
        <time>2017-10-21T10:54:52Z</time>
      </trkpt>
      <trkpt lat="59.217354293037" lon="17.760496003769">
        <ele>21.6</ele>
        <time>2017-10-21T10:54:54Z</time>
      </trkpt>
      <trkpt lat="59.217242729948" lon="17.760374885314">
        <ele>21.8</ele>
        <time>2017-10-21T10:54:56Z</time>
      </trkpt>
      <trkpt lat="59.217132507963" lon="17.760249072995">
        <ele>21.8</ele>
        <time>2017-10-21T10:54:58Z</time>
      </trkpt>
      <trkpt lat="59.217021783064" lon="17.760125356151">
        <ele>22</ele>
        <time>2017-10-21T10:55:00Z</time>
      </trkpt>
      <trkpt lat="59.216909884699" lon="17.760007925732">
        <ele>22.2</ele>
        <time>2017-10-21T10:55:02Z</time>
      </trkpt>
      <trkpt lat="59.216800417085" lon="17.759887058734">
        <ele>22.6</ele>
        <time>2017-10-21T10:55:04Z</time>
      </trkpt>
      <trkpt lat="59.216692374394" lon="17.759764012442">
        <ele>22.8</ele>
        <time>2017-10-21T10:55:06Z</time>
      </trkpt>
      <trkpt lat="59.216583912608" lon="17.759645073281">
        <ele>23.2</ele>
        <time>2017-10-21T10:55:08Z</time>
      </trkpt>
      <trkpt lat="59.216473020071" lon="17.759526050301">
        <ele>23.8</ele>
        <time>2017-10-21T10:55:10Z</time>
      </trkpt>
      <trkpt lat="59.216417280436" lon="17.759466371173">
        <ele>24</ele>
        <time>2017-10-21T10:55:11Z</time>
      </trkpt>
      <trkpt lat="59.216361289344" lon="17.759407697873">
        <ele>24.4</ele>
        <time>2017-10-21T10:55:12Z</time>
      </trkpt>
      <trkpt lat="59.216249558617" lon="17.759288842531">
        <ele>24.8</ele>
        <time>2017-10-21T10:55:14Z</time>
      </trkpt>
      <trkpt lat="59.216137324976" lon="17.759166047696">
        <ele>25</ele>
        <time>2017-10-21T10:55:16Z</time>
      </trkpt>
      <trkpt lat="59.216021822394" lon="17.759044929241">
        <ele>25.2</ele>
        <time>2017-10-21T10:55:18Z</time>
      </trkpt>
      <trkpt lat="59.215907241821" lon="17.758915847981">
        <ele>25.2</ele>
        <time>2017-10-21T10:55:20Z</time>
      </trkpt>
      <trkpt lat="59.215791487782" lon="17.758787018178">
        <ele>25.2</ele>
        <time>2017-10-21T10:55:22Z</time>
      </trkpt>
      <trkpt lat="59.215674644096" lon="17.758659194203">
        <ele>25.4</ele>
        <time>2017-10-21T10:55:24Z</time>
      </trkpt>
      <trkpt lat="59.215560231161" lon="17.758523575061">
        <ele>25.4</ele>
        <time>2017-10-21T10:55:26Z</time>
      </trkpt>
      <trkpt lat="59.215445147674" lon="17.758388961747">
        <ele>25.2</ele>
        <time>2017-10-21T10:55:28Z</time>
      </trkpt>
      <trkpt lat="59.215328303988" lon="17.758259964306">
        <ele>25</ele>
        <time>2017-10-21T10:55:30Z</time>
      </trkpt>
      <trkpt lat="59.215210873569" lon="17.758132307969">
        <ele>25</ele>
        <time>2017-10-21T10:55:32Z</time>
      </trkpt>
      <trkpt lat="59.215093778426" lon="17.758004735451">
        <ele>25</ele>
        <time>2017-10-21T10:55:34Z</time>
      </trkpt>
      <trkpt lat="59.214977270016" lon="17.757877917304">
        <ele>25</ele>
        <time>2017-10-21T10:55:36Z</time>
      </trkpt>
      <trkpt lat="59.214862689443" lon="17.757751602071">
        <ele>25</ele>
        <time>2017-10-21T10:55:38Z</time>
      </trkpt>
      <trkpt lat="59.214750958716" lon="17.757628723417">
        <ele>25</ele>
        <time>2017-10-21T10:55:40Z</time>
      </trkpt>
      <trkpt lat="59.21463998236" lon="17.757515400129">
        <ele>25</ele>
        <time>2017-10-21T10:55:42Z</time>
      </trkpt>
      <trkpt lat="59.214530766203" lon="17.757404842868">
        <ele>25.2</ele>
        <time>2017-10-21T10:55:44Z</time>
      </trkpt>
      <trkpt lat="59.214423980797" lon="17.7572898432">
        <ele>25.4</ele>
        <time>2017-10-21T10:55:46Z</time>
      </trkpt>
      <trkpt lat="59.214316105744" lon="17.757181046138">
        <ele>25.6</ele>
        <time>2017-10-21T10:55:48Z</time>
      </trkpt>
      <trkpt lat="59.214206721949" lon="17.757079038415">
        <ele>26.2</ele>
        <time>2017-10-21T10:55:50Z</time>
      </trkpt>
      <trkpt lat="59.21409683524" lon="17.756979629081">
        <ele>26.8</ele>
        <time>2017-10-21T10:55:52Z</time>
      </trkpt>
      <trkpt lat="59.213985523608" lon="17.756882566679">
        <ele>27.4</ele>
        <time>2017-10-21T10:55:54Z</time>
      </trkpt>
      <trkpt lat="59.21387220032" lon="17.756788521761">
        <ele>28</ele>
        <time>2017-10-21T10:55:56Z</time>
      </trkpt>
      <trkpt lat="59.213756111005" lon="17.756693973929">
        <ele>28.6</ele>
        <time>2017-10-21T10:55:58Z</time>
      </trkpt>
      <trkpt lat="59.213638932043" lon="17.756590457464">
        <ele>28.8</ele>
        <time>2017-10-21T10:56:00Z</time>
      </trkpt>
      <trkpt lat="59.213518567959" lon="17.756485432257">
        <ele>28.8</ele>
        <time>2017-10-21T10:56:02Z</time>
      </trkpt>
      <trkpt lat="59.213395773124" lon="17.756384011267">
        <ele>28.8</ele>
        <time>2017-10-21T10:56:04Z</time>
      </trkpt>
      <trkpt lat="59.213272810651" lon="17.756276974404">
        <ele>28.8</ele>
        <time>2017-10-21T10:56:06Z</time>
      </trkpt>
      <trkpt lat="59.213150099635" lon="17.756173709396">
        <ele>28.8</ele>
        <time>2017-10-21T10:56:08Z</time>
      </trkpt>
      <trkpt lat="59.213026969524" lon="17.756068348913">
        <ele>28.8</ele>
        <time>2017-10-21T10:56:10Z</time>
      </trkpt>
      <trkpt lat="59.212896211884" lon="17.755962317878">
        <ele>28.4</ele>
        <time>2017-10-21T10:56:12Z</time>
      </trkpt>
      <trkpt lat="59.212758161991" lon="17.755849162228">
        <ele>28.4</ele>
        <time>2017-10-21T10:56:14Z</time>
      </trkpt>
      <trkpt lat="59.21261323894" lon="17.755734330198">
        <ele>28.2</ele>
        <time>2017-10-21T10:56:16Z</time>
      </trkpt>
      <trkpt lat="59.212460604541" lon="17.755611451544">
        <ele>28</ele>
        <time>2017-10-21T10:56:18Z</time>
      </trkpt>
      <trkpt lat="59.21230897597" lon="17.755447836856">
        <ele>27.8</ele>
        <time>2017-10-21T10:56:20Z</time>
      </trkpt>
      <trkpt lat="59.212236723992" lon="17.755343649839">
        <ele>27.6</ele>
        <time>2017-10-21T10:56:21Z</time>
      </trkpt>
      <trkpt lat="59.212156341571" lon="17.755261926314">
        <ele>27</ele>
        <time>2017-10-21T10:56:22Z</time>
      </trkpt>
      <trkpt lat="59.211989457942" lon="17.755106190612">
        <ele>26.6</ele>
        <time>2017-10-21T10:56:24Z</time>
      </trkpt>
      <trkpt lat="59.211823496322" lon="17.75495296948">
        <ele>26.2</ele>
        <time>2017-10-21T10:56:26Z</time>
      </trkpt>
      <trkpt lat="59.211661222738" lon="17.75479538976">
        <ele>25.6</ele>
        <time>2017-10-21T10:56:28Z</time>
      </trkpt>
      <trkpt lat="59.211579499213" lon="17.754720455574">
        <ele>25</ele>
        <time>2017-10-21T10:56:29Z</time>
      </trkpt>
      <trkpt lat="59.211499954982" lon="17.754639151144">
        <ele>24.4</ele>
        <time>2017-10-21T10:56:30Z</time>
      </trkpt>
      <trkpt lat="59.211420243113" lon="17.75455985837">
        <ele>23.8</ele>
        <time>2017-10-21T10:56:31Z</time>
      </trkpt>
      <trkpt lat="59.211343967823" lon="17.754472267515">
        <ele>23.4</ele>
        <time>2017-10-21T10:56:32Z</time>
      </trkpt>
      <trkpt lat="59.211193428899" lon="17.754292140484">
        <ele>23</ele>
        <time>2017-10-21T10:56:34Z</time>
      </trkpt>
      <trkpt lat="59.211045572183" lon="17.754111342901">
        <ele>22.8</ele>
        <time>2017-10-21T10:56:36Z</time>
      </trkpt>
      <trkpt lat="59.210972733472" lon="17.754018303811">
        <ele>22.6</ele>
        <time>2017-10-21T10:56:37Z</time>
      </trkpt>
      <trkpt lat="59.210899810942" lon="17.753921911961">
        <ele>22.6</ele>
        <time>2017-10-21T10:56:38Z</time>
      </trkpt>
      <trkpt lat="59.210746505991" lon="17.753743964224">
        <ele>22.2</ele>
        <time>2017-10-21T10:56:40Z</time>
      </trkpt>
      <trkpt lat="59.210589093909" lon="17.753567022315">
        <ele>22</ele>
        <time>2017-10-21T10:56:42Z</time>
      </trkpt>
      <trkpt lat="59.210433274388" lon="17.753376417909">
        <ele>21.8</ele>
        <time>2017-10-21T10:56:44Z</time>
      </trkpt>
      <trkpt lat="59.210276532858" lon="17.753190842643">
        <ele>21.6</ele>
        <time>2017-10-21T10:56:46Z</time>
      </trkpt>
      <trkpt lat="59.210202353043" lon="17.753103754702">
        <ele>21.6</ele>
        <time>2017-10-21T10:56:47Z</time>
      </trkpt>
      <trkpt lat="59.210135884576" lon="17.753021612082">
        <ele>21.6</ele>
        <time>2017-10-21T10:56:48Z</time>
      </trkpt>
      <trkpt lat="59.210028428618" lon="17.752883813646">
        <ele>21.2</ele>
        <time>2017-10-21T10:56:50Z</time>
      </trkpt>
      <trkpt lat="59.209949554939" lon="17.752788846719">
        <ele>20.8</ele>
        <time>2017-10-21T10:56:52Z</time>
      </trkpt>
      <trkpt lat="59.209914434778" lon="17.75274769159">
        <ele>20.8</ele>
        <time>2017-10-21T10:56:53Z</time>
      </trkpt>
      <trkpt lat="59.209872441459" lon="17.752722713528">
        <ele>20.6</ele>
        <time>2017-10-21T10:56:54Z</time>
      </trkpt>
      <trkpt lat="59.209785437337" lon="17.752791696565">
        <ele>20.4</ele>
        <time>2017-10-21T10:56:56Z</time>
      </trkpt>
      <trkpt lat="59.209700947785" lon="17.752961010945">
        <ele>20.2</ele>
        <time>2017-10-21T10:56:58Z</time>
      </trkpt>
      <trkpt lat="59.209653925326" lon="17.75304776361">
        <ele>20</ele>
        <time>2017-10-21T10:56:59Z</time>
      </trkpt>
      <trkpt lat="59.209602711917" lon="17.753135941198">
        <ele>20</ele>
        <time>2017-10-21T10:57:00Z</time>
      </trkpt>
      <trkpt lat="59.209545212083" lon="17.753218586732">
        <ele>19.8</ele>
        <time>2017-10-21T10:57:01Z</time>
      </trkpt>
      <trkpt lat="59.209482683109" lon="17.753288156502">
        <ele>19.6</ele>
        <time>2017-10-21T10:57:02Z</time>
      </trkpt>
      <trkpt lat="59.209353098935" lon="17.753388404026">
        <ele>19.6</ele>
        <time>2017-10-21T10:57:04Z</time>
      </trkpt>
      <trkpt lat="59.209220581096" lon="17.753454788674">
        <ele>19.6</ele>
        <time>2017-10-21T10:57:06Z</time>
      </trkpt>
      <trkpt lat="59.209151765697" lon="17.753474821415">
        <ele>19.4</ele>
        <time>2017-10-21T10:57:07Z</time>
      </trkpt>
      <trkpt lat="59.209082028289" lon="17.753489657378">
        <ele>19.4</ele>
        <time>2017-10-21T10:57:08Z</time>
      </trkpt>
      <trkpt lat="59.208938530161" lon="17.753517904381">
        <ele>19.2</ele>
        <time>2017-10-21T10:57:10Z</time>
      </trkpt>
      <trkpt lat="59.20879109254" lon="17.753548582135">
        <ele>19</ele>
        <time>2017-10-21T10:57:12Z</time>
      </trkpt>
      <trkpt lat="59.208639547788" lon="17.753582025916">
        <ele>18.8</ele>
        <time>2017-10-21T10:57:14Z</time>
      </trkpt>
      <trkpt lat="59.208486745751" lon="17.753635670076">
        <ele>18.8</ele>
        <time>2017-10-21T10:57:16Z</time>
      </trkpt>
      <trkpt lat="59.208336877379" lon="17.753700965077">
        <ele>18.8</ele>
        <time>2017-10-21T10:57:18Z</time>
      </trkpt>
      <trkpt lat="59.208191116138" lon="17.753771792132">
        <ele>18.8</ele>
        <time>2017-10-21T10:57:20Z</time>
      </trkpt>
      <trkpt lat="59.208051725141" lon="17.753844379386">
        <ele>18.8</ele>
        <time>2017-10-21T10:57:22Z</time>
      </trkpt>
      <trkpt lat="59.207918872026" lon="17.75391780483">
        <ele>18.8</ele>
        <time>2017-10-21T10:57:24Z</time>
      </trkpt>
      <trkpt lat="59.207795993372" lon="17.753979998528">
        <ele>18.8</ele>
        <time>2017-10-21T10:57:26Z</time>
      </trkpt>
      <trkpt lat="59.207681496618" lon="17.754029032643">
        <ele>19</ele>
        <time>2017-10-21T10:57:28Z</time>
      </trkpt>
      <trkpt lat="59.207571945185" lon="17.754085023735">
        <ele>19.4</ele>
        <time>2017-10-21T10:57:30Z</time>
      </trkpt>
      <trkpt lat="59.207467171435" lon="17.754143697035">
        <ele>20</ele>
        <time>2017-10-21T10:57:32Z</time>
      </trkpt>
      <trkpt lat="59.20741478456" lon="17.754167417812">
        <ele>20.6</ele>
        <time>2017-10-21T10:57:33Z</time>
      </trkpt>
      <trkpt lat="59.207362481504" lon="17.754198095566">
        <ele>21</ele>
        <time>2017-10-21T10:57:34Z</time>
      </trkpt>
      <trkpt lat="59.207261814885" lon="17.754265402223">
        <ele>22</ele>
        <time>2017-10-21T10:57:36Z</time>
      </trkpt>
      <trkpt lat="59.20716416575" lon="17.754325416627">
        <ele>23</ele>
        <time>2017-10-21T10:57:38Z</time>
      </trkpt>
      <trkpt lat="59.20706609752" lon="17.754387107411">
        <ele>24.2</ele>
        <time>2017-10-21T10:57:40Z</time>
      </trkpt>
      <trkpt lat="59.206977584656" lon="17.754444607245">
        <ele>25.2</ele>
        <time>2017-10-21T10:57:42Z</time>
      </trkpt>
      <trkpt lat="59.206937351536" lon="17.754468830936">
        <ele>25.4</ele>
        <time>2017-10-21T10:57:43Z</time>
      </trkpt>
      <trkpt lat="59.206894017113" lon="17.754492384075">
        <ele>25.8</ele>
        <time>2017-10-21T10:57:44Z</time>
      </trkpt>
      <trkpt lat="59.206803827869" lon="17.754540915276">
        <ele>26.6</ele>
        <time>2017-10-21T10:57:46Z</time>
      </trkpt>
      <trkpt lat="59.206715817919" lon="17.754593721246">
        <ele>27.6</ele>
        <time>2017-10-21T10:57:48Z</time>
      </trkpt>
      <trkpt lat="59.206672902591" lon="17.754624399">
        <ele>27.8</ele>
        <time>2017-10-21T10:57:49Z</time>
      </trkpt>
      <trkpt lat="59.206631160729" lon="17.754659016247">
        <ele>28</ele>
        <time>2017-10-21T10:57:50Z</time>
      </trkpt>
      <trkpt lat="59.206548682833" lon="17.754717773366">
        <ele>28.4</ele>
        <time>2017-10-21T10:57:52Z</time>
      </trkpt>
      <trkpt lat="59.206460253788" lon="17.754760772513">
        <ele>28.6</ele>
        <time>2017-10-21T10:57:54Z</time>
      </trkpt>
      <trkpt lat="59.206375345141" lon="17.754805867135">
        <ele>28.8</ele>
        <time>2017-10-21T10:57:56Z</time>
      </trkpt>
      <trkpt lat="59.206296220005" lon="17.754858840743">
        <ele>29.4</ele>
        <time>2017-10-21T10:57:58Z</time>
      </trkpt>
      <trkpt lat="59.206212317186" lon="17.754915083292">
        <ele>30.2</ele>
        <time>2017-10-21T10:58:00Z</time>
      </trkpt>
      <trkpt lat="59.206132940593" lon="17.754977863723">
        <ele>30.8</ele>
        <time>2017-10-21T10:58:02Z</time>
      </trkpt>
      <trkpt lat="59.206048199584" lon="17.755027149295">
        <ele>31.2</ele>
        <time>2017-10-21T10:58:04Z</time>
      </trkpt>
      <trkpt lat="59.206001931496" lon="17.755046343846">
        <ele>31.4</ele>
        <time>2017-10-21T10:58:05Z</time>
      </trkpt>
      <trkpt lat="59.205954406123" lon="17.755068220605">
        <ele>31.6</ele>
        <time>2017-10-21T10:58:06Z</time>
      </trkpt>
      <trkpt lat="59.205858433368" lon="17.755119434014">
        <ele>32.2</ele>
        <time>2017-10-21T10:58:08Z</time>
      </trkpt>
      <trkpt lat="59.205756760921" lon="17.755172072346">
        <ele>32.8</ele>
        <time>2017-10-21T10:58:10Z</time>
      </trkpt>
      <trkpt lat="59.205659866157" lon="17.755206689593">
        <ele>33.4</ele>
        <time>2017-10-21T10:58:12Z</time>
      </trkpt>
      <trkpt lat="59.205565569782" lon="17.75524549779">
        <ele>33.6</ele>
        <time>2017-10-21T10:58:14Z</time>
      </trkpt>
      <trkpt lat="59.205520391341" lon="17.755272990422">
        <ele>34</ele>
        <time>2017-10-21T10:58:15Z</time>
      </trkpt>
      <trkpt lat="59.205476218728" lon="17.755296208285">
        <ele>34.2</ele>
        <time>2017-10-21T10:58:16Z</time>
      </trkpt>
      <trkpt lat="59.205385191294" lon="17.755356725603">
        <ele>34.6</ele>
        <time>2017-10-21T10:58:18Z</time>
      </trkpt>
      <trkpt lat="59.205292655118" lon="17.75540978303">
        <ele>35.4</ele>
        <time>2017-10-21T10:58:20Z</time>
      </trkpt>
      <trkpt lat="59.205199532209" lon="17.755479017524">
        <ele>35.8</ele>
        <time>2017-10-21T10:58:22Z</time>
      </trkpt>
      <trkpt lat="59.205104565282" lon="17.75554054067">
        <ele>36.2</ele>
        <time>2017-10-21T10:58:24Z</time>
      </trkpt>
      <trkpt lat="59.205056285538" lon="17.755538612833">
        <ele>36.4</ele>
        <time>2017-10-21T10:58:25Z</time>
      </trkpt>
      <trkpt lat="59.205010185088" lon="17.755510533468">
        <ele>36.6</ele>
        <time>2017-10-21T10:58:26Z</time>
      </trkpt>
      <trkpt lat="59.204939358033" lon="17.75538966647">
        <ele>37.4</ele>
        <time>2017-10-21T10:58:28Z</time>
      </trkpt>
      <trkpt lat="59.204924019156" lon="17.755306015108">
        <ele>37.6</ele>
        <time>2017-10-21T10:58:29Z</time>
      </trkpt>
      <trkpt lat="59.204914547609" lon="17.755219010986">
        <ele>37.8</ele>
        <time>2017-10-21T10:58:30Z</time>
      </trkpt>
      <trkpt lat="59.204902477673" lon="17.755042069077">
        <ele>38.4</ele>
        <time>2017-10-21T10:58:32Z</time>
      </trkpt>
      <trkpt lat="59.204900801293" lon="17.754868396109">
        <ele>38.6</ele>
        <time>2017-10-21T10:58:34Z</time>
      </trkpt>
      <trkpt lat="59.204907087718" lon="17.754696399521">
        <ele>39.2</ele>
        <time>2017-10-21T10:58:36Z</time>
      </trkpt>
      <trkpt lat="59.204913038867" lon="17.7545238162">
        <ele>39.6</ele>
        <time>2017-10-21T10:58:38Z</time>
      </trkpt>
      <trkpt lat="59.20491697836" lon="17.754440583933">
        <ele>39.8</ele>
        <time>2017-10-21T10:58:39Z</time>
      </trkpt>
      <trkpt lat="59.204917062179" lon="17.754358357494">
        <ele>40</ele>
        <time>2017-10-21T10:58:40Z</time>
      </trkpt>
      <trkpt lat="59.204912955048" lon="17.75420111305">
        <ele>40.6</ele>
        <time>2017-10-21T10:58:42Z</time>
      </trkpt>
      <trkpt lat="59.204907255356" lon="17.754127939063">
        <ele>40.8</ele>
        <time>2017-10-21T10:58:43Z</time>
      </trkpt>
      <trkpt lat="59.204890659194" lon="17.754057279646">
        <ele>41.2</ele>
        <time>2017-10-21T10:58:44Z</time>
      </trkpt>
      <trkpt lat="59.204864004752" lon="17.753998690165">
        <ele>41.4</ele>
        <time>2017-10-21T10:58:45Z</time>
      </trkpt>
      <trkpt lat="59.204830896247" lon="17.753960384882">
        <ele>41.6</ele>
        <time>2017-10-21T10:58:46Z</time>
      </trkpt>
    </trkseg>
  </trk>
</gpx>